<?xml version="1.0" encoding="UTF-8" ?>
<gpx xmlns="http://www.topografix.com/GPX/1/1" version="1.1" creator="osmtracker-android" xmlns:xsi="http://www.w3.org/2001/XMLSchema-instance" xsi:schemaLocation="http://www.topografix.com/GPX/1/1 http://www.topografix.com/GPX/1/1/gpx.xsd ">
	<trk>
		<name><![CDATA[Aufgezeichnet mit OSMTracker für Android™]]></name>
		<trkseg>
			<trkpt lat="50.87197727001363" lon="6.695002802526691">
				<ele>138.0</ele>
				<time>2011-02-16T15:53:55Z</time>
			</trkpt>
			<trkpt lat="50.87197727001363" lon="6.695002802526691">
				<ele>138.0</ele>
				<time>2011-02-16T15:53:56Z</time>
			</trkpt>
			<trkpt lat="50.8719302669342" lon="6.6950050150533205">
				<ele>133.0</ele>
				<time>2011-02-16T15:53:57Z</time>
			</trkpt>
			<trkpt lat="50.8719302669342" lon="6.6950050150533205">
				<ele>133.0</ele>
				<time>2011-02-16T15:53:58Z</time>
			</trkpt>
			<trkpt lat="50.8719302669342" lon="6.6950050150533205">
				<ele>133.0</ele>
				<time>2011-02-16T15:53:59Z</time>
			</trkpt>
			<trkpt lat="50.8719302669342" lon="6.6950050150533205">
				<ele>133.0</ele>
				<time>2011-02-16T15:54:00Z</time>
			</trkpt>
			<trkpt lat="50.8719302669342" lon="6.6950050150533205">
				<ele>133.0</ele>
				<time>2011-02-16T15:54:01Z</time>
			</trkpt>
			<trkpt lat="50.8719302669342" lon="6.6950050150533205">
				<ele>133.0</ele>
				<time>2011-02-16T15:54:02Z</time>
			</trkpt>
			<trkpt lat="50.8719302669342" lon="6.6950050150533205">
				<ele>133.0</ele>
				<time>2011-02-16T15:54:03Z</time>
			</trkpt>
			<trkpt lat="50.8719302669342" lon="6.6950050150533205">
				<ele>133.0</ele>
				<time>2011-02-16T15:54:04Z</time>
			</trkpt>
			<trkpt lat="50.8719302669342" lon="6.6950050150533205">
				<ele>133.0</ele>
				<time>2011-02-16T15:54:05Z</time>
			</trkpt>
			<trkpt lat="50.8719302669342" lon="6.6950050150533205">
				<ele>133.0</ele>
				<time>2011-02-16T15:54:06Z</time>
			</trkpt>
			<trkpt lat="50.8719302669342" lon="6.6950050150533205">
				<ele>133.0</ele>
				<time>2011-02-16T15:54:07Z</time>
			</trkpt>
			<trkpt lat="50.8719302669342" lon="6.6950050150533205">
				<ele>133.0</ele>
				<time>2011-02-16T15:54:08Z</time>
			</trkpt>
			<trkpt lat="50.8719302669342" lon="6.6950050150533205">
				<ele>133.0</ele>
				<time>2011-02-16T15:54:09Z</time>
			</trkpt>
			<trkpt lat="50.8719302669342" lon="6.6950050150533205">
				<ele>133.0</ele>
				<time>2011-02-16T15:54:10Z</time>
			</trkpt>
			<trkpt lat="50.8719302669342" lon="6.6950050150533205">
				<ele>133.0</ele>
				<time>2011-02-16T15:54:11Z</time>
			</trkpt>
			<trkpt lat="50.8719302669342" lon="6.6950050150533205">
				<ele>133.0</ele>
				<time>2011-02-16T15:54:12Z</time>
			</trkpt>
			<trkpt lat="50.87189414217722" lon="6.695032881016922">
				<ele>128.0</ele>
				<time>2011-02-16T15:54:13Z</time>
			</trkpt>
			<trkpt lat="50.87189573742608" lon="6.695040988792011">
				<ele>128.0</ele>
				<time>2011-02-16T15:54:14Z</time>
			</trkpt>
			<trkpt lat="50.87190765440311" lon="6.695070263583669">
				<ele>128.0</ele>
				<time>2011-02-16T15:54:15Z</time>
			</trkpt>
			<trkpt lat="50.871920248658114" lon="6.695088842642169">
				<ele>128.0</ele>
				<time>2011-02-16T15:54:16Z</time>
			</trkpt>
			<trkpt lat="50.87194228577958" lon="6.695094411639966">
				<ele>128.0</ele>
				<time>2011-02-16T15:54:17Z</time>
			</trkpt>
			<trkpt lat="50.871967096282205" lon="6.695086967648404">
				<ele>128.0</ele>
				<time>2011-02-16T15:54:18Z</time>
			</trkpt>
			<trkpt lat="50.87199532827059" lon="6.695070073700129">
				<ele>128.0</ele>
				<time>2011-02-16T15:54:19Z</time>
			</trkpt>
			<trkpt lat="50.872018634533816" lon="6.6950552852723">
				<ele>128.0</ele>
				<time>2011-02-16T15:54:20Z</time>
			</trkpt>
			<trkpt lat="50.87203902011811" lon="6.695045246788268">
				<ele>128.0</ele>
				<time>2011-02-16T15:54:21Z</time>
			</trkpt>
			<trkpt lat="50.872061487482725" lon="6.695046351082767">
				<ele>128.0</ele>
				<time>2011-02-16T15:54:22Z</time>
			</trkpt>
			<trkpt lat="50.87209030193937" lon="6.695059426456343">
				<ele>128.0</ele>
				<time>2011-02-16T15:54:23Z</time>
			</trkpt>
			<trkpt lat="50.87212304322455" lon="6.695092139296983">
				<ele>128.0</ele>
				<time>2011-02-16T15:54:24Z</time>
			</trkpt>
			<trkpt lat="50.87216042908537" lon="6.695151239159405">
				<ele>129.0</ele>
				<time>2011-02-16T15:54:25Z</time>
			</trkpt>
			<trkpt lat="50.872194104703716" lon="6.69522295380851">
				<ele>129.0</ele>
				<time>2011-02-16T15:54:26Z</time>
			</trkpt>
			<trkpt lat="50.8722197907955" lon="6.695312926585881">
				<ele>129.0</ele>
				<time>2011-02-16T15:54:27Z</time>
			</trkpt>
			<trkpt lat="50.87225151951386" lon="6.695415261061478">
				<ele>130.0</ele>
				<time>2011-02-16T15:54:28Z</time>
			</trkpt>
			<trkpt lat="50.87228671310072" lon="6.69552325453469">
				<ele>130.0</ele>
				<time>2011-02-16T15:54:29Z</time>
			</trkpt>
			<trkpt lat="50.87232436059802" lon="6.695635006333197">
				<ele>130.0</ele>
				<time>2011-02-16T15:54:30Z</time>
			</trkpt>
			<trkpt lat="50.87236358582287" lon="6.695748382261127">
				<ele>131.0</ele>
				<time>2011-02-16T15:54:31Z</time>
			</trkpt>
			<trkpt lat="50.87240477587534" lon="6.69585928442794">
				<ele>131.0</ele>
				<time>2011-02-16T15:54:32Z</time>
			</trkpt>
			<trkpt lat="50.87244668859456" lon="6.695970259702923">
				<ele>131.0</ele>
				<time>2011-02-16T15:54:33Z</time>
			</trkpt>
			<trkpt lat="50.872492100933336" lon="6.696086331543143">
				<ele>131.0</ele>
				<time>2011-02-16T15:54:34Z</time>
			</trkpt>
			<trkpt lat="50.872537749923254" lon="6.696203864100118">
				<ele>132.0</ele>
				<time>2011-02-16T15:54:35Z</time>
			</trkpt>
			<trkpt lat="50.872584266288186" lon="6.696326096971434">
				<ele>132.0</ele>
				<time>2011-02-16T15:54:36Z</time>
			</trkpt>
			<trkpt lat="50.872628850121586" lon="6.696451850718825">
				<ele>132.0</ele>
				<time>2011-02-16T15:54:37Z</time>
			</trkpt>
			<trkpt lat="50.87267373239817" lon="6.696578637991163">
				<ele>132.0</ele>
				<time>2011-02-16T15:54:38Z</time>
			</trkpt>
			<trkpt lat="50.872721156791805" lon="6.69671097866658">
				<ele>133.0</ele>
				<time>2011-02-16T15:54:39Z</time>
			</trkpt>
			<trkpt lat="50.872770412998264" lon="6.696847691160935">
				<ele>133.0</ele>
				<time>2011-02-16T15:54:40Z</time>
			</trkpt>
			<trkpt lat="50.872820565288016" lon="6.696987404527248">
				<ele>133.0</ele>
				<time>2011-02-16T15:54:41Z</time>
			</trkpt>
			<trkpt lat="50.872869961084085" lon="6.697131590207642">
				<ele>133.0</ele>
				<time>2011-02-16T15:54:42Z</time>
			</trkpt>
			<trkpt lat="50.87291623714667" lon="6.697275022794247">
				<ele>133.0</ele>
				<time>2011-02-16T15:54:43Z</time>
			</trkpt>
			<trkpt lat="50.872959715894865" lon="6.697411420336631">
				<ele>133.0</ele>
				<time>2011-02-16T15:54:44Z</time>
			</trkpt>
			<trkpt lat="50.872999979800476" lon="6.697534393893701">
				<ele>133.0</ele>
				<time>2011-02-16T15:54:45Z</time>
			</trkpt>
			<trkpt lat="50.87303942777896" lon="6.697645493334477">
				<ele>133.0</ele>
				<time>2011-02-16T15:54:46Z</time>
			</trkpt>
			<trkpt lat="50.87308070356901" lon="6.697752047867207">
				<ele>133.0</ele>
				<time>2011-02-16T15:54:47Z</time>
			</trkpt>
			<trkpt lat="50.873125554217296" lon="6.69785632367092">
				<ele>133.0</ele>
				<time>2011-02-16T15:54:48Z</time>
			</trkpt>
			<trkpt lat="50.873169606369046" lon="6.697958890835554">
				<ele>133.0</ele>
				<time>2011-02-16T15:54:49Z</time>
			</trkpt>
			<trkpt lat="50.87320837657284" lon="6.69805679175323">
				<ele>133.0</ele>
				<time>2011-02-16T15:54:50Z</time>
			</trkpt>
			<trkpt lat="50.87324100823804" lon="6.698145970352153">
				<ele>133.0</ele>
				<time>2011-02-16T15:54:51Z</time>
			</trkpt>
			<trkpt lat="50.87326428601548" lon="6.698221012270968">
				<ele>133.0</ele>
				<time>2011-02-16T15:54:52Z</time>
			</trkpt>
			<trkpt lat="50.87326493640076" lon="6.69829513687276">
				<ele>133.0</ele>
				<time>2011-02-16T15:54:53Z</time>
			</trkpt>
			<trkpt lat="50.873240163791436" lon="6.6983614573139825">
				<ele>133.0</ele>
				<time>2011-02-16T15:54:54Z</time>
			</trkpt>
			<trkpt lat="50.87320702011397" lon="6.698434073750098">
				<ele>133.0</ele>
				<time>2011-02-16T15:54:55Z</time>
			</trkpt>
			<trkpt lat="50.873164968306824" lon="6.698512199531465">
				<ele>133.0</ele>
				<time>2011-02-16T15:54:56Z</time>
			</trkpt>
			<trkpt lat="50.8731195130047" lon="6.698588413422793">
				<ele>133.0</ele>
				<time>2011-02-16T15:54:57Z</time>
			</trkpt>
			<trkpt lat="50.87307006395872" lon="6.698664034140744">
				<ele>133.0</ele>
				<time>2011-02-16T15:54:58Z</time>
			</trkpt>
			<trkpt lat="50.87301819158644" lon="6.69873875103076">
				<ele>133.0</ele>
				<time>2011-02-16T15:54:59Z</time>
			</trkpt>
			<trkpt lat="50.872960141225754" lon="6.6988129520104405">
				<ele>133.0</ele>
				<time>2011-02-16T15:55:00Z</time>
			</trkpt>
			<trkpt lat="50.872898724195046" lon="6.6988858325039145">
				<ele>133.0</ele>
				<time>2011-02-16T15:55:01Z</time>
			</trkpt>
			<trkpt lat="50.872834766518714" lon="6.6989627569704515">
				<ele>133.0</ele>
				<time>2011-02-16T15:55:02Z</time>
			</trkpt>
			<trkpt lat="50.87277180303771" lon="6.699046331868386">
				<ele>133.0</ele>
				<time>2011-02-16T15:55:03Z</time>
			</trkpt>
			<trkpt lat="50.87271337382318" lon="6.6991247814130235">
				<ele>133.0</ele>
				<time>2011-02-16T15:55:04Z</time>
			</trkpt>
			<trkpt lat="50.87265929745565" lon="6.699200289581691">
				<ele>132.0</ele>
				<time>2011-02-16T15:55:05Z</time>
			</trkpt>
			<trkpt lat="50.87261187332942" lon="6.699266891988443">
				<ele>132.0</ele>
				<time>2011-02-16T15:55:06Z</time>
			</trkpt>
			<trkpt lat="50.87257112059979" lon="6.69932594495294">
				<ele>132.0</ele>
				<time>2011-02-16T15:55:07Z</time>
			</trkpt>
			<trkpt lat="50.87254542561331" lon="6.699367640888027">
				<ele>132.0</ele>
				<time>2011-02-16T15:55:08Z</time>
			</trkpt>
			<trkpt lat="50.87252644543514" lon="6.699400244286521">
				<ele>132.0</ele>
				<time>2011-02-16T15:55:09Z</time>
			</trkpt>
			<trkpt lat="50.87251452478882" lon="6.699420585786828">
				<ele>132.0</ele>
				<time>2011-02-16T15:55:10Z</time>
			</trkpt>
			<trkpt lat="50.87251452478882" lon="6.699420585786828">
				<ele>132.0</ele>
				<time>2011-02-16T15:55:11Z</time>
			</trkpt>
			<trkpt lat="50.87251452478882" lon="6.699420585786828">
				<ele>132.0</ele>
				<time>2011-02-16T15:55:12Z</time>
			</trkpt>
			<trkpt lat="50.87251452478882" lon="6.699420585786828">
				<ele>132.0</ele>
				<time>2011-02-16T15:55:13Z</time>
			</trkpt>
			<trkpt lat="50.87251452478882" lon="6.699420585786828">
				<ele>132.0</ele>
				<time>2011-02-16T15:55:14Z</time>
			</trkpt>
			<trkpt lat="50.87251452478882" lon="6.699420585786828">
				<ele>132.0</ele>
				<time>2011-02-16T15:55:15Z</time>
			</trkpt>
			<trkpt lat="50.87251452478882" lon="6.699420585786828">
				<ele>132.0</ele>
				<time>2011-02-16T15:55:16Z</time>
			</trkpt>
			<trkpt lat="50.87251452478882" lon="6.699420585786828">
				<ele>132.0</ele>
				<time>2011-02-16T15:55:17Z</time>
			</trkpt>
			<trkpt lat="50.87251452478882" lon="6.699420585786828">
				<ele>132.0</ele>
				<time>2011-02-16T15:55:18Z</time>
			</trkpt>
			<trkpt lat="50.87251452478882" lon="6.699420585786828">
				<ele>132.0</ele>
				<time>2011-02-16T15:55:19Z</time>
			</trkpt>
			<trkpt lat="50.87251452478882" lon="6.699420585786828">
				<ele>132.0</ele>
				<time>2011-02-16T15:55:20Z</time>
			</trkpt>
			<trkpt lat="50.87251452478882" lon="6.699420585786828">
				<ele>132.0</ele>
				<time>2011-02-16T15:55:21Z</time>
			</trkpt>
			<trkpt lat="50.87251452478882" lon="6.699420585786828">
				<ele>132.0</ele>
				<time>2011-02-16T15:55:22Z</time>
			</trkpt>
			<trkpt lat="50.87251452478882" lon="6.699420585786828">
				<ele>132.0</ele>
				<time>2011-02-16T15:55:23Z</time>
			</trkpt>
			<trkpt lat="50.87251452478882" lon="6.699420585786828">
				<ele>132.0</ele>
				<time>2011-02-16T15:55:24Z</time>
			</trkpt>
			<trkpt lat="50.87251452478882" lon="6.699420585786828">
				<ele>132.0</ele>
				<time>2011-02-16T15:55:25Z</time>
			</trkpt>
			<trkpt lat="50.87251452478882" lon="6.699420585786828">
				<ele>132.0</ele>
				<time>2011-02-16T15:55:26Z</time>
			</trkpt>
			<trkpt lat="50.87251452478882" lon="6.699420585786828">
				<ele>132.0</ele>
				<time>2011-02-16T15:55:27Z</time>
			</trkpt>
			<trkpt lat="50.87251452478882" lon="6.699420585786828">
				<ele>132.0</ele>
				<time>2011-02-16T15:55:28Z</time>
			</trkpt>
			<trkpt lat="50.87251452478882" lon="6.699420585786828">
				<ele>132.0</ele>
				<time>2011-02-16T15:55:29Z</time>
			</trkpt>
			<trkpt lat="50.87251452478882" lon="6.699420585786828">
				<ele>132.0</ele>
				<time>2011-02-16T15:55:30Z</time>
			</trkpt>
			<trkpt lat="50.87251452478882" lon="6.699420585786828">
				<ele>132.0</ele>
				<time>2011-02-16T15:55:31Z</time>
			</trkpt>
			<trkpt lat="50.87251452478882" lon="6.699420585786828">
				<ele>132.0</ele>
				<time>2011-02-16T15:55:32Z</time>
			</trkpt>
			<trkpt lat="50.87251452478882" lon="6.699420585786828">
				<ele>132.0</ele>
				<time>2011-02-16T15:55:33Z</time>
			</trkpt>
			<trkpt lat="50.87251452478882" lon="6.699420585786828">
				<ele>132.0</ele>
				<time>2011-02-16T15:55:34Z</time>
			</trkpt>
			<trkpt lat="50.87251452478882" lon="6.699420585786828">
				<ele>132.0</ele>
				<time>2011-02-16T15:55:35Z</time>
			</trkpt>
			<trkpt lat="50.87251452478882" lon="6.699420585786828">
				<ele>132.0</ele>
				<time>2011-02-16T15:55:36Z</time>
			</trkpt>
			<trkpt lat="50.87251452478882" lon="6.699420585786828">
				<ele>132.0</ele>
				<time>2011-02-16T15:55:37Z</time>
			</trkpt>
			<trkpt lat="50.87251452478882" lon="6.699420585786828">
				<ele>132.0</ele>
				<time>2011-02-16T15:55:38Z</time>
			</trkpt>
			<trkpt lat="50.87251452478882" lon="6.699420585786828">
				<ele>132.0</ele>
				<time>2011-02-16T15:55:39Z</time>
			</trkpt>
			<trkpt lat="50.87251452478882" lon="6.699420585786828">
				<ele>132.0</ele>
				<time>2011-02-16T15:55:40Z</time>
			</trkpt>
			<trkpt lat="50.87251452478882" lon="6.699420585786828">
				<ele>132.0</ele>
				<time>2011-02-16T15:55:41Z</time>
			</trkpt>
			<trkpt lat="50.87251452478882" lon="6.699420585786828">
				<ele>132.0</ele>
				<time>2011-02-16T15:55:42Z</time>
			</trkpt>
			<trkpt lat="50.87251452478882" lon="6.699420585786828">
				<ele>132.0</ele>
				<time>2011-02-16T15:55:43Z</time>
			</trkpt>
			<trkpt lat="50.87251452478882" lon="6.699420585786828">
				<ele>132.0</ele>
				<time>2011-02-16T15:55:44Z</time>
			</trkpt>
			<trkpt lat="50.87251452478882" lon="6.699420585786828">
				<ele>132.0</ele>
				<time>2011-02-16T15:55:45Z</time>
			</trkpt>
			<trkpt lat="50.87251452478882" lon="6.699420585786828">
				<ele>132.0</ele>
				<time>2011-02-16T15:55:46Z</time>
			</trkpt>
			<trkpt lat="50.87251452478882" lon="6.699420585786828">
				<ele>132.0</ele>
				<time>2011-02-16T15:55:47Z</time>
			</trkpt>
			<trkpt lat="50.87251452478882" lon="6.699420585786828">
				<ele>132.0</ele>
				<time>2011-02-16T15:55:48Z</time>
			</trkpt>
			<trkpt lat="50.87251452478882" lon="6.699420585786828">
				<ele>132.0</ele>
				<time>2011-02-16T15:55:49Z</time>
			</trkpt>
			<trkpt lat="50.87251452478882" lon="6.699420585786828">
				<ele>132.0</ele>
				<time>2011-02-16T15:55:50Z</time>
			</trkpt>
			<trkpt lat="50.87251452478882" lon="6.699420585786828">
				<ele>132.0</ele>
				<time>2011-02-16T15:55:51Z</time>
			</trkpt>
			<trkpt lat="50.87251452478882" lon="6.699420585786828">
				<ele>132.0</ele>
				<time>2011-02-16T15:55:52Z</time>
			</trkpt>
			<trkpt lat="50.872484570761166" lon="6.699455056663838">
				<ele>132.0</ele>
				<time>2011-02-16T15:55:53Z</time>
			</trkpt>
			<trkpt lat="50.87246623271965" lon="6.699472184614698">
				<ele>132.0</ele>
				<time>2011-02-16T15:55:54Z</time>
			</trkpt>
			<trkpt lat="50.87244596026929" lon="6.699479529028757">
				<ele>132.0</ele>
				<time>2011-02-16T15:55:55Z</time>
			</trkpt>
			<trkpt lat="50.87242018044535" lon="6.699468877501852">
				<ele>132.0</ele>
				<time>2011-02-16T15:55:56Z</time>
			</trkpt>
			<trkpt lat="50.87239520751946" lon="6.699441913165882">
				<ele>132.0</ele>
				<time>2011-02-16T15:55:57Z</time>
			</trkpt>
			<trkpt lat="50.87236975291515" lon="6.699404096401981">
				<ele>132.0</ele>
				<time>2011-02-16T15:55:58Z</time>
			</trkpt>
			<trkpt lat="50.87234140204666" lon="6.6993614724345285">
				<ele>132.0</ele>
				<time>2011-02-16T15:55:59Z</time>
			</trkpt>
			<trkpt lat="50.87231653411163" lon="6.699324382940834">
				<ele>132.0</ele>
				<time>2011-02-16T15:56:00Z</time>
			</trkpt>
			<trkpt lat="50.87230449986082" lon="6.699307441484459">
				<ele>132.0</ele>
				<time>2011-02-16T15:56:01Z</time>
			</trkpt>
			<trkpt lat="50.87230449986082" lon="6.699307441484459">
				<ele>132.0</ele>
				<time>2011-02-16T15:56:02Z</time>
			</trkpt>
			<trkpt lat="50.87230449986082" lon="6.699307441484459">
				<ele>132.0</ele>
				<time>2011-02-16T15:56:03Z</time>
			</trkpt>
			<trkpt lat="50.87230449986082" lon="6.699307441484459">
				<ele>132.0</ele>
				<time>2011-02-16T15:56:04Z</time>
			</trkpt>
			<trkpt lat="50.87230449986082" lon="6.699307441484459">
				<ele>132.0</ele>
				<time>2011-02-16T15:56:05Z</time>
			</trkpt>
			<trkpt lat="50.87230449986082" lon="6.699307441484459">
				<ele>132.0</ele>
				<time>2011-02-16T15:56:06Z</time>
			</trkpt>
			<trkpt lat="50.87230449986082" lon="6.699307441484459">
				<ele>132.0</ele>
				<time>2011-02-16T15:56:07Z</time>
			</trkpt>
			<trkpt lat="50.87230449986082" lon="6.699307441484459">
				<ele>132.0</ele>
				<time>2011-02-16T15:56:08Z</time>
			</trkpt>
			<trkpt lat="50.87230449986082" lon="6.699307441484459">
				<ele>132.0</ele>
				<time>2011-02-16T15:56:09Z</time>
			</trkpt>
			<trkpt lat="50.87230449986082" lon="6.699307441484459">
				<ele>132.0</ele>
				<time>2011-02-16T15:56:10Z</time>
			</trkpt>
			<trkpt lat="50.87230449986082" lon="6.699307441484459">
				<ele>132.0</ele>
				<time>2011-02-16T15:56:11Z</time>
			</trkpt>
			<trkpt lat="50.87230449986082" lon="6.699307441484459">
				<ele>132.0</ele>
				<time>2011-02-16T15:56:12Z</time>
			</trkpt>
			<trkpt lat="50.87230449986082" lon="6.699307441484459">
				<ele>132.0</ele>
				<time>2011-02-16T15:56:13Z</time>
			</trkpt>
			<trkpt lat="50.87230449986082" lon="6.699307441484459">
				<ele>132.0</ele>
				<time>2011-02-16T15:56:14Z</time>
			</trkpt>
			<trkpt lat="50.87230449986082" lon="6.699307441484459">
				<ele>132.0</ele>
				<time>2011-02-16T15:56:15Z</time>
			</trkpt>
			<trkpt lat="50.87230449986082" lon="6.699307441484459">
				<ele>132.0</ele>
				<time>2011-02-16T15:56:16Z</time>
			</trkpt>
			<trkpt lat="50.87230449986082" lon="6.699307441484459">
				<ele>132.0</ele>
				<time>2011-02-16T15:56:17Z</time>
			</trkpt>
			<trkpt lat="50.87230449986082" lon="6.699307441484459">
				<ele>132.0</ele>
				<time>2011-02-16T15:56:18Z</time>
			</trkpt>
			<trkpt lat="50.87230449986082" lon="6.699307441484459">
				<ele>132.0</ele>
				<time>2011-02-16T15:56:19Z</time>
			</trkpt>
			<trkpt lat="50.87230449986082" lon="6.699307441484459">
				<ele>132.0</ele>
				<time>2011-02-16T15:56:20Z</time>
			</trkpt>
			<trkpt lat="50.87230449986082" lon="6.699307441484459">
				<ele>132.0</ele>
				<time>2011-02-16T15:56:21Z</time>
			</trkpt>
			<trkpt lat="50.87230449986082" lon="6.699307441484459">
				<ele>132.0</ele>
				<time>2011-02-16T15:56:22Z</time>
			</trkpt>
			<trkpt lat="50.87230449986082" lon="6.699307441484459">
				<ele>132.0</ele>
				<time>2011-02-16T15:56:23Z</time>
			</trkpt>
			<trkpt lat="50.87230449986082" lon="6.699307441484459">
				<ele>132.0</ele>
				<time>2011-02-16T15:56:24Z</time>
			</trkpt>
			<trkpt lat="50.87230449986082" lon="6.699307441484459">
				<ele>132.0</ele>
				<time>2011-02-16T15:56:25Z</time>
			</trkpt>
			<trkpt lat="50.87230449986082" lon="6.699307441484459">
				<ele>132.0</ele>
				<time>2011-02-16T15:56:26Z</time>
			</trkpt>
			<trkpt lat="50.87230449986082" lon="6.699307441484459">
				<ele>132.0</ele>
				<time>2011-02-16T15:56:27Z</time>
			</trkpt>
			<trkpt lat="50.87230449986082" lon="6.699307441484459">
				<ele>132.0</ele>
				<time>2011-02-16T15:56:28Z</time>
			</trkpt>
			<trkpt lat="50.87230449986082" lon="6.699307441484459">
				<ele>132.0</ele>
				<time>2011-02-16T15:56:29Z</time>
			</trkpt>
			<trkpt lat="50.87230449986082" lon="6.699307441484459">
				<ele>132.0</ele>
				<time>2011-02-16T15:56:30Z</time>
			</trkpt>
			<trkpt lat="50.87230449986082" lon="6.699307441484459">
				<ele>132.0</ele>
				<time>2011-02-16T15:56:31Z</time>
			</trkpt>
			<trkpt lat="50.87230449986082" lon="6.699307441484459">
				<ele>132.0</ele>
				<time>2011-02-16T15:56:32Z</time>
			</trkpt>
			<trkpt lat="50.87225677115667" lon="6.699276112460444">
				<ele>133.0</ele>
				<time>2011-02-16T15:56:33Z</time>
			</trkpt>
			<trkpt lat="50.87221802900633" lon="6.699253375177104">
				<ele>134.0</ele>
				<time>2011-02-16T15:56:34Z</time>
			</trkpt>
			<trkpt lat="50.87216922559371" lon="6.699222813515626">
				<ele>134.0</ele>
				<time>2011-02-16T15:56:35Z</time>
			</trkpt>
			<trkpt lat="50.87210727800149" lon="6.69917655226611">
				<ele>134.0</ele>
				<time>2011-02-16T15:56:36Z</time>
			</trkpt>
			<trkpt lat="50.87204197263228" lon="6.6991188175770455">
				<ele>134.0</ele>
				<time>2011-02-16T15:56:37Z</time>
			</trkpt>
			<trkpt lat="50.87197554695676" lon="6.6990539994089096">
				<ele>135.0</ele>
				<time>2011-02-16T15:56:38Z</time>
			</trkpt>
			<trkpt lat="50.87190313407866" lon="6.698978241006445">
				<ele>135.0</ele>
				<time>2011-02-16T15:56:39Z</time>
			</trkpt>
			<trkpt lat="50.871826648446316" lon="6.698895527402289">
				<ele>135.0</ele>
				<time>2011-02-16T15:56:40Z</time>
			</trkpt>
			<trkpt lat="50.87175289654962" lon="6.698809799925781">
				<ele>135.0</ele>
				<time>2011-02-16T15:56:41Z</time>
			</trkpt>
			<trkpt lat="50.87168031422132" lon="6.698724136534939">
				<ele>135.0</ele>
				<time>2011-02-16T15:56:42Z</time>
			</trkpt>
			<trkpt lat="50.8716088287754" lon="6.698636192958059">
				<ele>135.0</ele>
				<time>2011-02-16T15:56:43Z</time>
			</trkpt>
			<trkpt lat="50.87153818995817" lon="6.698548638326632">
				<ele>135.0</ele>
				<time>2011-02-16T15:56:44Z</time>
			</trkpt>
			<trkpt lat="50.87146638521269" lon="6.698460165097542">
				<ele>135.0</ele>
				<time>2011-02-16T15:56:45Z</time>
			</trkpt>
			<trkpt lat="50.871394443249386" lon="6.698371813689423">
				<ele>135.0</ele>
				<time>2011-02-16T15:56:46Z</time>
			</trkpt>
			<trkpt lat="50.871322242153965" lon="6.698283791019867">
				<ele>135.0</ele>
				<time>2011-02-16T15:56:47Z</time>
			</trkpt>
			<trkpt lat="50.871250793390125" lon="6.6981963212909585">
				<ele>135.0</ele>
				<time>2011-02-16T15:56:48Z</time>
			</trkpt>
			<trkpt lat="50.871184153939375" lon="6.6981071864817086">
				<ele>135.0</ele>
				<time>2011-02-16T15:56:49Z</time>
			</trkpt>
			<trkpt lat="50.87112265597747" lon="6.698019226873437">
				<ele>135.0</ele>
				<time>2011-02-16T15:56:50Z</time>
			</trkpt>
			<trkpt lat="50.871067045277776" lon="6.697932123896067">
				<ele>135.0</ele>
				<time>2011-02-16T15:56:51Z</time>
			</trkpt>
			<trkpt lat="50.8710146344956" lon="6.697839941781855">
				<ele>135.0</ele>
				<time>2011-02-16T15:56:52Z</time>
			</trkpt>
			<trkpt lat="50.87096734389566" lon="6.697742198154211">
				<ele>135.0</ele>
				<time>2011-02-16T15:56:53Z</time>
			</trkpt>
			<trkpt lat="50.870922056260774" lon="6.697639781286224">
				<ele>135.0</ele>
				<time>2011-02-16T15:56:54Z</time>
			</trkpt>
			<trkpt lat="50.87088140048239" lon="6.697531601772892">
				<ele>135.0</ele>
				<time>2011-02-16T15:56:55Z</time>
			</trkpt>
			<trkpt lat="50.87084199912557" lon="6.697424895454342">
				<ele>135.0</ele>
				<time>2011-02-16T15:56:56Z</time>
			</trkpt>
			<trkpt lat="50.87080448271819" lon="6.697318808521774">
				<ele>135.0</ele>
				<time>2011-02-16T15:56:57Z</time>
			</trkpt>
			<trkpt lat="50.87076628587059" lon="6.69721255133732">
				<ele>135.0</ele>
				<time>2011-02-16T15:56:58Z</time>
			</trkpt>
			<trkpt lat="50.8707302067881" lon="6.697107221383646">
				<ele>135.0</ele>
				<time>2011-02-16T15:56:59Z</time>
			</trkpt>
			<trkpt lat="50.870694863528215" lon="6.697004571641614">
				<ele>136.0</ele>
				<time>2011-02-16T15:57:00Z</time>
			</trkpt>
			<trkpt lat="50.87066224340923" lon="6.69690336928243">
				<ele>136.0</ele>
				<time>2011-02-16T15:57:01Z</time>
			</trkpt>
			<trkpt lat="50.870630118587634" lon="6.696808325240857">
				<ele>136.0</ele>
				<time>2011-02-16T15:57:02Z</time>
			</trkpt>
			<trkpt lat="50.87059837692338" lon="6.696713622890671">
				<ele>136.0</ele>
				<time>2011-02-16T15:57:03Z</time>
			</trkpt>
			<trkpt lat="50.87056684525638" lon="6.696620977720244">
				<ele>136.0</ele>
				<time>2011-02-16T15:57:04Z</time>
			</trkpt>
			<trkpt lat="50.87053433778082" lon="6.6965313809712805">
				<ele>137.0</ele>
				<time>2011-02-16T15:57:05Z</time>
			</trkpt>
			<trkpt lat="50.870517356192344" lon="6.696444094591157">
				<ele>137.0</ele>
				<time>2011-02-16T15:57:06Z</time>
			</trkpt>
			<trkpt lat="50.870501712573805" lon="6.696365618705801">
				<ele>137.0</ele>
				<time>2011-02-16T15:57:07Z</time>
			</trkpt>
			<trkpt lat="50.87048885316423" lon="6.696308782007117">
				<ele>137.0</ele>
				<time>2011-02-16T15:57:08Z</time>
			</trkpt>
			<trkpt lat="50.87048006252363" lon="6.696274624163257">
				<ele>137.0</ele>
				<time>2011-02-16T15:57:09Z</time>
			</trkpt>
			<trkpt lat="50.87048006252363" lon="6.696274624163257">
				<ele>137.0</ele>
				<time>2011-02-16T15:57:10Z</time>
			</trkpt>
			<trkpt lat="50.87048006252363" lon="6.696274624163257">
				<ele>137.0</ele>
				<time>2011-02-16T15:57:11Z</time>
			</trkpt>
			<trkpt lat="50.87048006252363" lon="6.696274624163257">
				<ele>137.0</ele>
				<time>2011-02-16T15:57:12Z</time>
			</trkpt>
			<trkpt lat="50.87048006252363" lon="6.696274624163257">
				<ele>137.0</ele>
				<time>2011-02-16T15:57:13Z</time>
			</trkpt>
			<trkpt lat="50.87048006252363" lon="6.696274624163257">
				<ele>137.0</ele>
				<time>2011-02-16T15:57:14Z</time>
			</trkpt>
			<trkpt lat="50.87048006252363" lon="6.696274624163257">
				<ele>137.0</ele>
				<time>2011-02-16T15:57:15Z</time>
			</trkpt>
			<trkpt lat="50.87048006252363" lon="6.696274624163257">
				<ele>137.0</ele>
				<time>2011-02-16T15:57:16Z</time>
			</trkpt>
			<trkpt lat="50.87045973491783" lon="6.696228636105071">
				<ele>137.0</ele>
				<time>2011-02-16T15:57:17Z</time>
			</trkpt>
			<trkpt lat="50.87044123841261" lon="6.696193602370738">
				<ele>137.0</ele>
				<time>2011-02-16T15:57:18Z</time>
			</trkpt>
			<trkpt lat="50.870419786665856" lon="6.696150266283657">
				<ele>137.0</ele>
				<time>2011-02-16T15:57:19Z</time>
			</trkpt>
			<trkpt lat="50.87039867746977" lon="6.696101747566897">
				<ele>137.0</ele>
				<time>2011-02-16T15:57:20Z</time>
			</trkpt>
			<trkpt lat="50.87037482453652" lon="6.696045500973979">
				<ele>136.0</ele>
				<time>2011-02-16T15:57:21Z</time>
			</trkpt>
			<trkpt lat="50.8703460962083" lon="6.695972281410108">
				<ele>136.0</ele>
				<time>2011-02-16T15:57:22Z</time>
			</trkpt>
			<trkpt lat="50.87031138040417" lon="6.695876618999184">
				<ele>136.0</ele>
				<time>2011-02-16T15:57:23Z</time>
			</trkpt>
			<trkpt lat="50.87027018847129" lon="6.6957579507175184">
				<ele>136.0</ele>
				<time>2011-02-16T15:57:24Z</time>
			</trkpt>
			<trkpt lat="50.870227211375095" lon="6.695632912532633">
				<ele>136.0</ele>
				<time>2011-02-16T15:57:25Z</time>
			</trkpt>
			<trkpt lat="50.870181796973164" lon="6.695492928859972">
				<ele>136.0</ele>
				<time>2011-02-16T15:57:26Z</time>
			</trkpt>
			<trkpt lat="50.870134076745956" lon="6.695346008835532">
				<ele>136.0</ele>
				<time>2011-02-16T15:57:27Z</time>
			</trkpt>
			<trkpt lat="50.87008975314086" lon="6.695197106869202">
				<ele>136.0</ele>
				<time>2011-02-16T15:57:28Z</time>
			</trkpt>
			<trkpt lat="50.87004782519488" lon="6.695048830059286">
				<ele>137.0</ele>
				<time>2011-02-16T15:57:29Z</time>
			</trkpt>
			<trkpt lat="50.87001153975927" lon="6.69490628830403">
				<ele>137.0</ele>
				<time>2011-02-16T15:57:30Z</time>
			</trkpt>
			<trkpt lat="50.86998158814849" lon="6.694776887057365">
				<ele>137.0</ele>
				<time>2011-02-16T15:57:31Z</time>
			</trkpt>
			<trkpt lat="50.869951711602845" lon="6.694649062980457">
				<ele>137.0</ele>
				<time>2011-02-16T15:57:32Z</time>
			</trkpt>
			<trkpt lat="50.86992443709669" lon="6.694521248626134">
				<ele>137.0</ele>
				<time>2011-02-16T15:57:33Z</time>
			</trkpt>
			<trkpt lat="50.86989772108237" lon="6.6943963324901326">
				<ele>137.0</ele>
				<time>2011-02-16T15:57:34Z</time>
			</trkpt>
			<trkpt lat="50.86987126051756" lon="6.694274553589977">
				<ele>137.0</ele>
				<time>2011-02-16T15:57:35Z</time>
			</trkpt>
			<trkpt lat="50.86984585773413" lon="6.694159793641462">
				<ele>137.0</ele>
				<time>2011-02-16T15:57:36Z</time>
			</trkpt>
			<trkpt lat="50.86981903100373" lon="6.694051929735579">
				<ele>137.0</ele>
				<time>2011-02-16T15:57:37Z</time>
			</trkpt>
			<trkpt lat="50.86979158872045" lon="6.693951714437764">
				<ele>137.0</ele>
				<time>2011-02-16T15:57:38Z</time>
			</trkpt>
			<trkpt lat="50.86976548565567" lon="6.693859122142083">
				<ele>138.0</ele>
				<time>2011-02-16T15:57:39Z</time>
			</trkpt>
			<trkpt lat="50.86975151430844" lon="6.693769427230074">
				<ele>138.0</ele>
				<time>2011-02-16T15:57:40Z</time>
			</trkpt>
			<trkpt lat="50.86974271599525" lon="6.693675692833243">
				<ele>138.0</ele>
				<time>2011-02-16T15:57:41Z</time>
			</trkpt>
			<trkpt lat="50.869750976537766" lon="6.69357599517561">
				<ele>138.0</ele>
				<time>2011-02-16T15:57:42Z</time>
			</trkpt>
			<trkpt lat="50.86976292471885" lon="6.693476813069931">
				<ele>138.0</ele>
				<time>2011-02-16T15:57:43Z</time>
			</trkpt>
			<trkpt lat="50.86977372164594" lon="6.693374592560309">
				<ele>138.0</ele>
				<time>2011-02-16T15:57:44Z</time>
			</trkpt>
			<trkpt lat="50.86977894731031" lon="6.693267873444885">
				<ele>137.0</ele>
				<time>2011-02-16T15:57:45Z</time>
			</trkpt>
			<trkpt lat="50.86976883239185" lon="6.693153921428597">
				<ele>137.0</ele>
				<time>2011-02-16T15:57:46Z</time>
			</trkpt>
			<trkpt lat="50.869755653409804" lon="6.693039077950464">
				<ele>137.0</ele>
				<time>2011-02-16T15:57:47Z</time>
			</trkpt>
			<trkpt lat="50.8697385185701" lon="6.692924385333148">
				<ele>137.0</ele>
				<time>2011-02-16T15:57:48Z</time>
			</trkpt>
			<trkpt lat="50.86971816103628" lon="6.692812394498957">
				<ele>136.0</ele>
				<time>2011-02-16T15:57:49Z</time>
			</trkpt>
			<trkpt lat="50.86969193285715" lon="6.69270804946714">
				<ele>136.0</ele>
				<time>2011-02-16T15:57:50Z</time>
			</trkpt>
			<trkpt lat="50.86966537851248" lon="6.692610183488873">
				<ele>136.0</ele>
				<time>2011-02-16T15:57:51Z</time>
			</trkpt>
			<trkpt lat="50.8696398219251" lon="6.69251970329896">
				<ele>136.0</ele>
				<time>2011-02-16T15:57:52Z</time>
			</trkpt>
			<trkpt lat="50.86961669844516" lon="6.692435950928565">
				<ele>136.0</ele>
				<time>2011-02-16T15:57:53Z</time>
			</trkpt>
			<trkpt lat="50.86959718617996" lon="6.692355315439903">
				<ele>136.0</ele>
				<time>2011-02-16T15:57:54Z</time>
			</trkpt>
			<trkpt lat="50.86956845685077" lon="6.692284515206064">
				<ele>136.0</ele>
				<time>2011-02-16T15:57:55Z</time>
			</trkpt>
			<trkpt lat="50.869526183079074" lon="6.692242880231623">
				<ele>136.0</ele>
				<time>2011-02-16T15:57:56Z</time>
			</trkpt>
			<trkpt lat="50.86947634407152" lon="6.692230583050448">
				<ele>136.0</ele>
				<time>2011-02-16T15:57:57Z</time>
			</trkpt>
			<trkpt lat="50.86943254717179" lon="6.692246051948371">
				<ele>136.0</ele>
				<time>2011-02-16T15:57:58Z</time>
			</trkpt>
			<trkpt lat="50.8694000174356" lon="6.692286361032435">
				<ele>137.0</ele>
				<time>2011-02-16T15:57:59Z</time>
			</trkpt>
			<trkpt lat="50.86937530930692" lon="6.692337086098806">
				<ele>137.0</ele>
				<time>2011-02-16T15:58:00Z</time>
			</trkpt>
			<trkpt lat="50.869361633748234" lon="6.6923962056023605">
				<ele>137.0</ele>
				<time>2011-02-16T15:58:01Z</time>
			</trkpt>
			<trkpt lat="50.86935865426011" lon="6.692447252604103">
				<ele>137.0</ele>
				<time>2011-02-16T15:58:02Z</time>
			</trkpt>
			<trkpt lat="50.86937105318535" lon="6.6924968626202945">
				<ele>137.0</ele>
				<time>2011-02-16T15:58:03Z</time>
			</trkpt>
			<trkpt lat="50.86938472095918" lon="6.692547768161945">
				<ele>137.0</ele>
				<time>2011-02-16T15:58:04Z</time>
			</trkpt>
			<trkpt lat="50.86939372368471" lon="6.692583712732181">
				<ele>137.0</ele>
				<time>2011-02-16T15:58:05Z</time>
			</trkpt>
			<trkpt lat="50.8693939896154" lon="6.692599978875127">
				<ele>137.0</ele>
				<time>2011-02-16T15:58:06Z</time>
			</trkpt>
			<trkpt lat="50.8693939896154" lon="6.692599978875127">
				<ele>137.0</ele>
				<time>2011-02-16T15:58:07Z</time>
			</trkpt>
			<trkpt lat="50.8693939896154" lon="6.692599978875127">
				<ele>137.0</ele>
				<time>2011-02-16T15:58:08Z</time>
			</trkpt>
			<trkpt lat="50.8693939896154" lon="6.692599978875127">
				<ele>137.0</ele>
				<time>2011-02-16T15:58:09Z</time>
			</trkpt>
			<trkpt lat="50.8693939896154" lon="6.692599978875127">
				<ele>137.0</ele>
				<time>2011-02-16T15:58:10Z</time>
			</trkpt>
			<trkpt lat="50.8693939896154" lon="6.692599978875127">
				<ele>137.0</ele>
				<time>2011-02-16T15:58:11Z</time>
			</trkpt>
			<trkpt lat="50.8693939896154" lon="6.692599978875127">
				<ele>137.0</ele>
				<time>2011-02-16T15:58:12Z</time>
			</trkpt>
			<trkpt lat="50.8693939896154" lon="6.692599978875127">
				<ele>137.0</ele>
				<time>2011-02-16T15:58:13Z</time>
			</trkpt>
			<trkpt lat="50.8693939896154" lon="6.692599978875127">
				<ele>137.0</ele>
				<time>2011-02-16T15:58:14Z</time>
			</trkpt>
			<trkpt lat="50.8693939896154" lon="6.692599978875127">
				<ele>137.0</ele>
				<time>2011-02-16T15:58:15Z</time>
			</trkpt>
			<trkpt lat="50.86940172307304" lon="6.692682964441354">
				<ele>137.0</ele>
				<time>2011-02-16T15:58:16Z</time>
			</trkpt>
			<trkpt lat="50.86940642345022" lon="6.692739489903634">
				<ele>137.0</ele>
				<time>2011-02-16T15:58:17Z</time>
			</trkpt>
			<trkpt lat="50.869413942522456" lon="6.69281928149579">
				<ele>136.0</ele>
				<time>2011-02-16T15:58:18Z</time>
			</trkpt>
			<trkpt lat="50.86942381081843" lon="6.692907954663225">
				<ele>136.0</ele>
				<time>2011-02-16T15:58:19Z</time>
			</trkpt>
			<trkpt lat="50.86943723950372" lon="6.693004266101505">
				<ele>136.0</ele>
				<time>2011-02-16T15:58:20Z</time>
			</trkpt>
			<trkpt lat="50.86945261258784" lon="6.693099277604696">
				<ele>136.0</ele>
				<time>2011-02-16T15:58:21Z</time>
			</trkpt>
			<trkpt lat="50.8694666370365" lon="6.693191699225626">
				<ele>136.0</ele>
				<time>2011-02-16T15:58:22Z</time>
			</trkpt>
			<trkpt lat="50.869480330840425" lon="6.6932791889359065">
				<ele>136.0</ele>
				<time>2011-02-16T15:58:23Z</time>
			</trkpt>
			<trkpt lat="50.86949506094065" lon="6.693364958391315">
				<ele>136.0</ele>
				<time>2011-02-16T15:58:24Z</time>
			</trkpt>
			<trkpt lat="50.86950542318791" lon="6.69343994560523">
				<ele>137.0</ele>
				<time>2011-02-16T15:58:25Z</time>
			</trkpt>
			<trkpt lat="50.86950479980146" lon="6.693493811117646">
				<ele>137.0</ele>
				<time>2011-02-16T15:58:26Z</time>
			</trkpt>
			<trkpt lat="50.86950479980146" lon="6.693493811117646">
				<ele>137.0</ele>
				<time>2011-02-16T15:58:27Z</time>
			</trkpt>
			<trkpt lat="50.86950479980146" lon="6.693493811117646">
				<ele>137.0</ele>
				<time>2011-02-16T15:58:28Z</time>
			</trkpt>
			<trkpt lat="50.8694934959814" lon="6.69356063509875">
				<ele>137.0</ele>
				<time>2011-02-16T15:58:29Z</time>
			</trkpt>
			<trkpt lat="50.8694719966736" lon="6.693579355118653">
				<ele>137.0</ele>
				<time>2011-02-16T15:58:30Z</time>
			</trkpt>
			<trkpt lat="50.86944288468018" lon="6.69358872970979">
				<ele>137.0</ele>
				<time>2011-02-16T15:58:31Z</time>
			</trkpt>
			<trkpt lat="50.869404719873884" lon="6.693600470115278">
				<ele>137.0</ele>
				<time>2011-02-16T15:58:32Z</time>
			</trkpt>
			<trkpt lat="50.86935784742489" lon="6.69361926758357">
				<ele>137.0</ele>
				<time>2011-02-16T15:58:33Z</time>
			</trkpt>
			<trkpt lat="50.86930236060956" lon="6.6936404394069635">
				<ele>137.0</ele>
				<time>2011-02-16T15:58:34Z</time>
			</trkpt>
			<trkpt lat="50.86924505119011" lon="6.693661307028418">
				<ele>137.0</ele>
				<time>2011-02-16T15:58:35Z</time>
			</trkpt>
			<trkpt lat="50.86918777287755" lon="6.693680653564408">
				<ele>137.0</ele>
				<time>2011-02-16T15:58:36Z</time>
			</trkpt>
			<trkpt lat="50.869133535516305" lon="6.693697318245614">
				<ele>137.0</ele>
				<time>2011-02-16T15:58:37Z</time>
			</trkpt>
			<trkpt lat="50.869078960754756" lon="6.6937064189104225">
				<ele>137.0</ele>
				<time>2011-02-16T15:58:38Z</time>
			</trkpt>
			<trkpt lat="50.86903341549283" lon="6.693685144083603">
				<ele>137.0</ele>
				<time>2011-02-16T15:58:39Z</time>
			</trkpt>
			<trkpt lat="50.868996147152224" lon="6.693650271379625">
				<ele>137.0</ele>
				<time>2011-02-16T15:58:40Z</time>
			</trkpt>
			<trkpt lat="50.86897004133874" lon="6.693600333725158">
				<ele>138.0</ele>
				<time>2011-02-16T15:58:41Z</time>
			</trkpt>
			<trkpt lat="50.868954244473485" lon="6.69353769184015">
				<ele>138.0</ele>
				<time>2011-02-16T15:58:42Z</time>
			</trkpt>
			<trkpt lat="50.868940227012665" lon="6.693474925629466">
				<ele>138.0</ele>
				<time>2011-02-16T15:58:43Z</time>
			</trkpt>
			<trkpt lat="50.86892916775088" lon="6.693412494267167">
				<ele>138.0</ele>
				<time>2011-02-16T15:58:44Z</time>
			</trkpt>
			<trkpt lat="50.86892335203501" lon="6.693370713921201">
				<ele>138.0</ele>
				<time>2011-02-16T15:58:45Z</time>
			</trkpt>
			<trkpt lat="50.86892335203501" lon="6.693370713921201">
				<ele>138.0</ele>
				<time>2011-02-16T15:58:46Z</time>
			</trkpt>
			<trkpt lat="50.86892335203501" lon="6.693370713921201">
				<ele>138.0</ele>
				<time>2011-02-16T15:58:47Z</time>
			</trkpt>
			<trkpt lat="50.86892335203501" lon="6.693370713921201">
				<ele>138.0</ele>
				<time>2011-02-16T15:58:48Z</time>
			</trkpt>
			<trkpt lat="50.86891988526708" lon="6.693339397555002">
				<ele>138.0</ele>
				<time>2011-02-16T15:58:49Z</time>
			</trkpt>
			<trkpt lat="50.86891452980122" lon="6.6932904000065925">
				<ele>138.0</ele>
				<time>2011-02-16T15:58:50Z</time>
			</trkpt>
			<trkpt lat="50.86890869958742" lon="6.693237491058974">
				<ele>138.0</ele>
				<time>2011-02-16T15:58:51Z</time>
			</trkpt>
			<trkpt lat="50.86890137726327" lon="6.693171568411069">
				<ele>137.0</ele>
				<time>2011-02-16T15:58:52Z</time>
			</trkpt>
			<trkpt lat="50.868890356464185" lon="6.693086158489858">
				<ele>137.0</ele>
				<time>2011-02-16T15:58:53Z</time>
			</trkpt>
			<trkpt lat="50.868876670386506" lon="6.692981958221025">
				<ele>137.0</ele>
				<time>2011-02-16T15:58:54Z</time>
			</trkpt>
			<trkpt lat="50.86886234859531" lon="6.692873839232672">
				<ele>137.0</ele>
				<time>2011-02-16T15:58:55Z</time>
			</trkpt>
			<trkpt lat="50.86884686874896" lon="6.69275633065188">
				<ele>137.0</ele>
				<time>2011-02-16T15:58:56Z</time>
			</trkpt>
			<trkpt lat="50.868830309208576" lon="6.692630562025867">
				<ele>137.0</ele>
				<time>2011-02-16T15:58:57Z</time>
			</trkpt>
			<trkpt lat="50.86880999387761" lon="6.692499002097746">
				<ele>137.0</ele>
				<time>2011-02-16T15:58:58Z</time>
			</trkpt>
			<trkpt lat="50.86878878111782" lon="6.692365330411517">
				<ele>136.0</ele>
				<time>2011-02-16T15:58:59Z</time>
			</trkpt>
			<trkpt lat="50.86876379317802" lon="6.6922321062487935">
				<ele>136.0</ele>
				<time>2011-02-16T15:59:00Z</time>
			</trkpt>
			<trkpt lat="50.86873682796668" lon="6.69210063130239">
				<ele>136.0</ele>
				<time>2011-02-16T15:59:01Z</time>
			</trkpt>
			<trkpt lat="50.86871152959187" lon="6.691969261286176">
				<ele>136.0</ele>
				<time>2011-02-16T15:59:02Z</time>
			</trkpt>
			<trkpt lat="50.86868639214822" lon="6.691839328035421">
				<ele>136.0</ele>
				<time>2011-02-16T15:59:03Z</time>
			</trkpt>
			<trkpt lat="50.86866235812414" lon="6.691711751537412">
				<ele>136.0</ele>
				<time>2011-02-16T15:59:04Z</time>
			</trkpt>
			<trkpt lat="50.86863789091996" lon="6.691585418842329">
				<ele>136.0</ele>
				<time>2011-02-16T15:59:05Z</time>
			</trkpt>
			<trkpt lat="50.868613532298575" lon="6.691458995521651">
				<ele>136.0</ele>
				<time>2011-02-16T15:59:06Z</time>
			</trkpt>
			<trkpt lat="50.8685880628316" lon="6.6913293530592535">
				<ele>136.0</ele>
				<time>2011-02-16T15:59:07Z</time>
			</trkpt>
			<trkpt lat="50.86856040750616" lon="6.691197969798216">
				<ele>136.0</ele>
				<time>2011-02-16T15:59:08Z</time>
			</trkpt>
			<trkpt lat="50.86852971903442" lon="6.691063022414197">
				<ele>136.0</ele>
				<time>2011-02-16T15:59:09Z</time>
			</trkpt>
			<trkpt lat="50.86849951808441" lon="6.690929361655148">
				<ele>136.0</ele>
				<time>2011-02-16T15:59:10Z</time>
			</trkpt>
			<trkpt lat="50.86847124914697" lon="6.690795918457139">
				<ele>136.0</ele>
				<time>2011-02-16T15:59:11Z</time>
			</trkpt>
			<trkpt lat="50.86844502898474" lon="6.690663900182009">
				<ele>136.0</ele>
				<time>2011-02-16T15:59:12Z</time>
			</trkpt>
			<trkpt lat="50.86841863804272" lon="6.690532608533335">
				<ele>136.0</ele>
				<time>2011-02-16T15:59:13Z</time>
			</trkpt>
			<trkpt lat="50.86839373631561" lon="6.690399711062209">
				<ele>136.0</ele>
				<time>2011-02-16T15:59:14Z</time>
			</trkpt>
			<trkpt lat="50.8683667809394" lon="6.690267194565987">
				<ele>136.0</ele>
				<time>2011-02-16T15:59:15Z</time>
			</trkpt>
			<trkpt lat="50.86833864392504" lon="6.690137553617468">
				<ele>136.0</ele>
				<time>2011-02-16T15:59:16Z</time>
			</trkpt>
			<trkpt lat="50.868319809696935" lon="6.690014924716006">
				<ele>136.0</ele>
				<time>2011-02-16T15:59:17Z</time>
			</trkpt>
			<trkpt lat="50.86830117324786" lon="6.689897461009979">
				<ele>136.0</ele>
				<time>2011-02-16T15:59:18Z</time>
			</trkpt>
			<trkpt lat="50.868279755117015" lon="6.689781249090706">
				<ele>136.0</ele>
				<time>2011-02-16T15:59:19Z</time>
			</trkpt>
			<trkpt lat="50.86825880464858" lon="6.689672541549353">
				<ele>136.0</ele>
				<time>2011-02-16T15:59:20Z</time>
			</trkpt>
			<trkpt lat="50.86823650374458" lon="6.689569953187141">
				<ele>136.0</ele>
				<time>2011-02-16T15:59:21Z</time>
			</trkpt>
			<trkpt lat="50.868214219495385" lon="6.689469647765445">
				<ele>136.0</ele>
				<time>2011-02-16T15:59:22Z</time>
			</trkpt>
			<trkpt lat="50.86819181755661" lon="6.689371173941247">
				<ele>136.0</ele>
				<time>2011-02-16T15:59:23Z</time>
			</trkpt>
			<trkpt lat="50.86817028565672" lon="6.689271559369839">
				<ele>136.0</ele>
				<time>2011-02-16T15:59:24Z</time>
			</trkpt>
			<trkpt lat="50.86814628027274" lon="6.689162275723982">
				<ele>136.0</ele>
				<time>2011-02-16T15:59:25Z</time>
			</trkpt>
			<trkpt lat="50.86812012271229" lon="6.689043599315297">
				<ele>136.0</ele>
				<time>2011-02-16T15:59:26Z</time>
			</trkpt>
			<trkpt lat="50.86809345111305" lon="6.688919972548185">
				<ele>136.0</ele>
				<time>2011-02-16T15:59:27Z</time>
			</trkpt>
			<trkpt lat="50.86806773567093" lon="6.688795057931684">
				<ele>136.0</ele>
				<time>2011-02-16T15:59:28Z</time>
			</trkpt>
			<trkpt lat="50.86804571974838" lon="6.688667719217176">
				<ele>136.0</ele>
				<time>2011-02-16T15:59:29Z</time>
			</trkpt>
			<trkpt lat="50.868025347555154" lon="6.688539805946811">
				<ele>136.0</ele>
				<time>2011-02-16T15:59:30Z</time>
			</trkpt>
			<trkpt lat="50.868005504180665" lon="6.688412645325801">
				<ele>136.0</ele>
				<time>2011-02-16T15:59:31Z</time>
			</trkpt>
			<trkpt lat="50.86798790209953" lon="6.688285651791666">
				<ele>136.0</ele>
				<time>2011-02-16T15:59:32Z</time>
			</trkpt>
			<trkpt lat="50.867971597961095" lon="6.688156259620925">
				<ele>136.0</ele>
				<time>2011-02-16T15:59:33Z</time>
			</trkpt>
			<trkpt lat="50.8679568456488" lon="6.688023862375804">
				<ele>136.0</ele>
				<time>2011-02-16T15:59:34Z</time>
			</trkpt>
			<trkpt lat="50.86794499344461" lon="6.6878867379273546">
				<ele>136.0</ele>
				<time>2011-02-16T15:59:35Z</time>
			</trkpt>
			<trkpt lat="50.867935558369815" lon="6.687747995414037">
				<ele>136.0</ele>
				<time>2011-02-16T15:59:36Z</time>
			</trkpt>
			<trkpt lat="50.86792808297845" lon="6.6876087827673505">
				<ele>136.0</ele>
				<time>2011-02-16T15:59:37Z</time>
			</trkpt>
			<trkpt lat="50.86792263198501" lon="6.6874689988982565">
				<ele>136.0</ele>
				<time>2011-02-16T15:59:38Z</time>
			</trkpt>
			<trkpt lat="50.86791737515678" lon="6.687328613960576">
				<ele>136.0</ele>
				<time>2011-02-16T15:59:39Z</time>
			</trkpt>
			<trkpt lat="50.867913984349656" lon="6.687185326868188">
				<ele>136.0</ele>
				<time>2011-02-16T15:59:40Z</time>
			</trkpt>
			<trkpt lat="50.86791055380881" lon="6.687044526032206">
				<ele>135.0</ele>
				<time>2011-02-16T15:59:41Z</time>
			</trkpt>
			<trkpt lat="50.86790890702637" lon="6.6869092478458905">
				<ele>135.0</ele>
				<time>2011-02-16T15:59:42Z</time>
			</trkpt>
			<trkpt lat="50.867907297484926" lon="6.686783381064176">
				<ele>135.0</ele>
				<time>2011-02-16T15:59:43Z</time>
			</trkpt>
			<trkpt lat="50.8679057752524" lon="6.686665201203548">
				<ele>135.0</ele>
				<time>2011-02-16T15:59:44Z</time>
			</trkpt>
			<trkpt lat="50.86790557458392" lon="6.686556407052157">
				<ele>135.0</ele>
				<time>2011-02-16T15:59:45Z</time>
			</trkpt>
			<trkpt lat="50.86790828907647" lon="6.686463934742983">
				<ele>135.0</ele>
				<time>2011-02-16T15:59:46Z</time>
			</trkpt>
			<trkpt lat="50.86791459067882" lon="6.686389155113859">
				<ele>135.0</ele>
				<time>2011-02-16T15:59:47Z</time>
			</trkpt>
			<trkpt lat="50.8679185411356" lon="6.686331913791741">
				<ele>135.0</ele>
				<time>2011-02-16T15:59:48Z</time>
			</trkpt>
			<trkpt lat="50.86792097813072" lon="6.6863003148224065">
				<ele>135.0</ele>
				<time>2011-02-16T15:59:49Z</time>
			</trkpt>
			<trkpt lat="50.86792097813072" lon="6.6863003148224065">
				<ele>135.0</ele>
				<time>2011-02-16T15:59:50Z</time>
			</trkpt>
			<trkpt lat="50.86792097813072" lon="6.6863003148224065">
				<ele>135.0</ele>
				<time>2011-02-16T15:59:51Z</time>
			</trkpt>
			<trkpt lat="50.86792097813072" lon="6.6863003148224065">
				<ele>135.0</ele>
				<time>2011-02-16T15:59:52Z</time>
			</trkpt>
			<trkpt lat="50.86792097813072" lon="6.6863003148224065">
				<ele>135.0</ele>
				<time>2011-02-16T15:59:53Z</time>
			</trkpt>
			<trkpt lat="50.86792097813072" lon="6.6863003148224065">
				<ele>135.0</ele>
				<time>2011-02-16T15:59:54Z</time>
			</trkpt>
			<trkpt lat="50.86792097813072" lon="6.6863003148224065">
				<ele>135.0</ele>
				<time>2011-02-16T15:59:55Z</time>
			</trkpt>
			<trkpt lat="50.86792097813072" lon="6.6863003148224065">
				<ele>135.0</ele>
				<time>2011-02-16T15:59:56Z</time>
			</trkpt>
			<trkpt lat="50.86792097813072" lon="6.6863003148224065">
				<ele>135.0</ele>
				<time>2011-02-16T15:59:57Z</time>
			</trkpt>
			<trkpt lat="50.86792097813072" lon="6.6863003148224065">
				<ele>135.0</ele>
				<time>2011-02-16T15:59:58Z</time>
			</trkpt>
			<trkpt lat="50.867911446952775" lon="6.686254249806827">
				<ele>135.0</ele>
				<time>2011-02-16T15:59:59Z</time>
			</trkpt>
			<trkpt lat="50.86789871934536" lon="6.686229727617367">
				<ele>135.0</ele>
				<time>2011-02-16T16:00:00Z</time>
			</trkpt>
			<trkpt lat="50.867882755647706" lon="6.686217478320896">
				<ele>135.0</ele>
				<time>2011-02-16T16:00:01Z</time>
			</trkpt>
			<trkpt lat="50.86786533078485" lon="6.686221917758657">
				<ele>135.0</ele>
				<time>2011-02-16T16:00:02Z</time>
			</trkpt>
			<trkpt lat="50.867850211910294" lon="6.686233418111522">
				<ele>135.0</ele>
				<time>2011-02-16T16:00:03Z</time>
			</trkpt>
			<trkpt lat="50.867842912852225" lon="6.686239350028497">
				<ele>135.0</ele>
				<time>2011-02-16T16:00:04Z</time>
			</trkpt>
			<trkpt lat="50.867842912852225" lon="6.686239350028497">
				<ele>135.0</ele>
				<time>2011-02-16T16:00:05Z</time>
			</trkpt>
			<trkpt lat="50.867842912852225" lon="6.686239350028497">
				<ele>135.0</ele>
				<time>2011-02-16T16:00:06Z</time>
			</trkpt>
			<trkpt lat="50.867842912852225" lon="6.686239350028497">
				<ele>135.0</ele>
				<time>2011-02-16T16:00:07Z</time>
			</trkpt>
			<trkpt lat="50.867842912852225" lon="6.686239350028497">
				<ele>135.0</ele>
				<time>2011-02-16T16:00:08Z</time>
			</trkpt>
			<trkpt lat="50.86782412354262" lon="6.68626647741162">
				<ele>135.0</ele>
				<time>2011-02-16T16:00:09Z</time>
			</trkpt>
			<trkpt lat="50.8678283343113" lon="6.686329492354109">
				<ele>135.0</ele>
				<time>2011-02-16T16:00:10Z</time>
			</trkpt>
			<trkpt lat="50.86783134889544" lon="6.686408955615164">
				<ele>134.0</ele>
				<time>2011-02-16T16:00:11Z</time>
			</trkpt>
			<trkpt lat="50.86783549712358" lon="6.6865011751522605">
				<ele>134.0</ele>
				<time>2011-02-16T16:00:12Z</time>
			</trkpt>
			<trkpt lat="50.86783808216348" lon="6.686602370306872">
				<ele>134.0</ele>
				<time>2011-02-16T16:00:13Z</time>
			</trkpt>
			<trkpt lat="50.8678419341758" lon="6.686710575949168">
				<ele>134.0</ele>
				<time>2011-02-16T16:00:14Z</time>
			</trkpt>
			<trkpt lat="50.867845738971845" lon="6.686818841617974">
				<ele>134.0</ele>
				<time>2011-02-16T16:00:15Z</time>
			</trkpt>
			<trkpt lat="50.867847990829134" lon="6.686927212843154">
				<ele>134.0</ele>
				<time>2011-02-16T16:00:16Z</time>
			</trkpt>
			<trkpt lat="50.86784829149957" lon="6.687031848117633">
				<ele>134.0</ele>
				<time>2011-02-16T16:00:17Z</time>
			</trkpt>
			<trkpt lat="50.8678465502509" lon="6.68712866144837">
				<ele>133.0</ele>
				<time>2011-02-16T16:00:18Z</time>
			</trkpt>
			<trkpt lat="50.86784493991782" lon="6.6872146800428975">
				<ele>133.0</ele>
				<time>2011-02-16T16:00:19Z</time>
			</trkpt>
			<trkpt lat="50.86784331585802" lon="6.687290027024728">
				<ele>133.0</ele>
				<time>2011-02-16T16:00:20Z</time>
			</trkpt>
			<trkpt lat="50.867843129674" lon="6.687329646853008">
				<ele>133.0</ele>
				<time>2011-02-16T16:00:21Z</time>
			</trkpt>
			<trkpt lat="50.867843129674" lon="6.687329646853008">
				<ele>133.0</ele>
				<time>2011-02-16T16:00:22Z</time>
			</trkpt>
			<trkpt lat="50.867843129674" lon="6.687329646853008">
				<ele>133.0</ele>
				<time>2011-02-16T16:00:23Z</time>
			</trkpt>
			<trkpt lat="50.867843129674" lon="6.687329646853008">
				<ele>133.0</ele>
				<time>2011-02-16T16:00:24Z</time>
			</trkpt>
			<trkpt lat="50.867843129674" lon="6.687329646853008">
				<ele>133.0</ele>
				<time>2011-02-16T16:00:25Z</time>
			</trkpt>
			<trkpt lat="50.867843129674" lon="6.687329646853008">
				<ele>133.0</ele>
				<time>2011-02-16T16:00:26Z</time>
			</trkpt>
			<trkpt lat="50.867843129674" lon="6.687329646853008">
				<ele>133.0</ele>
				<time>2011-02-16T16:00:27Z</time>
			</trkpt>
			<trkpt lat="50.867843129674" lon="6.687329646853008">
				<ele>133.0</ele>
				<time>2011-02-16T16:00:28Z</time>
			</trkpt>
			<trkpt lat="50.867843129674" lon="6.687329646853008">
				<ele>133.0</ele>
				<time>2011-02-16T16:00:29Z</time>
			</trkpt>
			<trkpt lat="50.867843129674" lon="6.687329646853008">
				<ele>133.0</ele>
				<time>2011-02-16T16:00:30Z</time>
			</trkpt>
			<trkpt lat="50.867843129674" lon="6.687329646853008">
				<ele>133.0</ele>
				<time>2011-02-16T16:00:31Z</time>
			</trkpt>
			<trkpt lat="50.867843129674" lon="6.687329646853008">
				<ele>133.0</ele>
				<time>2011-02-16T16:00:32Z</time>
			</trkpt>
			<trkpt lat="50.867843129674" lon="6.687329646853008">
				<ele>133.0</ele>
				<time>2011-02-16T16:00:33Z</time>
			</trkpt>
			<trkpt lat="50.86785602873757" lon="6.687413795686189">
				<ele>133.0</ele>
				<time>2011-02-16T16:00:34Z</time>
			</trkpt>
			<trkpt lat="50.867864105760326" lon="6.687474466119869">
				<ele>133.0</ele>
				<time>2011-02-16T16:00:35Z</time>
			</trkpt>
			<trkpt lat="50.86786952842558" lon="6.6875387955263665">
				<ele>133.0</ele>
				<time>2011-02-16T16:00:36Z</time>
			</trkpt>
			<trkpt lat="50.867877356219985" lon="6.687630524699347">
				<ele>133.0</ele>
				<time>2011-02-16T16:00:37Z</time>
			</trkpt>
			<trkpt lat="50.86788303286023" lon="6.687729317361211">
				<ele>133.0</ele>
				<time>2011-02-16T16:00:38Z</time>
			</trkpt>
			<trkpt lat="50.86788877834513" lon="6.687824292418322">
				<ele>133.0</ele>
				<time>2011-02-16T16:00:39Z</time>
			</trkpt>
			<trkpt lat="50.86789455697373" lon="6.687918948146672">
				<ele>133.0</ele>
				<time>2011-02-16T16:00:40Z</time>
			</trkpt>
			<trkpt lat="50.867914113047924" lon="6.687997928846187">
				<ele>133.0</ele>
				<time>2011-02-16T16:00:41Z</time>
			</trkpt>
			<trkpt lat="50.86795185853711" lon="6.688046395410642">
				<ele>133.0</ele>
				<time>2011-02-16T16:00:42Z</time>
			</trkpt>
			<trkpt lat="50.86800164465245" lon="6.688063371064303">
				<ele>133.0</ele>
				<time>2011-02-16T16:00:43Z</time>
			</trkpt>
			<trkpt lat="50.86805661068987" lon="6.688057760815956">
				<ele>133.0</ele>
				<time>2011-02-16T16:00:44Z</time>
			</trkpt>
			<trkpt lat="50.86811608701855" lon="6.688046801636037">
				<ele>133.0</ele>
				<time>2011-02-16T16:00:45Z</time>
			</trkpt>
			<trkpt lat="50.868179732149976" lon="6.688027503804526">
				<ele>132.0</ele>
				<time>2011-02-16T16:00:46Z</time>
			</trkpt>
			<trkpt lat="50.868245753644885" lon="6.687999999514591">
				<ele>132.0</ele>
				<time>2011-02-16T16:00:47Z</time>
			</trkpt>
			<trkpt lat="50.86831063497741" lon="6.687968386886369">
				<ele>131.0</ele>
				<time>2011-02-16T16:00:48Z</time>
			</trkpt>
			<trkpt lat="50.86837268133272" lon="6.687934746631053">
				<ele>131.0</ele>
				<time>2011-02-16T16:00:49Z</time>
			</trkpt>
			<trkpt lat="50.86842741150679" lon="6.687901386641473">
				<ele>131.0</ele>
				<time>2011-02-16T16:00:50Z</time>
			</trkpt>
			<trkpt lat="50.86847926419583" lon="6.6878649183687875">
				<ele>131.0</ele>
				<time>2011-02-16T16:00:51Z</time>
			</trkpt>
			<trkpt lat="50.86852365407772" lon="6.6878280561450465">
				<ele>131.0</ele>
				<time>2011-02-16T16:00:52Z</time>
			</trkpt>
			<trkpt lat="50.86856303928273" lon="6.68779251020258">
				<ele>131.0</ele>
				<time>2011-02-16T16:00:53Z</time>
			</trkpt>
			<trkpt lat="50.86860512024804" lon="6.687753260698247">
				<ele>131.0</ele>
				<time>2011-02-16T16:00:54Z</time>
			</trkpt>
			<trkpt lat="50.86864934373702" lon="6.6877079337679035">
				<ele>131.0</ele>
				<time>2011-02-16T16:00:55Z</time>
			</trkpt>
			<trkpt lat="50.86870095996575" lon="6.6876492250644874">
				<ele>131.0</ele>
				<time>2011-02-16T16:00:56Z</time>
			</trkpt>
			<trkpt lat="50.86875011029691" lon="6.687585944572349">
				<ele>132.0</ele>
				<time>2011-02-16T16:00:57Z</time>
			</trkpt>
			<trkpt lat="50.868798293077226" lon="6.687517969365407">
				<ele>132.0</ele>
				<time>2011-02-16T16:00:58Z</time>
			</trkpt>
			<trkpt lat="50.868845429875016" lon="6.687447171304958">
				<ele>132.0</ele>
				<time>2011-02-16T16:00:59Z</time>
			</trkpt>
			<trkpt lat="50.86889116263169" lon="6.687374361408795">
				<ele>132.0</ele>
				<time>2011-02-16T16:01:00Z</time>
			</trkpt>
			<trkpt lat="50.868932080078984" lon="6.687305476731496">
				<ele>132.0</ele>
				<time>2011-02-16T16:01:01Z</time>
			</trkpt>
			<trkpt lat="50.868969393984855" lon="6.687240453757068">
				<ele>132.0</ele>
				<time>2011-02-16T16:01:02Z</time>
			</trkpt>
			<trkpt lat="50.869003131199726" lon="6.6871827170357285">
				<ele>132.0</ele>
				<time>2011-02-16T16:01:03Z</time>
			</trkpt>
			<trkpt lat="50.869032438110175" lon="6.6871374200207265">
				<ele>132.0</ele>
				<time>2011-02-16T16:01:04Z</time>
			</trkpt>
			<trkpt lat="50.86905028485848" lon="6.687109650619597">
				<ele>132.0</ele>
				<time>2011-02-16T16:01:05Z</time>
			</trkpt>
			<trkpt lat="50.86905028485848" lon="6.687109650619597">
				<ele>132.0</ele>
				<time>2011-02-16T16:01:06Z</time>
			</trkpt>
			<trkpt lat="50.86905028485848" lon="6.687109650619597">
				<ele>132.0</ele>
				<time>2011-02-16T16:01:07Z</time>
			</trkpt>
			<trkpt lat="50.86905028485848" lon="6.687109650619597">
				<ele>132.0</ele>
				<time>2011-02-16T16:01:08Z</time>
			</trkpt>
			<trkpt lat="50.86905028485848" lon="6.687109650619597">
				<ele>132.0</ele>
				<time>2011-02-16T16:01:09Z</time>
			</trkpt>
			<trkpt lat="50.86907565160591" lon="6.687068603956791">
				<ele>132.0</ele>
				<time>2011-02-16T16:01:10Z</time>
			</trkpt>
			<trkpt lat="50.86910188207532" lon="6.6870280526652754">
				<ele>132.0</ele>
				<time>2011-02-16T16:01:11Z</time>
			</trkpt>
			<trkpt lat="50.869131111652756" lon="6.686980360724894">
				<ele>132.0</ele>
				<time>2011-02-16T16:01:12Z</time>
			</trkpt>
			<trkpt lat="50.86916175292184" lon="6.686929836966471">
				<ele>132.0</ele>
				<time>2011-02-16T16:01:13Z</time>
			</trkpt>
			<trkpt lat="50.86919831950556" lon="6.686867190498312">
				<ele>132.0</ele>
				<time>2011-02-16T16:01:14Z</time>
			</trkpt>
			<trkpt lat="50.8692375834144" lon="6.6867992891693815">
				<ele>132.0</ele>
				<time>2011-02-16T16:01:15Z</time>
			</trkpt>
			<trkpt lat="50.869277725332985" lon="6.686729352199686">
				<ele>132.0</ele>
				<time>2011-02-16T16:01:16Z</time>
			</trkpt>
			<trkpt lat="50.86931658573943" lon="6.686661943666041">
				<ele>132.0</ele>
				<time>2011-02-16T16:01:17Z</time>
			</trkpt>
			<trkpt lat="50.86935458633129" lon="6.686597666210512">
				<ele>132.0</ele>
				<time>2011-02-16T16:01:18Z</time>
			</trkpt>
			<trkpt lat="50.86939160333542" lon="6.686541289696686">
				<ele>132.0</ele>
				<time>2011-02-16T16:01:19Z</time>
			</trkpt>
			<trkpt lat="50.86942915726464" lon="6.686488646237382">
				<ele>132.0</ele>
				<time>2011-02-16T16:01:20Z</time>
			</trkpt>
			<trkpt lat="50.86946723866873" lon="6.686439159934847">
				<ele>132.0</ele>
				<time>2011-02-16T16:01:21Z</time>
			</trkpt>
			<trkpt lat="50.86950729648084" lon="6.686393595060733">
				<ele>131.0</ele>
				<time>2011-02-16T16:01:22Z</time>
			</trkpt>
			<trkpt lat="50.86954843831112" lon="6.68635212414137">
				<ele>131.0</ele>
				<time>2011-02-16T16:01:23Z</time>
			</trkpt>
			<trkpt lat="50.869586480360404" lon="6.686319656807743">
				<ele>132.0</ele>
				<time>2011-02-16T16:01:24Z</time>
			</trkpt>
			<trkpt lat="50.869625169634226" lon="6.686291181969682">
				<ele>132.0</ele>
				<time>2011-02-16T16:01:25Z</time>
			</trkpt>
			<trkpt lat="50.8696660853066" lon="6.686264459177471">
				<ele>132.0</ele>
				<time>2011-02-16T16:01:26Z</time>
			</trkpt>
			<trkpt lat="50.86970823485873" lon="6.6862386375835445">
				<ele>132.0</ele>
				<time>2011-02-16T16:01:27Z</time>
			</trkpt>
			<trkpt lat="50.869751576510104" lon="6.686211575177565">
				<ele>132.0</ele>
				<time>2011-02-16T16:01:28Z</time>
			</trkpt>
			<trkpt lat="50.86979552253941" lon="6.686185146594338">
				<ele>132.0</ele>
				<time>2011-02-16T16:01:29Z</time>
			</trkpt>
			<trkpt lat="50.86983794893649" lon="6.686157686999017">
				<ele>132.0</ele>
				<time>2011-02-16T16:01:30Z</time>
			</trkpt>
			<trkpt lat="50.869878895863856" lon="6.686127598760645">
				<ele>132.0</ele>
				<time>2011-02-16T16:01:31Z</time>
			</trkpt>
			<trkpt lat="50.8699193565355" lon="6.68609685973474">
				<ele>132.0</ele>
				<time>2011-02-16T16:01:32Z</time>
			</trkpt>
			<trkpt lat="50.86995899593342" lon="6.686066934417409">
				<ele>132.0</ele>
				<time>2011-02-16T16:01:33Z</time>
			</trkpt>
			<trkpt lat="50.86999822806156" lon="6.6860368679640825">
				<ele>132.0</ele>
				<time>2011-02-16T16:01:34Z</time>
			</trkpt>
			<trkpt lat="50.870039547942135" lon="6.68600286312231">
				<ele>132.0</ele>
				<time>2011-02-16T16:01:35Z</time>
			</trkpt>
			<trkpt lat="50.87008628290603" lon="6.685965316465041">
				<ele>133.0</ele>
				<time>2011-02-16T16:01:36Z</time>
			</trkpt>
			<trkpt lat="50.87013349650959" lon="6.685928269209341">
				<ele>133.0</ele>
				<time>2011-02-16T16:01:37Z</time>
			</trkpt>
			<trkpt lat="50.8701800737441" lon="6.685891950035363">
				<ele>133.0</ele>
				<time>2011-02-16T16:01:38Z</time>
			</trkpt>
			<trkpt lat="50.87022630585485" lon="6.685858925066557">
				<ele>133.0</ele>
				<time>2011-02-16T16:01:39Z</time>
			</trkpt>
			<trkpt lat="50.87027138889489" lon="6.685826374741702">
				<ele>133.0</ele>
				<time>2011-02-16T16:01:40Z</time>
			</trkpt>
			<trkpt lat="50.87031627711422" lon="6.685793540293839">
				<ele>134.0</ele>
				<time>2011-02-16T16:01:41Z</time>
			</trkpt>
			<trkpt lat="50.87036170830227" lon="6.685758083306089">
				<ele>134.0</ele>
				<time>2011-02-16T16:01:42Z</time>
			</trkpt>
			<trkpt lat="50.87040989886691" lon="6.685720297474213">
				<ele>134.0</ele>
				<time>2011-02-16T16:01:43Z</time>
			</trkpt>
			<trkpt lat="50.870462071038666" lon="6.685677049750075">
				<ele>134.0</ele>
				<time>2011-02-16T16:01:44Z</time>
			</trkpt>
			<trkpt lat="50.87051461219102" lon="6.6856333771437235">
				<ele>134.0</ele>
				<time>2011-02-16T16:01:45Z</time>
			</trkpt>
			<trkpt lat="50.87056744615627" lon="6.6855862180817685">
				<ele>135.0</ele>
				<time>2011-02-16T16:01:46Z</time>
			</trkpt>
			<trkpt lat="50.87061947545394" lon="6.685539289071673">
				<ele>135.0</ele>
				<time>2011-02-16T16:01:47Z</time>
			</trkpt>
			<trkpt lat="50.87066817853729" lon="6.685493150374918">
				<ele>135.0</ele>
				<time>2011-02-16T16:01:48Z</time>
			</trkpt>
			<trkpt lat="50.87071456420832" lon="6.685449529781721">
				<ele>135.0</ele>
				<time>2011-02-16T16:01:49Z</time>
			</trkpt>
			<trkpt lat="50.87075831285486" lon="6.685408753338549">
				<ele>135.0</ele>
				<time>2011-02-16T16:01:50Z</time>
			</trkpt>
			<trkpt lat="50.87079720136524" lon="6.685372834995084">
				<ele>135.0</ele>
				<time>2011-02-16T16:01:51Z</time>
			</trkpt>
			<trkpt lat="50.87083466261517" lon="6.685339978943803">
				<ele>135.0</ele>
				<time>2011-02-16T16:01:52Z</time>
			</trkpt>
			<trkpt lat="50.870873104818344" lon="6.685305664478881">
				<ele>135.0</ele>
				<time>2011-02-16T16:01:53Z</time>
			</trkpt>
			<trkpt lat="50.87091278484426" lon="6.685249041372072">
				<ele>135.0</ele>
				<time>2011-02-16T16:01:54Z</time>
			</trkpt>
			<trkpt lat="50.87095961685177" lon="6.685185478452851">
				<ele>135.0</ele>
				<time>2011-02-16T16:01:55Z</time>
			</trkpt>
			<trkpt lat="50.87101927400509" lon="6.685117389447645">
				<ele>135.0</ele>
				<time>2011-02-16T16:01:56Z</time>
			</trkpt>
			<trkpt lat="50.87108449436033" lon="6.685053239691439">
				<ele>135.0</ele>
				<time>2011-02-16T16:01:57Z</time>
			</trkpt>
			<trkpt lat="50.87115644766819" lon="6.684986470816503">
				<ele>135.0</ele>
				<time>2011-02-16T16:01:58Z</time>
			</trkpt>
			<trkpt lat="50.87123681587022" lon="6.684910179643114">
				<ele>135.0</ele>
				<time>2011-02-16T16:01:59Z</time>
			</trkpt>
			<trkpt lat="50.87131827995971" lon="6.68483394209913">
				<ele>135.0</ele>
				<time>2011-02-16T16:02:00Z</time>
			</trkpt>
			<trkpt lat="50.871398637318755" lon="6.684757806659831">
				<ele>134.0</ele>
				<time>2011-02-16T16:02:01Z</time>
			</trkpt>
			<trkpt lat="50.87147789920606" lon="6.6846864568089455">
				<ele>134.0</ele>
				<time>2011-02-16T16:02:02Z</time>
			</trkpt>
			<trkpt lat="50.871556892109304" lon="6.684619490160785">
				<ele>134.0</ele>
				<time>2011-02-16T16:02:03Z</time>
			</trkpt>
			<trkpt lat="50.87163423462173" lon="6.684554547307574">
				<ele>134.0</ele>
				<time>2011-02-16T16:02:04Z</time>
			</trkpt>
			<trkpt lat="50.87171030381426" lon="6.684490288066159">
				<ele>134.0</ele>
				<time>2011-02-16T16:02:05Z</time>
			</trkpt>
			<trkpt lat="50.87178656152043" lon="6.68442559330911">
				<ele>134.0</ele>
				<time>2011-02-16T16:02:06Z</time>
			</trkpt>
			<trkpt lat="50.87186499898825" lon="6.684357514152973">
				<ele>134.0</ele>
				<time>2011-02-16T16:02:07Z</time>
			</trkpt>
			<trkpt lat="50.87194362317481" lon="6.684288163817882">
				<ele>134.0</ele>
				<time>2011-02-16T16:02:08Z</time>
			</trkpt>
			<trkpt lat="50.87202109702158" lon="6.6842183792580885">
				<ele>134.0</ele>
				<time>2011-02-16T16:02:09Z</time>
			</trkpt>
			<trkpt lat="50.87209706089232" lon="6.68414516913275">
				<ele>134.0</ele>
				<time>2011-02-16T16:02:10Z</time>
			</trkpt>
			<trkpt lat="50.87216952439919" lon="6.6840706972071375">
				<ele>134.0</ele>
				<time>2011-02-16T16:02:11Z</time>
			</trkpt>
			<trkpt lat="50.872237011739905" lon="6.683995133622754">
				<ele>134.0</ele>
				<time>2011-02-16T16:02:12Z</time>
			</trkpt>
			<trkpt lat="50.872299478970774" lon="6.683919107944317">
				<ele>135.0</ele>
				<time>2011-02-16T16:02:13Z</time>
			</trkpt>
			<trkpt lat="50.87235477185756" lon="6.683846859664871">
				<ele>135.0</ele>
				<time>2011-02-16T16:02:14Z</time>
			</trkpt>
			<trkpt lat="50.87239754051968" lon="6.683786770786995">
				<ele>135.0</ele>
				<time>2011-02-16T16:02:15Z</time>
			</trkpt>
			<trkpt lat="50.87242967353617" lon="6.683744468646967">
				<ele>135.0</ele>
				<time>2011-02-16T16:02:16Z</time>
			</trkpt>
			<trkpt lat="50.87245491530556" lon="6.683711174582099">
				<ele>135.0</ele>
				<time>2011-02-16T16:02:17Z</time>
			</trkpt>
			<trkpt lat="50.87247825551162" lon="6.683680837207489">
				<ele>135.0</ele>
				<time>2011-02-16T16:02:18Z</time>
			</trkpt>
			<trkpt lat="50.872505396796875" lon="6.683651179941304">
				<ele>135.0</ele>
				<time>2011-02-16T16:02:19Z</time>
			</trkpt>
			<trkpt lat="50.87254695079652" lon="6.683640037752132">
				<ele>135.0</ele>
				<time>2011-02-16T16:02:20Z</time>
			</trkpt>
			<trkpt lat="50.87258790307636" lon="6.6836439291963">
				<ele>134.0</ele>
				<time>2011-02-16T16:02:21Z</time>
			</trkpt>
			<trkpt lat="50.87262877336934" lon="6.683665593831182">
				<ele>134.0</ele>
				<time>2011-02-16T16:02:22Z</time>
			</trkpt>
			<trkpt lat="50.872667160753586" lon="6.683706904968336">
				<ele>134.0</ele>
				<time>2011-02-16T16:02:23Z</time>
			</trkpt>
			<trkpt lat="50.87270911266125" lon="6.6837588429127655">
				<ele>134.0</ele>
				<time>2011-02-16T16:02:24Z</time>
			</trkpt>
			<trkpt lat="50.87275620103877" lon="6.683825456062486">
				<ele>134.0</ele>
				<time>2011-02-16T16:02:25Z</time>
			</trkpt>
			<trkpt lat="50.87280466020359" lon="6.683897614179958">
				<ele>134.0</ele>
				<time>2011-02-16T16:02:26Z</time>
			</trkpt>
			<trkpt lat="50.87285333017388" lon="6.683975579584358">
				<ele>134.0</ele>
				<time>2011-02-16T16:02:27Z</time>
			</trkpt>
			<trkpt lat="50.87290235519918" lon="6.684055295895206">
				<ele>134.0</ele>
				<time>2011-02-16T16:02:28Z</time>
			</trkpt>
			<trkpt lat="50.872949405232376" lon="6.684136765221265">
				<ele>134.0</ele>
				<time>2011-02-16T16:02:29Z</time>
			</trkpt>
			<trkpt lat="50.872994029830004" lon="6.684220016542891">
				<ele>134.0</ele>
				<time>2011-02-16T16:02:30Z</time>
			</trkpt>
			<trkpt lat="50.87303583076607" lon="6.684306036935095">
				<ele>134.0</ele>
				<time>2011-02-16T16:02:31Z</time>
			</trkpt>
			<trkpt lat="50.873078166104946" lon="6.684388403559263">
				<ele>134.0</ele>
				<time>2011-02-16T16:02:32Z</time>
			</trkpt>
			<trkpt lat="50.873119812998645" lon="6.684464194633905">
				<ele>134.0</ele>
				<time>2011-02-16T16:02:33Z</time>
			</trkpt>
			<trkpt lat="50.87315991627595" lon="6.684537555432873">
				<ele>134.0</ele>
				<time>2011-02-16T16:02:34Z</time>
			</trkpt>
			<trkpt lat="50.87319821380227" lon="6.684609676538338">
				<ele>134.0</ele>
				<time>2011-02-16T16:02:35Z</time>
			</trkpt>
			<trkpt lat="50.87323247846688" lon="6.6846778548648995">
				<ele>134.0</ele>
				<time>2011-02-16T16:02:36Z</time>
			</trkpt>
			<trkpt lat="50.87326506983754" lon="6.684745338548472">
				<ele>134.0</ele>
				<time>2011-02-16T16:02:37Z</time>
			</trkpt>
			<trkpt lat="50.87329238531783" lon="6.684803885212241">
				<ele>134.0</ele>
				<time>2011-02-16T16:02:38Z</time>
			</trkpt>
			<trkpt lat="50.87331624355191" lon="6.684855289716864">
				<ele>135.0</ele>
				<time>2011-02-16T16:02:39Z</time>
			</trkpt>
			<trkpt lat="50.873336529340435" lon="6.684892051653337">
				<ele>135.0</ele>
				<time>2011-02-16T16:02:40Z</time>
			</trkpt>
			<trkpt lat="50.873346916103195" lon="6.684911163584009">
				<ele>135.0</ele>
				<time>2011-02-16T16:02:41Z</time>
			</trkpt>
			<trkpt lat="50.873346916103195" lon="6.684911163584009">
				<ele>135.0</ele>
				<time>2011-02-16T16:02:42Z</time>
			</trkpt>
			<trkpt lat="50.873346916103195" lon="6.684911163584009">
				<ele>135.0</ele>
				<time>2011-02-16T16:02:43Z</time>
			</trkpt>
			<trkpt lat="50.8733772915707" lon="6.684964256770266">
				<ele>135.0</ele>
				<time>2011-02-16T16:02:44Z</time>
			</trkpt>
			<trkpt lat="50.87340332234128" lon="6.685003211143683">
				<ele>135.0</ele>
				<time>2011-02-16T16:02:45Z</time>
			</trkpt>
			<trkpt lat="50.87343099087066" lon="6.685045426522843">
				<ele>135.0</ele>
				<time>2011-02-16T16:02:46Z</time>
			</trkpt>
			<trkpt lat="50.87346425134325" lon="6.685099399637235">
				<ele>135.0</ele>
				<time>2011-02-16T16:02:47Z</time>
			</trkpt>
			<trkpt lat="50.8734992129728" lon="6.685157152684772">
				<ele>136.0</ele>
				<time>2011-02-16T16:02:48Z</time>
			</trkpt>
			<trkpt lat="50.873534417237316" lon="6.685215832318976">
				<ele>136.0</ele>
				<time>2011-02-16T16:02:49Z</time>
			</trkpt>
			<trkpt lat="50.873568809866384" lon="6.685275854797086">
				<ele>136.0</ele>
				<time>2011-02-16T16:02:50Z</time>
			</trkpt>
			<trkpt lat="50.87359098255665" lon="6.685347661842422">
				<ele>136.0</ele>
				<time>2011-02-16T16:02:51Z</time>
			</trkpt>
			<trkpt lat="50.873610724654014" lon="6.685419739825071">
				<ele>136.0</ele>
				<time>2011-02-16T16:02:52Z</time>
			</trkpt>
			<trkpt lat="50.873628967999046" lon="6.685477477421327">
				<ele>136.0</ele>
				<time>2011-02-16T16:02:53Z</time>
			</trkpt>
			<trkpt lat="50.87364145917503" lon="6.685511556554145">
				<ele>136.0</ele>
				<time>2011-02-16T16:02:54Z</time>
			</trkpt>
			<trkpt lat="50.87364145917503" lon="6.685511556554145">
				<ele>136.0</ele>
				<time>2011-02-16T16:02:55Z</time>
			</trkpt>
			<trkpt lat="50.87364145917503" lon="6.685511556554145">
				<ele>136.0</ele>
				<time>2011-02-16T16:02:56Z</time>
			</trkpt>
			<trkpt lat="50.87364145917503" lon="6.685511556554145">
				<ele>136.0</ele>
				<time>2011-02-16T16:02:57Z</time>
			</trkpt>
			<trkpt lat="50.87364145917503" lon="6.685511556554145">
				<ele>136.0</ele>
				<time>2011-02-16T16:02:58Z</time>
			</trkpt>
			<trkpt lat="50.87364145917503" lon="6.685511556554145">
				<ele>136.0</ele>
				<time>2011-02-16T16:02:59Z</time>
			</trkpt>
			<trkpt lat="50.87364145917503" lon="6.685511556554145">
				<ele>136.0</ele>
				<time>2011-02-16T16:03:00Z</time>
			</trkpt>
			<trkpt lat="50.87364145917503" lon="6.685511556554145">
				<ele>136.0</ele>
				<time>2011-02-16T16:03:01Z</time>
			</trkpt>
			<trkpt lat="50.87367236490359" lon="6.6855808977439874">
				<ele>136.0</ele>
				<time>2011-02-16T16:03:02Z</time>
			</trkpt>
			<trkpt lat="50.87368242560515" lon="6.685595415566883">
				<ele>136.0</ele>
				<time>2011-02-16T16:03:03Z</time>
			</trkpt>
			<trkpt lat="50.87370821824767" lon="6.685632367620297">
				<ele>136.0</ele>
				<time>2011-02-16T16:03:04Z</time>
			</trkpt>
			<trkpt lat="50.87373902240757" lon="6.685670913054234">
				<ele>136.0</ele>
				<time>2011-02-16T16:03:05Z</time>
			</trkpt>
			<trkpt lat="50.87377177078522" lon="6.685710241101258">
				<ele>136.0</ele>
				<time>2011-02-16T16:03:06Z</time>
			</trkpt>
			<trkpt lat="50.87381103747192" lon="6.685758264691401">
				<ele>136.0</ele>
				<time>2011-02-16T16:03:07Z</time>
			</trkpt>
			<trkpt lat="50.87385131084814" lon="6.685805919724413">
				<ele>136.0</ele>
				<time>2011-02-16T16:03:08Z</time>
			</trkpt>
			<trkpt lat="50.873890732692814" lon="6.685855047925132">
				<ele>136.0</ele>
				<time>2011-02-16T16:03:09Z</time>
			</trkpt>
			<trkpt lat="50.87392366385389" lon="6.6858982153507736">
				<ele>136.0</ele>
				<time>2011-02-16T16:03:10Z</time>
			</trkpt>
			<trkpt lat="50.8739511497084" lon="6.685937548849564">
				<ele>136.0</ele>
				<time>2011-02-16T16:03:11Z</time>
			</trkpt>
			<trkpt lat="50.87397518968519" lon="6.685971915780021">
				<ele>136.0</ele>
				<time>2011-02-16T16:03:12Z</time>
			</trkpt>
			<trkpt lat="50.87400018270535" lon="6.6860137581014625">
				<ele>136.0</ele>
				<time>2011-02-16T16:03:13Z</time>
			</trkpt>
			<trkpt lat="50.87403677067273" lon="6.686074481894078">
				<ele>136.0</ele>
				<time>2011-02-16T16:03:14Z</time>
			</trkpt>
			<trkpt lat="50.87408265757146" lon="6.686151017113638">
				<ele>135.0</ele>
				<time>2011-02-16T16:03:15Z</time>
			</trkpt>
			<trkpt lat="50.874129058725536" lon="6.686229249727254">
				<ele>135.0</ele>
				<time>2011-02-16T16:03:16Z</time>
			</trkpt>
			<trkpt lat="50.874175997728656" lon="6.68630917578602">
				<ele>135.0</ele>
				<time>2011-02-16T16:03:17Z</time>
			</trkpt>
			<trkpt lat="50.87422135271071" lon="6.686391468508449">
				<ele>135.0</ele>
				<time>2011-02-16T16:03:18Z</time>
			</trkpt>
			<trkpt lat="50.874268799117615" lon="6.68647737363187">
				<ele>135.0</ele>
				<time>2011-02-16T16:03:19Z</time>
			</trkpt>
			<trkpt lat="50.87432116928018" lon="6.686567633449772">
				<ele>136.0</ele>
				<time>2011-02-16T16:03:20Z</time>
			</trkpt>
			<trkpt lat="50.8743753468249" lon="6.686660776457357">
				<ele>136.0</ele>
				<time>2011-02-16T16:03:21Z</time>
			</trkpt>
			<trkpt lat="50.87442745773393" lon="6.686751611171274">
				<ele>136.0</ele>
				<time>2011-02-16T16:03:22Z</time>
			</trkpt>
			<trkpt lat="50.874478515978836" lon="6.686846171587093">
				<ele>135.0</ele>
				<time>2011-02-16T16:03:23Z</time>
			</trkpt>
			<trkpt lat="50.87452674628534" lon="6.686945147031017">
				<ele>135.0</ele>
				<time>2011-02-16T16:03:24Z</time>
			</trkpt>
			<trkpt lat="50.874575545555395" lon="6.687046733927211">
				<ele>135.0</ele>
				<time>2011-02-16T16:03:25Z</time>
			</trkpt>
			<trkpt lat="50.8746250161372" lon="6.687150301887397">
				<ele>135.0</ele>
				<time>2011-02-16T16:03:26Z</time>
			</trkpt>
			<trkpt lat="50.87467512972031" lon="6.687255969832896">
				<ele>135.0</ele>
				<time>2011-02-16T16:03:27Z</time>
			</trkpt>
			<trkpt lat="50.874723606164366" lon="6.687362204388285">
				<ele>135.0</ele>
				<time>2011-02-16T16:03:28Z</time>
			</trkpt>
			<trkpt lat="50.87477098502926" lon="6.68746729118598">
				<ele>135.0</ele>
				<time>2011-02-16T16:03:29Z</time>
			</trkpt>
			<trkpt lat="50.874811990874115" lon="6.687572772187138">
				<ele>135.0</ele>
				<time>2011-02-16T16:03:30Z</time>
			</trkpt>
			<trkpt lat="50.87484827766267" lon="6.687675063433522">
				<ele>135.0</ele>
				<time>2011-02-16T16:03:31Z</time>
			</trkpt>
			<trkpt lat="50.874883383325134" lon="6.687774226111389">
				<ele>135.0</ele>
				<time>2011-02-16T16:03:32Z</time>
			</trkpt>
			<trkpt lat="50.87491320194552" lon="6.687862701391243">
				<ele>135.0</ele>
				<time>2011-02-16T16:03:33Z</time>
			</trkpt>
			<trkpt lat="50.874938783503325" lon="6.687937976968199">
				<ele>135.0</ele>
				<time>2011-02-16T16:03:34Z</time>
			</trkpt>
			<trkpt lat="50.874963854026696" lon="6.688007090948402">
				<ele>135.0</ele>
				<time>2011-02-16T16:03:35Z</time>
			</trkpt>
			<trkpt lat="50.874991169606226" lon="6.6880770964062055">
				<ele>135.0</ele>
				<time>2011-02-16T16:03:36Z</time>
			</trkpt>
			<trkpt lat="50.87501951970638" lon="6.688147813617402">
				<ele>136.0</ele>
				<time>2011-02-16T16:03:37Z</time>
			</trkpt>
			<trkpt lat="50.87504688039287" lon="6.68822037281003">
				<ele>136.0</ele>
				<time>2011-02-16T16:03:38Z</time>
			</trkpt>
			<trkpt lat="50.875073540728074" lon="6.688297557379376">
				<ele>136.0</ele>
				<time>2011-02-16T16:03:39Z</time>
			</trkpt>
			<trkpt lat="50.87509955820108" lon="6.688377544787295">
				<ele>136.0</ele>
				<time>2011-02-16T16:03:40Z</time>
			</trkpt>
			<trkpt lat="50.87512476348533" lon="6.688455570068987">
				<ele>136.0</ele>
				<time>2011-02-16T16:03:41Z</time>
			</trkpt>
			<trkpt lat="50.875149316596634" lon="6.68853337887667">
				<ele>136.0</ele>
				<time>2011-02-16T16:03:42Z</time>
			</trkpt>
			<trkpt lat="50.875172063930144" lon="6.68861130544258">
				<ele>136.0</ele>
				<time>2011-02-16T16:03:43Z</time>
			</trkpt>
			<trkpt lat="50.87519587684939" lon="6.688691371196308">
				<ele>136.0</ele>
				<time>2011-02-16T16:03:44Z</time>
			</trkpt>
			<trkpt lat="50.87522020335933" lon="6.688774212301467">
				<ele>136.0</ele>
				<time>2011-02-16T16:03:45Z</time>
			</trkpt>
			<trkpt lat="50.8752482618018" lon="6.688871535304214">
				<ele>136.0</ele>
				<time>2011-02-16T16:03:46Z</time>
			</trkpt>
			<trkpt lat="50.875276360299935" lon="6.688975165672201">
				<ele>136.0</ele>
				<time>2011-02-16T16:03:47Z</time>
			</trkpt>
			<trkpt lat="50.875301277894096" lon="6.689075690667223">
				<ele>136.0</ele>
				<time>2011-02-16T16:03:48Z</time>
			</trkpt>
			<trkpt lat="50.87532366357422" lon="6.6891748163585865">
				<ele>136.0</ele>
				<time>2011-02-16T16:03:49Z</time>
			</trkpt>
			<trkpt lat="50.8753443600924" lon="6.689275849369142">
				<ele>136.0</ele>
				<time>2011-02-16T16:03:50Z</time>
			</trkpt>
			<trkpt lat="50.87536367469903" lon="6.689384396257828">
				<ele>136.0</ele>
				<time>2011-02-16T16:03:51Z</time>
			</trkpt>
			<trkpt lat="50.875384905408765" lon="6.689496146728941">
				<ele>136.0</ele>
				<time>2011-02-16T16:03:52Z</time>
			</trkpt>
			<trkpt lat="50.87541014858523" lon="6.689607112563129">
				<ele>136.0</ele>
				<time>2011-02-16T16:03:53Z</time>
			</trkpt>
			<trkpt lat="50.87543625100588" lon="6.689721933099475">
				<ele>136.0</ele>
				<time>2011-02-16T16:03:54Z</time>
			</trkpt>
			<trkpt lat="50.875460328093354" lon="6.689842639063824">
				<ele>136.0</ele>
				<time>2011-02-16T16:03:55Z</time>
			</trkpt>
			<trkpt lat="50.87548360483753" lon="6.689972267344993">
				<ele>136.0</ele>
				<time>2011-02-16T16:03:56Z</time>
			</trkpt>
			<trkpt lat="50.875503076749105" lon="6.6901022058476896">
				<ele>136.0</ele>
				<time>2011-02-16T16:03:57Z</time>
			</trkpt>
			<trkpt lat="50.87552046369608" lon="6.6902352477248295">
				<ele>136.0</ele>
				<time>2011-02-16T16:03:58Z</time>
			</trkpt>
			<trkpt lat="50.875535940826325" lon="6.690369330468935">
				<ele>136.0</ele>
				<time>2011-02-16T16:03:59Z</time>
			</trkpt>
			<trkpt lat="50.875550903523404" lon="6.6905022651361605">
				<ele>136.0</ele>
				<time>2011-02-16T16:04:00Z</time>
			</trkpt>
			<trkpt lat="50.87556293702992" lon="6.690633925022698">
				<ele>136.0</ele>
				<time>2011-02-16T16:04:01Z</time>
			</trkpt>
			<trkpt lat="50.87557258977018" lon="6.69076341217034">
				<ele>136.0</ele>
				<time>2011-02-16T16:04:02Z</time>
			</trkpt>
			<trkpt lat="50.875581687442946" lon="6.690888126110034">
				<ele>136.0</ele>
				<time>2011-02-16T16:04:03Z</time>
			</trkpt>
			<trkpt lat="50.875590040113536" lon="6.691007224715802">
				<ele>136.0</ele>
				<time>2011-02-16T16:04:04Z</time>
			</trkpt>
			<trkpt lat="50.87559618944942" lon="6.691119358972763">
				<ele>135.0</ele>
				<time>2011-02-16T16:04:05Z</time>
			</trkpt>
			<trkpt lat="50.875605502076844" lon="6.691224217815939">
				<ele>135.0</ele>
				<time>2011-02-16T16:04:06Z</time>
			</trkpt>
			<trkpt lat="50.875614611293294" lon="6.691325547944168">
				<ele>135.0</ele>
				<time>2011-02-16T16:04:07Z</time>
			</trkpt>
			<trkpt lat="50.87562563038005" lon="6.691422799141065">
				<ele>135.0</ele>
				<time>2011-02-16T16:04:08Z</time>
			</trkpt>
			<trkpt lat="50.87563936472305" lon="6.691512256849431">
				<ele>135.0</ele>
				<time>2011-02-16T16:04:09Z</time>
			</trkpt>
			<trkpt lat="50.87565051951222" lon="6.6916002778543895">
				<ele>134.0</ele>
				<time>2011-02-16T16:04:10Z</time>
			</trkpt>
			<trkpt lat="50.875646059934105" lon="6.691688871597447">
				<ele>134.0</ele>
				<time>2011-02-16T16:04:11Z</time>
			</trkpt>
			<trkpt lat="50.87564391965413" lon="6.691776782353912">
				<ele>134.0</ele>
				<time>2011-02-16T16:04:12Z</time>
			</trkpt>
			<trkpt lat="50.87564653123325" lon="6.69186615403174">
				<ele>134.0</ele>
				<time>2011-02-16T16:04:13Z</time>
			</trkpt>
			<trkpt lat="50.875650971566834" lon="6.691956425216127">
				<ele>134.0</ele>
				<time>2011-02-16T16:04:14Z</time>
			</trkpt>
			<trkpt lat="50.87565701401604" lon="6.692047074575663">
				<ele>133.0</ele>
				<time>2011-02-16T16:04:15Z</time>
			</trkpt>
			<trkpt lat="50.87566238778643" lon="6.692137733784247">
				<ele>133.0</ele>
				<time>2011-02-16T16:04:16Z</time>
			</trkpt>
			<trkpt lat="50.875668135261904" lon="6.692227467756464">
				<ele>133.0</ele>
				<time>2011-02-16T16:04:17Z</time>
			</trkpt>
			<trkpt lat="50.87567321010917" lon="6.69231256984942">
				<ele>133.0</ele>
				<time>2011-02-16T16:04:18Z</time>
			</trkpt>
			<trkpt lat="50.875677752524744" lon="6.692396744169885">
				<ele>133.0</ele>
				<time>2011-02-16T16:04:19Z</time>
			</trkpt>
			<trkpt lat="50.875681554176786" lon="6.6924778141697026">
				<ele>133.0</ele>
				<time>2011-02-16T16:04:20Z</time>
			</trkpt>
			<trkpt lat="50.87568464202527" lon="6.692554290108527">
				<ele>133.0</ele>
				<time>2011-02-16T16:04:21Z</time>
			</trkpt>
			<trkpt lat="50.875687433277825" lon="6.692631309243058">
				<ele>132.0</ele>
				<time>2011-02-16T16:04:22Z</time>
			</trkpt>
			<trkpt lat="50.8756902772168" lon="6.6927050269152275">
				<ele>132.0</ele>
				<time>2011-02-16T16:04:23Z</time>
			</trkpt>
			<trkpt lat="50.87569293021718" lon="6.6927773399653825">
				<ele>132.0</ele>
				<time>2011-02-16T16:04:24Z</time>
			</trkpt>
			<trkpt lat="50.87569722724221" lon="6.69284803162966">
				<ele>132.0</ele>
				<time>2011-02-16T16:04:25Z</time>
			</trkpt>
			<trkpt lat="50.87571531372292" lon="6.692913737180379">
				<ele>132.0</ele>
				<time>2011-02-16T16:04:26Z</time>
			</trkpt>
			<trkpt lat="50.875750334754535" lon="6.6929704703853865">
				<ele>132.0</ele>
				<time>2011-02-16T16:04:27Z</time>
			</trkpt>
			<trkpt lat="50.87579938430913" lon="6.693016154096304">
				<ele>131.0</ele>
				<time>2011-02-16T16:04:28Z</time>
			</trkpt>
			<trkpt lat="50.87585605068979" lon="6.693058544189352">
				<ele>131.0</ele>
				<time>2011-02-16T16:04:29Z</time>
			</trkpt>
			<trkpt lat="50.87592099083888" lon="6.693095663495367">
				<ele>131.0</ele>
				<time>2011-02-16T16:04:30Z</time>
			</trkpt>
			<trkpt lat="50.87599854732058" lon="6.693132253030773">
				<ele>131.0</ele>
				<time>2011-02-16T16:04:31Z</time>
			</trkpt>
			<trkpt lat="50.876081646843076" lon="6.6931649043053065">
				<ele>131.0</ele>
				<time>2011-02-16T16:04:32Z</time>
			</trkpt>
			<trkpt lat="50.87617274988624" lon="6.693196564952807">
				<ele>131.0</ele>
				<time>2011-02-16T16:04:33Z</time>
			</trkpt>
			<trkpt lat="50.87626754860643" lon="6.693229517825865">
				<ele>132.0</ele>
				<time>2011-02-16T16:04:34Z</time>
			</trkpt>
			<trkpt lat="50.876365519559926" lon="6.693259387785651">
				<ele>132.0</ele>
				<time>2011-02-16T16:04:35Z</time>
			</trkpt>
			<trkpt lat="50.876466956860114" lon="6.693290657128668">
				<ele>132.0</ele>
				<time>2011-02-16T16:04:36Z</time>
			</trkpt>
			<trkpt lat="50.876571459802506" lon="6.693324282643156">
				<ele>131.0</ele>
				<time>2011-02-16T16:04:37Z</time>
			</trkpt>
			<trkpt lat="50.876676747012354" lon="6.693358424113234">
				<ele>131.0</ele>
				<time>2011-02-16T16:04:38Z</time>
			</trkpt>
			<trkpt lat="50.87677666045175" lon="6.693392202659921">
				<ele>131.0</ele>
				<time>2011-02-16T16:04:39Z</time>
			</trkpt>
			<trkpt lat="50.876867976046675" lon="6.693424463675422">
				<ele>131.0</ele>
				<time>2011-02-16T16:04:40Z</time>
			</trkpt>
			<trkpt lat="50.87693680860518" lon="6.693448721127259">
				<ele>130.0</ele>
				<time>2011-02-16T16:04:41Z</time>
			</trkpt>
			<trkpt lat="50.87699585694053" lon="6.693469671421582">
				<ele>130.0</ele>
				<time>2011-02-16T16:04:42Z</time>
			</trkpt>
			<trkpt lat="50.87704444862656" lon="6.693486765584382">
				<ele>130.0</ele>
				<time>2011-02-16T16:04:43Z</time>
			</trkpt>
			<trkpt lat="50.877095088158676" lon="6.69350264799378">
				<ele>130.0</ele>
				<time>2011-02-16T16:04:44Z</time>
			</trkpt>
			<trkpt lat="50.87715473829296" lon="6.693520644371408">
				<ele>130.0</ele>
				<time>2011-02-16T16:04:45Z</time>
			</trkpt>
			<trkpt lat="50.877221256387706" lon="6.693540822157749">
				<ele>129.0</ele>
				<time>2011-02-16T16:04:46Z</time>
			</trkpt>
			<trkpt lat="50.877296920317896" lon="6.693564238785421">
				<ele>129.0</ele>
				<time>2011-02-16T16:04:47Z</time>
			</trkpt>
			<trkpt lat="50.877379326598806" lon="6.693589835942119">
				<ele>129.0</ele>
				<time>2011-02-16T16:04:48Z</time>
			</trkpt>
			<trkpt lat="50.877466421535765" lon="6.6936172985645">
				<ele>129.0</ele>
				<time>2011-02-16T16:04:49Z</time>
			</trkpt>
			<trkpt lat="50.877559591747776" lon="6.693647350607947">
				<ele>129.0</ele>
				<time>2011-02-16T16:04:50Z</time>
			</trkpt>
			<trkpt lat="50.87765796769374" lon="6.693679668841951">
				<ele>129.0</ele>
				<time>2011-02-16T16:04:51Z</time>
			</trkpt>
			<trkpt lat="50.87775637152623" lon="6.693711576805346">
				<ele>129.0</ele>
				<time>2011-02-16T16:04:52Z</time>
			</trkpt>
			<trkpt lat="50.877856514146835" lon="6.693744180955918">
				<ele>129.0</ele>
				<time>2011-02-16T16:04:53Z</time>
			</trkpt>
			<trkpt lat="50.87795521628887" lon="6.693776881684978">
				<ele>130.0</ele>
				<time>2011-02-16T16:04:54Z</time>
			</trkpt>
			<trkpt lat="50.87805307867937" lon="6.693810018411442">
				<ele>130.0</ele>
				<time>2011-02-16T16:04:55Z</time>
			</trkpt>
			<trkpt lat="50.87815101023848" lon="6.6938439631399">
				<ele>130.0</ele>
				<time>2011-02-16T16:04:56Z</time>
			</trkpt>
			<trkpt lat="50.87824538381161" lon="6.6938795895309315">
				<ele>130.0</ele>
				<time>2011-02-16T16:04:57Z</time>
			</trkpt>
			<trkpt lat="50.878335425017234" lon="6.6939127942940395">
				<ele>130.0</ele>
				<time>2011-02-16T16:04:58Z</time>
			</trkpt>
			<trkpt lat="50.878425028110335" lon="6.693945047517355">
				<ele>130.0</ele>
				<time>2011-02-16T16:04:59Z</time>
			</trkpt>
			<trkpt lat="50.878514044221966" lon="6.6939767307865194">
				<ele>130.0</ele>
				<time>2011-02-16T16:05:00Z</time>
			</trkpt>
			<trkpt lat="50.87860380699466" lon="6.694008440358174">
				<ele>130.0</ele>
				<time>2011-02-16T16:05:01Z</time>
			</trkpt>
			<trkpt lat="50.87869254627367" lon="6.694039671100412">
				<ele>130.0</ele>
				<time>2011-02-16T16:05:02Z</time>
			</trkpt>
			<trkpt lat="50.87878166394032" lon="6.69407072692005">
				<ele>130.0</ele>
				<time>2011-02-16T16:05:03Z</time>
			</trkpt>
			<trkpt lat="50.878870667242566" lon="6.694102253161618">
				<ele>130.0</ele>
				<time>2011-02-16T16:05:04Z</time>
			</trkpt>
			<trkpt lat="50.87895977390705" lon="6.6941338799712495">
				<ele>130.0</ele>
				<time>2011-02-16T16:05:05Z</time>
			</trkpt>
			<trkpt lat="50.879050540426654" lon="6.694166129315437">
				<ele>130.0</ele>
				<time>2011-02-16T16:05:06Z</time>
			</trkpt>
			<trkpt lat="50.87914393708066" lon="6.694199550048324">
				<ele>130.0</ele>
				<time>2011-02-16T16:05:07Z</time>
			</trkpt>
			<trkpt lat="50.87923839392561" lon="6.69423461848657">
				<ele>130.0</ele>
				<time>2011-02-16T16:05:08Z</time>
			</trkpt>
			<trkpt lat="50.87933332877849" lon="6.69427059551405">
				<ele>130.0</ele>
				<time>2011-02-16T16:05:09Z</time>
			</trkpt>
			<trkpt lat="50.879427452041654" lon="6.694306569310389">
				<ele>130.0</ele>
				<time>2011-02-16T16:05:10Z</time>
			</trkpt>
			<trkpt lat="50.87952328148712" lon="6.694342860038415">
				<ele>130.0</ele>
				<time>2011-02-16T16:05:11Z</time>
			</trkpt>
			<trkpt lat="50.879617127620925" lon="6.694378007771883">
				<ele>131.0</ele>
				<time>2011-02-16T16:05:12Z</time>
			</trkpt>
			<trkpt lat="50.8797125860929" lon="6.6944105096205515">
				<ele>131.0</ele>
				<time>2011-02-16T16:05:13Z</time>
			</trkpt>
			<trkpt lat="50.87980800858512" lon="6.694443353147503">
				<ele>131.0</ele>
				<time>2011-02-16T16:05:14Z</time>
			</trkpt>
			<trkpt lat="50.87990224108503" lon="6.694479416228592">
				<ele>131.0</ele>
				<time>2011-02-16T16:05:15Z</time>
			</trkpt>
			<trkpt lat="50.879995393986526" lon="6.694515169517464">
				<ele>131.0</ele>
				<time>2011-02-16T16:05:16Z</time>
			</trkpt>
			<trkpt lat="50.880084806103746" lon="6.694547298510121">
				<ele>131.0</ele>
				<time>2011-02-16T16:05:17Z</time>
			</trkpt>
			<trkpt lat="50.8801752155493" lon="6.694578971216931">
				<ele>131.0</ele>
				<time>2011-02-16T16:05:18Z</time>
			</trkpt>
			<trkpt lat="50.88026910000216" lon="6.694608067826828">
				<ele>130.0</ele>
				<time>2011-02-16T16:05:19Z</time>
			</trkpt>
			<trkpt lat="50.880368819637354" lon="6.694637797692181">
				<ele>130.0</ele>
				<time>2011-02-16T16:05:20Z</time>
			</trkpt>
			<trkpt lat="50.880468225514605" lon="6.694663290840861">
				<ele>130.0</ele>
				<time>2011-02-16T16:05:21Z</time>
			</trkpt>
			<trkpt lat="50.8805657731724" lon="6.694687413218957">
				<ele>130.0</ele>
				<time>2011-02-16T16:05:22Z</time>
			</trkpt>
			<trkpt lat="50.880660898415584" lon="6.694707613158308">
				<ele>130.0</ele>
				<time>2011-02-16T16:05:23Z</time>
			</trkpt>
			<trkpt lat="50.880744984633616" lon="6.694721005229848">
				<ele>130.0</ele>
				<time>2011-02-16T16:05:24Z</time>
			</trkpt>
			<trkpt lat="50.88082359929062" lon="6.694725267275982">
				<ele>129.0</ele>
				<time>2011-02-16T16:05:25Z</time>
			</trkpt>
			<trkpt lat="50.88088997820717" lon="6.694699214978983">
				<ele>129.0</ele>
				<time>2011-02-16T16:05:26Z</time>
			</trkpt>
			<trkpt lat="50.88093935141713" lon="6.694642706531176">
				<ele>129.0</ele>
				<time>2011-02-16T16:05:27Z</time>
			</trkpt>
			<trkpt lat="50.88096775237687" lon="6.694557933573446">
				<ele>129.0</ele>
				<time>2011-02-16T16:05:28Z</time>
			</trkpt>
			<trkpt lat="50.8809801209348" lon="6.694465588679016">
				<ele>129.0</ele>
				<time>2011-02-16T16:05:29Z</time>
			</trkpt>
			<trkpt lat="50.880992286412656" lon="6.694367743737752">
				<ele>129.0</ele>
				<time>2011-02-16T16:05:30Z</time>
			</trkpt>
			<trkpt lat="50.88100715230552" lon="6.694253945532306">
				<ele>129.0</ele>
				<time>2011-02-16T16:05:31Z</time>
			</trkpt>
			<trkpt lat="50.88102240001413" lon="6.69412747830497">
				<ele>129.0</ele>
				<time>2011-02-16T16:05:32Z</time>
			</trkpt>
			<trkpt lat="50.881040396650434" lon="6.693996779543479">
				<ele>129.0</ele>
				<time>2011-02-16T16:05:33Z</time>
			</trkpt>
			<trkpt lat="50.88106167441418" lon="6.693866434927798">
				<ele>129.0</ele>
				<time>2011-02-16T16:05:34Z</time>
			</trkpt>
			<trkpt lat="50.8810830857523" lon="6.693735880457638">
				<ele>128.0</ele>
				<time>2011-02-16T16:05:35Z</time>
			</trkpt>
			<trkpt lat="50.881101563773164" lon="6.693614419505638">
				<ele>128.0</ele>
				<time>2011-02-16T16:05:36Z</time>
			</trkpt>
			<trkpt lat="50.88111554574264" lon="6.693513738167558">
				<ele>128.0</ele>
				<time>2011-02-16T16:05:37Z</time>
			</trkpt>
			<trkpt lat="50.881126985738" lon="6.693426156642936">
				<ele>129.0</ele>
				<time>2011-02-16T16:05:38Z</time>
			</trkpt>
			<trkpt lat="50.88112524231948" lon="6.693347347029734">
				<ele>129.0</ele>
				<time>2011-02-16T16:05:39Z</time>
			</trkpt>
			<trkpt lat="50.88111313302727" lon="6.693278575893801">
				<ele>129.0</ele>
				<time>2011-02-16T16:05:40Z</time>
			</trkpt>
			<trkpt lat="50.8810837041491" lon="6.693224198206552">
				<ele>129.0</ele>
				<time>2011-02-16T16:05:41Z</time>
			</trkpt>
			<trkpt lat="50.88103310783371" lon="6.693194801670168">
				<ele>129.0</ele>
				<time>2011-02-16T16:05:42Z</time>
			</trkpt>
			<trkpt lat="50.88097538532779" lon="6.693169228217742">
				<ele>129.0</ele>
				<time>2011-02-16T16:05:43Z</time>
			</trkpt>
			<trkpt lat="50.880914683687024" lon="6.693150552833293">
				<ele>129.0</ele>
				<time>2011-02-16T16:05:44Z</time>
			</trkpt>
			<trkpt lat="50.88085323966685" lon="6.693135276688083">
				<ele>129.0</ele>
				<time>2011-02-16T16:05:45Z</time>
			</trkpt>
			<trkpt lat="50.880793678187295" lon="6.693119454581401">
				<ele>129.0</ele>
				<time>2011-02-16T16:05:46Z</time>
			</trkpt>
			<trkpt lat="50.88073301862404" lon="6.6931030095398905">
				<ele>129.0</ele>
				<time>2011-02-16T16:05:47Z</time>
			</trkpt>
			<trkpt lat="50.88067121898955" lon="6.693083521357024">
				<ele>129.0</ele>
				<time>2011-02-16T16:05:48Z</time>
			</trkpt>
			<trkpt lat="50.88061137237438" lon="6.6930619174144645">
				<ele>129.0</ele>
				<time>2011-02-16T16:05:49Z</time>
			</trkpt>
			<trkpt lat="50.88055916224309" lon="6.693043196448049">
				<ele>129.0</ele>
				<time>2011-02-16T16:05:50Z</time>
			</trkpt>
			<trkpt lat="50.88051379249805" lon="6.693041435964604">
				<ele>129.0</ele>
				<time>2011-02-16T16:05:51Z</time>
			</trkpt>
			<trkpt lat="50.88047782215631" lon="6.6930608120618595">
				<ele>129.0</ele>
				<time>2011-02-16T16:05:52Z</time>
			</trkpt>
			<trkpt lat="50.88045142725966" lon="6.693082818193318">
				<ele>129.0</ele>
				<time>2011-02-16T16:05:53Z</time>
			</trkpt>
			<trkpt lat="50.88045142725966" lon="6.693082818193318">
				<ele>129.0</ele>
				<time>2011-02-16T16:05:54Z</time>
			</trkpt>
			<trkpt lat="50.88045142725966" lon="6.693082818193318">
				<ele>129.0</ele>
				<time>2011-02-16T16:05:55Z</time>
			</trkpt>
			<trkpt lat="50.88045142725966" lon="6.693082818193318">
				<ele>129.0</ele>
				<time>2011-02-16T16:05:56Z</time>
			</trkpt>
			<trkpt lat="50.88041522605423" lon="6.69314810796906">
				<ele>129.0</ele>
				<time>2011-02-16T16:05:57Z</time>
			</trkpt>
			<trkpt lat="50.88040456340722" lon="6.693181705811737">
				<ele>129.0</ele>
				<time>2011-02-16T16:05:58Z</time>
			</trkpt>
			<trkpt lat="50.88038425626604" lon="6.69320154239182">
				<ele>129.0</ele>
				<time>2011-02-16T16:05:59Z</time>
			</trkpt>
			<trkpt lat="50.88035892548024" lon="6.6932028585861385">
				<ele>129.0</ele>
				<time>2011-02-16T16:06:00Z</time>
			</trkpt>
			<trkpt lat="50.8803320624935" lon="6.693201071150321">
				<ele>129.0</ele>
				<time>2011-02-16T16:06:01Z</time>
			</trkpt>
			<trkpt lat="50.88030555148998" lon="6.693200531538474">
				<ele>129.0</ele>
				<time>2011-02-16T16:06:02Z</time>
			</trkpt>
			<trkpt lat="50.88028584849597" lon="6.693199350096209">
				<ele>129.0</ele>
				<time>2011-02-16T16:06:03Z</time>
			</trkpt>
			<trkpt lat="50.880271687582315" lon="6.693197795540703">
				<ele>129.0</ele>
				<time>2011-02-16T16:06:04Z</time>
			</trkpt>
			<trkpt lat="50.880271687582315" lon="6.693197795540703">
				<ele>129.0</ele>
				<time>2011-02-16T16:06:05Z</time>
			</trkpt>
			<trkpt lat="50.880271687582315" lon="6.693197795540703">
				<ele>129.0</ele>
				<time>2011-02-16T16:06:06Z</time>
			</trkpt>
			<trkpt lat="50.880271687582315" lon="6.693197795540703">
				<ele>129.0</ele>
				<time>2011-02-16T16:06:07Z</time>
			</trkpt>
			<trkpt lat="50.880271687582315" lon="6.693197795540703">
				<ele>129.0</ele>
				<time>2011-02-16T16:06:08Z</time>
			</trkpt>
			<trkpt lat="50.880271687582315" lon="6.693197795540703">
				<ele>129.0</ele>
				<time>2011-02-16T16:06:09Z</time>
			</trkpt>
			<trkpt lat="50.880271687582315" lon="6.693197795540703">
				<ele>129.0</ele>
				<time>2011-02-16T16:06:10Z</time>
			</trkpt>
			<trkpt lat="50.88023811826482" lon="6.693189915284972">
				<ele>129.0</ele>
				<time>2011-02-16T16:06:11Z</time>
			</trkpt>
			<trkpt lat="50.88020547287812" lon="6.693179756530243">
				<ele>129.0</ele>
				<time>2011-02-16T16:06:12Z</time>
			</trkpt>
			<trkpt lat="50.880172942248535" lon="6.69316817445222">
				<ele>129.0</ele>
				<time>2011-02-16T16:06:13Z</time>
			</trkpt>
			<trkpt lat="50.88014282554043" lon="6.6931463216253215">
				<ele>129.0</ele>
				<time>2011-02-16T16:06:14Z</time>
			</trkpt>
			<trkpt lat="50.88011957555767" lon="6.693106094873516">
				<ele>129.0</ele>
				<time>2011-02-16T16:06:15Z</time>
			</trkpt>
			<trkpt lat="50.88010900259312" lon="6.693053790372358">
				<ele>129.0</ele>
				<time>2011-02-16T16:06:16Z</time>
			</trkpt>
			<trkpt lat="50.8801126098057" lon="6.693003627385278">
				<ele>129.0</ele>
				<time>2011-02-16T16:06:17Z</time>
			</trkpt>
			<trkpt lat="50.8801306799868" lon="6.69297044026113">
				<ele>129.0</ele>
				<time>2011-02-16T16:06:18Z</time>
			</trkpt>
			<trkpt lat="50.88015600736926" lon="6.692956728792842">
				<ele>129.0</ele>
				<time>2011-02-16T16:06:19Z</time>
			</trkpt>
			<trkpt lat="50.88018620646" lon="6.6929644044512315">
				<ele>129.0</ele>
				<time>2011-02-16T16:06:20Z</time>
			</trkpt>
			<trkpt lat="50.88022496831398" lon="6.6929777497168095">
				<ele>129.0</ele>
				<time>2011-02-16T16:06:21Z</time>
			</trkpt>
			<trkpt lat="50.880267058439955" lon="6.692994058127115">
				<ele>129.0</ele>
				<time>2011-02-16T16:06:22Z</time>
			</trkpt>
			<trkpt lat="50.880315056251355" lon="6.693012210615868">
				<ele>129.0</ele>
				<time>2011-02-16T16:06:23Z</time>
			</trkpt>
			<trkpt lat="50.88036356629797" lon="6.693030580519643">
				<ele>129.0</ele>
				<time>2011-02-16T16:06:24Z</time>
			</trkpt>
			<trkpt lat="50.88041492379135" lon="6.693051948811392">
				<ele>129.0</ele>
				<time>2011-02-16T16:06:25Z</time>
			</trkpt>
			<trkpt lat="50.88047270910101" lon="6.693072588369222">
				<ele>129.0</ele>
				<time>2011-02-16T16:06:26Z</time>
			</trkpt>
			<trkpt lat="50.880529613203514" lon="6.693093134697537">
				<ele>129.0</ele>
				<time>2011-02-16T16:06:27Z</time>
			</trkpt>
			<trkpt lat="50.8805872979024" lon="6.69311428567417">
				<ele>129.0</ele>
				<time>2011-02-16T16:06:28Z</time>
			</trkpt>
			<trkpt lat="50.88064811219151" lon="6.693135199672649">
				<ele>128.0</ele>
				<time>2011-02-16T16:06:29Z</time>
			</trkpt>
			<trkpt lat="50.88071141177704" lon="6.693156390364783">
				<ele>128.0</ele>
				<time>2011-02-16T16:06:30Z</time>
			</trkpt>
			<trkpt lat="50.880775650388976" lon="6.693177541166409">
				<ele>128.0</ele>
				<time>2011-02-16T16:06:31Z</time>
			</trkpt>
			<trkpt lat="50.880839965486416" lon="6.693198647114671">
				<ele>128.0</ele>
				<time>2011-02-16T16:06:32Z</time>
			</trkpt>
			<trkpt lat="50.88090238345537" lon="6.693218631416105">
				<ele>128.0</ele>
				<time>2011-02-16T16:06:33Z</time>
			</trkpt>
			<trkpt lat="50.88095722896978" lon="6.693240860874884">
				<ele>128.0</ele>
				<time>2011-02-16T16:06:34Z</time>
			</trkpt>
			<trkpt lat="50.88100302275597" lon="6.693262843250583">
				<ele>128.0</ele>
				<time>2011-02-16T16:06:35Z</time>
			</trkpt>
			<trkpt lat="50.88103704894889" lon="6.693278680124416">
				<ele>128.0</ele>
				<time>2011-02-16T16:06:36Z</time>
			</trkpt>
			<trkpt lat="50.88107041435177" lon="6.693290418756345">
				<ele>128.0</ele>
				<time>2011-02-16T16:06:37Z</time>
			</trkpt>
			<trkpt lat="50.88111190547644" lon="6.693277633936617">
				<ele>128.0</ele>
				<time>2011-02-16T16:06:38Z</time>
			</trkpt>
			<trkpt lat="50.881145114371414" lon="6.693232760810367">
				<ele>128.0</ele>
				<time>2011-02-16T16:06:39Z</time>
			</trkpt>
			<trkpt lat="50.8811671645647" lon="6.693166957037773">
				<ele>128.0</ele>
				<time>2011-02-16T16:06:40Z</time>
			</trkpt>
			<trkpt lat="50.881188572480895" lon="6.693088469318017">
				<ele>128.0</ele>
				<time>2011-02-16T16:06:41Z</time>
			</trkpt>
			<trkpt lat="50.88120732922176" lon="6.693007348328398">
				<ele>128.0</ele>
				<time>2011-02-16T16:06:42Z</time>
			</trkpt>
			<trkpt lat="50.88122317380616" lon="6.69292541785361">
				<ele>127.0</ele>
				<time>2011-02-16T16:06:43Z</time>
			</trkpt>
			<trkpt lat="50.88123714690163" lon="6.6928433974213934">
				<ele>127.0</ele>
				<time>2011-02-16T16:06:44Z</time>
			</trkpt>
			<trkpt lat="50.881250554210865" lon="6.69276427978614">
				<ele>127.0</ele>
				<time>2011-02-16T16:06:45Z</time>
			</trkpt>
			<trkpt lat="50.88126270894006" lon="6.692690444232012">
				<ele>127.0</ele>
				<time>2011-02-16T16:06:46Z</time>
			</trkpt>
			<trkpt lat="50.8812747401705" lon="6.692618019825846">
				<ele>127.0</ele>
				<time>2011-02-16T16:06:47Z</time>
			</trkpt>
			<trkpt lat="50.88128850344726" lon="6.692539479175958">
				<ele>127.0</ele>
				<time>2011-02-16T16:06:48Z</time>
			</trkpt>
			<trkpt lat="50.88130532798818" lon="6.692449531258433">
				<ele>127.0</ele>
				<time>2011-02-16T16:06:49Z</time>
			</trkpt>
			<trkpt lat="50.88132433604325" lon="6.692357787991904">
				<ele>126.0</ele>
				<time>2011-02-16T16:06:50Z</time>
			</trkpt>
			<trkpt lat="50.881345922345545" lon="6.692263644224698">
				<ele>126.0</ele>
				<time>2011-02-16T16:06:51Z</time>
			</trkpt>
			<trkpt lat="50.88136874995373" lon="6.6921729382019475">
				<ele>126.0</ele>
				<time>2011-02-16T16:06:52Z</time>
			</trkpt>
			<trkpt lat="50.88139231462924" lon="6.6920871800594295">
				<ele>126.0</ele>
				<time>2011-02-16T16:06:53Z</time>
			</trkpt>
			<trkpt lat="50.881418061930184" lon="6.692004423465819">
				<ele>126.0</ele>
				<time>2011-02-16T16:06:54Z</time>
			</trkpt>
			<trkpt lat="50.8814449687946" lon="6.691927003876393">
				<ele>126.0</ele>
				<time>2011-02-16T16:06:55Z</time>
			</trkpt>
			<trkpt lat="50.881473472906286" lon="6.691854550164216">
				<ele>126.0</ele>
				<time>2011-02-16T16:06:56Z</time>
			</trkpt>
			<trkpt lat="50.88151078538165" lon="6.691776409769136">
				<ele>126.0</ele>
				<time>2011-02-16T16:06:57Z</time>
			</trkpt>
			<trkpt lat="50.88155912494077" lon="6.691690444344242">
				<ele>126.0</ele>
				<time>2011-02-16T16:06:58Z</time>
			</trkpt>
			<trkpt lat="50.881610854840844" lon="6.691607813570529">
				<ele>126.0</ele>
				<time>2011-02-16T16:06:59Z</time>
			</trkpt>
			<trkpt lat="50.8816631683979" lon="6.691525431328919">
				<ele>126.0</ele>
				<time>2011-02-16T16:07:00Z</time>
			</trkpt>
			<trkpt lat="50.88172159536278" lon="6.691440001550286">
				<ele>126.0</ele>
				<time>2011-02-16T16:07:01Z</time>
			</trkpt>
			<trkpt lat="50.88178958933711" lon="6.691343900197597">
				<ele>126.0</ele>
				<time>2011-02-16T16:07:02Z</time>
			</trkpt>
			<trkpt lat="50.88185847028695" lon="6.691250472044543">
				<ele>126.0</ele>
				<time>2011-02-16T16:07:03Z</time>
			</trkpt>
			<trkpt lat="50.88192877353053" lon="6.6911544291413705">
				<ele>126.0</ele>
				<time>2011-02-16T16:07:04Z</time>
			</trkpt>
			<trkpt lat="50.88200295347188" lon="6.691055945974333">
				<ele>126.0</ele>
				<time>2011-02-16T16:07:05Z</time>
			</trkpt>
			<trkpt lat="50.88207835551554" lon="6.690953327611342">
				<ele>126.0</ele>
				<time>2011-02-16T16:07:06Z</time>
			</trkpt>
			<trkpt lat="50.882153399094214" lon="6.690849292198507">
				<ele>126.0</ele>
				<time>2011-02-16T16:07:07Z</time>
			</trkpt>
			<trkpt lat="50.88222751646808" lon="6.690746074473346">
				<ele>126.0</ele>
				<time>2011-02-16T16:07:08Z</time>
			</trkpt>
			<trkpt lat="50.88229962175364" lon="6.690645134961979">
				<ele>126.0</ele>
				<time>2011-02-16T16:07:09Z</time>
			</trkpt>
			<trkpt lat="50.88236593134651" lon="6.690548625452332">
				<ele>126.0</ele>
				<time>2011-02-16T16:07:10Z</time>
			</trkpt>
			<trkpt lat="50.88242779443741" lon="6.6904587545921785">
				<ele>126.0</ele>
				<time>2011-02-16T16:07:11Z</time>
			</trkpt>
			<trkpt lat="50.88249030901786" lon="6.6903741998488">
				<ele>126.0</ele>
				<time>2011-02-16T16:07:12Z</time>
			</trkpt>
			<trkpt lat="50.882547430620725" lon="6.690303231792955">
				<ele>126.0</ele>
				<time>2011-02-16T16:07:13Z</time>
			</trkpt>
			<trkpt lat="50.882593245443076" lon="6.690251828894333">
				<ele>126.0</ele>
				<time>2011-02-16T16:07:14Z</time>
			</trkpt>
			<trkpt lat="50.88262203826968" lon="6.690221113371162">
				<ele>126.0</ele>
				<time>2011-02-16T16:07:15Z</time>
			</trkpt>
			<trkpt lat="50.88264395790079" lon="6.690199661150847">
				<ele>126.0</ele>
				<time>2011-02-16T16:07:16Z</time>
			</trkpt>
			<trkpt lat="50.88264395790079" lon="6.690199661150847">
				<ele>126.0</ele>
				<time>2011-02-16T16:07:17Z</time>
			</trkpt>
			<trkpt lat="50.88264395790079" lon="6.690199661150847">
				<ele>126.0</ele>
				<time>2011-02-16T16:07:18Z</time>
			</trkpt>
			<trkpt lat="50.88264395790079" lon="6.690199661150847">
				<ele>126.0</ele>
				<time>2011-02-16T16:07:19Z</time>
			</trkpt>
			<trkpt lat="50.88264395790079" lon="6.690199661150847">
				<ele>126.0</ele>
				<time>2011-02-16T16:07:20Z</time>
			</trkpt>
			<trkpt lat="50.88264395790079" lon="6.690199661150847">
				<ele>126.0</ele>
				<time>2011-02-16T16:07:21Z</time>
			</trkpt>
			<trkpt lat="50.88264395790079" lon="6.690199661150847">
				<ele>126.0</ele>
				<time>2011-02-16T16:07:22Z</time>
			</trkpt>
			<trkpt lat="50.88264395790079" lon="6.690199661150847">
				<ele>126.0</ele>
				<time>2011-02-16T16:07:23Z</time>
			</trkpt>
			<trkpt lat="50.88264395790079" lon="6.690199661150847">
				<ele>126.0</ele>
				<time>2011-02-16T16:07:24Z</time>
			</trkpt>
			<trkpt lat="50.88264395790079" lon="6.690199661150847">
				<ele>126.0</ele>
				<time>2011-02-16T16:07:25Z</time>
			</trkpt>
			<trkpt lat="50.88264395790079" lon="6.690199661150847">
				<ele>126.0</ele>
				<time>2011-02-16T16:07:26Z</time>
			</trkpt>
			<trkpt lat="50.88264395790079" lon="6.690199661150847">
				<ele>126.0</ele>
				<time>2011-02-16T16:07:27Z</time>
			</trkpt>
			<trkpt lat="50.88264395790079" lon="6.690199661150847">
				<ele>126.0</ele>
				<time>2011-02-16T16:07:28Z</time>
			</trkpt>
			<trkpt lat="50.88264395790079" lon="6.690199661150847">
				<ele>126.0</ele>
				<time>2011-02-16T16:07:29Z</time>
			</trkpt>
			<trkpt lat="50.88264395790079" lon="6.690199661150847">
				<ele>126.0</ele>
				<time>2011-02-16T16:07:30Z</time>
			</trkpt>
			<trkpt lat="50.88264395790079" lon="6.690199661150847">
				<ele>126.0</ele>
				<time>2011-02-16T16:07:31Z</time>
			</trkpt>
			<trkpt lat="50.88264395790079" lon="6.690199661150847">
				<ele>126.0</ele>
				<time>2011-02-16T16:07:32Z</time>
			</trkpt>
			<trkpt lat="50.882685902336846" lon="6.6901762997496625">
				<ele>126.0</ele>
				<time>2011-02-16T16:07:33Z</time>
			</trkpt>
			<trkpt lat="50.88272434328455" lon="6.690161279127059">
				<ele>125.0</ele>
				<time>2011-02-16T16:07:34Z</time>
			</trkpt>
			<trkpt lat="50.8827690696739" lon="6.690163832760458">
				<ele>124.0</ele>
				<time>2011-02-16T16:07:35Z</time>
			</trkpt>
			<trkpt lat="50.882823417328524" lon="6.690171432838034">
				<ele>123.0</ele>
				<time>2011-02-16T16:07:36Z</time>
			</trkpt>
			<trkpt lat="50.882888611423844" lon="6.690210099037609">
				<ele>123.0</ele>
				<time>2011-02-16T16:07:37Z</time>
			</trkpt>
			<trkpt lat="50.882955573194714" lon="6.690277426895158">
				<ele>122.0</ele>
				<time>2011-02-16T16:07:38Z</time>
			</trkpt>
			<trkpt lat="50.88302223833811" lon="6.690352306933399">
				<ele>122.0</ele>
				<time>2011-02-16T16:07:39Z</time>
			</trkpt>
			<trkpt lat="50.88309144001526" lon="6.690441475034877">
				<ele>122.0</ele>
				<time>2011-02-16T16:07:40Z</time>
			</trkpt>
			<trkpt lat="50.88316610343492" lon="6.690547148025264">
				<ele>122.0</ele>
				<time>2011-02-16T16:07:41Z</time>
			</trkpt>
			<trkpt lat="50.883246790354" lon="6.6906668062193395">
				<ele>122.0</ele>
				<time>2011-02-16T16:07:42Z</time>
			</trkpt>
			<trkpt lat="50.883329463245516" lon="6.690793526591562">
				<ele>122.0</ele>
				<time>2011-02-16T16:07:43Z</time>
			</trkpt>
			<trkpt lat="50.88341251280712" lon="6.690925795948487">
				<ele>122.0</ele>
				<time>2011-02-16T16:07:44Z</time>
			</trkpt>
			<trkpt lat="50.88349967019677" lon="6.6910636086330255">
				<ele>122.0</ele>
				<time>2011-02-16T16:07:45Z</time>
			</trkpt>
			<trkpt lat="50.883590093588296" lon="6.691209449134624">
				<ele>122.0</ele>
				<time>2011-02-16T16:07:46Z</time>
			</trkpt>
			<trkpt lat="50.88368250008459" lon="6.6913565013946235">
				<ele>122.0</ele>
				<time>2011-02-16T16:07:47Z</time>
			</trkpt>
			<trkpt lat="50.8837787598067" lon="6.691507275112439">
				<ele>122.0</ele>
				<time>2011-02-16T16:07:48Z</time>
			</trkpt>
			<trkpt lat="50.88387551690446" lon="6.69165719847424">
				<ele>122.0</ele>
				<time>2011-02-16T16:07:49Z</time>
			</trkpt>
			<trkpt lat="50.88397074208139" lon="6.691810757463598">
				<ele>122.0</ele>
				<time>2011-02-16T16:07:50Z</time>
			</trkpt>
			<trkpt lat="50.88406528473821" lon="6.691964696051798">
				<ele>122.0</ele>
				<time>2011-02-16T16:07:51Z</time>
			</trkpt>
			<trkpt lat="50.884156702019474" lon="6.692120865290591">
				<ele>122.0</ele>
				<time>2011-02-16T16:07:52Z</time>
			</trkpt>
			<trkpt lat="50.88424660305115" lon="6.692275552831358">
				<ele>122.0</ele>
				<time>2011-02-16T16:07:53Z</time>
			</trkpt>
			<trkpt lat="50.884334983407186" lon="6.6924285400621235">
				<ele>122.0</ele>
				<time>2011-02-16T16:07:54Z</time>
			</trkpt>
			<trkpt lat="50.88441984376812" lon="6.692577125787284">
				<ele>121.0</ele>
				<time>2011-02-16T16:07:55Z</time>
			</trkpt>
			<trkpt lat="50.8844916534237" lon="6.692704985962463">
				<ele>121.0</ele>
				<time>2011-02-16T16:07:56Z</time>
			</trkpt>
			<trkpt lat="50.88455113622283" lon="6.692811301323118">
				<ele>121.0</ele>
				<time>2011-02-16T16:07:57Z</time>
			</trkpt>
			<trkpt lat="50.88459687801157" lon="6.692893659780179">
				<ele>121.0</ele>
				<time>2011-02-16T16:07:58Z</time>
			</trkpt>
			<trkpt lat="50.88462882774844" lon="6.692952069004144">
				<ele>121.0</ele>
				<time>2011-02-16T16:07:59Z</time>
			</trkpt>
			<trkpt lat="50.884649768870155" lon="6.692986735818475">
				<ele>121.0</ele>
				<time>2011-02-16T16:08:00Z</time>
			</trkpt>
			<trkpt lat="50.884649768870155" lon="6.692986735818475">
				<ele>121.0</ele>
				<time>2011-02-16T16:08:01Z</time>
			</trkpt>
			<trkpt lat="50.884649768870155" lon="6.692986735818475">
				<ele>121.0</ele>
				<time>2011-02-16T16:08:02Z</time>
			</trkpt>
			<trkpt lat="50.884649768870155" lon="6.692986735818475">
				<ele>121.0</ele>
				<time>2011-02-16T16:08:03Z</time>
			</trkpt>
			<trkpt lat="50.884649768870155" lon="6.692986735818475">
				<ele>121.0</ele>
				<time>2011-02-16T16:08:04Z</time>
			</trkpt>
			<trkpt lat="50.884649768870155" lon="6.692986735818475">
				<ele>121.0</ele>
				<time>2011-02-16T16:08:05Z</time>
			</trkpt>
			<trkpt lat="50.884649768870155" lon="6.692986735818475">
				<ele>121.0</ele>
				<time>2011-02-16T16:08:06Z</time>
			</trkpt>
			<trkpt lat="50.884649768870155" lon="6.692986735818475">
				<ele>121.0</ele>
				<time>2011-02-16T16:08:07Z</time>
			</trkpt>
			<trkpt lat="50.884649768870155" lon="6.692986735818475">
				<ele>121.0</ele>
				<time>2011-02-16T16:08:08Z</time>
			</trkpt>
			<trkpt lat="50.884649768870155" lon="6.692986735818475">
				<ele>121.0</ele>
				<time>2011-02-16T16:08:09Z</time>
			</trkpt>
			<trkpt lat="50.884649768870155" lon="6.692986735818475">
				<ele>121.0</ele>
				<time>2011-02-16T16:08:10Z</time>
			</trkpt>
			<trkpt lat="50.884649768870155" lon="6.692986735818475">
				<ele>121.0</ele>
				<time>2011-02-16T16:08:11Z</time>
			</trkpt>
			<trkpt lat="50.884649768870155" lon="6.692986735818475">
				<ele>121.0</ele>
				<time>2011-02-16T16:08:12Z</time>
			</trkpt>
			<trkpt lat="50.884649768870155" lon="6.692986735818475">
				<ele>121.0</ele>
				<time>2011-02-16T16:08:13Z</time>
			</trkpt>
			<trkpt lat="50.884649768870155" lon="6.692986735818475">
				<ele>121.0</ele>
				<time>2011-02-16T16:08:14Z</time>
			</trkpt>
			<trkpt lat="50.884649768870155" lon="6.692986735818475">
				<ele>121.0</ele>
				<time>2011-02-16T16:08:15Z</time>
			</trkpt>
			<trkpt lat="50.884649768870155" lon="6.692986735818475">
				<ele>121.0</ele>
				<time>2011-02-16T16:08:16Z</time>
			</trkpt>
			<trkpt lat="50.884649768870155" lon="6.692986735818475">
				<ele>121.0</ele>
				<time>2011-02-16T16:08:17Z</time>
			</trkpt>
			<trkpt lat="50.884649768870155" lon="6.692986735818475">
				<ele>121.0</ele>
				<time>2011-02-16T16:08:18Z</time>
			</trkpt>
			<trkpt lat="50.884649768870155" lon="6.692986735818475">
				<ele>121.0</ele>
				<time>2011-02-16T16:08:19Z</time>
			</trkpt>
			<trkpt lat="50.884649768870155" lon="6.692986735818475">
				<ele>121.0</ele>
				<time>2011-02-16T16:08:20Z</time>
			</trkpt>
			<trkpt lat="50.884649768870155" lon="6.692986735818475">
				<ele>121.0</ele>
				<time>2011-02-16T16:08:21Z</time>
			</trkpt>
			<trkpt lat="50.884649768870155" lon="6.692986735818475">
				<ele>121.0</ele>
				<time>2011-02-16T16:08:22Z</time>
			</trkpt>
			<trkpt lat="50.884649768870155" lon="6.692986735818475">
				<ele>121.0</ele>
				<time>2011-02-16T16:08:23Z</time>
			</trkpt>
			<trkpt lat="50.884649768870155" lon="6.692986735818475">
				<ele>121.0</ele>
				<time>2011-02-16T16:08:24Z</time>
			</trkpt>
			<trkpt lat="50.884649768870155" lon="6.692986735818475">
				<ele>121.0</ele>
				<time>2011-02-16T16:08:25Z</time>
			</trkpt>
			<trkpt lat="50.884649768870155" lon="6.692986735818475">
				<ele>121.0</ele>
				<time>2011-02-16T16:08:26Z</time>
			</trkpt>
			<trkpt lat="50.884649768870155" lon="6.692986735818475">
				<ele>121.0</ele>
				<time>2011-02-16T16:08:27Z</time>
			</trkpt>
			<trkpt lat="50.884649768870155" lon="6.692986735818475">
				<ele>121.0</ele>
				<time>2011-02-16T16:08:28Z</time>
			</trkpt>
			<trkpt lat="50.884649768870155" lon="6.692986735818475">
				<ele>121.0</ele>
				<time>2011-02-16T16:08:29Z</time>
			</trkpt>
			<trkpt lat="50.884649768870155" lon="6.692986735818475">
				<ele>121.0</ele>
				<time>2011-02-16T16:08:30Z</time>
			</trkpt>
			<trkpt lat="50.884649768870155" lon="6.692986735818475">
				<ele>121.0</ele>
				<time>2011-02-16T16:08:31Z</time>
			</trkpt>
			<trkpt lat="50.884649768870155" lon="6.692986735818475">
				<ele>121.0</ele>
				<time>2011-02-16T16:08:32Z</time>
			</trkpt>
			<trkpt lat="50.884649768870155" lon="6.692986735818475">
				<ele>121.0</ele>
				<time>2011-02-16T16:08:33Z</time>
			</trkpt>
			<trkpt lat="50.884649768870155" lon="6.692986735818475">
				<ele>121.0</ele>
				<time>2011-02-16T16:08:34Z</time>
			</trkpt>
			<trkpt lat="50.884649768870155" lon="6.692986735818475">
				<ele>121.0</ele>
				<time>2011-02-16T16:08:35Z</time>
			</trkpt>
			<trkpt lat="50.884649768870155" lon="6.692986735818475">
				<ele>121.0</ele>
				<time>2011-02-16T16:08:36Z</time>
			</trkpt>
			<trkpt lat="50.884649768870155" lon="6.692986735818475">
				<ele>121.0</ele>
				<time>2011-02-16T16:08:37Z</time>
			</trkpt>
			<trkpt lat="50.884649768870155" lon="6.692986735818475">
				<ele>121.0</ele>
				<time>2011-02-16T16:08:38Z</time>
			</trkpt>
			<trkpt lat="50.884649768870155" lon="6.692986735818475">
				<ele>121.0</ele>
				<time>2011-02-16T16:08:39Z</time>
			</trkpt>
			<trkpt lat="50.884649768870155" lon="6.692986735818475">
				<ele>121.0</ele>
				<time>2011-02-16T16:08:40Z</time>
			</trkpt>
			<trkpt lat="50.884649768870155" lon="6.692986735818475">
				<ele>121.0</ele>
				<time>2011-02-16T16:08:41Z</time>
			</trkpt>
			<trkpt lat="50.884649768870155" lon="6.692986735818475">
				<ele>121.0</ele>
				<time>2011-02-16T16:08:42Z</time>
			</trkpt>
			<trkpt lat="50.884649768870155" lon="6.692986735818475">
				<ele>121.0</ele>
				<time>2011-02-16T16:08:43Z</time>
			</trkpt>
			<trkpt lat="50.884649768870155" lon="6.692986735818475">
				<ele>121.0</ele>
				<time>2011-02-16T16:08:44Z</time>
			</trkpt>
			<trkpt lat="50.884649768870155" lon="6.692986735818475">
				<ele>121.0</ele>
				<time>2011-02-16T16:08:45Z</time>
			</trkpt>
			<trkpt lat="50.884649768870155" lon="6.692986735818475">
				<ele>121.0</ele>
				<time>2011-02-16T16:08:46Z</time>
			</trkpt>
			<trkpt lat="50.884649768870155" lon="6.692986735818475">
				<ele>121.0</ele>
				<time>2011-02-16T16:08:47Z</time>
			</trkpt>
			<trkpt lat="50.884649768870155" lon="6.692986735818475">
				<ele>121.0</ele>
				<time>2011-02-16T16:08:48Z</time>
			</trkpt>
			<trkpt lat="50.884649768870155" lon="6.692986735818475">
				<ele>121.0</ele>
				<time>2011-02-16T16:08:49Z</time>
			</trkpt>
			<trkpt lat="50.884649768870155" lon="6.692986735818475">
				<ele>121.0</ele>
				<time>2011-02-16T16:08:50Z</time>
			</trkpt>
			<trkpt lat="50.884649768870155" lon="6.692986735818475">
				<ele>121.0</ele>
				<time>2011-02-16T16:08:51Z</time>
			</trkpt>
			<trkpt lat="50.884649768870155" lon="6.692986735818475">
				<ele>121.0</ele>
				<time>2011-02-16T16:08:52Z</time>
			</trkpt>
			<trkpt lat="50.884667235224136" lon="6.6930277586020654">
				<ele>122.0</ele>
				<time>2011-02-16T16:08:53Z</time>
			</trkpt>
			<trkpt lat="50.88469236877113" lon="6.693081633930709">
				<ele>122.0</ele>
				<time>2011-02-16T16:08:54Z</time>
			</trkpt>
			<trkpt lat="50.88471496748382" lon="6.693140360536488">
				<ele>125.0</ele>
				<time>2011-02-16T16:08:55Z</time>
			</trkpt>
			<trkpt lat="50.88473877038155" lon="6.693205453650438">
				<ele>126.0</ele>
				<time>2011-02-16T16:08:56Z</time>
			</trkpt>
			<trkpt lat="50.88476879883494" lon="6.693283905274738">
				<ele>128.0</ele>
				<time>2011-02-16T16:08:57Z</time>
			</trkpt>
			<trkpt lat="50.88479731049332" lon="6.6933682503419245">
				<ele>129.0</ele>
				<time>2011-02-16T16:08:58Z</time>
			</trkpt>
			<trkpt lat="50.8848271294468" lon="6.693455258005688">
				<ele>129.0</ele>
				<time>2011-02-16T16:08:59Z</time>
			</trkpt>
			<trkpt lat="50.88486817268451" lon="6.6935232695374305">
				<ele>130.0</ele>
				<time>2011-02-16T16:09:00Z</time>
			</trkpt>
			<trkpt lat="50.88492401560456" lon="6.693558874120503">
				<ele>131.0</ele>
				<time>2011-02-16T16:09:01Z</time>
			</trkpt>
			<trkpt lat="50.884987261416576" lon="6.693569784999937">
				<ele>131.0</ele>
				<time>2011-02-16T16:09:02Z</time>
			</trkpt>
			<trkpt lat="50.885059975288534" lon="6.693570463382228">
				<ele>132.0</ele>
				<time>2011-02-16T16:09:03Z</time>
			</trkpt>
			<trkpt lat="50.88513260672416" lon="6.693543463197806">
				<ele>131.0</ele>
				<time>2011-02-16T16:09:04Z</time>
			</trkpt>
			<trkpt lat="50.88521602398531" lon="6.693505271375311">
				<ele>131.0</ele>
				<time>2011-02-16T16:09:05Z</time>
			</trkpt>
			<trkpt lat="50.88530592563253" lon="6.693457714154656">
				<ele>131.0</ele>
				<time>2011-02-16T16:09:06Z</time>
			</trkpt>
			<trkpt lat="50.88540378584499" lon="6.6934038743545665">
				<ele>131.0</ele>
				<time>2011-02-16T16:09:07Z</time>
			</trkpt>
			<trkpt lat="50.88550418948917" lon="6.69334364530747">
				<ele>130.0</ele>
				<time>2011-02-16T16:09:08Z</time>
			</trkpt>
			<trkpt lat="50.88560653425793" lon="6.693281398175399">
				<ele>130.0</ele>
				<time>2011-02-16T16:09:09Z</time>
			</trkpt>
			<trkpt lat="50.885710427466144" lon="6.693211895132905">
				<ele>130.0</ele>
				<time>2011-02-16T16:09:10Z</time>
			</trkpt>
			<trkpt lat="50.88581788819654" lon="6.693135807524281">
				<ele>130.0</ele>
				<time>2011-02-16T16:09:11Z</time>
			</trkpt>
			<trkpt lat="50.88592777111522" lon="6.693056925767796">
				<ele>130.0</ele>
				<time>2011-02-16T16:09:12Z</time>
			</trkpt>
			<trkpt lat="50.88603865035583" lon="6.6929731753488095">
				<ele>129.0</ele>
				<time>2011-02-16T16:09:13Z</time>
			</trkpt>
			<trkpt lat="50.88615109273749" lon="6.6928896677347325">
				<ele>129.0</ele>
				<time>2011-02-16T16:09:14Z</time>
			</trkpt>
			<trkpt lat="50.8862626016795" lon="6.6928084922505935">
				<ele>129.0</ele>
				<time>2011-02-16T16:09:15Z</time>
			</trkpt>
			<trkpt lat="50.886375986659964" lon="6.6927264848476575">
				<ele>128.0</ele>
				<time>2011-02-16T16:09:16Z</time>
			</trkpt>
			<trkpt lat="50.88649318842985" lon="6.692643459087016">
				<ele>128.0</ele>
				<time>2011-02-16T16:09:17Z</time>
			</trkpt>
			<trkpt lat="50.88660926256292" lon="6.692561743096106">
				<ele>128.0</ele>
				<time>2011-02-16T16:09:18Z</time>
			</trkpt>
			<trkpt lat="50.886724433738344" lon="6.692481261554938">
				<ele>128.0</ele>
				<time>2011-02-16T16:09:19Z</time>
			</trkpt>
			<trkpt lat="50.886838478085984" lon="6.69240181097519">
				<ele>128.0</ele>
				<time>2011-02-16T16:09:20Z</time>
			</trkpt>
			<trkpt lat="50.88695151870398" lon="6.6923230477730415">
				<ele>128.0</ele>
				<time>2011-02-16T16:09:21Z</time>
			</trkpt>
			<trkpt lat="50.88705792131125" lon="6.692247879373749">
				<ele>128.0</ele>
				<time>2011-02-16T16:09:22Z</time>
			</trkpt>
			<trkpt lat="50.887162202179" lon="6.692174191168106">
				<ele>128.0</ele>
				<time>2011-02-16T16:09:23Z</time>
			</trkpt>
			<trkpt lat="50.88726533746833" lon="6.692102422116399">
				<ele>127.0</ele>
				<time>2011-02-16T16:09:24Z</time>
			</trkpt>
			<trkpt lat="50.88736073861444" lon="6.692034960165522">
				<ele>127.0</ele>
				<time>2011-02-16T16:09:25Z</time>
			</trkpt>
			<trkpt lat="50.88745455113847" lon="6.691968401127459">
				<ele>127.0</ele>
				<time>2011-02-16T16:09:26Z</time>
			</trkpt>
			<trkpt lat="50.88754623127462" lon="6.691903905901235">
				<ele>127.0</ele>
				<time>2011-02-16T16:09:27Z</time>
			</trkpt>
			<trkpt lat="50.88763482683105" lon="6.691846560679083">
				<ele>127.0</ele>
				<time>2011-02-16T16:09:28Z</time>
			</trkpt>
			<trkpt lat="50.887718937530366" lon="6.691792836706912">
				<ele>127.0</ele>
				<time>2011-02-16T16:09:29Z</time>
			</trkpt>
			<trkpt lat="50.8878022270095" lon="6.69173906581287">
				<ele>127.0</ele>
				<time>2011-02-16T16:09:30Z</time>
			</trkpt>
			<trkpt lat="50.88787902799178" lon="6.691682973233336">
				<ele>127.0</ele>
				<time>2011-02-16T16:09:31Z</time>
			</trkpt>
			<trkpt lat="50.88795204544171" lon="6.691628094595266">
				<ele>127.0</ele>
				<time>2011-02-16T16:09:32Z</time>
			</trkpt>
			<trkpt lat="50.88802202802846" lon="6.691568621129263">
				<ele>127.0</ele>
				<time>2011-02-16T16:09:33Z</time>
			</trkpt>
			<trkpt lat="50.888089242233406" lon="6.69151183376707">
				<ele>127.0</ele>
				<time>2011-02-16T16:09:34Z</time>
			</trkpt>
			<trkpt lat="50.888155123836775" lon="6.691458043605221">
				<ele>127.0</ele>
				<time>2011-02-16T16:09:35Z</time>
			</trkpt>
			<trkpt lat="50.88821208470508" lon="6.691411374591648">
				<ele>127.0</ele>
				<time>2011-02-16T16:09:36Z</time>
			</trkpt>
			<trkpt lat="50.888259802696226" lon="6.691372000354256">
				<ele>127.0</ele>
				<time>2011-02-16T16:09:37Z</time>
			</trkpt>
			<trkpt lat="50.88829243152158" lon="6.691347490489535">
				<ele>127.0</ele>
				<time>2011-02-16T16:09:38Z</time>
			</trkpt>
			<trkpt lat="50.888308987441626" lon="6.691335854679624">
				<ele>127.0</ele>
				<time>2011-02-16T16:09:39Z</time>
			</trkpt>
			<trkpt lat="50.888308987441626" lon="6.691335854679624">
				<ele>127.0</ele>
				<time>2011-02-16T16:09:40Z</time>
			</trkpt>
			<trkpt lat="50.888308987441626" lon="6.691335854679624">
				<ele>127.0</ele>
				<time>2011-02-16T16:09:41Z</time>
			</trkpt>
			<trkpt lat="50.888308987441626" lon="6.691335854679624">
				<ele>127.0</ele>
				<time>2011-02-16T16:09:42Z</time>
			</trkpt>
			<trkpt lat="50.888308987441626" lon="6.691335854679624">
				<ele>127.0</ele>
				<time>2011-02-16T16:09:43Z</time>
			</trkpt>
			<trkpt lat="50.888308987441626" lon="6.691335854679624">
				<ele>127.0</ele>
				<time>2011-02-16T16:09:44Z</time>
			</trkpt>
			<trkpt lat="50.888308987441626" lon="6.691335854679624">
				<ele>127.0</ele>
				<time>2011-02-16T16:09:45Z</time>
			</trkpt>
			<trkpt lat="50.888308987441626" lon="6.691335854679624">
				<ele>127.0</ele>
				<time>2011-02-16T16:09:46Z</time>
			</trkpt>
			<trkpt lat="50.888308987441626" lon="6.691335854679624">
				<ele>127.0</ele>
				<time>2011-02-16T16:09:47Z</time>
			</trkpt>
			<trkpt lat="50.888308987441626" lon="6.691335854679624">
				<ele>127.0</ele>
				<time>2011-02-16T16:09:48Z</time>
			</trkpt>
			<trkpt lat="50.888308987441626" lon="6.691335854679624">
				<ele>127.0</ele>
				<time>2011-02-16T16:09:49Z</time>
			</trkpt>
			<trkpt lat="50.888308987441626" lon="6.691335854679624">
				<ele>127.0</ele>
				<time>2011-02-16T16:09:50Z</time>
			</trkpt>
			<trkpt lat="50.888308987441626" lon="6.691335854679624">
				<ele>127.0</ele>
				<time>2011-02-16T16:09:51Z</time>
			</trkpt>
			<trkpt lat="50.888308987441626" lon="6.691335854679624">
				<ele>127.0</ele>
				<time>2011-02-16T16:09:52Z</time>
			</trkpt>
			<trkpt lat="50.888377895759035" lon="6.691268251161653">
				<ele>127.0</ele>
				<time>2011-02-16T16:09:53Z</time>
			</trkpt>
			<trkpt lat="50.888377895759035" lon="6.691268251161653">
				<ele>127.0</ele>
				<time>2011-02-16T16:09:54Z</time>
			</trkpt>
			<trkpt lat="50.888377895759035" lon="6.691268251161653">
				<ele>127.0</ele>
				<time>2011-02-16T16:09:55Z</time>
			</trkpt>
			<trkpt lat="50.888377895759035" lon="6.691268251161653">
				<ele>127.0</ele>
				<time>2011-02-16T16:09:56Z</time>
			</trkpt>
			<trkpt lat="50.888377895759035" lon="6.691268251161653">
				<ele>127.0</ele>
				<time>2011-02-16T16:09:57Z</time>
			</trkpt>
			<trkpt lat="50.888377895759035" lon="6.691268251161653">
				<ele>127.0</ele>
				<time>2011-02-16T16:09:58Z</time>
			</trkpt>
			<trkpt lat="50.888377895759035" lon="6.691268251161653">
				<ele>127.0</ele>
				<time>2011-02-16T16:09:59Z</time>
			</trkpt>
			<trkpt lat="50.888377895759035" lon="6.691268251161653">
				<ele>127.0</ele>
				<time>2011-02-16T16:09:59Z</time>
			</trkpt>
			<trkpt lat="50.888377895759035" lon="6.691268251161653">
				<ele>127.0</ele>
				<time>2011-02-16T16:10:00Z</time>
			</trkpt>
			<trkpt lat="50.888377895759035" lon="6.691268251161653">
				<ele>127.0</ele>
				<time>2011-02-16T16:10:01Z</time>
			</trkpt>
			<trkpt lat="50.888377895759035" lon="6.691268251161653">
				<ele>127.0</ele>
				<time>2011-02-16T16:10:02Z</time>
			</trkpt>
			<trkpt lat="50.888377895759035" lon="6.691268251161653">
				<ele>127.0</ele>
				<time>2011-02-16T16:10:03Z</time>
			</trkpt>
			<trkpt lat="50.888377895759035" lon="6.691268251161653">
				<ele>127.0</ele>
				<time>2011-02-16T16:10:04Z</time>
			</trkpt>
			<trkpt lat="50.888377895759035" lon="6.691268251161653">
				<ele>127.0</ele>
				<time>2011-02-16T16:10:05Z</time>
			</trkpt>
			<trkpt lat="50.888377895759035" lon="6.691268251161653">
				<ele>127.0</ele>
				<time>2011-02-16T16:10:06Z</time>
			</trkpt>
			<trkpt lat="50.888377895759035" lon="6.691268251161653">
				<ele>127.0</ele>
				<time>2011-02-16T16:10:07Z</time>
			</trkpt>
			<trkpt lat="50.888377895759035" lon="6.691268251161653">
				<ele>127.0</ele>
				<time>2011-02-16T16:10:08Z</time>
			</trkpt>
			<trkpt lat="50.888377895759035" lon="6.691268251161653">
				<ele>127.0</ele>
				<time>2011-02-16T16:10:09Z</time>
			</trkpt>
			<trkpt lat="50.888427625727786" lon="6.6912253058600175">
				<ele>127.0</ele>
				<time>2011-02-16T16:10:10Z</time>
			</trkpt>
			<trkpt lat="50.88846515287161" lon="6.691191521913715">
				<ele>126.0</ele>
				<time>2011-02-16T16:10:11Z</time>
			</trkpt>
			<trkpt lat="50.88850174432091" lon="6.691158344622877">
				<ele>126.0</ele>
				<time>2011-02-16T16:10:12Z</time>
			</trkpt>
			<trkpt lat="50.88855207788067" lon="6.691113282318215">
				<ele>126.0</ele>
				<time>2011-02-16T16:10:13Z</time>
			</trkpt>
			<trkpt lat="50.88861451439813" lon="6.6910602620095965">
				<ele>126.0</ele>
				<time>2011-02-16T16:10:14Z</time>
			</trkpt>
			<trkpt lat="50.888686956782124" lon="6.6909993037521165">
				<ele>125.0</ele>
				<time>2011-02-16T16:10:15Z</time>
			</trkpt>
			<trkpt lat="50.8887564302806" lon="6.690939518463701">
				<ele>125.0</ele>
				<time>2011-02-16T16:10:16Z</time>
			</trkpt>
			<trkpt lat="50.88882740128849" lon="6.690878908011895">
				<ele>125.0</ele>
				<time>2011-02-16T16:10:17Z</time>
			</trkpt>
			<trkpt lat="50.88890113539493" lon="6.690811997852871">
				<ele>125.0</ele>
				<time>2011-02-16T16:10:18Z</time>
			</trkpt>
			<trkpt lat="50.88898367988671" lon="6.690734897980759">
				<ele>125.0</ele>
				<time>2011-02-16T16:10:19Z</time>
			</trkpt>
			<trkpt lat="50.88906595462202" lon="6.690657760369551">
				<ele>124.0</ele>
				<time>2011-02-16T16:10:20Z</time>
			</trkpt>
			<trkpt lat="50.889148829800945" lon="6.690579607470192">
				<ele>124.0</ele>
				<time>2011-02-16T16:10:21Z</time>
			</trkpt>
			<trkpt lat="50.88923811370329" lon="6.69049248130786">
				<ele>124.0</ele>
				<time>2011-02-16T16:10:22Z</time>
			</trkpt>
			<trkpt lat="50.88933078461168" lon="6.690400240701203">
				<ele>124.0</ele>
				<time>2011-02-16T16:10:23Z</time>
			</trkpt>
			<trkpt lat="50.889433160270485" lon="6.690294723661341">
				<ele>124.0</ele>
				<time>2011-02-16T16:10:24Z</time>
			</trkpt>
			<trkpt lat="50.88953239867313" lon="6.690191088681679">
				<ele>124.0</ele>
				<time>2011-02-16T16:10:25Z</time>
			</trkpt>
			<trkpt lat="50.889630791300334" lon="6.690087003322396">
				<ele>124.0</ele>
				<time>2011-02-16T16:10:26Z</time>
			</trkpt>
			<trkpt lat="50.88973338645809" lon="6.689975384652273">
				<ele>124.0</ele>
				<time>2011-02-16T16:10:27Z</time>
			</trkpt>
			<trkpt lat="50.88983775477326" lon="6.689859583417911">
				<ele>124.0</ele>
				<time>2011-02-16T16:10:28Z</time>
			</trkpt>
			<trkpt lat="50.88994349521112" lon="6.689739708620427">
				<ele>124.0</ele>
				<time>2011-02-16T16:10:29Z</time>
			</trkpt>
			<trkpt lat="50.89005246275809" lon="6.689615943887497">
				<ele>124.0</ele>
				<time>2011-02-16T16:10:30Z</time>
			</trkpt>
			<trkpt lat="50.89016465387206" lon="6.689490032568849">
				<ele>125.0</ele>
				<time>2011-02-16T16:10:31Z</time>
			</trkpt>
			<trkpt lat="50.89027798570384" lon="6.689363513465644">
				<ele>125.0</ele>
				<time>2011-02-16T16:10:32Z</time>
			</trkpt>
			<trkpt lat="50.89039032833165" lon="6.689239480620868">
				<ele>125.0</ele>
				<time>2011-02-16T16:10:33Z</time>
			</trkpt>
			<trkpt lat="50.890499784362575" lon="6.689126956306918">
				<ele>125.0</ele>
				<time>2011-02-16T16:10:34Z</time>
			</trkpt>
			<trkpt lat="50.89060727056272" lon="6.689016505016502">
				<ele>125.0</ele>
				<time>2011-02-16T16:10:35Z</time>
			</trkpt>
			<trkpt lat="50.89070955365915" lon="6.68891121925884">
				<ele>126.0</ele>
				<time>2011-02-16T16:10:36Z</time>
			</trkpt>
			<trkpt lat="50.89080528888469" lon="6.688812712187718">
				<ele>126.0</ele>
				<time>2011-02-16T16:10:37Z</time>
			</trkpt>
			<trkpt lat="50.890902216123514" lon="6.68871325499927">
				<ele>127.0</ele>
				<time>2011-02-16T16:10:38Z</time>
			</trkpt>
			<trkpt lat="50.89100199972135" lon="6.688612480710261">
				<ele>127.0</ele>
				<time>2011-02-16T16:10:39Z</time>
			</trkpt>
			<trkpt lat="50.89110704390985" lon="6.688514232668575">
				<ele>127.0</ele>
				<time>2011-02-16T16:10:40Z</time>
			</trkpt>
			<trkpt lat="50.89121808999492" lon="6.688412994532139">
				<ele>127.0</ele>
				<time>2011-02-16T16:10:41Z</time>
			</trkpt>
			<trkpt lat="50.89133322503215" lon="6.688313466531951">
				<ele>128.0</ele>
				<time>2011-02-16T16:10:42Z</time>
			</trkpt>
			<trkpt lat="50.891449580524586" lon="6.6882129205349194">
				<ele>128.0</ele>
				<time>2011-02-16T16:10:43Z</time>
			</trkpt>
			<trkpt lat="50.89156519555176" lon="6.6881129558338595">
				<ele>128.0</ele>
				<time>2011-02-16T16:10:44Z</time>
			</trkpt>
			<trkpt lat="50.891681967098165" lon="6.688017763459104">
				<ele>128.0</ele>
				<time>2011-02-16T16:10:45Z</time>
			</trkpt>
			<trkpt lat="50.89179492830237" lon="6.687925684228389">
				<ele>128.0</ele>
				<time>2011-02-16T16:10:46Z</time>
			</trkpt>
			<trkpt lat="50.89190606193363" lon="6.687840025156434">
				<ele>128.0</ele>
				<time>2011-02-16T16:10:47Z</time>
			</trkpt>
			<trkpt lat="50.89202059589734" lon="6.687753697837326">
				<ele>128.0</ele>
				<time>2011-02-16T16:10:48Z</time>
			</trkpt>
			<trkpt lat="50.89214047794955" lon="6.687672674401994">
				<ele>129.0</ele>
				<time>2011-02-16T16:10:49Z</time>
			</trkpt>
			<trkpt lat="50.892264931420634" lon="6.687589699706129">
				<ele>129.0</ele>
				<time>2011-02-16T16:10:50Z</time>
			</trkpt>
			<trkpt lat="50.89239131010822" lon="6.687510466570737">
				<ele>129.0</ele>
				<time>2011-02-16T16:10:51Z</time>
			</trkpt>
			<trkpt lat="50.89251836577342" lon="6.687430314160951">
				<ele>129.0</ele>
				<time>2011-02-16T16:10:52Z</time>
			</trkpt>
			<trkpt lat="50.89264547088487" lon="6.6873483919109695">
				<ele>129.0</ele>
				<time>2011-02-16T16:10:53Z</time>
			</trkpt>
			<trkpt lat="50.892774992041" lon="6.6872638071936565">
				<ele>129.0</ele>
				<time>2011-02-16T16:10:54Z</time>
			</trkpt>
			<trkpt lat="50.892905280527636" lon="6.687177681928122">
				<ele>130.0</ele>
				<time>2011-02-16T16:10:55Z</time>
			</trkpt>
			<trkpt lat="50.89303672080359" lon="6.687090386637628">
				<ele>130.0</ele>
				<time>2011-02-16T16:10:56Z</time>
			</trkpt>
			<trkpt lat="50.89317125191372" lon="6.687000353539288">
				<ele>130.0</ele>
				<time>2011-02-16T16:10:57Z</time>
			</trkpt>
			<trkpt lat="50.89330594841416" lon="6.686905119664448">
				<ele>130.0</ele>
				<time>2011-02-16T16:10:58Z</time>
			</trkpt>
			<trkpt lat="50.893440456542365" lon="6.686808789706933">
				<ele>130.0</ele>
				<time>2011-02-16T16:10:59Z</time>
			</trkpt>
			<trkpt lat="50.89357291957237" lon="6.686710089775028">
				<ele>130.0</ele>
				<time>2011-02-16T16:11:00Z</time>
			</trkpt>
			<trkpt lat="50.893704456475454" lon="6.686613193320132">
				<ele>130.0</ele>
				<time>2011-02-16T16:11:01Z</time>
			</trkpt>
			<trkpt lat="50.89383640508076" lon="6.686517889412821">
				<ele>130.0</ele>
				<time>2011-02-16T16:11:02Z</time>
			</trkpt>
			<trkpt lat="50.89396654129907" lon="6.68642500917793">
				<ele>130.0</ele>
				<time>2011-02-16T16:11:03Z</time>
			</trkpt>
			<trkpt lat="50.894096121553595" lon="6.6863328830193804">
				<ele>130.0</ele>
				<time>2011-02-16T16:11:04Z</time>
			</trkpt>
			<trkpt lat="50.89422593061528" lon="6.686240526506226">
				<ele>130.0</ele>
				<time>2011-02-16T16:11:05Z</time>
			</trkpt>
			<trkpt lat="50.89435674867233" lon="6.68614771728073">
				<ele>130.0</ele>
				<time>2011-02-16T16:11:06Z</time>
			</trkpt>
			<trkpt lat="50.89448836252913" lon="6.686053892631053">
				<ele>130.0</ele>
				<time>2011-02-16T16:11:07Z</time>
			</trkpt>
			<trkpt lat="50.89462060396845" lon="6.685958640940274">
				<ele>130.0</ele>
				<time>2011-02-16T16:11:08Z</time>
			</trkpt>
			<trkpt lat="50.894752065693886" lon="6.68586326510557">
				<ele>130.0</ele>
				<time>2011-02-16T16:11:09Z</time>
			</trkpt>
			<trkpt lat="50.894884024817955" lon="6.6857670928508055">
				<ele>130.0</ele>
				<time>2011-02-16T16:11:10Z</time>
			</trkpt>
			<trkpt lat="50.89501809980267" lon="6.685670299079384">
				<ele>130.0</ele>
				<time>2011-02-16T16:11:11Z</time>
			</trkpt>
			<trkpt lat="50.895151496657526" lon="6.6855781130602265">
				<ele>130.0</ele>
				<time>2011-02-16T16:11:12Z</time>
			</trkpt>
			<trkpt lat="50.895281467188795" lon="6.685488219559986">
				<ele>130.0</ele>
				<time>2011-02-16T16:11:13Z</time>
			</trkpt>
			<trkpt lat="50.89540873143322" lon="6.685399909422898">
				<ele>130.0</ele>
				<time>2011-02-16T16:11:14Z</time>
			</trkpt>
			<trkpt lat="50.895532201040744" lon="6.685313958105658">
				<ele>130.0</ele>
				<time>2011-02-16T16:11:15Z</time>
			</trkpt>
			<trkpt lat="50.89564906956877" lon="6.685232880801683">
				<ele>130.0</ele>
				<time>2011-02-16T16:11:16Z</time>
			</trkpt>
			<trkpt lat="50.89575348756448" lon="6.685160572751714">
				<ele>130.0</ele>
				<time>2011-02-16T16:11:17Z</time>
			</trkpt>
			<trkpt lat="50.89584085959218" lon="6.685103232154703">
				<ele>130.0</ele>
				<time>2011-02-16T16:11:18Z</time>
			</trkpt>
			<trkpt lat="50.895914698057986" lon="6.6850546666741435">
				<ele>129.0</ele>
				<time>2011-02-16T16:11:19Z</time>
			</trkpt>
			<trkpt lat="50.8959670877838" lon="6.685019003596201">
				<ele>129.0</ele>
				<time>2011-02-16T16:11:20Z</time>
			</trkpt>
			<trkpt lat="50.89600255186688" lon="6.684995066665063">
				<ele>129.0</ele>
				<time>2011-02-16T16:11:21Z</time>
			</trkpt>
			<trkpt lat="50.89602933454652" lon="6.6849753480339285">
				<ele>129.0</ele>
				<time>2011-02-16T16:11:22Z</time>
			</trkpt>
			<trkpt lat="50.8960491271536" lon="6.684960322539301">
				<ele>129.0</ele>
				<time>2011-02-16T16:11:23Z</time>
			</trkpt>
			<trkpt lat="50.89606685819558" lon="6.684947871363335">
				<ele>129.0</ele>
				<time>2011-02-16T16:11:24Z</time>
			</trkpt>
			<trkpt lat="50.89608424860337" lon="6.684934650372303">
				<ele>129.0</ele>
				<time>2011-02-16T16:11:25Z</time>
			</trkpt>
			<trkpt lat="50.896112627653736" lon="6.6849138706770725">
				<ele>129.0</ele>
				<time>2011-02-16T16:11:26Z</time>
			</trkpt>
			<trkpt lat="50.89614775188298" lon="6.684888270807886">
				<ele>129.0</ele>
				<time>2011-02-16T16:11:27Z</time>
			</trkpt>
			<trkpt lat="50.896192713936486" lon="6.684855922090435">
				<ele>129.0</ele>
				<time>2011-02-16T16:11:28Z</time>
			</trkpt>
			<trkpt lat="50.89624325158167" lon="6.6848192529977215">
				<ele>129.0</ele>
				<time>2011-02-16T16:11:29Z</time>
			</trkpt>
			<trkpt lat="50.89629718153307" lon="6.684775236881831">
				<ele>129.0</ele>
				<time>2011-02-16T16:11:30Z</time>
			</trkpt>
			<trkpt lat="50.896350604557405" lon="6.684724769269731">
				<ele>129.0</ele>
				<time>2011-02-16T16:11:31Z</time>
			</trkpt>
			<trkpt lat="50.896405637203905" lon="6.684665935004127">
				<ele>129.0</ele>
				<time>2011-02-16T16:11:32Z</time>
			</trkpt>
			<trkpt lat="50.89646050564634" lon="6.684606473466789">
				<ele>129.0</ele>
				<time>2011-02-16T16:11:33Z</time>
			</trkpt>
			<trkpt lat="50.896516586398526" lon="6.6845608515042265">
				<ele>129.0</ele>
				<time>2011-02-16T16:11:34Z</time>
			</trkpt>
			<trkpt lat="50.89657990059414" lon="6.684552821053252">
				<ele>129.0</ele>
				<time>2011-02-16T16:11:35Z</time>
			</trkpt>
			<trkpt lat="50.8966440448974" lon="6.684551054681167">
				<ele>128.0</ele>
				<time>2011-02-16T16:11:36Z</time>
			</trkpt>
			<trkpt lat="50.89670835131971" lon="6.684551433510624">
				<ele>128.0</ele>
				<time>2011-02-16T16:11:37Z</time>
			</trkpt>
			<trkpt lat="50.89677380407166" lon="6.684547767330783">
				<ele>128.0</ele>
				<time>2011-02-16T16:11:38Z</time>
			</trkpt>
			<trkpt lat="50.89683512118239" lon="6.684518032621433">
				<ele>128.0</ele>
				<time>2011-02-16T16:11:39Z</time>
			</trkpt>
			<trkpt lat="50.89689491434053" lon="6.684481271279247">
				<ele>128.0</ele>
				<time>2011-02-16T16:11:40Z</time>
			</trkpt>
			<trkpt lat="50.89694318447435" lon="6.684415298582138">
				<ele>128.0</ele>
				<time>2011-02-16T16:11:41Z</time>
			</trkpt>
			<trkpt lat="50.896988918852614" lon="6.684342259960508">
				<ele>128.0</ele>
				<time>2011-02-16T16:11:42Z</time>
			</trkpt>
			<trkpt lat="50.89701815492184" lon="6.684253943607906">
				<ele>128.0</ele>
				<time>2011-02-16T16:11:43Z</time>
			</trkpt>
			<trkpt lat="50.897031739067266" lon="6.6841668720364975">
				<ele>128.0</ele>
				<time>2011-02-16T16:11:44Z</time>
			</trkpt>
			<trkpt lat="50.89704168468928" lon="6.6840826333015935">
				<ele>127.0</ele>
				<time>2011-02-16T16:11:45Z</time>
			</trkpt>
			<trkpt lat="50.89703995317038" lon="6.683995634278143">
				<ele>127.0</ele>
				<time>2011-02-16T16:11:46Z</time>
			</trkpt>
			<trkpt lat="50.897035224258246" lon="6.683905307629286">
				<ele>127.0</ele>
				<time>2011-02-16T16:11:47Z</time>
			</trkpt>
			<trkpt lat="50.897031978648485" lon="6.683815198674118">
				<ele>127.0</ele>
				<time>2011-02-16T16:11:48Z</time>
			</trkpt>
			<trkpt lat="50.89703281901713" lon="6.683728573187663">
				<ele>127.0</ele>
				<time>2011-02-16T16:11:49Z</time>
			</trkpt>
			<trkpt lat="50.89705032565471" lon="6.683652082283776">
				<ele>127.0</ele>
				<time>2011-02-16T16:11:50Z</time>
			</trkpt>
			<trkpt lat="50.897081457156816" lon="6.683588410183766">
				<ele>127.0</ele>
				<time>2011-02-16T16:11:51Z</time>
			</trkpt>
			<trkpt lat="50.8971139099202" lon="6.683532638707707">
				<ele>127.0</ele>
				<time>2011-02-16T16:11:52Z</time>
			</trkpt>
			<trkpt lat="50.89715044077247" lon="6.68349309079892">
				<ele>127.0</ele>
				<time>2011-02-16T16:11:53Z</time>
			</trkpt>
			<trkpt lat="50.8971887808501" lon="6.683470571721554">
				<ele>126.0</ele>
				<time>2011-02-16T16:11:54Z</time>
			</trkpt>
			<trkpt lat="50.89721856818926" lon="6.683452912354799">
				<ele>126.0</ele>
				<time>2011-02-16T16:11:55Z</time>
			</trkpt>
			<trkpt lat="50.89723764400692" lon="6.683431583098758">
				<ele>126.0</ele>
				<time>2011-02-16T16:11:56Z</time>
			</trkpt>
			<trkpt lat="50.89723764400692" lon="6.683431583098758">
				<ele>126.0</ele>
				<time>2011-02-16T16:11:57Z</time>
			</trkpt>
			<trkpt lat="50.89723764400692" lon="6.683431583098758">
				<ele>126.0</ele>
				<time>2011-02-16T16:11:58Z</time>
			</trkpt>
			<trkpt lat="50.89723764400692" lon="6.683431583098758">
				<ele>126.0</ele>
				<time>2011-02-16T16:11:59Z</time>
			</trkpt>
			<trkpt lat="50.89723764400692" lon="6.683431583098758">
				<ele>126.0</ele>
				<time>2011-02-16T16:12:00Z</time>
			</trkpt>
			<trkpt lat="50.89723764400692" lon="6.683431583098758">
				<ele>126.0</ele>
				<time>2011-02-16T16:12:01Z</time>
			</trkpt>
			<trkpt lat="50.89723764400692" lon="6.683431583098758">
				<ele>126.0</ele>
				<time>2011-02-16T16:12:02Z</time>
			</trkpt>
			<trkpt lat="50.89723764400692" lon="6.683431583098758">
				<ele>126.0</ele>
				<time>2011-02-16T16:12:03Z</time>
			</trkpt>
			<trkpt lat="50.89723764400692" lon="6.683431583098758">
				<ele>126.0</ele>
				<time>2011-02-16T16:12:04Z</time>
			</trkpt>
			<trkpt lat="50.89723764400692" lon="6.683431583098758">
				<ele>126.0</ele>
				<time>2011-02-16T16:12:05Z</time>
			</trkpt>
			<trkpt lat="50.89723764400692" lon="6.683431583098758">
				<ele>126.0</ele>
				<time>2011-02-16T16:12:06Z</time>
			</trkpt>
			<trkpt lat="50.89723764400692" lon="6.683431583098758">
				<ele>126.0</ele>
				<time>2011-02-16T16:12:07Z</time>
			</trkpt>
			<trkpt lat="50.89723764400692" lon="6.683431583098758">
				<ele>126.0</ele>
				<time>2011-02-16T16:12:08Z</time>
			</trkpt>
			<trkpt lat="50.89723764400692" lon="6.683431583098758">
				<ele>126.0</ele>
				<time>2011-02-16T16:12:09Z</time>
			</trkpt>
			<trkpt lat="50.89723764400692" lon="6.683431583098758">
				<ele>126.0</ele>
				<time>2011-02-16T16:12:10Z</time>
			</trkpt>
			<trkpt lat="50.89726781521662" lon="6.683380359639157">
				<ele>126.0</ele>
				<time>2011-02-16T16:12:11Z</time>
			</trkpt>
			<trkpt lat="50.89729031609878" lon="6.683338233202398">
				<ele>126.0</ele>
				<time>2011-02-16T16:12:12Z</time>
			</trkpt>
			<trkpt lat="50.897311397378935" lon="6.683301784513473">
				<ele>126.0</ele>
				<time>2011-02-16T16:12:13Z</time>
			</trkpt>
			<trkpt lat="50.89733280249872" lon="6.683268840413971">
				<ele>126.0</ele>
				<time>2011-02-16T16:12:14Z</time>
			</trkpt>
			<trkpt lat="50.897353884535804" lon="6.6832399500138">
				<ele>126.0</ele>
				<time>2011-02-16T16:12:15Z</time>
			</trkpt>
			<trkpt lat="50.897372292835904" lon="6.683216405641093">
				<ele>126.0</ele>
				<time>2011-02-16T16:12:16Z</time>
			</trkpt>
			<trkpt lat="50.89738650064222" lon="6.683198295995388">
				<ele>126.0</ele>
				<time>2011-02-16T16:12:17Z</time>
			</trkpt>
			<trkpt lat="50.89739885461595" lon="6.683183636390806">
				<ele>126.0</ele>
				<time>2011-02-16T16:12:18Z</time>
			</trkpt>
			<trkpt lat="50.8974115173549" lon="6.683168709742175">
				<ele>126.0</ele>
				<time>2011-02-16T16:12:19Z</time>
			</trkpt>
			<trkpt lat="50.89742664857404" lon="6.6831508452044615">
				<ele>126.0</ele>
				<time>2011-02-16T16:12:20Z</time>
			</trkpt>
			<trkpt lat="50.89745432662332" lon="6.683118340745416">
				<ele>126.0</ele>
				<time>2011-02-16T16:12:21Z</time>
			</trkpt>
			<trkpt lat="50.89749107583078" lon="6.683076803216855">
				<ele>126.0</ele>
				<time>2011-02-16T16:12:22Z</time>
			</trkpt>
			<trkpt lat="50.89754068211666" lon="6.683024647953296">
				<ele>126.0</ele>
				<time>2011-02-16T16:12:23Z</time>
			</trkpt>
			<trkpt lat="50.89760094956634" lon="6.682961453027252">
				<ele>126.0</ele>
				<time>2011-02-16T16:12:24Z</time>
			</trkpt>
			<trkpt lat="50.89765629175197" lon="6.682903231995946">
				<ele>126.0</ele>
				<time>2011-02-16T16:12:25Z</time>
			</trkpt>
			<trkpt lat="50.89771333061967" lon="6.68284450752293">
				<ele>125.0</ele>
				<time>2011-02-16T16:12:26Z</time>
			</trkpt>
			<trkpt lat="50.89777608320218" lon="6.68278003386729">
				<ele>125.0</ele>
				<time>2011-02-16T16:12:27Z</time>
			</trkpt>
			<trkpt lat="50.8978385638734" lon="6.682715218318722">
				<ele>125.0</ele>
				<time>2011-02-16T16:12:28Z</time>
			</trkpt>
			<trkpt lat="50.897904859217284" lon="6.682646307960057">
				<ele>125.0</ele>
				<time>2011-02-16T16:12:29Z</time>
			</trkpt>
			<trkpt lat="50.89797164451662" lon="6.682575767985316">
				<ele>125.0</ele>
				<time>2011-02-16T16:12:30Z</time>
			</trkpt>
			<trkpt lat="50.89803516780067" lon="6.682505202858311">
				<ele>124.0</ele>
				<time>2011-02-16T16:12:31Z</time>
			</trkpt>
			<trkpt lat="50.89809928998785" lon="6.682435558141956">
				<ele>124.0</ele>
				<time>2011-02-16T16:12:32Z</time>
			</trkpt>
			<trkpt lat="50.898165861213066" lon="6.682364397849748">
				<ele>124.0</ele>
				<time>2011-02-16T16:12:33Z</time>
			</trkpt>
			<trkpt lat="50.89823449083031" lon="6.682290884589504">
				<ele>124.0</ele>
				<time>2011-02-16T16:12:34Z</time>
			</trkpt>
			<trkpt lat="50.898302565044006" lon="6.6822186126508365">
				<ele>124.0</ele>
				<time>2011-02-16T16:12:35Z</time>
			</trkpt>
			<trkpt lat="50.898371233365886" lon="6.6821456226402445">
				<ele>124.0</ele>
				<time>2011-02-16T16:12:36Z</time>
			</trkpt>
			<trkpt lat="50.89844159683374" lon="6.682074688872196">
				<ele>123.0</ele>
				<time>2011-02-16T16:12:37Z</time>
			</trkpt>
			<trkpt lat="50.89851632302298" lon="6.68199877004486">
				<ele>123.0</ele>
				<time>2011-02-16T16:12:38Z</time>
			</trkpt>
			<trkpt lat="50.898591883852156" lon="6.681922066935324">
				<ele>123.0</ele>
				<time>2011-02-16T16:12:39Z</time>
			</trkpt>
			<trkpt lat="50.898669474755074" lon="6.681845908643886">
				<ele>123.0</ele>
				<time>2011-02-16T16:12:40Z</time>
			</trkpt>
			<trkpt lat="50.89874727037175" lon="6.681769874280209">
				<ele>122.0</ele>
				<time>2011-02-16T16:12:41Z</time>
			</trkpt>
			<trkpt lat="50.898825580237" lon="6.68169754792933">
				<ele>122.0</ele>
				<time>2011-02-16T16:12:42Z</time>
			</trkpt>
			<trkpt lat="50.89890427076603" lon="6.681623446864181">
				<ele>122.0</ele>
				<time>2011-02-16T16:12:43Z</time>
			</trkpt>
			<trkpt lat="50.89898161452563" lon="6.681545795384764">
				<ele>122.0</ele>
				<time>2011-02-16T16:12:44Z</time>
			</trkpt>
			<trkpt lat="50.899058734015235" lon="6.6814685172571195">
				<ele>122.0</ele>
				<time>2011-02-16T16:12:45Z</time>
			</trkpt>
			<trkpt lat="50.89913605769948" lon="6.68138907411895">
				<ele>122.0</ele>
				<time>2011-02-16T16:12:46Z</time>
			</trkpt>
			<trkpt lat="50.89921350159338" lon="6.681308791579009">
				<ele>122.0</ele>
				<time>2011-02-16T16:12:47Z</time>
			</trkpt>
			<trkpt lat="50.89929111857307" lon="6.681224506387422">
				<ele>122.0</ele>
				<time>2011-02-16T16:12:48Z</time>
			</trkpt>
			<trkpt lat="50.89936547381123" lon="6.681142956215156">
				<ele>122.0</ele>
				<time>2011-02-16T16:12:49Z</time>
			</trkpt>
			<trkpt lat="50.89943995771284" lon="6.681062058190452">
				<ele>122.0</ele>
				<time>2011-02-16T16:12:50Z</time>
			</trkpt>
			<trkpt lat="50.89951267945096" lon="6.680983298994424">
				<ele>123.0</ele>
				<time>2011-02-16T16:12:51Z</time>
			</trkpt>
			<trkpt lat="50.89958486470251" lon="6.680906566880584">
				<ele>122.0</ele>
				<time>2011-02-16T16:12:52Z</time>
			</trkpt>
			<trkpt lat="50.89965887768846" lon="6.680832797949628">
				<ele>123.0</ele>
				<time>2011-02-16T16:12:53Z</time>
			</trkpt>
			<trkpt lat="50.89973049625142" lon="6.680761405639407">
				<ele>123.0</ele>
				<time>2011-02-16T16:12:54Z</time>
			</trkpt>
			<trkpt lat="50.89980167908394" lon="6.680689065475474">
				<ele>123.0</ele>
				<time>2011-02-16T16:12:55Z</time>
			</trkpt>
			<trkpt lat="50.89987232572662" lon="6.680617156179495">
				<ele>122.0</ele>
				<time>2011-02-16T16:12:56Z</time>
			</trkpt>
			<trkpt lat="50.89994449185403" lon="6.680544723387237">
				<ele>122.0</ele>
				<time>2011-02-16T16:12:57Z</time>
			</trkpt>
			<trkpt lat="50.900017881762494" lon="6.680471370110541">
				<ele>122.0</ele>
				<time>2011-02-16T16:12:58Z</time>
			</trkpt>
			<trkpt lat="50.9000910477793" lon="6.6803976048144795">
				<ele>122.0</ele>
				<time>2011-02-16T16:12:59Z</time>
			</trkpt>
			<trkpt lat="50.900164548522724" lon="6.680322892364487">
				<ele>122.0</ele>
				<time>2011-02-16T16:13:00Z</time>
			</trkpt>
			<trkpt lat="50.90023786054707" lon="6.680247165558761">
				<ele>122.0</ele>
				<time>2011-02-16T16:13:01Z</time>
			</trkpt>
			<trkpt lat="50.900310303061865" lon="6.680171255232292">
				<ele>122.0</ele>
				<time>2011-02-16T16:13:02Z</time>
			</trkpt>
			<trkpt lat="50.900383091911365" lon="6.680094604454937">
				<ele>122.0</ele>
				<time>2011-02-16T16:13:03Z</time>
			</trkpt>
			<trkpt lat="50.90045458701505" lon="6.680015422971547">
				<ele>122.0</ele>
				<time>2011-02-16T16:13:04Z</time>
			</trkpt>
			<trkpt lat="50.90052657964645" lon="6.679936877425794">
				<ele>122.0</ele>
				<time>2011-02-16T16:13:05Z</time>
			</trkpt>
			<trkpt lat="50.90059851124896" lon="6.679858384266404">
				<ele>122.0</ele>
				<time>2011-02-16T16:13:06Z</time>
			</trkpt>
			<trkpt lat="50.90066938919526" lon="6.679781427725744">
				<ele>122.0</ele>
				<time>2011-02-16T16:13:07Z</time>
			</trkpt>
			<trkpt lat="50.90074184701861" lon="6.67970489779241">
				<ele>122.0</ele>
				<time>2011-02-16T16:13:08Z</time>
			</trkpt>
			<trkpt lat="50.90081623698842" lon="6.679628959661785">
				<ele>122.0</ele>
				<time>2011-02-16T16:13:09Z</time>
			</trkpt>
			<trkpt lat="50.9008919395272" lon="6.679552635240091">
				<ele>121.0</ele>
				<time>2011-02-16T16:13:10Z</time>
			</trkpt>
			<trkpt lat="50.900971358981906" lon="6.679474037775669">
				<ele>121.0</ele>
				<time>2011-02-16T16:13:11Z</time>
			</trkpt>
			<trkpt lat="50.901057551365874" lon="6.679389684898546">
				<ele>121.0</ele>
				<time>2011-02-16T16:13:12Z</time>
			</trkpt>
			<trkpt lat="50.90114368160211" lon="6.679308941592356">
				<ele>121.0</ele>
				<time>2011-02-16T16:13:13Z</time>
			</trkpt>
			<trkpt lat="50.9012307040374" lon="6.679226054453864">
				<ele>120.0</ele>
				<time>2011-02-16T16:13:14Z</time>
			</trkpt>
			<trkpt lat="50.90131768397504" lon="6.67914422708143">
				<ele>120.0</ele>
				<time>2011-02-16T16:13:15Z</time>
			</trkpt>
			<trkpt lat="50.90140533772212" lon="6.679061970339722">
				<ele>120.0</ele>
				<time>2011-02-16T16:13:16Z</time>
			</trkpt>
			<trkpt lat="50.90149351106675" lon="6.678977251561141">
				<ele>120.0</ele>
				<time>2011-02-16T16:13:17Z</time>
			</trkpt>
			<trkpt lat="50.90158058687016" lon="6.678888305383786">
				<ele>119.0</ele>
				<time>2011-02-16T16:13:18Z</time>
			</trkpt>
			<trkpt lat="50.90166616238965" lon="6.678799788621352">
				<ele>119.0</ele>
				<time>2011-02-16T16:13:19Z</time>
			</trkpt>
			<trkpt lat="50.901754967412195" lon="6.67870745337727">
				<ele>119.0</ele>
				<time>2011-02-16T16:13:20Z</time>
			</trkpt>
			<trkpt lat="50.90184276608943" lon="6.678616044572451">
				<ele>119.0</ele>
				<time>2011-02-16T16:13:21Z</time>
			</trkpt>
			<trkpt lat="50.90192933454464" lon="6.6785267414570795">
				<ele>119.0</ele>
				<time>2011-02-16T16:13:22Z</time>
			</trkpt>
			<trkpt lat="50.902014857054425" lon="6.678441939148725">
				<ele>119.0</ele>
				<time>2011-02-16T16:13:23Z</time>
			</trkpt>
			<trkpt lat="50.90209907742218" lon="6.678357343001999">
				<ele>119.0</ele>
				<time>2011-02-16T16:13:24Z</time>
			</trkpt>
			<trkpt lat="50.90218253798738" lon="6.678273403700479">
				<ele>119.0</ele>
				<time>2011-02-16T16:13:25Z</time>
			</trkpt>
			<trkpt lat="50.90226333085493" lon="6.678189293797708">
				<ele>119.0</ele>
				<time>2011-02-16T16:13:26Z</time>
			</trkpt>
			<trkpt lat="50.90234389656586" lon="6.678109512376767">
				<ele>119.0</ele>
				<time>2011-02-16T16:13:27Z</time>
			</trkpt>
			<trkpt lat="50.90242863030918" lon="6.678037555107359">
				<ele>119.0</ele>
				<time>2011-02-16T16:13:28Z</time>
			</trkpt>
			<trkpt lat="50.90250694575322" lon="6.6779574513272495">
				<ele>119.0</ele>
				<time>2011-02-16T16:13:29Z</time>
			</trkpt>
			<trkpt lat="50.902566079054665" lon="6.677890831999083">
				<ele>119.0</ele>
				<time>2011-02-16T16:13:30Z</time>
			</trkpt>
			<trkpt lat="50.902637964679165" lon="6.677819949958614">
				<ele>118.0</ele>
				<time>2011-02-16T16:13:31Z</time>
			</trkpt>
			<trkpt lat="50.90270562114522" lon="6.677752917798869">
				<ele>118.0</ele>
				<time>2011-02-16T16:13:32Z</time>
			</trkpt>
			<trkpt lat="50.90276730426926" lon="6.677692901201298">
				<ele>118.0</ele>
				<time>2011-02-16T16:13:33Z</time>
			</trkpt>
			<trkpt lat="50.902827638986565" lon="6.677634078243983">
				<ele>118.0</ele>
				<time>2011-02-16T16:13:34Z</time>
			</trkpt>
			<trkpt lat="50.90288452624798" lon="6.67758311082306">
				<ele>118.0</ele>
				<time>2011-02-16T16:13:35Z</time>
			</trkpt>
			<trkpt lat="50.902932307868255" lon="6.677540724254692">
				<ele>117.0</ele>
				<time>2011-02-16T16:13:36Z</time>
			</trkpt>
			<trkpt lat="50.90296151817596" lon="6.677510721120599">
				<ele>117.0</ele>
				<time>2011-02-16T16:13:37Z</time>
			</trkpt>
			<trkpt lat="50.90298410699347" lon="6.67748770713795">
				<ele>117.0</ele>
				<time>2011-02-16T16:13:38Z</time>
			</trkpt>
			<trkpt lat="50.902997489389804" lon="6.677474866993277">
				<ele>117.0</ele>
				<time>2011-02-16T16:13:39Z</time>
			</trkpt>
			<trkpt lat="50.902997489389804" lon="6.677474866993277">
				<ele>117.0</ele>
				<time>2011-02-16T16:13:40Z</time>
			</trkpt>
			<trkpt lat="50.902997489389804" lon="6.677474866993277">
				<ele>117.0</ele>
				<time>2011-02-16T16:13:41Z</time>
			</trkpt>
			<trkpt lat="50.902997489389804" lon="6.677474866993277">
				<ele>117.0</ele>
				<time>2011-02-16T16:13:42Z</time>
			</trkpt>
			<trkpt lat="50.902997489389804" lon="6.677474866993277">
				<ele>117.0</ele>
				<time>2011-02-16T16:13:43Z</time>
			</trkpt>
			<trkpt lat="50.902997489389804" lon="6.677474866993277">
				<ele>117.0</ele>
				<time>2011-02-16T16:13:44Z</time>
			</trkpt>
			<trkpt lat="50.902997489389804" lon="6.677474866993277">
				<ele>117.0</ele>
				<time>2011-02-16T16:13:45Z</time>
			</trkpt>
			<trkpt lat="50.902997489389804" lon="6.677474866993277">
				<ele>117.0</ele>
				<time>2011-02-16T16:13:46Z</time>
			</trkpt>
			<trkpt lat="50.902997489389804" lon="6.677474866993277">
				<ele>117.0</ele>
				<time>2011-02-16T16:13:47Z</time>
			</trkpt>
			<trkpt lat="50.902997489389804" lon="6.677474866993277">
				<ele>117.0</ele>
				<time>2011-02-16T16:13:48Z</time>
			</trkpt>
			<trkpt lat="50.902997489389804" lon="6.677474866993277">
				<ele>117.0</ele>
				<time>2011-02-16T16:13:49Z</time>
			</trkpt>
			<trkpt lat="50.902997489389804" lon="6.677474866993277">
				<ele>117.0</ele>
				<time>2011-02-16T16:13:50Z</time>
			</trkpt>
			<trkpt lat="50.902997489389804" lon="6.677474866993277">
				<ele>117.0</ele>
				<time>2011-02-16T16:13:51Z</time>
			</trkpt>
			<trkpt lat="50.902997489389804" lon="6.677474866993277">
				<ele>117.0</ele>
				<time>2011-02-16T16:13:52Z</time>
			</trkpt>
			<trkpt lat="50.902997489389804" lon="6.677474866993277">
				<ele>117.0</ele>
				<time>2011-02-16T16:13:53Z</time>
			</trkpt>
			<trkpt lat="50.902997489389804" lon="6.677474866993277">
				<ele>117.0</ele>
				<time>2011-02-16T16:13:54Z</time>
			</trkpt>
			<trkpt lat="50.902997489389804" lon="6.677474866993277">
				<ele>117.0</ele>
				<time>2011-02-16T16:13:55Z</time>
			</trkpt>
			<trkpt lat="50.902997489389804" lon="6.677474866993277">
				<ele>117.0</ele>
				<time>2011-02-16T16:13:56Z</time>
			</trkpt>
			<trkpt lat="50.90304424386915" lon="6.677423927893387">
				<ele>117.0</ele>
				<time>2011-02-16T16:13:57Z</time>
			</trkpt>
			<trkpt lat="50.90307464640287" lon="6.677389842778276">
				<ele>117.0</ele>
				<time>2011-02-16T16:13:58Z</time>
			</trkpt>
			<trkpt lat="50.90310800190027" lon="6.677354622225189">
				<ele>116.0</ele>
				<time>2011-02-16T16:13:59Z</time>
			</trkpt>
			<trkpt lat="50.903153875812116" lon="6.677309032021182">
				<ele>116.0</ele>
				<time>2011-02-16T16:14:00Z</time>
			</trkpt>
			<trkpt lat="50.9032022179291" lon="6.677261461859596">
				<ele>116.0</ele>
				<time>2011-02-16T16:14:01Z</time>
			</trkpt>
			<trkpt lat="50.90325497852048" lon="6.677210519884944">
				<ele>116.0</ele>
				<time>2011-02-16T16:14:02Z</time>
			</trkpt>
			<trkpt lat="50.90330955587683" lon="6.6771563134093785">
				<ele>116.0</ele>
				<time>2011-02-16T16:14:03Z</time>
			</trkpt>
			<trkpt lat="50.90336511370415" lon="6.677099890357774">
				<ele>116.0</ele>
				<time>2011-02-16T16:14:04Z</time>
			</trkpt>
			<trkpt lat="50.903423199037064" lon="6.677039861894967">
				<ele>116.0</ele>
				<time>2011-02-16T16:14:05Z</time>
			</trkpt>
			<trkpt lat="50.90347971533793" lon="6.676978979575381">
				<ele>116.0</ele>
				<time>2011-02-16T16:14:06Z</time>
			</trkpt>
			<trkpt lat="50.90353633418172" lon="6.676919454201333">
				<ele>116.0</ele>
				<time>2011-02-16T16:14:07Z</time>
			</trkpt>
			<trkpt lat="50.90359252622345" lon="6.676862856084998">
				<ele>116.0</ele>
				<time>2011-02-16T16:14:08Z</time>
			</trkpt>
			<trkpt lat="50.90364749343372" lon="6.67680729328207">
				<ele>116.0</ele>
				<time>2011-02-16T16:14:09Z</time>
			</trkpt>
			<trkpt lat="50.90370217692856" lon="6.676751776039348">
				<ele>116.0</ele>
				<time>2011-02-16T16:14:10Z</time>
			</trkpt>
			<trkpt lat="50.90375696854372" lon="6.67669518937915">
				<ele>117.0</ele>
				<time>2011-02-16T16:14:11Z</time>
			</trkpt>
			<trkpt lat="50.903812933892304" lon="6.676638330976409">
				<ele>117.0</ele>
				<time>2011-02-16T16:14:12Z</time>
			</trkpt>
			<trkpt lat="50.903870980124225" lon="6.676580319526816">
				<ele>117.0</ele>
				<time>2011-02-16T16:14:13Z</time>
			</trkpt>
			<trkpt lat="50.903930944502314" lon="6.676519582183398">
				<ele>117.0</ele>
				<time>2011-02-16T16:14:14Z</time>
			</trkpt>
			<trkpt lat="50.903989264217245" lon="6.676459767708842">
				<ele>117.0</ele>
				<time>2011-02-16T16:14:15Z</time>
			</trkpt>
			<trkpt lat="50.90404961081738" lon="6.676396983855493">
				<ele>118.0</ele>
				<time>2011-02-16T16:14:16Z</time>
			</trkpt>
			<trkpt lat="50.904109216128745" lon="6.676334085926174">
				<ele>118.0</ele>
				<time>2011-02-16T16:14:17Z</time>
			</trkpt>
			<trkpt lat="50.90416724050937" lon="6.676277994774749">
				<ele>118.0</ele>
				<time>2011-02-16T16:14:18Z</time>
			</trkpt>
			<trkpt lat="50.90422578592809" lon="6.6762220736482">
				<ele>118.0</ele>
				<time>2011-02-16T16:14:19Z</time>
			</trkpt>
			<trkpt lat="50.90428439996523" lon="6.676166545747723">
				<ele>118.0</ele>
				<time>2011-02-16T16:14:20Z</time>
			</trkpt>
			<trkpt lat="50.90434245677784" lon="6.67611100245459">
				<ele>118.0</ele>
				<time>2011-02-16T16:14:21Z</time>
			</trkpt>
			<trkpt lat="50.90439997301275" lon="6.676054714476327">
				<ele>118.0</ele>
				<time>2011-02-16T16:14:22Z</time>
			</trkpt>
			<trkpt lat="50.9044604909994" lon="6.675993969578481">
				<ele>118.0</ele>
				<time>2011-02-16T16:14:23Z</time>
			</trkpt>
			<trkpt lat="50.90452677642094" lon="6.675923807940579">
				<ele>118.0</ele>
				<time>2011-02-16T16:14:24Z</time>
			</trkpt>
			<trkpt lat="50.90459650393961" lon="6.675849401297419">
				<ele>118.0</ele>
				<time>2011-02-16T16:14:25Z</time>
			</trkpt>
			<trkpt lat="50.9046697607392" lon="6.6757708143646175">
				<ele>118.0</ele>
				<time>2011-02-16T16:14:26Z</time>
			</trkpt>
			<trkpt lat="50.90474449811669" lon="6.6756900461883735">
				<ele>118.0</ele>
				<time>2011-02-16T16:14:27Z</time>
			</trkpt>
			<trkpt lat="50.904821270806806" lon="6.6756067306859235">
				<ele>118.0</ele>
				<time>2011-02-16T16:14:28Z</time>
			</trkpt>
			<trkpt lat="50.90490010614844" lon="6.675521946321755">
				<ele>118.0</ele>
				<time>2011-02-16T16:14:29Z</time>
			</trkpt>
			<trkpt lat="50.904977822425096" lon="6.675438258271063">
				<ele>118.0</ele>
				<time>2011-02-16T16:14:30Z</time>
			</trkpt>
			<trkpt lat="50.90505591139298" lon="6.6753557444018154">
				<ele>117.0</ele>
				<time>2011-02-16T16:14:31Z</time>
			</trkpt>
			<trkpt lat="50.90513177522038" lon="6.675277340368726">
				<ele>117.0</ele>
				<time>2011-02-16T16:14:32Z</time>
			</trkpt>
			<trkpt lat="50.905208441416974" lon="6.6752002699709045">
				<ele>117.0</ele>
				<time>2011-02-16T16:14:33Z</time>
			</trkpt>
			<trkpt lat="50.90528526406012" lon="6.675124002373344">
				<ele>118.0</ele>
				<time>2011-02-16T16:14:34Z</time>
			</trkpt>
			<trkpt lat="50.90536053452588" lon="6.675047356263747">
				<ele>118.0</ele>
				<time>2011-02-16T16:14:35Z</time>
			</trkpt>
			<trkpt lat="50.90543643228985" lon="6.6749698219689515">
				<ele>118.0</ele>
				<time>2011-02-16T16:14:36Z</time>
			</trkpt>
			<trkpt lat="50.905513039723246" lon="6.674892356041065">
				<ele>118.0</ele>
				<time>2011-02-16T16:14:37Z</time>
			</trkpt>
			<trkpt lat="50.90558842803066" lon="6.67481569306402">
				<ele>118.0</ele>
				<time>2011-02-16T16:14:38Z</time>
			</trkpt>
			<trkpt lat="50.905664003650976" lon="6.674740146893889">
				<ele>118.0</ele>
				<time>2011-02-16T16:14:39Z</time>
			</trkpt>
			<trkpt lat="50.905739783708206" lon="6.674663460693875">
				<ele>118.0</ele>
				<time>2011-02-16T16:14:40Z</time>
			</trkpt>
			<trkpt lat="50.90581695935333" lon="6.6745857841826055">
				<ele>118.0</ele>
				<time>2011-02-16T16:14:41Z</time>
			</trkpt>
			<trkpt lat="50.905899239526185" lon="6.674502698705458">
				<ele>119.0</ele>
				<time>2011-02-16T16:14:42Z</time>
			</trkpt>
			<trkpt lat="50.905980702648" lon="6.674420050643292">
				<ele>119.0</ele>
				<time>2011-02-16T16:14:43Z</time>
			</trkpt>
			<trkpt lat="50.90606183015307" lon="6.674336809036336">
				<ele>119.0</ele>
				<time>2011-02-16T16:14:44Z</time>
			</trkpt>
			<trkpt lat="50.906142785670724" lon="6.674253878843781">
				<ele>119.0</ele>
				<time>2011-02-16T16:14:45Z</time>
			</trkpt>
			<trkpt lat="50.90622537761002" lon="6.674169254103161">
				<ele>119.0</ele>
				<time>2011-02-16T16:14:46Z</time>
			</trkpt>
			<trkpt lat="50.906306700508395" lon="6.674085929730426">
				<ele>119.0</ele>
				<time>2011-02-16T16:14:47Z</time>
			</trkpt>
			<trkpt lat="50.9063874285162" lon="6.674003241466506">
				<ele>119.0</ele>
				<time>2011-02-16T16:14:48Z</time>
			</trkpt>
			<trkpt lat="50.90646613717781" lon="6.6739220079616555">
				<ele>119.0</ele>
				<time>2011-02-16T16:14:49Z</time>
			</trkpt>
			<trkpt lat="50.90654340582363" lon="6.673841761472867">
				<ele>119.0</ele>
				<time>2011-02-16T16:14:50Z</time>
			</trkpt>
			<trkpt lat="50.90662114978347" lon="6.673760627588116">
				<ele>119.0</ele>
				<time>2011-02-16T16:14:51Z</time>
			</trkpt>
			<trkpt lat="50.906696667640915" lon="6.673680794764739">
				<ele>119.0</ele>
				<time>2011-02-16T16:14:52Z</time>
			</trkpt>
			<trkpt lat="50.90677516448759" lon="6.673603498068342">
				<ele>119.0</ele>
				<time>2011-02-16T16:14:53Z</time>
			</trkpt>
			<trkpt lat="50.906851818757126" lon="6.67352818186331">
				<ele>120.0</ele>
				<time>2011-02-16T16:14:54Z</time>
			</trkpt>
			<trkpt lat="50.90693067894788" lon="6.673451509248283">
				<ele>120.0</ele>
				<time>2011-02-16T16:14:55Z</time>
			</trkpt>
			<trkpt lat="50.90701270118592" lon="6.6733764519504915">
				<ele>120.0</ele>
				<time>2011-02-16T16:14:56Z</time>
			</trkpt>
			<trkpt lat="50.90709287747514" lon="6.6733035729892345">
				<ele>120.0</ele>
				<time>2011-02-16T16:14:57Z</time>
			</trkpt>
			<trkpt lat="50.90717283226111" lon="6.6732287069130125">
				<ele>121.0</ele>
				<time>2011-02-16T16:14:58Z</time>
			</trkpt>
			<trkpt lat="50.90726102157643" lon="6.673145977385333">
				<ele>121.0</ele>
				<time>2011-02-16T16:14:59Z</time>
			</trkpt>
			<trkpt lat="50.90735389319356" lon="6.67306926297567">
				<ele>121.0</ele>
				<time>2011-02-16T16:15:00Z</time>
			</trkpt>
			<trkpt lat="50.907470690010456" lon="6.673018470171601">
				<ele>121.0</ele>
				<time>2011-02-16T16:15:01Z</time>
			</trkpt>
			<trkpt lat="50.907592066375976" lon="6.672972881219505">
				<ele>121.0</ele>
				<time>2011-02-16T16:15:02Z</time>
			</trkpt>
			<trkpt lat="50.90772210808476" lon="6.672926463460513">
				<ele>121.0</ele>
				<time>2011-02-16T16:15:03Z</time>
			</trkpt>
			<trkpt lat="50.90785230664278" lon="6.672879559027277">
				<ele>121.0</ele>
				<time>2011-02-16T16:15:04Z</time>
			</trkpt>
			<trkpt lat="50.9079784700583" lon="6.672824541939232">
				<ele>121.0</ele>
				<time>2011-02-16T16:15:05Z</time>
			</trkpt>
			<trkpt lat="50.90808316601105" lon="6.672769623655407">
				<ele>121.0</ele>
				<time>2011-02-16T16:15:06Z</time>
			</trkpt>
			<trkpt lat="50.908163865476496" lon="6.672724944360538">
				<ele>121.0</ele>
				<time>2011-02-16T16:15:07Z</time>
			</trkpt>
			<trkpt lat="50.90823071915678" lon="6.672690811754992">
				<ele>121.0</ele>
				<time>2011-02-16T16:15:08Z</time>
			</trkpt>
			<trkpt lat="50.908301258085444" lon="6.672664447164828">
				<ele>121.0</ele>
				<time>2011-02-16T16:15:09Z</time>
			</trkpt>
			<trkpt lat="50.90835293454541" lon="6.67270078601139">
				<ele>121.0</ele>
				<time>2011-02-16T16:15:10Z</time>
			</trkpt>
			<trkpt lat="50.90838918954364" lon="6.67276558293991">
				<ele>121.0</ele>
				<time>2011-02-16T16:15:11Z</time>
			</trkpt>
			<trkpt lat="50.90842587038456" lon="6.672843244059673">
				<ele>121.0</ele>
				<time>2011-02-16T16:15:12Z</time>
			</trkpt>
			<trkpt lat="50.90846096361852" lon="6.672923324118431">
				<ele>121.0</ele>
				<time>2011-02-16T16:15:13Z</time>
			</trkpt>
			<trkpt lat="50.90849270343555" lon="6.673005353985487">
				<ele>122.0</ele>
				<time>2011-02-16T16:15:14Z</time>
			</trkpt>
			<trkpt lat="50.90852540677304" lon="6.6730892601104745">
				<ele>122.0</ele>
				<time>2011-02-16T16:15:15Z</time>
			</trkpt>
			<trkpt lat="50.9085630674408" lon="6.673176942189974">
				<ele>122.0</ele>
				<time>2011-02-16T16:15:16Z</time>
			</trkpt>
			<trkpt lat="50.90861030957601" lon="6.673269201753673">
				<ele>121.0</ele>
				<time>2011-02-16T16:15:17Z</time>
			</trkpt>
			<trkpt lat="50.90865966965891" lon="6.673355878207346">
				<ele>121.0</ele>
				<time>2011-02-16T16:15:18Z</time>
			</trkpt>
			<trkpt lat="50.908711776539896" lon="6.673441569284276">
				<ele>121.0</ele>
				<time>2011-02-16T16:15:19Z</time>
			</trkpt>
			<trkpt lat="50.90876423069287" lon="6.673527880377943">
				<ele>122.0</ele>
				<time>2011-02-16T16:15:20Z</time>
			</trkpt>
			<trkpt lat="50.90881469334556" lon="6.673615425435993">
				<ele>122.0</ele>
				<time>2011-02-16T16:15:21Z</time>
			</trkpt>
			<trkpt lat="50.90885810233122" lon="6.673706405335058">
				<ele>122.0</ele>
				<time>2011-02-16T16:15:22Z</time>
			</trkpt>
			<trkpt lat="50.90886926894045" lon="6.673809772395206">
				<ele>122.0</ele>
				<time>2011-02-16T16:15:23Z</time>
			</trkpt>
			<trkpt lat="50.90886735920127" lon="6.6739158067083135">
				<ele>122.0</ele>
				<time>2011-02-16T16:15:24Z</time>
			</trkpt>
			<trkpt lat="50.90885948754882" lon="6.674026139062343">
				<ele>122.0</ele>
				<time>2011-02-16T16:15:25Z</time>
			</trkpt>
			<trkpt lat="50.908844396411475" lon="6.674140026006158">
				<ele>122.0</ele>
				<time>2011-02-16T16:15:26Z</time>
			</trkpt>
			<trkpt lat="50.9088242657142" lon="6.674256862149013">
				<ele>122.0</ele>
				<time>2011-02-16T16:15:27Z</time>
			</trkpt>
			<trkpt lat="50.908801554975184" lon="6.674375186190498">
				<ele>122.0</ele>
				<time>2011-02-16T16:15:28Z</time>
			</trkpt>
			<trkpt lat="50.908778357949096" lon="6.674494125324006">
				<ele>122.0</ele>
				<time>2011-02-16T16:15:29Z</time>
			</trkpt>
			<trkpt lat="50.90877228907193" lon="6.67461769034177">
				<ele>122.0</ele>
				<time>2011-02-16T16:15:30Z</time>
			</trkpt>
			<trkpt lat="50.90878503330061" lon="6.674737505147796">
				<ele>122.0</ele>
				<time>2011-02-16T16:15:31Z</time>
			</trkpt>
			<trkpt lat="50.90880472631974" lon="6.674855333794486">
				<ele>122.0</ele>
				<time>2011-02-16T16:15:32Z</time>
			</trkpt>
			<trkpt lat="50.90883111315051" lon="6.67497745646754">
				<ele>121.0</ele>
				<time>2011-02-16T16:15:33Z</time>
			</trkpt>
			<trkpt lat="50.908862358948795" lon="6.675109434755027">
				<ele>121.0</ele>
				<time>2011-02-16T16:15:34Z</time>
			</trkpt>
			<trkpt lat="50.90889483585409" lon="6.67524438687605">
				<ele>121.0</ele>
				<time>2011-02-16T16:15:35Z</time>
			</trkpt>
			<trkpt lat="50.90892719888274" lon="6.675378990864865">
				<ele>121.0</ele>
				<time>2011-02-16T16:15:36Z</time>
			</trkpt>
			<trkpt lat="50.908959840479795" lon="6.675517675818411">
				<ele>121.0</ele>
				<time>2011-02-16T16:15:37Z</time>
			</trkpt>
			<trkpt lat="50.9089927868006" lon="6.675658935039006">
				<ele>121.0</ele>
				<time>2011-02-16T16:15:38Z</time>
			</trkpt>
			<trkpt lat="50.90902773889526" lon="6.67580113122626">
				<ele>121.0</ele>
				<time>2011-02-16T16:15:39Z</time>
			</trkpt>
			<trkpt lat="50.90906242444783" lon="6.675942306289415">
				<ele>121.0</ele>
				<time>2011-02-16T16:15:40Z</time>
			</trkpt>
			<trkpt lat="50.909099632732996" lon="6.676083034872248">
				<ele>121.0</ele>
				<time>2011-02-16T16:15:41Z</time>
			</trkpt>
			<trkpt lat="50.90913687972622" lon="6.676223190557818">
				<ele>121.0</ele>
				<time>2011-02-16T16:15:42Z</time>
			</trkpt>
			<trkpt lat="50.90917661871655" lon="6.676364381784353">
				<ele>121.0</ele>
				<time>2011-02-16T16:15:43Z</time>
			</trkpt>
			<trkpt lat="50.90921563938061" lon="6.676505767921427">
				<ele>122.0</ele>
				<time>2011-02-16T16:15:44Z</time>
			</trkpt>
			<trkpt lat="50.90925465500647" lon="6.676650336048153">
				<ele>122.0</ele>
				<time>2011-02-16T16:15:45Z</time>
			</trkpt>
			<trkpt lat="50.90929391258924" lon="6.676796392590961">
				<ele>122.0</ele>
				<time>2011-02-16T16:15:46Z</time>
			</trkpt>
			<trkpt lat="50.909334584718486" lon="6.676936033611883">
				<ele>122.0</ele>
				<time>2011-02-16T16:15:47Z</time>
			</trkpt>
			<trkpt lat="50.90937546972693" lon="6.677065356706859">
				<ele>122.0</ele>
				<time>2011-02-16T16:15:48Z</time>
			</trkpt>
			<trkpt lat="50.90941752053728" lon="6.677186486913092">
				<ele>122.0</ele>
				<time>2011-02-16T16:15:49Z</time>
			</trkpt>
			<trkpt lat="50.90945880916513" lon="6.67729737446178">
				<ele>122.0</ele>
				<time>2011-02-16T16:15:50Z</time>
			</trkpt>
			<trkpt lat="50.909499154591366" lon="6.67740471156743">
				<ele>123.0</ele>
				<time>2011-02-16T16:15:51Z</time>
			</trkpt>
			<trkpt lat="50.90953626139795" lon="6.677503576392356">
				<ele>123.0</ele>
				<time>2011-02-16T16:15:52Z</time>
			</trkpt>
			<trkpt lat="50.909573412953876" lon="6.6775919524724445">
				<ele>123.0</ele>
				<time>2011-02-16T16:15:53Z</time>
			</trkpt>
			<trkpt lat="50.909614109814186" lon="6.6776782255124765">
				<ele>123.0</ele>
				<time>2011-02-16T16:15:54Z</time>
			</trkpt>
			<trkpt lat="50.90965563061175" lon="6.677765753332874">
				<ele>123.0</ele>
				<time>2011-02-16T16:15:55Z</time>
			</trkpt>
			<trkpt lat="50.90970162902575" lon="6.677863349504811">
				<ele>123.0</ele>
				<time>2011-02-16T16:15:56Z</time>
			</trkpt>
			<trkpt lat="50.90975075361248" lon="6.677968196325812">
				<ele>123.0</ele>
				<time>2011-02-16T16:15:57Z</time>
			</trkpt>
			<trkpt lat="50.909798882682836" lon="6.678071926852066">
				<ele>123.0</ele>
				<time>2011-02-16T16:15:58Z</time>
			</trkpt>
			<trkpt lat="50.90984754844373" lon="6.678175676141871">
				<ele>123.0</ele>
				<time>2011-02-16T16:15:59Z</time>
			</trkpt>
			<trkpt lat="50.90989696192369" lon="6.678278506502884">
				<ele>123.0</ele>
				<time>2011-02-16T16:16:00Z</time>
			</trkpt>
			<trkpt lat="50.90995222193838" lon="6.678383443810468">
				<ele>123.0</ele>
				<time>2011-02-16T16:16:01Z</time>
			</trkpt>
			<trkpt lat="50.91001201103873" lon="6.678495349761464">
				<ele>123.0</ele>
				<time>2011-02-16T16:16:02Z</time>
			</trkpt>
			<trkpt lat="50.91007562269595" lon="6.678610715936091">
				<ele>123.0</ele>
				<time>2011-02-16T16:16:03Z</time>
			</trkpt>
			<trkpt lat="50.910137829873115" lon="6.678731751171339">
				<ele>123.0</ele>
				<time>2011-02-16T16:16:04Z</time>
			</trkpt>
			<trkpt lat="50.910199775343905" lon="6.6788583119056835">
				<ele>123.0</ele>
				<time>2011-02-16T16:16:05Z</time>
			</trkpt>
			<trkpt lat="50.91025949066036" lon="6.6789906686376925">
				<ele>123.0</ele>
				<time>2011-02-16T16:16:06Z</time>
			</trkpt>
			<trkpt lat="50.91031359912054" lon="6.679126921174556">
				<ele>123.0</ele>
				<time>2011-02-16T16:16:07Z</time>
			</trkpt>
			<trkpt lat="50.91036444991629" lon="6.679268580753423">
				<ele>123.0</ele>
				<time>2011-02-16T16:16:08Z</time>
			</trkpt>
			<trkpt lat="50.91041037968828" lon="6.679412141848484">
				<ele>123.0</ele>
				<time>2011-02-16T16:16:09Z</time>
			</trkpt>
			<trkpt lat="50.91045259128917" lon="6.679556600783017">
				<ele>123.0</ele>
				<time>2011-02-16T16:16:10Z</time>
			</trkpt>
			<trkpt lat="50.91049133860768" lon="6.679702223393354">
				<ele>123.0</ele>
				<time>2011-02-16T16:16:11Z</time>
			</trkpt>
			<trkpt lat="50.9105275829495" lon="6.679847848314825">
				<ele>123.0</ele>
				<time>2011-02-16T16:16:12Z</time>
			</trkpt>
			<trkpt lat="50.910560559975146" lon="6.679992360656184">
				<ele>123.0</ele>
				<time>2011-02-16T16:16:13Z</time>
			</trkpt>
			<trkpt lat="50.91059249322934" lon="6.680134399368167">
				<ele>123.0</ele>
				<time>2011-02-16T16:16:14Z</time>
			</trkpt>
			<trkpt lat="50.91062124485491" lon="6.68027399119919">
				<ele>123.0</ele>
				<time>2011-02-16T16:16:15Z</time>
			</trkpt>
			<trkpt lat="50.910650053945496" lon="6.680410812747197">
				<ele>123.0</ele>
				<time>2011-02-16T16:16:16Z</time>
			</trkpt>
			<trkpt lat="50.910678798693716" lon="6.680545469066982">
				<ele>122.0</ele>
				<time>2011-02-16T16:16:17Z</time>
			</trkpt>
			<trkpt lat="50.91070537209219" lon="6.680677671046637">
				<ele>122.0</ele>
				<time>2011-02-16T16:16:18Z</time>
			</trkpt>
			<trkpt lat="50.91073233782832" lon="6.68080748085838">
				<ele>122.0</ele>
				<time>2011-02-16T16:16:19Z</time>
			</trkpt>
			<trkpt lat="50.910758870486326" lon="6.680933366141455">
				<ele>122.0</ele>
				<time>2011-02-16T16:16:20Z</time>
			</trkpt>
			<trkpt lat="50.91078307050324" lon="6.681051533217421">
				<ele>122.0</ele>
				<time>2011-02-16T16:16:21Z</time>
			</trkpt>
			<trkpt lat="50.91080578393119" lon="6.6811640287614145">
				<ele>122.0</ele>
				<time>2011-02-16T16:16:22Z</time>
			</trkpt>
			<trkpt lat="50.91082875005591" lon="6.6812749122011965">
				<ele>122.0</ele>
				<time>2011-02-16T16:16:23Z</time>
			</trkpt>
			<trkpt lat="50.91085402265716" lon="6.681390087906769">
				<ele>122.0</ele>
				<time>2011-02-16T16:16:24Z</time>
			</trkpt>
			<trkpt lat="50.9108799737358" lon="6.681508410786627">
				<ele>122.0</ele>
				<time>2011-02-16T16:16:25Z</time>
			</trkpt>
			<trkpt lat="50.91090445824385" lon="6.6816282907714015">
				<ele>122.0</ele>
				<time>2011-02-16T16:16:26Z</time>
			</trkpt>
			<trkpt lat="50.91092899678715" lon="6.681747364948114">
				<ele>122.0</ele>
				<time>2011-02-16T16:16:27Z</time>
			</trkpt>
			<trkpt lat="50.910952741905135" lon="6.681858368421706">
				<ele>122.0</ele>
				<time>2011-02-16T16:16:28Z</time>
			</trkpt>
			<trkpt lat="50.910971717804046" lon="6.681951427090587">
				<ele>122.0</ele>
				<time>2011-02-16T16:16:29Z</time>
			</trkpt>
			<trkpt lat="50.91098828522647" lon="6.682039839385556">
				<ele>122.0</ele>
				<time>2011-02-16T16:16:30Z</time>
			</trkpt>
			<trkpt lat="50.91099901049663" lon="6.682109112593612">
				<ele>122.0</ele>
				<time>2011-02-16T16:16:31Z</time>
			</trkpt>
			<trkpt lat="50.91099992458486" lon="6.682181827131473">
				<ele>122.0</ele>
				<time>2011-02-16T16:16:32Z</time>
			</trkpt>
			<trkpt lat="50.911002981637495" lon="6.682247604947309">
				<ele>122.0</ele>
				<time>2011-02-16T16:16:33Z</time>
			</trkpt>
			<trkpt lat="50.911023271158065" lon="6.682299516272918">
				<ele>122.0</ele>
				<time>2011-02-16T16:16:34Z</time>
			</trkpt>
			<trkpt lat="50.91104383720076" lon="6.6823497062081865">
				<ele>122.0</ele>
				<time>2011-02-16T16:16:35Z</time>
			</trkpt>
			<trkpt lat="50.911067546632125" lon="6.682412460289988">
				<ele>122.0</ele>
				<time>2011-02-16T16:16:36Z</time>
			</trkpt>
			<trkpt lat="50.91108545829994" lon="6.682493337897084">
				<ele>122.0</ele>
				<time>2011-02-16T16:16:37Z</time>
			</trkpt>
			<trkpt lat="50.91110505056557" lon="6.682588480438471">
				<ele>122.0</ele>
				<time>2011-02-16T16:16:38Z</time>
			</trkpt>
			<trkpt lat="50.91112385097785" lon="6.682690772140975">
				<ele>122.0</ele>
				<time>2011-02-16T16:16:39Z</time>
			</trkpt>
			<trkpt lat="50.911143641808465" lon="6.682796555035781">
				<ele>121.0</ele>
				<time>2011-02-16T16:16:40Z</time>
			</trkpt>
			<trkpt lat="50.911162035678295" lon="6.682905151073439">
				<ele>121.0</ele>
				<time>2011-02-16T16:16:41Z</time>
			</trkpt>
			<trkpt lat="50.91118090212159" lon="6.683016950890263">
				<ele>121.0</ele>
				<time>2011-02-16T16:16:42Z</time>
			</trkpt>
			<trkpt lat="50.911196832972166" lon="6.683130152258876">
				<ele>121.0</ele>
				<time>2011-02-16T16:16:43Z</time>
			</trkpt>
			<trkpt lat="50.9112131760423" lon="6.683241037204792">
				<ele>121.0</ele>
				<time>2011-02-16T16:16:44Z</time>
			</trkpt>
			<trkpt lat="50.9112282717467" lon="6.683346199059471">
				<ele>121.0</ele>
				<time>2011-02-16T16:16:45Z</time>
			</trkpt>
			<trkpt lat="50.911239646584214" lon="6.683447166892902">
				<ele>121.0</ele>
				<time>2011-02-16T16:16:46Z</time>
			</trkpt>
			<trkpt lat="50.91125006565055" lon="6.683542202929705">
				<ele>121.0</ele>
				<time>2011-02-16T16:16:47Z</time>
			</trkpt>
			<trkpt lat="50.91125837892586" lon="6.683622873943672">
				<ele>121.0</ele>
				<time>2011-02-16T16:16:48Z</time>
			</trkpt>
			<trkpt lat="50.91126458209489" lon="6.683697940557498">
				<ele>121.0</ele>
				<time>2011-02-16T16:16:49Z</time>
			</trkpt>
			<trkpt lat="50.911268664330514" lon="6.6837707362054495">
				<ele>121.0</ele>
				<time>2011-02-16T16:16:50Z</time>
			</trkpt>
			<trkpt lat="50.91125722673129" lon="6.683849518567852">
				<ele>121.0</ele>
				<time>2011-02-16T16:16:51Z</time>
			</trkpt>
			<trkpt lat="50.911241345295664" lon="6.68393273707495">
				<ele>121.0</ele>
				<time>2011-02-16T16:16:52Z</time>
			</trkpt>
			<trkpt lat="50.91122367011554" lon="6.684015778278573">
				<ele>121.0</ele>
				<time>2011-02-16T16:16:53Z</time>
			</trkpt>
			<trkpt lat="50.91121861635655" lon="6.684100283612129">
				<ele>122.0</ele>
				<time>2011-02-16T16:16:54Z</time>
			</trkpt>
			<trkpt lat="50.9112335501359" lon="6.6841835325427565">
				<ele>122.0</ele>
				<time>2011-02-16T16:16:55Z</time>
			</trkpt>
			<trkpt lat="50.91125369344465" lon="6.68427705114876">
				<ele>122.0</ele>
				<time>2011-02-16T16:16:56Z</time>
			</trkpt>
			<trkpt lat="50.91127716662021" lon="6.684384360041746">
				<ele>122.0</ele>
				<time>2011-02-16T16:16:57Z</time>
			</trkpt>
			<trkpt lat="50.911299746746266" lon="6.684498989235851">
				<ele>122.0</ele>
				<time>2011-02-16T16:16:58Z</time>
			</trkpt>
			<trkpt lat="50.911320125195125" lon="6.684627366639368">
				<ele>122.0</ele>
				<time>2011-02-16T16:16:59Z</time>
			</trkpt>
			<trkpt lat="50.91134001880303" lon="6.6847726288690295">
				<ele>122.0</ele>
				<time>2011-02-16T16:17:00Z</time>
			</trkpt>
			<trkpt lat="50.9113578968559" lon="6.684929728194922">
				<ele>122.0</ele>
				<time>2011-02-16T16:17:01Z</time>
			</trkpt>
			<trkpt lat="50.911377166323696" lon="6.685094672468808">
				<ele>122.0</ele>
				<time>2011-02-16T16:17:02Z</time>
			</trkpt>
			<trkpt lat="50.91139767387974" lon="6.685261715573809">
				<ele>122.0</ele>
				<time>2011-02-16T16:17:03Z</time>
			</trkpt>
			<trkpt lat="50.91141959969965" lon="6.685434258380195">
				<ele>122.0</ele>
				<time>2011-02-16T16:17:04Z</time>
			</trkpt>
			<trkpt lat="50.911443941949535" lon="6.685617509715915">
				<ele>122.0</ele>
				<time>2011-02-16T16:17:05Z</time>
			</trkpt>
			<trkpt lat="50.91146990376578" lon="6.685809170743054">
				<ele>122.0</ele>
				<time>2011-02-16T16:17:06Z</time>
			</trkpt>
			<trkpt lat="50.91149651287308" lon="6.686004696273633">
				<ele>121.0</ele>
				<time>2011-02-16T16:17:07Z</time>
			</trkpt>
			<trkpt lat="50.91152411989976" lon="6.6862041182545955">
				<ele>121.0</ele>
				<time>2011-02-16T16:17:08Z</time>
			</trkpt>
			<trkpt lat="50.91155206619788" lon="6.686402257403781">
				<ele>121.0</ele>
				<time>2011-02-16T16:17:09Z</time>
			</trkpt>
			<trkpt lat="50.91158043091658" lon="6.686599985216014">
				<ele>121.0</ele>
				<time>2011-02-16T16:17:10Z</time>
			</trkpt>
			<trkpt lat="50.911609367185825" lon="6.686798095778284">
				<ele>121.0</ele>
				<time>2011-02-16T16:17:11Z</time>
			</trkpt>
			<trkpt lat="50.911638448265265" lon="6.686994825009575">
				<ele>121.0</ele>
				<time>2011-02-16T16:17:12Z</time>
			</trkpt>
			<trkpt lat="50.911669394820656" lon="6.687190559232151">
				<ele>121.0</ele>
				<time>2011-02-16T16:17:13Z</time>
			</trkpt>
			<trkpt lat="50.91170024541802" lon="6.687386276489192">
				<ele>121.0</ele>
				<time>2011-02-16T16:17:14Z</time>
			</trkpt>
			<trkpt lat="50.911730840805106" lon="6.68758111498796">
				<ele>121.0</ele>
				<time>2011-02-16T16:17:15Z</time>
			</trkpt>
			<trkpt lat="50.91176083948881" lon="6.687774677246124">
				<ele>121.0</ele>
				<time>2011-02-16T16:17:16Z</time>
			</trkpt>
			<trkpt lat="50.91179053819422" lon="6.687966929957465">
				<ele>121.0</ele>
				<time>2011-02-16T16:17:17Z</time>
			</trkpt>
			<trkpt lat="50.911819944558225" lon="6.688156500821977">
				<ele>121.0</ele>
				<time>2011-02-16T16:17:18Z</time>
			</trkpt>
			<trkpt lat="50.91185076162477" lon="6.68834195598639">
				<ele>121.0</ele>
				<time>2011-02-16T16:17:19Z</time>
			</trkpt>
			<trkpt lat="50.91188152570246" lon="6.688523628085242">
				<ele>121.0</ele>
				<time>2011-02-16T16:17:20Z</time>
			</trkpt>
			<trkpt lat="50.91191458096367" lon="6.688698353102558">
				<ele>121.0</ele>
				<time>2011-02-16T16:17:21Z</time>
			</trkpt>
			<trkpt lat="50.91194784815565" lon="6.6888589302120245">
				<ele>121.0</ele>
				<time>2011-02-16T16:17:22Z</time>
			</trkpt>
			<trkpt lat="50.91198395892674" lon="6.68901330653499">
				<ele>121.0</ele>
				<time>2011-02-16T16:17:23Z</time>
			</trkpt>
			<trkpt lat="50.912019061113675" lon="6.689159826308722">
				<ele>121.0</ele>
				<time>2011-02-16T16:17:24Z</time>
			</trkpt>
			<trkpt lat="50.91205075400993" lon="6.689292521813896">
				<ele>121.0</ele>
				<time>2011-02-16T16:17:25Z</time>
			</trkpt>
			<trkpt lat="50.91208197715478" lon="6.689410919540907">
				<ele>121.0</ele>
				<time>2011-02-16T16:17:26Z</time>
			</trkpt>
			<trkpt lat="50.91211000224255" lon="6.689502709085141">
				<ele>121.0</ele>
				<time>2011-02-16T16:17:27Z</time>
			</trkpt>
			<trkpt lat="50.91213289916959" lon="6.689567838633046">
				<ele>121.0</ele>
				<time>2011-02-16T16:17:28Z</time>
			</trkpt>
			<trkpt lat="50.91214576460675" lon="6.68960712707252">
				<ele>121.0</ele>
				<time>2011-02-16T16:17:29Z</time>
			</trkpt>
			<trkpt lat="50.912154871219556" lon="6.689634511959828">
				<ele>121.0</ele>
				<time>2011-02-16T16:17:30Z</time>
			</trkpt>
			<trkpt lat="50.91216290031198" lon="6.68965531928527">
				<ele>121.0</ele>
				<time>2011-02-16T16:17:31Z</time>
			</trkpt>
			<trkpt lat="50.912169344218825" lon="6.689670989899772">
				<ele>121.0</ele>
				<time>2011-02-16T16:17:32Z</time>
			</trkpt>
			<trkpt lat="50.91218025527973" lon="6.6896847586472585">
				<ele>121.0</ele>
				<time>2011-02-16T16:17:33Z</time>
			</trkpt>
			<trkpt lat="50.912208474344794" lon="6.68969847556975">
				<ele>121.0</ele>
				<time>2011-02-16T16:17:34Z</time>
			</trkpt>
			<trkpt lat="50.91223773202921" lon="6.689702453290064">
				<ele>121.0</ele>
				<time>2011-02-16T16:17:35Z</time>
			</trkpt>
			<trkpt lat="50.91226848896225" lon="6.689672068484828">
				<ele>121.0</ele>
				<time>2011-02-16T16:17:36Z</time>
			</trkpt>
			<trkpt lat="50.912266232076014" lon="6.689586510340961">
				<ele>121.0</ele>
				<time>2011-02-16T16:17:37Z</time>
			</trkpt>
			<trkpt lat="50.91223087986363" lon="6.6894971272188934">
				<ele>120.0</ele>
				<time>2011-02-16T16:17:38Z</time>
			</trkpt>
			<trkpt lat="50.91219540809585" lon="6.689401683363416">
				<ele>120.0</ele>
				<time>2011-02-16T16:17:39Z</time>
			</trkpt>
			<trkpt lat="50.91215946774437" lon="6.689301712961157">
				<ele>120.0</ele>
				<time>2011-02-16T16:17:40Z</time>
			</trkpt>
			<trkpt lat="50.912121338776444" lon="6.6891942859026505">
				<ele>120.0</ele>
				<time>2011-02-16T16:17:41Z</time>
			</trkpt>
			<trkpt lat="50.91208409444609" lon="6.68908638011997">
				<ele>121.0</ele>
				<time>2011-02-16T16:17:42Z</time>
			</trkpt>
			<trkpt lat="50.91204941850864" lon="6.688974775733823">
				<ele>121.0</ele>
				<time>2011-02-16T16:17:43Z</time>
			</trkpt>
			<trkpt lat="50.91201633799562" lon="6.688862842363843">
				<ele>121.0</ele>
				<time>2011-02-16T16:17:44Z</time>
			</trkpt>
			<trkpt lat="50.911987979890334" lon="6.688753483999572">
				<ele>121.0</ele>
				<time>2011-02-16T16:17:45Z</time>
			</trkpt>
			<trkpt lat="50.911966352004676" lon="6.688644055106872">
				<ele>122.0</ele>
				<time>2011-02-16T16:17:46Z</time>
			</trkpt>
			<trkpt lat="50.91195032998046" lon="6.68853471295297">
				<ele>122.0</ele>
				<time>2011-02-16T16:17:47Z</time>
			</trkpt>
			<trkpt lat="50.91193737318103" lon="6.688426504542678">
				<ele>122.0</ele>
				<time>2011-02-16T16:17:48Z</time>
			</trkpt>
			<trkpt lat="50.911925051015686" lon="6.6883231915611265">
				<ele>122.0</ele>
				<time>2011-02-16T16:17:49Z</time>
			</trkpt>
			<trkpt lat="50.911911478495185" lon="6.688220432072962">
				<ele>122.0</ele>
				<time>2011-02-16T16:17:50Z</time>
			</trkpt>
			<trkpt lat="50.91189191966852" lon="6.688113432106607">
				<ele>122.0</ele>
				<time>2011-02-16T16:17:51Z</time>
			</trkpt>
			<trkpt lat="50.91186673475083" lon="6.6879982675990775">
				<ele>122.0</ele>
				<time>2011-02-16T16:17:52Z</time>
			</trkpt>
			<trkpt lat="50.911837670865424" lon="6.6878704645616835">
				<ele>122.0</ele>
				<time>2011-02-16T16:17:53Z</time>
			</trkpt>
			<trkpt lat="50.91180738175949" lon="6.687736038131247">
				<ele>122.0</ele>
				<time>2011-02-16T16:17:54Z</time>
			</trkpt>
			<trkpt lat="50.91178078668241" lon="6.687596594081181">
				<ele>122.0</ele>
				<time>2011-02-16T16:17:55Z</time>
			</trkpt>
			<trkpt lat="50.911754811925746" lon="6.687448955543213">
				<ele>122.0</ele>
				<time>2011-02-16T16:17:56Z</time>
			</trkpt>
			<trkpt lat="50.91172842035516" lon="6.687289024465994">
				<ele>122.0</ele>
				<time>2011-02-16T16:17:57Z</time>
			</trkpt>
			<trkpt lat="50.91170043057765" lon="6.6871170278630325">
				<ele>122.0</ele>
				<time>2011-02-16T16:17:58Z</time>
			</trkpt>
			<trkpt lat="50.911670835576736" lon="6.686934913130008">
				<ele>122.0</ele>
				<time>2011-02-16T16:17:59Z</time>
			</trkpt>
			<trkpt lat="50.911642525169476" lon="6.6867472058582695">
				<ele>122.0</ele>
				<time>2011-02-16T16:18:00Z</time>
			</trkpt>
			<trkpt lat="50.91161431112653" lon="6.686554279666294">
				<ele>123.0</ele>
				<time>2011-02-16T16:18:01Z</time>
			</trkpt>
			<trkpt lat="50.91158645493659" lon="6.6863591949190315">
				<ele>123.0</ele>
				<time>2011-02-16T16:18:02Z</time>
			</trkpt>
			<trkpt lat="50.91156160475303" lon="6.686165572198583">
				<ele>123.0</ele>
				<time>2011-02-16T16:18:03Z</time>
			</trkpt>
			<trkpt lat="50.91153675315142" lon="6.685973692607334">
				<ele>124.0</ele>
				<time>2011-02-16T16:18:04Z</time>
			</trkpt>
			<trkpt lat="50.91151409036609" lon="6.685785237822935">
				<ele>124.0</ele>
				<time>2011-02-16T16:18:05Z</time>
			</trkpt>
			<trkpt lat="50.91149146553472" lon="6.685600620583542">
				<ele>125.0</ele>
				<time>2011-02-16T16:18:06Z</time>
			</trkpt>
			<trkpt lat="50.911469093200274" lon="6.685421177473123">
				<ele>125.0</ele>
				<time>2011-02-16T16:18:07Z</time>
			</trkpt>
			<trkpt lat="50.91144761135138" lon="6.685251734247059">
				<ele>125.0</ele>
				<time>2011-02-16T16:18:08Z</time>
			</trkpt>
			<trkpt lat="50.911426780510666" lon="6.685090321413604">
				<ele>125.0</ele>
				<time>2011-02-16T16:18:09Z</time>
			</trkpt>
			<trkpt lat="50.91140664398609" lon="6.684934635854872">
				<ele>126.0</ele>
				<time>2011-02-16T16:18:10Z</time>
			</trkpt>
			<trkpt lat="50.91138822753248" lon="6.68479058702127">
				<ele>126.0</ele>
				<time>2011-02-16T16:18:11Z</time>
			</trkpt>
			<trkpt lat="50.91137268832405" lon="6.684654234632002">
				<ele>126.0</ele>
				<time>2011-02-16T16:18:12Z</time>
			</trkpt>
			<trkpt lat="50.9113671698469" lon="6.684537794249486">
				<ele>126.0</ele>
				<time>2011-02-16T16:18:13Z</time>
			</trkpt>
			<trkpt lat="50.91137805659855" lon="6.684439896044687">
				<ele>126.0</ele>
				<time>2011-02-16T16:18:14Z</time>
			</trkpt>
			<trkpt lat="50.91140053161529" lon="6.684355709945362">
				<ele>126.0</ele>
				<time>2011-02-16T16:18:15Z</time>
			</trkpt>
			<trkpt lat="50.91143337816589" lon="6.68428219545784">
				<ele>126.0</ele>
				<time>2011-02-16T16:18:16Z</time>
			</trkpt>
			<trkpt lat="50.911464784906606" lon="6.684206013258104">
				<ele>126.0</ele>
				<time>2011-02-16T16:18:17Z</time>
			</trkpt>
			<trkpt lat="50.911475783373724" lon="6.68411647269911">
				<ele>125.0</ele>
				<time>2011-02-16T16:18:18Z</time>
			</trkpt>
			<trkpt lat="50.91147280231504" lon="6.684026245041479">
				<ele>125.0</ele>
				<time>2011-02-16T16:18:19Z</time>
			</trkpt>
			<trkpt lat="50.9114454583471" lon="6.683949870033777">
				<ele>125.0</ele>
				<time>2011-02-16T16:18:20Z</time>
			</trkpt>
			<trkpt lat="50.91140630999521" lon="6.6838888669522225">
				<ele>125.0</ele>
				<time>2011-02-16T16:18:21Z</time>
			</trkpt>
			<trkpt lat="50.91135464245395" lon="6.683862442305405">
				<ele>125.0</ele>
				<time>2011-02-16T16:18:22Z</time>
			</trkpt>
			<trkpt lat="50.9112953453456" lon="6.683879064057555">
				<ele>126.0</ele>
				<time>2011-02-16T16:18:23Z</time>
			</trkpt>
			<trkpt lat="50.911242408370605" lon="6.6839275676333">
				<ele>126.0</ele>
				<time>2011-02-16T16:18:24Z</time>
			</trkpt>
			<trkpt lat="50.91118606592417" lon="6.683989535578509">
				<ele>125.0</ele>
				<time>2011-02-16T16:18:25Z</time>
			</trkpt>
			<trkpt lat="50.91112528021207" lon="6.684059715658503">
				<ele>125.0</ele>
				<time>2011-02-16T16:18:26Z</time>
			</trkpt>
			<trkpt lat="50.911044163814005" lon="6.684109656208559">
				<ele>125.0</ele>
				<time>2011-02-16T16:18:27Z</time>
			</trkpt>
			<trkpt lat="50.9109539226986" lon="6.684158741243525">
				<ele>126.0</ele>
				<time>2011-02-16T16:18:28Z</time>
			</trkpt>
			<trkpt lat="50.91085483015325" lon="6.684204524866385">
				<ele>126.0</ele>
				<time>2011-02-16T16:18:29Z</time>
			</trkpt>
			<trkpt lat="50.91074762284825" lon="6.68424880228814">
				<ele>126.0</ele>
				<time>2011-02-16T16:18:30Z</time>
			</trkpt>
			<trkpt lat="50.91063601076156" lon="6.684289269455653">
				<ele>126.0</ele>
				<time>2011-02-16T16:18:31Z</time>
			</trkpt>
			<trkpt lat="50.9105214264538" lon="6.68432970614543">
				<ele>126.0</ele>
				<time>2011-02-16T16:18:32Z</time>
			</trkpt>
			<trkpt lat="50.91039785736643" lon="6.6843678945068685">
				<ele>126.0</ele>
				<time>2011-02-16T16:18:33Z</time>
			</trkpt>
			<trkpt lat="50.91026759462462" lon="6.684407426805068">
				<ele>127.0</ele>
				<time>2011-02-16T16:18:34Z</time>
			</trkpt>
			<trkpt lat="50.910128811674" lon="6.684443611375909">
				<ele>127.0</ele>
				<time>2011-02-16T16:18:35Z</time>
			</trkpt>
			<trkpt lat="50.90998416443741" lon="6.684480827204689">
				<ele>127.0</ele>
				<time>2011-02-16T16:18:36Z</time>
			</trkpt>
			<trkpt lat="50.90983491479078" lon="6.684513572119913">
				<ele>127.0</ele>
				<time>2011-02-16T16:18:37Z</time>
			</trkpt>
			<trkpt lat="50.90968286977828" lon="6.684545863121141">
				<ele>127.0</ele>
				<time>2011-02-16T16:18:38Z</time>
			</trkpt>
			<trkpt lat="50.90953037787559" lon="6.684569593032753">
				<ele>127.0</ele>
				<time>2011-02-16T16:18:39Z</time>
			</trkpt>
			<trkpt lat="50.90937968671392" lon="6.684589236809709">
				<ele>127.0</ele>
				<time>2011-02-16T16:18:40Z</time>
			</trkpt>
			<trkpt lat="50.909227668176" lon="6.684607355327281">
				<ele>126.0</ele>
				<time>2011-02-16T16:18:41Z</time>
			</trkpt>
			<trkpt lat="50.90907407006889" lon="6.684619955883008">
				<ele>126.0</ele>
				<time>2011-02-16T16:18:42Z</time>
			</trkpt>
			<trkpt lat="50.90892161582553" lon="6.684631774839037">
				<ele>126.0</ele>
				<time>2011-02-16T16:18:43Z</time>
			</trkpt>
			<trkpt lat="50.908769217948254" lon="6.68463855250755">
				<ele>126.0</ele>
				<time>2011-02-16T16:18:44Z</time>
			</trkpt>
			<trkpt lat="50.908617465720376" lon="6.684641596508035">
				<ele>126.0</ele>
				<time>2011-02-16T16:18:45Z</time>
			</trkpt>
			<trkpt lat="50.90846667917199" lon="6.684643456362053">
				<ele>126.0</ele>
				<time>2011-02-16T16:18:46Z</time>
			</trkpt>
			<trkpt lat="50.908317538497435" lon="6.684639753297172">
				<ele>126.0</ele>
				<time>2011-02-16T16:18:47Z</time>
			</trkpt>
			<trkpt lat="50.90816957029232" lon="6.684635469043688">
				<ele>126.0</ele>
				<time>2011-02-16T16:18:48Z</time>
			</trkpt>
			<trkpt lat="50.90802250707113" lon="6.684624140842367">
				<ele>126.0</ele>
				<time>2011-02-16T16:18:49Z</time>
			</trkpt>
			<trkpt lat="50.90787624989018" lon="6.684612370852545">
				<ele>126.0</ele>
				<time>2011-02-16T16:18:50Z</time>
			</trkpt>
			<trkpt lat="50.90773013779383" lon="6.684595129606133">
				<ele>126.0</ele>
				<time>2011-02-16T16:18:51Z</time>
			</trkpt>
			<trkpt lat="50.90758395738743" lon="6.6845771112148205">
				<ele>126.0</ele>
				<time>2011-02-16T16:18:52Z</time>
			</trkpt>
			<trkpt lat="50.907436249960156" lon="6.684555829081588">
				<ele>126.0</ele>
				<time>2011-02-16T16:18:53Z</time>
			</trkpt>
			<trkpt lat="50.907289153824536" lon="6.684536061257024">
				<ele>126.0</ele>
				<time>2011-02-16T16:18:54Z</time>
			</trkpt>
			<trkpt lat="50.90713913906364" lon="6.684516589143504">
				<ele>126.0</ele>
				<time>2011-02-16T16:18:55Z</time>
			</trkpt>
			<trkpt lat="50.9069881476548" lon="6.6844938471864195">
				<ele>126.0</ele>
				<time>2011-02-16T16:18:56Z</time>
			</trkpt>
			<trkpt lat="50.90683617282584" lon="6.684472730262035">
				<ele>126.0</ele>
				<time>2011-02-16T16:18:57Z</time>
			</trkpt>
			<trkpt lat="50.90667967553586" lon="6.68445180932982">
				<ele>126.0</ele>
				<time>2011-02-16T16:18:58Z</time>
			</trkpt>
			<trkpt lat="50.90652403982148" lon="6.684428650705211">
				<ele>126.0</ele>
				<time>2011-02-16T16:18:59Z</time>
			</trkpt>
			<trkpt lat="50.90636507308132" lon="6.684404954156074">
				<ele>126.0</ele>
				<time>2011-02-16T16:19:00Z</time>
			</trkpt>
			<trkpt lat="50.90620470500104" lon="6.684382923874927">
				<ele>126.0</ele>
				<time>2011-02-16T16:19:01Z</time>
			</trkpt>
			<trkpt lat="50.9060472192589" lon="6.684360929402937">
				<ele>126.0</ele>
				<time>2011-02-16T16:19:02Z</time>
			</trkpt>
			<trkpt lat="50.905888210417615" lon="6.684339294872922">
				<ele>126.0</ele>
				<time>2011-02-16T16:19:03Z</time>
			</trkpt>
			<trkpt lat="50.90572712709004" lon="6.68432132738747">
				<ele>126.0</ele>
				<time>2011-02-16T16:19:04Z</time>
			</trkpt>
			<trkpt lat="50.90556547639501" lon="6.684299145914262">
				<ele>126.0</ele>
				<time>2011-02-16T16:19:05Z</time>
			</trkpt>
			<trkpt lat="50.9054030863882" lon="6.684271595243828">
				<ele>126.0</ele>
				<time>2011-02-16T16:19:06Z</time>
			</trkpt>
			<trkpt lat="50.90523784761145" lon="6.684242582243748">
				<ele>125.0</ele>
				<time>2011-02-16T16:19:07Z</time>
			</trkpt>
			<trkpt lat="50.905072067524046" lon="6.684204607026216">
				<ele>125.0</ele>
				<time>2011-02-16T16:19:08Z</time>
			</trkpt>
			<trkpt lat="50.904906381979465" lon="6.684161865895857">
				<ele>125.0</ele>
				<time>2011-02-16T16:19:09Z</time>
			</trkpt>
			<trkpt lat="50.90474215304343" lon="6.684115465624419">
				<ele>125.0</ele>
				<time>2011-02-16T16:19:10Z</time>
			</trkpt>
			<trkpt lat="50.90457485589854" lon="6.684075737577767">
				<ele>125.0</ele>
				<time>2011-02-16T16:19:11Z</time>
			</trkpt>
			<trkpt lat="50.90440689682045" lon="6.684044738245758">
				<ele>125.0</ele>
				<time>2011-02-16T16:19:12Z</time>
			</trkpt>
			<trkpt lat="50.90423907327184" lon="6.68401582022204">
				<ele>126.0</ele>
				<time>2011-02-16T16:19:13Z</time>
			</trkpt>
			<trkpt lat="50.90407073682881" lon="6.683986694467774">
				<ele>126.0</ele>
				<time>2011-02-16T16:19:14Z</time>
			</trkpt>
			<trkpt lat="50.9039024793786" lon="6.683956216400368">
				<ele>126.0</ele>
				<time>2011-02-16T16:19:15Z</time>
			</trkpt>
			<trkpt lat="50.90373412543422" lon="6.683925673357705">
				<ele>126.0</ele>
				<time>2011-02-16T16:19:16Z</time>
			</trkpt>
			<trkpt lat="50.90356551796853" lon="6.683894878639911">
				<ele>126.0</ele>
				<time>2011-02-16T16:19:17Z</time>
			</trkpt>
			<trkpt lat="50.90339918859467" lon="6.683863843436385">
				<ele>126.0</ele>
				<time>2011-02-16T16:19:18Z</time>
			</trkpt>
			<trkpt lat="50.90323239539474" lon="6.683832516593775">
				<ele>125.0</ele>
				<time>2011-02-16T16:19:19Z</time>
			</trkpt>
			<trkpt lat="50.9030663412526" lon="6.683802432799835">
				<ele>125.0</ele>
				<time>2011-02-16T16:19:20Z</time>
			</trkpt>
			<trkpt lat="50.90290015706521" lon="6.683772809677956">
				<ele>125.0</ele>
				<time>2011-02-16T16:19:21Z</time>
			</trkpt>
			<trkpt lat="50.90273534367123" lon="6.683743656851486">
				<ele>125.0</ele>
				<time>2011-02-16T16:19:22Z</time>
			</trkpt>
			<trkpt lat="50.90257162051667" lon="6.6837196516044495">
				<ele>125.0</ele>
				<time>2011-02-16T16:19:23Z</time>
			</trkpt>
			<trkpt lat="50.902407301878235" lon="6.683695741078233">
				<ele>124.0</ele>
				<time>2011-02-16T16:19:24Z</time>
			</trkpt>
			<trkpt lat="50.902244730135905" lon="6.683672380734769">
				<ele>124.0</ele>
				<time>2011-02-16T16:19:25Z</time>
			</trkpt>
			<trkpt lat="50.90208382149134" lon="6.6836505926879815">
				<ele>124.0</ele>
				<time>2011-02-16T16:19:26Z</time>
			</trkpt>
			<trkpt lat="50.90192477121655" lon="6.683634680269553">
				<ele>124.0</ele>
				<time>2011-02-16T16:19:27Z</time>
			</trkpt>
			<trkpt lat="50.90176833777472" lon="6.6836189560183845">
				<ele>124.0</ele>
				<time>2011-02-16T16:19:28Z</time>
			</trkpt>
			<trkpt lat="50.90161445258626" lon="6.683603572614309">
				<ele>124.0</ele>
				<time>2011-02-16T16:19:29Z</time>
			</trkpt>
			<trkpt lat="50.90146518738773" lon="6.683592286346584">
				<ele>123.0</ele>
				<time>2011-02-16T16:19:30Z</time>
			</trkpt>
			<trkpt lat="50.90133034193931" lon="6.683581908498365">
				<ele>123.0</ele>
				<time>2011-02-16T16:19:31Z</time>
			</trkpt>
			<trkpt lat="50.901202753421764" lon="6.683572311551947">
				<ele>123.0</ele>
				<time>2011-02-16T16:19:32Z</time>
			</trkpt>
			<trkpt lat="50.90108754790987" lon="6.683566777317375">
				<ele>123.0</ele>
				<time>2011-02-16T16:19:33Z</time>
			</trkpt>
			<trkpt lat="50.900989461615914" lon="6.683561911338254">
				<ele>123.0</ele>
				<time>2011-02-16T16:19:34Z</time>
			</trkpt>
			<trkpt lat="50.90090871716522" lon="6.6835577102307875">
				<ele>123.0</ele>
				<time>2011-02-16T16:19:35Z</time>
			</trkpt>
			<trkpt lat="50.90085568024179" lon="6.683552747272646">
				<ele>123.0</ele>
				<time>2011-02-16T16:19:36Z</time>
			</trkpt>
			<trkpt lat="50.900819288934805" lon="6.683545906532257">
				<ele>123.0</ele>
				<time>2011-02-16T16:19:37Z</time>
			</trkpt>
			<trkpt lat="50.90078323798429" lon="6.683535831310826">
				<ele>123.0</ele>
				<time>2011-02-16T16:19:38Z</time>
			</trkpt>
			<trkpt lat="50.90075015762693" lon="6.683510248206586">
				<ele>123.0</ele>
				<time>2011-02-16T16:19:39Z</time>
			</trkpt>
			<trkpt lat="50.90072025170121" lon="6.6834711547257974">
				<ele>123.0</ele>
				<time>2011-02-16T16:19:40Z</time>
			</trkpt>
			<trkpt lat="50.900692410896156" lon="6.6834072445166886">
				<ele>123.0</ele>
				<time>2011-02-16T16:19:41Z</time>
			</trkpt>
			<trkpt lat="50.900661694313655" lon="6.683323480709414">
				<ele>123.0</ele>
				<time>2011-02-16T16:19:42Z</time>
			</trkpt>
			<trkpt lat="50.90063456681877" lon="6.68323316118216">
				<ele>123.0</ele>
				<time>2011-02-16T16:19:43Z</time>
			</trkpt>
			<trkpt lat="50.900612685130206" lon="6.683136747349819">
				<ele>123.0</ele>
				<time>2011-02-16T16:19:44Z</time>
			</trkpt>
			<trkpt lat="50.900590900774674" lon="6.683041816129432">
				<ele>123.0</ele>
				<time>2011-02-16T16:19:45Z</time>
			</trkpt>
			<trkpt lat="50.900571475858186" lon="6.682955284323714">
				<ele>123.0</ele>
				<time>2011-02-16T16:19:46Z</time>
			</trkpt>
			<trkpt lat="50.90055491739159" lon="6.682881527582355">
				<ele>123.0</ele>
				<time>2011-02-16T16:19:47Z</time>
			</trkpt>
			<trkpt lat="50.900539565819514" lon="6.682830048035483">
				<ele>123.0</ele>
				<time>2011-02-16T16:19:48Z</time>
			</trkpt>
			<trkpt lat="50.900518673397265" lon="6.682787262228076">
				<ele>123.0</ele>
				<time>2011-02-16T16:19:49Z</time>
			</trkpt>
			<trkpt lat="50.90048504321739" lon="6.682757868871637">
				<ele>123.0</ele>
				<time>2011-02-16T16:19:50Z</time>
			</trkpt>
			<trkpt lat="50.90044740612879" lon="6.682732288299694">
				<ele>123.0</ele>
				<time>2011-02-16T16:19:51Z</time>
			</trkpt>
			<trkpt lat="50.90041193335368" lon="6.68270935607401">
				<ele>123.0</ele>
				<time>2011-02-16T16:19:52Z</time>
			</trkpt>
			<trkpt lat="50.90038484825606" lon="6.682673952831144">
				<ele>123.0</ele>
				<time>2011-02-16T16:19:53Z</time>
			</trkpt>
			<trkpt lat="50.90036015683146" lon="6.6826442259076515">
				<ele>123.0</ele>
				<time>2011-02-16T16:19:54Z</time>
			</trkpt>
			<trkpt lat="50.900336216296054" lon="6.6826181999689345">
				<ele>123.0</ele>
				<time>2011-02-16T16:19:55Z</time>
			</trkpt>
			<trkpt lat="50.90030701149152" lon="6.682611222468704">
				<ele>123.0</ele>
				<time>2011-02-16T16:19:56Z</time>
			</trkpt>
			<trkpt lat="50.90027758509928" lon="6.682618404611109">
				<ele>124.0</ele>
				<time>2011-02-16T16:19:57Z</time>
			</trkpt>
			<trkpt lat="50.90025000361308" lon="6.682630423065521">
				<ele>124.0</ele>
				<time>2011-02-16T16:19:58Z</time>
			</trkpt>
			<trkpt lat="50.90022843257808" lon="6.682650353583218">
				<ele>124.0</ele>
				<time>2011-02-16T16:19:59Z</time>
			</trkpt>
			<trkpt lat="50.900208270877876" lon="6.682669909935951">
				<ele>124.0</ele>
				<time>2011-02-16T16:20:00Z</time>
			</trkpt>
			<trkpt lat="50.90018819516796" lon="6.682689428110094">
				<ele>124.0</ele>
				<time>2011-02-16T16:20:01Z</time>
			</trkpt>
			<trkpt lat="50.90016772974288" lon="6.682708444734913">
				<ele>124.0</ele>
				<time>2011-02-16T16:20:02Z</time>
			</trkpt>
			<trkpt lat="50.90014388080079" lon="6.682732447755772">
				<ele>124.0</ele>
				<time>2011-02-16T16:20:03Z</time>
			</trkpt>
			<trkpt lat="50.900111275484335" lon="6.682765463883229">
				<ele>124.0</ele>
				<time>2011-02-16T16:20:04Z</time>
			</trkpt>
			<trkpt lat="50.9000691250502" lon="6.682807573105092">
				<ele>124.0</ele>
				<time>2011-02-16T16:20:05Z</time>
			</trkpt>
			<trkpt lat="50.90001738967918" lon="6.682855794243916">
				<ele>124.0</ele>
				<time>2011-02-16T16:20:06Z</time>
			</trkpt>
			<trkpt lat="50.89996497337479" lon="6.682904814990602">
				<ele>124.0</ele>
				<time>2011-02-16T16:20:07Z</time>
			</trkpt>
			<trkpt lat="50.899910893461175" lon="6.682953674226415">
				<ele>124.0</ele>
				<time>2011-02-16T16:20:08Z</time>
			</trkpt>
			<trkpt lat="50.89985552419828" lon="6.683004865137685">
				<ele>124.0</ele>
				<time>2011-02-16T16:20:09Z</time>
			</trkpt>
			<trkpt lat="50.89980103559971" lon="6.683057960802532">
				<ele>124.0</ele>
				<time>2011-02-16T16:20:10Z</time>
			</trkpt>
			<trkpt lat="50.899747956897194" lon="6.683110022380446">
				<ele>124.0</ele>
				<time>2011-02-16T16:20:11Z</time>
			</trkpt>
			<trkpt lat="50.89969725886407" lon="6.683158098018873">
				<ele>125.0</ele>
				<time>2011-02-16T16:20:12Z</time>
			</trkpt>
			<trkpt lat="50.89964706244404" lon="6.683196022261607">
				<ele>125.0</ele>
				<time>2011-02-16T16:20:13Z</time>
			</trkpt>
			<trkpt lat="50.89960094492813" lon="6.683199915022695">
				<ele>125.0</ele>
				<time>2011-02-16T16:20:14Z</time>
			</trkpt>
			<trkpt lat="50.89956165011422" lon="6.683176997019481">
				<ele>125.0</ele>
				<time>2011-02-16T16:20:15Z</time>
			</trkpt>
			<trkpt lat="50.89953234869245" lon="6.683127463330007">
				<ele>125.0</ele>
				<time>2011-02-16T16:20:16Z</time>
			</trkpt>
			<trkpt lat="50.89950767192048" lon="6.683072456351747">
				<ele>125.0</ele>
				<time>2011-02-16T16:20:17Z</time>
			</trkpt>
			<trkpt lat="50.89948713379576" lon="6.683012349275505">
				<ele>125.0</ele>
				<time>2011-02-16T16:20:18Z</time>
			</trkpt>
			<trkpt lat="50.89946944823041" lon="6.682951679324329">
				<ele>125.0</ele>
				<time>2011-02-16T16:20:19Z</time>
			</trkpt>
			<trkpt lat="50.899452298466386" lon="6.682892374107453">
				<ele>125.0</ele>
				<time>2011-02-16T16:20:20Z</time>
			</trkpt>
			<trkpt lat="50.89943385588247" lon="6.68283538403869">
				<ele>125.0</ele>
				<time>2011-02-16T16:20:21Z</time>
			</trkpt>
			<trkpt lat="50.89941545151523" lon="6.682780512370309">
				<ele>126.0</ele>
				<time>2011-02-16T16:20:22Z</time>
			</trkpt>
			<trkpt lat="50.899396866839716" lon="6.682727089912908">
				<ele>126.0</ele>
				<time>2011-02-16T16:20:23Z</time>
			</trkpt>
			<trkpt lat="50.899376152233636" lon="6.682670548678177">
				<ele>126.0</ele>
				<time>2011-02-16T16:20:24Z</time>
			</trkpt>
			<trkpt lat="50.89935181009162" lon="6.682603817548533">
				<ele>126.0</ele>
				<time>2011-02-16T16:20:25Z</time>
			</trkpt>
			<trkpt lat="50.89932568079096" lon="6.682531592887995">
				<ele>126.0</ele>
				<time>2011-02-16T16:20:26Z</time>
			</trkpt>
			<trkpt lat="50.89929650262445" lon="6.68245084152725">
				<ele>126.0</ele>
				<time>2011-02-16T16:20:27Z</time>
			</trkpt>
			<trkpt lat="50.89926743048404" lon="6.682365422128928">
				<ele>126.0</ele>
				<time>2011-02-16T16:20:28Z</time>
			</trkpt>
			<trkpt lat="50.89923849133392" lon="6.6822781184036035">
				<ele>126.0</ele>
				<time>2011-02-16T16:20:29Z</time>
			</trkpt>
			<trkpt lat="50.89920911396319" lon="6.682191118601292">
				<ele>126.0</ele>
				<time>2011-02-16T16:20:30Z</time>
			</trkpt>
			<trkpt lat="50.89918132241529" lon="6.682105498000239">
				<ele>126.0</ele>
				<time>2011-02-16T16:20:31Z</time>
			</trkpt>
			<trkpt lat="50.89915312931897" lon="6.682023653304328">
				<ele>126.0</ele>
				<time>2011-02-16T16:20:32Z</time>
			</trkpt>
			<trkpt lat="50.89911899956783" lon="6.681961798054652">
				<ele>127.0</ele>
				<time>2011-02-16T16:20:33Z</time>
			</trkpt>
			<trkpt lat="50.89907230339521" lon="6.681925569449792">
				<ele>127.0</ele>
				<time>2011-02-16T16:20:34Z</time>
			</trkpt>
			<trkpt lat="50.89902553703456" lon="6.681889877773113">
				<ele>127.0</ele>
				<time>2011-02-16T16:20:35Z</time>
			</trkpt>
			<trkpt lat="50.898987831769745" lon="6.68183711977343">
				<ele>127.0</ele>
				<time>2011-02-16T16:20:36Z</time>
			</trkpt>
			<trkpt lat="50.89895554666547" lon="6.681784783510794">
				<ele>127.0</ele>
				<time>2011-02-16T16:20:37Z</time>
			</trkpt>
			<trkpt lat="50.89894040253375" lon="6.681745725372916">
				<ele>127.0</ele>
				<time>2011-02-16T16:20:38Z</time>
			</trkpt>
			<trkpt lat="50.89894040253375" lon="6.681745725372916">
				<ele>127.0</ele>
				<time>2011-02-16T16:20:39Z</time>
			</trkpt>
			<trkpt lat="50.89894040253375" lon="6.681745725372916">
				<ele>127.0</ele>
				<time>2011-02-16T16:20:40Z</time>
			</trkpt>
			<trkpt lat="50.89894040253375" lon="6.681745725372916">
				<ele>127.0</ele>
				<time>2011-02-16T16:20:41Z</time>
			</trkpt>
			<trkpt lat="50.89890664750525" lon="6.6816724048259735">
				<ele>127.0</ele>
				<time>2011-02-16T16:20:42Z</time>
			</trkpt>
			<trkpt lat="50.898873586852815" lon="6.681653724404637">
				<ele>127.0</ele>
				<time>2011-02-16T16:20:43Z</time>
			</trkpt>
			<trkpt lat="50.89883473478714" lon="6.681658816845838">
				<ele>127.0</ele>
				<time>2011-02-16T16:20:44Z</time>
			</trkpt>
			<trkpt lat="50.89878762885938" lon="6.681672893741997">
				<ele>127.0</ele>
				<time>2011-02-16T16:20:45Z</time>
			</trkpt>
			<trkpt lat="50.898736775204746" lon="6.681714219234009">
				<ele>127.0</ele>
				<time>2011-02-16T16:20:46Z</time>
			</trkpt>
			<trkpt lat="50.89867801094052" lon="6.681763702749007">
				<ele>127.0</ele>
				<time>2011-02-16T16:20:47Z</time>
			</trkpt>
			<trkpt lat="50.89861922795499" lon="6.6818176618022">
				<ele>128.0</ele>
				<time>2011-02-16T16:20:48Z</time>
			</trkpt>
			<trkpt lat="50.89855362497291" lon="6.681878043910667">
				<ele>128.0</ele>
				<time>2011-02-16T16:20:49Z</time>
			</trkpt>
			<trkpt lat="50.89848211609259" lon="6.681947831715681">
				<ele>128.0</ele>
				<time>2011-02-16T16:20:50Z</time>
			</trkpt>
			<trkpt lat="50.89840524242472" lon="6.682023503627089">
				<ele>128.0</ele>
				<time>2011-02-16T16:20:51Z</time>
			</trkpt>
			<trkpt lat="50.898323086078804" lon="6.682105101616023">
				<ele>128.0</ele>
				<time>2011-02-16T16:20:52Z</time>
			</trkpt>
			<trkpt lat="50.89824081551116" lon="6.682191075928895">
				<ele>128.0</ele>
				<time>2011-02-16T16:20:53Z</time>
			</trkpt>
			<trkpt lat="50.898154015539326" lon="6.682282261216902">
				<ele>128.0</ele>
				<time>2011-02-16T16:20:54Z</time>
			</trkpt>
			<trkpt lat="50.898064393410365" lon="6.682376537215951">
				<ele>128.0</ele>
				<time>2011-02-16T16:20:55Z</time>
			</trkpt>
			<trkpt lat="50.89797194603421" lon="6.682474862392556">
				<ele>128.0</ele>
				<time>2011-02-16T16:20:56Z</time>
			</trkpt>
			<trkpt lat="50.897879225008616" lon="6.682573791692865">
				<ele>127.0</ele>
				<time>2011-02-16T16:20:57Z</time>
			</trkpt>
			<trkpt lat="50.89778759376991" lon="6.682671265335966">
				<ele>127.0</ele>
				<time>2011-02-16T16:20:58Z</time>
			</trkpt>
			<trkpt lat="50.89769611321872" lon="6.682766542587148">
				<ele>127.0</ele>
				<time>2011-02-16T16:20:59Z</time>
			</trkpt>
			<trkpt lat="50.89760602778691" lon="6.682858998252144">
				<ele>127.0</ele>
				<time>2011-02-16T16:21:00Z</time>
			</trkpt>
			<trkpt lat="50.89751697855912" lon="6.682949822624745">
				<ele>127.0</ele>
				<time>2011-02-16T16:21:01Z</time>
			</trkpt>
			<trkpt lat="50.89743093075411" lon="6.683037781383885">
				<ele>127.0</ele>
				<time>2011-02-16T16:21:02Z</time>
			</trkpt>
			<trkpt lat="50.89734697835433" lon="6.683123774955062">
				<ele>127.0</ele>
				<time>2011-02-16T16:21:03Z</time>
			</trkpt>
			<trkpt lat="50.897264852089044" lon="6.683207935042006">
				<ele>127.0</ele>
				<time>2011-02-16T16:21:04Z</time>
			</trkpt>
			<trkpt lat="50.89718441445199" lon="6.683290578136573">
				<ele>127.0</ele>
				<time>2011-02-16T16:21:05Z</time>
			</trkpt>
			<trkpt lat="50.89710573369094" lon="6.683371414267306">
				<ele>127.0</ele>
				<time>2011-02-16T16:21:06Z</time>
			</trkpt>
			<trkpt lat="50.89702788637747" lon="6.683447086967738">
				<ele>127.0</ele>
				<time>2011-02-16T16:21:07Z</time>
			</trkpt>
			<trkpt lat="50.8969646392926" lon="6.6835030634756745">
				<ele>127.0</ele>
				<time>2011-02-16T16:21:08Z</time>
			</trkpt>
			<trkpt lat="50.896919612107006" lon="6.683536514920476">
				<ele>127.0</ele>
				<time>2011-02-16T16:21:09Z</time>
			</trkpt>
			<trkpt lat="50.89689253589346" lon="6.683554457272505">
				<ele>127.0</ele>
				<time>2011-02-16T16:21:10Z</time>
			</trkpt>
			<trkpt lat="50.896876329271024" lon="6.683563314249167">
				<ele>127.0</ele>
				<time>2011-02-16T16:21:11Z</time>
			</trkpt>
			<trkpt lat="50.896876329271024" lon="6.683563314249167">
				<ele>127.0</ele>
				<time>2011-02-16T16:21:12Z</time>
			</trkpt>
			<trkpt lat="50.896876329271024" lon="6.683563314249167">
				<ele>127.0</ele>
				<time>2011-02-16T16:21:13Z</time>
			</trkpt>
			<trkpt lat="50.896876329271024" lon="6.683563314249167">
				<ele>127.0</ele>
				<time>2011-02-16T16:21:14Z</time>
			</trkpt>
			<trkpt lat="50.896876329271024" lon="6.683563314249167">
				<ele>127.0</ele>
				<time>2011-02-16T16:21:15Z</time>
			</trkpt>
			<trkpt lat="50.896876329271024" lon="6.683563314249167">
				<ele>127.0</ele>
				<time>2011-02-16T16:21:16Z</time>
			</trkpt>
			<trkpt lat="50.896876329271024" lon="6.683563314249167">
				<ele>127.0</ele>
				<time>2011-02-16T16:21:17Z</time>
			</trkpt>
			<trkpt lat="50.896876329271024" lon="6.683563314249167">
				<ele>127.0</ele>
				<time>2011-02-16T16:21:18Z</time>
			</trkpt>
			<trkpt lat="50.896876329271024" lon="6.683563314249167">
				<ele>127.0</ele>
				<time>2011-02-16T16:21:19Z</time>
			</trkpt>
			<trkpt lat="50.89684837420131" lon="6.683573180503962">
				<ele>127.0</ele>
				<time>2011-02-16T16:21:20Z</time>
			</trkpt>
			<trkpt lat="50.89681058121219" lon="6.683581723858565">
				<ele>127.0</ele>
				<time>2011-02-16T16:21:21Z</time>
			</trkpt>
			<trkpt lat="50.89676761979052" lon="6.683586066407966">
				<ele>127.0</ele>
				<time>2011-02-16T16:21:22Z</time>
			</trkpt>
			<trkpt lat="50.89671262866966" lon="6.683586139520741">
				<ele>127.0</ele>
				<time>2011-02-16T16:21:23Z</time>
			</trkpt>
			<trkpt lat="50.896647706036674" lon="6.68358397117944">
				<ele>126.0</ele>
				<time>2011-02-16T16:21:24Z</time>
			</trkpt>
			<trkpt lat="50.896584106155416" lon="6.683576532404151">
				<ele>126.0</ele>
				<time>2011-02-16T16:21:25Z</time>
			</trkpt>
			<trkpt lat="50.89652603161966" lon="6.683536149569294">
				<ele>126.0</ele>
				<time>2011-02-16T16:21:26Z</time>
			</trkpt>
			<trkpt lat="50.896480637832695" lon="6.683477982679284">
				<ele>126.0</ele>
				<time>2011-02-16T16:21:27Z</time>
			</trkpt>
			<trkpt lat="50.896447965610534" lon="6.6834014124492125">
				<ele>126.0</ele>
				<time>2011-02-16T16:21:28Z</time>
			</trkpt>
			<trkpt lat="50.89643507277215" lon="6.683310344703854">
				<ele>126.0</ele>
				<time>2011-02-16T16:21:29Z</time>
			</trkpt>
			<trkpt lat="50.89644192914039" lon="6.683209190156044">
				<ele>126.0</ele>
				<time>2011-02-16T16:21:30Z</time>
			</trkpt>
			<trkpt lat="50.896464793385334" lon="6.683100123306579">
				<ele>126.0</ele>
				<time>2011-02-16T16:21:31Z</time>
			</trkpt>
			<trkpt lat="50.89649082598557" lon="6.682990806759864">
				<ele>126.0</ele>
				<time>2011-02-16T16:21:32Z</time>
			</trkpt>
			<trkpt lat="50.89652240968025" lon="6.682873827046282">
				<ele>126.0</ele>
				<time>2011-02-16T16:21:33Z</time>
			</trkpt>
			<trkpt lat="50.89656004865588" lon="6.682749435359231">
				<ele>126.0</ele>
				<time>2011-02-16T16:21:34Z</time>
			</trkpt>
			<trkpt lat="50.896599078639056" lon="6.682625004443582">
				<ele>126.0</ele>
				<time>2011-02-16T16:21:35Z</time>
			</trkpt>
			<trkpt lat="50.89663634163035" lon="6.682498222116004">
				<ele>127.0</ele>
				<time>2011-02-16T16:21:36Z</time>
			</trkpt>
			<trkpt lat="50.89666817084349" lon="6.682364688493538">
				<ele>127.0</ele>
				<time>2011-02-16T16:21:37Z</time>
			</trkpt>
			<trkpt lat="50.896680399994075" lon="6.682223552099952">
				<ele>127.0</ele>
				<time>2011-02-16T16:21:38Z</time>
			</trkpt>
			<trkpt lat="50.896687894346265" lon="6.682081898001018">
				<ele>127.0</ele>
				<time>2011-02-16T16:21:39Z</time>
			</trkpt>
			<trkpt lat="50.89669193690436" lon="6.681938537955555">
				<ele>127.0</ele>
				<time>2011-02-16T16:21:40Z</time>
			</trkpt>
			<trkpt lat="50.89669217069706" lon="6.681790756993016">
				<ele>127.0</ele>
				<time>2011-02-16T16:21:41Z</time>
			</trkpt>
			<trkpt lat="50.89668836720682" lon="6.681639483891983">
				<ele>127.0</ele>
				<time>2011-02-16T16:21:42Z</time>
			</trkpt>
			<trkpt lat="50.89668253564192" lon="6.681485594676018">
				<ele>127.0</ele>
				<time>2011-02-16T16:21:43Z</time>
			</trkpt>
			<trkpt lat="50.89667462684563" lon="6.6813317539806585">
				<ele>127.0</ele>
				<time>2011-02-16T16:21:44Z</time>
			</trkpt>
			<trkpt lat="50.89666277870115" lon="6.681180240291475">
				<ele>127.0</ele>
				<time>2011-02-16T16:21:45Z</time>
			</trkpt>
			<trkpt lat="50.896647040446005" lon="6.681032906408664">
				<ele>127.0</ele>
				<time>2011-02-16T16:21:46Z</time>
			</trkpt>
			<trkpt lat="50.896628204791924" lon="6.680888449503623">
				<ele>126.0</ele>
				<time>2011-02-16T16:21:47Z</time>
			</trkpt>
			<trkpt lat="50.89660615704384" lon="6.680746255242637">
				<ele>126.0</ele>
				<time>2011-02-16T16:21:48Z</time>
			</trkpt>
			<trkpt lat="50.896582936348665" lon="6.6806070331632394">
				<ele>126.0</ele>
				<time>2011-02-16T16:21:49Z</time>
			</trkpt>
			<trkpt lat="50.89655667877595" lon="6.680471098679681">
				<ele>126.0</ele>
				<time>2011-02-16T16:21:50Z</time>
			</trkpt>
			<trkpt lat="50.89652818328793" lon="6.680337504941903">
				<ele>126.0</ele>
				<time>2011-02-16T16:21:51Z</time>
			</trkpt>
			<trkpt lat="50.89649814437137" lon="6.680207448536809">
				<ele>126.0</ele>
				<time>2011-02-16T16:21:52Z</time>
			</trkpt>
			<trkpt lat="50.89646570333957" lon="6.680080174757041">
				<ele>126.0</ele>
				<time>2011-02-16T16:21:53Z</time>
			</trkpt>
			<trkpt lat="50.89643126973947" lon="6.679953694742392">
				<ele>126.0</ele>
				<time>2011-02-16T16:21:54Z</time>
			</trkpt>
			<trkpt lat="50.89639544872071" lon="6.679828496300156">
				<ele>126.0</ele>
				<time>2011-02-16T16:21:55Z</time>
			</trkpt>
			<trkpt lat="50.89636011610417" lon="6.679705751694701">
				<ele>126.0</ele>
				<time>2011-02-16T16:21:56Z</time>
			</trkpt>
			<trkpt lat="50.89632332732039" lon="6.679584659043261">
				<ele>126.0</ele>
				<time>2011-02-16T16:21:57Z</time>
			</trkpt>
			<trkpt lat="50.89628631736579" lon="6.67946122239604">
				<ele>126.0</ele>
				<time>2011-02-16T16:21:58Z</time>
			</trkpt>
			<trkpt lat="50.89624870570518" lon="6.6793331909538045">
				<ele>126.0</ele>
				<time>2011-02-16T16:21:59Z</time>
			</trkpt>
			<trkpt lat="50.89621165541885" lon="6.679203585312032">
				<ele>127.0</ele>
				<time>2011-02-16T16:22:00Z</time>
			</trkpt>
			<trkpt lat="50.89617487821914" lon="6.679070567977851">
				<ele>127.0</ele>
				<time>2011-02-16T16:22:01Z</time>
			</trkpt>
			<trkpt lat="50.89614066635395" lon="6.678935880765557">
				<ele>127.0</ele>
				<time>2011-02-16T16:22:02Z</time>
			</trkpt>
			<trkpt lat="50.8961055307981" lon="6.678794316142988">
				<ele>127.0</ele>
				<time>2011-02-16T16:22:03Z</time>
			</trkpt>
			<trkpt lat="50.896073406842696" lon="6.678649344664327">
				<ele>127.0</ele>
				<time>2011-02-16T16:22:04Z</time>
			</trkpt>
			<trkpt lat="50.89604161564698" lon="6.6784963218037605">
				<ele>127.0</ele>
				<time>2011-02-16T16:22:05Z</time>
			</trkpt>
			<trkpt lat="50.896011979536006" lon="6.678340103096473">
				<ele>126.0</ele>
				<time>2011-02-16T16:22:06Z</time>
			</trkpt>
			<trkpt lat="50.89598309113544" lon="6.678183505925175">
				<ele>126.0</ele>
				<time>2011-02-16T16:22:07Z</time>
			</trkpt>
			<trkpt lat="50.89595799136131" lon="6.678026477308686">
				<ele>126.0</ele>
				<time>2011-02-16T16:22:08Z</time>
			</trkpt>
			<trkpt lat="50.89593368460742" lon="6.677870061784939">
				<ele>126.0</ele>
				<time>2011-02-16T16:22:09Z</time>
			</trkpt>
			<trkpt lat="50.89591376299655" lon="6.677715569870224">
				<ele>126.0</ele>
				<time>2011-02-16T16:22:10Z</time>
			</trkpt>
			<trkpt lat="50.89589621109238" lon="6.677563813146735">
				<ele>127.0</ele>
				<time>2011-02-16T16:22:11Z</time>
			</trkpt>
			<trkpt lat="50.89587913712704" lon="6.677414992366954">
				<ele>127.0</ele>
				<time>2011-02-16T16:22:12Z</time>
			</trkpt>
			<trkpt lat="50.895864658557706" lon="6.677271114397404">
				<ele>127.0</ele>
				<time>2011-02-16T16:22:13Z</time>
			</trkpt>
			<trkpt lat="50.895850328480364" lon="6.677135485469248">
				<ele>127.0</ele>
				<time>2011-02-16T16:22:14Z</time>
			</trkpt>
			<trkpt lat="50.895834249909875" lon="6.677008721774659">
				<ele>127.0</ele>
				<time>2011-02-16T16:22:15Z</time>
			</trkpt>
			<trkpt lat="50.89581856402756" lon="6.676889878262909">
				<ele>127.0</ele>
				<time>2011-02-16T16:22:16Z</time>
			</trkpt>
			<trkpt lat="50.895801763162794" lon="6.67677410107525">
				<ele>127.0</ele>
				<time>2011-02-16T16:22:17Z</time>
			</trkpt>
			<trkpt lat="50.89578545842753" lon="6.676661219533914">
				<ele>127.0</ele>
				<time>2011-02-16T16:22:18Z</time>
			</trkpt>
			<trkpt lat="50.89577089282831" lon="6.676551107345314">
				<ele>127.0</ele>
				<time>2011-02-16T16:22:19Z</time>
			</trkpt>
			<trkpt lat="50.89575712958302" lon="6.676443321075619">
				<ele>127.0</ele>
				<time>2011-02-16T16:22:20Z</time>
			</trkpt>
			<trkpt lat="50.89574493657532" lon="6.6763375451409">
				<ele>127.0</ele>
				<time>2011-02-16T16:22:21Z</time>
			</trkpt>
			<trkpt lat="50.89573239192351" lon="6.676236214089844">
				<ele>127.0</ele>
				<time>2011-02-16T16:22:22Z</time>
			</trkpt>
			<trkpt lat="50.89571800546607" lon="6.676138688228051">
				<ele>127.0</ele>
				<time>2011-02-16T16:22:23Z</time>
			</trkpt>
			<trkpt lat="50.89570205093117" lon="6.676045170323364">
				<ele>127.0</ele>
				<time>2011-02-16T16:22:24Z</time>
			</trkpt>
			<trkpt lat="50.89568329145976" lon="6.675961918841623">
				<ele>128.0</ele>
				<time>2011-02-16T16:22:25Z</time>
			</trkpt>
			<trkpt lat="50.895661500700115" lon="6.675881654808102">
				<ele>128.0</ele>
				<time>2011-02-16T16:22:26Z</time>
			</trkpt>
			<trkpt lat="50.89563667839095" lon="6.675808778150808">
				<ele>128.0</ele>
				<time>2011-02-16T16:22:27Z</time>
			</trkpt>
			<trkpt lat="50.89561448495835" lon="6.675753152098796">
				<ele>128.0</ele>
				<time>2011-02-16T16:22:28Z</time>
			</trkpt>
			<trkpt lat="50.895599504157644" lon="6.675709716259357">
				<ele>128.0</ele>
				<time>2011-02-16T16:22:29Z</time>
			</trkpt>
			<trkpt lat="50.8955854079064" lon="6.675668760346635">
				<ele>128.0</ele>
				<time>2011-02-16T16:22:30Z</time>
			</trkpt>
			<trkpt lat="50.895575395962084" lon="6.67561756577373">
				<ele>128.0</ele>
				<time>2011-02-16T16:22:31Z</time>
			</trkpt>
			<trkpt lat="50.895565775665105" lon="6.675554044876846">
				<ele>128.0</ele>
				<time>2011-02-16T16:22:32Z</time>
			</trkpt>
			<trkpt lat="50.895556193004886" lon="6.675486061773244">
				<ele>128.0</ele>
				<time>2011-02-16T16:22:33Z</time>
			</trkpt>
			<trkpt lat="50.89553512116909" lon="6.675426484363333">
				<ele>128.0</ele>
				<time>2011-02-16T16:22:34Z</time>
			</trkpt>
			<trkpt lat="50.89550410510169" lon="6.675378076489645">
				<ele>129.0</ele>
				<time>2011-02-16T16:22:35Z</time>
			</trkpt>
			<trkpt lat="50.89546685376139" lon="6.675351754320985">
				<ele>129.0</ele>
				<time>2011-02-16T16:22:36Z</time>
			</trkpt>
			<trkpt lat="50.89542333557267" lon="6.6753547418576575">
				<ele>129.0</ele>
				<time>2011-02-16T16:22:37Z</time>
			</trkpt>
			<trkpt lat="50.89538207920573" lon="6.675381210157457">
				<ele>129.0</ele>
				<time>2011-02-16T16:22:38Z</time>
			</trkpt>
			<trkpt lat="50.8953537095954" lon="6.6754331975165915">
				<ele>128.0</ele>
				<time>2011-02-16T16:22:39Z</time>
			</trkpt>
			<trkpt lat="50.895331068267026" lon="6.675508422027467">
				<ele>128.0</ele>
				<time>2011-02-16T16:22:40Z</time>
			</trkpt>
			<trkpt lat="50.89530381961317" lon="6.675595427976293">
				<ele>128.0</ele>
				<time>2011-02-16T16:22:41Z</time>
			</trkpt>
			<trkpt lat="50.895264010552516" lon="6.675673119833071">
				<ele>129.0</ele>
				<time>2011-02-16T16:22:42Z</time>
			</trkpt>
			<trkpt lat="50.89521354507809" lon="6.675737295314319">
				<ele>129.0</ele>
				<time>2011-02-16T16:22:43Z</time>
			</trkpt>
			<trkpt lat="50.89515708983633" lon="6.675804054870917">
				<ele>128.0</ele>
				<time>2011-02-16T16:22:44Z</time>
			</trkpt>
			<trkpt lat="50.89509761623535" lon="6.675872834235758">
				<ele>128.0</ele>
				<time>2011-02-16T16:22:45Z</time>
			</trkpt>
			<trkpt lat="50.89503592048034" lon="6.675943719893995">
				<ele>128.0</ele>
				<time>2011-02-16T16:22:46Z</time>
			</trkpt>
			<trkpt lat="50.89497453306595" lon="6.676015206913937">
				<ele>128.0</ele>
				<time>2011-02-16T16:22:47Z</time>
			</trkpt>
			<trkpt lat="50.894914675151185" lon="6.676089682511781">
				<ele>128.0</ele>
				<time>2011-02-16T16:22:48Z</time>
			</trkpt>
			<trkpt lat="50.89485520024257" lon="6.676165630591544">
				<ele>128.0</ele>
				<time>2011-02-16T16:22:49Z</time>
			</trkpt>
			<trkpt lat="50.89479498955698" lon="6.676243763077487">
				<ele>128.0</ele>
				<time>2011-02-16T16:22:50Z</time>
			</trkpt>
			<trkpt lat="50.8947371470125" lon="6.676323419126804">
				<ele>128.0</ele>
				<time>2011-02-16T16:22:51Z</time>
			</trkpt>
			<trkpt lat="50.894681095056086" lon="6.676398979916303">
				<ele>128.0</ele>
				<time>2011-02-16T16:22:52Z</time>
			</trkpt>
			<trkpt lat="50.89462889947605" lon="6.676468541235481">
				<ele>128.0</ele>
				<time>2011-02-16T16:22:53Z</time>
			</trkpt>
			<trkpt lat="50.894577551085064" lon="6.676530979866999">
				<ele>128.0</ele>
				<time>2011-02-16T16:22:54Z</time>
			</trkpt>
			<trkpt lat="50.894525888356554" lon="6.676588101337408">
				<ele>128.0</ele>
				<time>2011-02-16T16:22:55Z</time>
			</trkpt>
			<trkpt lat="50.89447205380324" lon="6.676643685570784">
				<ele>128.0</ele>
				<time>2011-02-16T16:22:56Z</time>
			</trkpt>
			<trkpt lat="50.89441710475685" lon="6.67669795546871">
				<ele>128.0</ele>
				<time>2011-02-16T16:22:57Z</time>
			</trkpt>
			<trkpt lat="50.89436132559206" lon="6.676750837799859">
				<ele>128.0</ele>
				<time>2011-02-16T16:22:58Z</time>
			</trkpt>
			<trkpt lat="50.89430782784531" lon="6.6768065707027615">
				<ele>127.0</ele>
				<time>2011-02-16T16:22:59Z</time>
			</trkpt>
			<trkpt lat="50.89425795004487" lon="6.676866638235321">
				<ele>128.0</ele>
				<time>2011-02-16T16:23:00Z</time>
			</trkpt>
			<trkpt lat="50.89421871174877" lon="6.676939116437294">
				<ele>128.0</ele>
				<time>2011-02-16T16:23:01Z</time>
			</trkpt>
			<trkpt lat="50.89418133033961" lon="6.677011664972027">
				<ele>128.0</ele>
				<time>2011-02-16T16:23:02Z</time>
			</trkpt>
			<trkpt lat="50.89414256704589" lon="6.677081587498687">
				<ele>128.0</ele>
				<time>2011-02-16T16:23:03Z</time>
			</trkpt>
			<trkpt lat="50.894096424652915" lon="6.677133055610365">
				<ele>128.0</ele>
				<time>2011-02-16T16:23:04Z</time>
			</trkpt>
			<trkpt lat="50.89404903144257" lon="6.67717883072877">
				<ele>128.0</ele>
				<time>2011-02-16T16:23:05Z</time>
			</trkpt>
			<trkpt lat="50.893994524962295" lon="6.6771991538880915">
				<ele>128.0</ele>
				<time>2011-02-16T16:23:06Z</time>
			</trkpt>
			<trkpt lat="50.893934915191046" lon="6.677216458415558">
				<ele>128.0</ele>
				<time>2011-02-16T16:23:07Z</time>
			</trkpt>
			<trkpt lat="50.89386608655698" lon="6.6772382523013585">
				<ele>128.0</ele>
				<time>2011-02-16T16:23:08Z</time>
			</trkpt>
			<trkpt lat="50.89379769677667" lon="6.677285762858645">
				<ele>128.0</ele>
				<time>2011-02-16T16:23:09Z</time>
			</trkpt>
			<trkpt lat="50.89372594682226" lon="6.677342227216381">
				<ele>128.0</ele>
				<time>2011-02-16T16:23:10Z</time>
			</trkpt>
			<trkpt lat="50.893650853607404" lon="6.677408415723355">
				<ele>128.0</ele>
				<time>2011-02-16T16:23:11Z</time>
			</trkpt>
			<trkpt lat="50.893575185822534" lon="6.677479445566401">
				<ele>127.0</ele>
				<time>2011-02-16T16:23:12Z</time>
			</trkpt>
			<trkpt lat="50.89349741977722" lon="6.6775525632137">
				<ele>127.0</ele>
				<time>2011-02-16T16:23:13Z</time>
			</trkpt>
			<trkpt lat="50.89341997895008" lon="6.677626645058203">
				<ele>127.0</ele>
				<time>2011-02-16T16:23:14Z</time>
			</trkpt>
			<trkpt lat="50.893342769670326" lon="6.677702767494166">
				<ele>127.0</ele>
				<time>2011-02-16T16:23:15Z</time>
			</trkpt>
			<trkpt lat="50.89326549644058" lon="6.677778199927443">
				<ele>127.0</ele>
				<time>2011-02-16T16:23:16Z</time>
			</trkpt>
			<trkpt lat="50.8931891463179" lon="6.677851786855578">
				<ele>127.0</ele>
				<time>2011-02-16T16:23:17Z</time>
			</trkpt>
			<trkpt lat="50.89311361889917" lon="6.677924307887639">
				<ele>127.0</ele>
				<time>2011-02-16T16:23:18Z</time>
			</trkpt>
			<trkpt lat="50.89303935839214" lon="6.677995351772237">
				<ele>127.0</ele>
				<time>2011-02-16T16:23:19Z</time>
			</trkpt>
			<trkpt lat="50.892967490359695" lon="6.678064069264019">
				<ele>127.0</ele>
				<time>2011-02-16T16:23:20Z</time>
			</trkpt>
			<trkpt lat="50.89289731203741" lon="6.678134163912542">
				<ele>127.0</ele>
				<time>2011-02-16T16:23:21Z</time>
			</trkpt>
			<trkpt lat="50.89282913713543" lon="6.678201307630029">
				<ele>127.0</ele>
				<time>2011-02-16T16:23:22Z</time>
			</trkpt>
			<trkpt lat="50.892761598163766" lon="6.67826683503703">
				<ele>127.0</ele>
				<time>2011-02-16T16:23:23Z</time>
			</trkpt>
			<trkpt lat="50.892696344310316" lon="6.678329286325874">
				<ele>127.0</ele>
				<time>2011-02-16T16:23:24Z</time>
			</trkpt>
			<trkpt lat="50.89263513294784" lon="6.678385250396907">
				<ele>127.0</ele>
				<time>2011-02-16T16:23:25Z</time>
			</trkpt>
			<trkpt lat="50.892575387140795" lon="6.678440066302547">
				<ele>127.0</ele>
				<time>2011-02-16T16:23:26Z</time>
			</trkpt>
			<trkpt lat="50.89251875608936" lon="6.678492269385601">
				<ele>127.0</ele>
				<time>2011-02-16T16:23:27Z</time>
			</trkpt>
			<trkpt lat="50.89247173552822" lon="6.67853267767568">
				<ele>127.0</ele>
				<time>2011-02-16T16:23:28Z</time>
			</trkpt>
			<trkpt lat="50.8924383167616" lon="6.678558144526831">
				<ele>127.0</ele>
				<time>2011-02-16T16:23:29Z</time>
			</trkpt>
			<trkpt lat="50.892406108275345" lon="6.6785653728020815">
				<ele>127.0</ele>
				<time>2011-02-16T16:23:30Z</time>
			</trkpt>
			<trkpt lat="50.89237436123499" lon="6.678557519946633">
				<ele>127.0</ele>
				<time>2011-02-16T16:23:31Z</time>
			</trkpt>
			<trkpt lat="50.892337945581566" lon="6.678530430347808">
				<ele>127.0</ele>
				<time>2011-02-16T16:23:32Z</time>
			</trkpt>
			<trkpt lat="50.89229749282854" lon="6.678499089768269">
				<ele>127.0</ele>
				<time>2011-02-16T16:23:33Z</time>
			</trkpt>
			<trkpt lat="50.89225581631918" lon="6.678471987226173">
				<ele>127.0</ele>
				<time>2011-02-16T16:23:34Z</time>
			</trkpt>
			<trkpt lat="50.89220540738655" lon="6.6784691651348">
				<ele>128.0</ele>
				<time>2011-02-16T16:23:35Z</time>
			</trkpt>
			<trkpt lat="50.892155891432004" lon="6.67848204485365">
				<ele>128.0</ele>
				<time>2011-02-16T16:23:36Z</time>
			</trkpt>
			<trkpt lat="50.89211021478992" lon="6.678512072168322">
				<ele>128.0</ele>
				<time>2011-02-16T16:23:37Z</time>
			</trkpt>
			<trkpt lat="50.89206844749435" lon="6.678549435510644">
				<ele>128.0</ele>
				<time>2011-02-16T16:23:38Z</time>
			</trkpt>
			<trkpt lat="50.89203561007083" lon="6.678605745651852">
				<ele>128.0</ele>
				<time>2011-02-16T16:23:39Z</time>
			</trkpt>
			<trkpt lat="50.8920067606813" lon="6.678667914312556">
				<ele>128.0</ele>
				<time>2011-02-16T16:23:40Z</time>
			</trkpt>
			<trkpt lat="50.891995040477944" lon="6.678742486549991">
				<ele>128.0</ele>
				<time>2011-02-16T16:23:41Z</time>
			</trkpt>
			<trkpt lat="50.89199170463981" lon="6.678818329244611">
				<ele>128.0</ele>
				<time>2011-02-16T16:23:42Z</time>
			</trkpt>
			<trkpt lat="50.89198867955458" lon="6.678894595342373">
				<ele>128.0</ele>
				<time>2011-02-16T16:23:43Z</time>
			</trkpt>
			<trkpt lat="50.89198104063215" lon="6.678971170239637">
				<ele>129.0</ele>
				<time>2011-02-16T16:23:44Z</time>
			</trkpt>
			<trkpt lat="50.89195002794803" lon="6.679041456336524">
				<ele>129.0</ele>
				<time>2011-02-16T16:23:45Z</time>
			</trkpt>
			<trkpt lat="50.891904843819454" lon="6.679107815410104">
				<ele>129.0</ele>
				<time>2011-02-16T16:23:46Z</time>
			</trkpt>
			<trkpt lat="50.89185487356043" lon="6.6791819840584115">
				<ele>129.0</ele>
				<time>2011-02-16T16:23:47Z</time>
			</trkpt>
			<trkpt lat="50.89180304558561" lon="6.679261358672275">
				<ele>128.0</ele>
				<time>2011-02-16T16:23:48Z</time>
			</trkpt>
			<trkpt lat="50.891755044546656" lon="6.679343783760681">
				<ele>128.0</ele>
				<time>2011-02-16T16:23:49Z</time>
			</trkpt>
			<trkpt lat="50.891718102735084" lon="6.679444880711549">
				<ele>128.0</ele>
				<time>2011-02-16T16:23:50Z</time>
			</trkpt>
			<trkpt lat="50.89169537409688" lon="6.679551214626321">
				<ele>128.0</ele>
				<time>2011-02-16T16:23:51Z</time>
			</trkpt>
			<trkpt lat="50.89167633629166" lon="6.679657305812133">
				<ele>128.0</ele>
				<time>2011-02-16T16:23:52Z</time>
			</trkpt>
			<trkpt lat="50.891662549225785" lon="6.679760103555969">
				<ele>128.0</ele>
				<time>2011-02-16T16:23:53Z</time>
			</trkpt>
			<trkpt lat="50.89165488179321" lon="6.679860168361327">
				<ele>128.0</ele>
				<time>2011-02-16T16:23:54Z</time>
			</trkpt>
			<trkpt lat="50.89165102723254" lon="6.679961876196794">
				<ele>128.0</ele>
				<time>2011-02-16T16:23:55Z</time>
			</trkpt>
			<trkpt lat="50.89164811183172" lon="6.680064407769671">
				<ele>128.0</ele>
				<time>2011-02-16T16:23:56Z</time>
			</trkpt>
			<trkpt lat="50.89164666558698" lon="6.680175490773287">
				<ele>128.0</ele>
				<time>2011-02-16T16:23:57Z</time>
			</trkpt>
			<trkpt lat="50.89164836944537" lon="6.6802925536116335">
				<ele>128.0</ele>
				<time>2011-02-16T16:23:58Z</time>
			</trkpt>
			<trkpt lat="50.891649772992295" lon="6.680417073621845">
				<ele>128.0</ele>
				<time>2011-02-16T16:23:59Z</time>
			</trkpt>
			<trkpt lat="50.89165209776675" lon="6.680552431675467">
				<ele>128.0</ele>
				<time>2011-02-16T16:24:00Z</time>
			</trkpt>
			<trkpt lat="50.89165657114382" lon="6.68069135870132">
				<ele>127.0</ele>
				<time>2011-02-16T16:24:01Z</time>
			</trkpt>
			<trkpt lat="50.891661123709994" lon="6.680840586987838">
				<ele>127.0</ele>
				<time>2011-02-16T16:24:02Z</time>
			</trkpt>
			<trkpt lat="50.891666728176574" lon="6.680990911729361">
				<ele>127.0</ele>
				<time>2011-02-16T16:24:03Z</time>
			</trkpt>
			<trkpt lat="50.89167527626331" lon="6.6811423854272505">
				<ele>127.0</ele>
				<time>2011-02-16T16:24:04Z</time>
			</trkpt>
			<trkpt lat="50.89168587295693" lon="6.681292280836228">
				<ele>126.0</ele>
				<time>2011-02-16T16:24:05Z</time>
			</trkpt>
			<trkpt lat="50.89169902540317" lon="6.6814405112914">
				<ele>126.0</ele>
				<time>2011-02-16T16:24:06Z</time>
			</trkpt>
			<trkpt lat="50.89171494935938" lon="6.681587672634383">
				<ele>126.0</ele>
				<time>2011-02-16T16:24:07Z</time>
			</trkpt>
			<trkpt lat="50.89173371086923" lon="6.681739449152727">
				<ele>126.0</ele>
				<time>2011-02-16T16:24:08Z</time>
			</trkpt>
			<trkpt lat="50.891756516656926" lon="6.681894726804229">
				<ele>126.0</ele>
				<time>2011-02-16T16:24:09Z</time>
			</trkpt>
			<trkpt lat="50.89178255230537" lon="6.68204932315086">
				<ele>126.0</ele>
				<time>2011-02-16T16:24:10Z</time>
			</trkpt>
			<trkpt lat="50.89181196128239" lon="6.682200638392832">
				<ele>126.0</ele>
				<time>2011-02-16T16:24:11Z</time>
			</trkpt>
			<trkpt lat="50.891844066606694" lon="6.682352066591805">
				<ele>126.0</ele>
				<time>2011-02-16T16:24:12Z</time>
			</trkpt>
			<trkpt lat="50.89188113793374" lon="6.6825010956286">
				<ele>126.0</ele>
				<time>2011-02-16T16:24:13Z</time>
			</trkpt>
			<trkpt lat="50.89192237404638" lon="6.682649081290773">
				<ele>126.0</ele>
				<time>2011-02-16T16:24:14Z</time>
			</trkpt>
			<trkpt lat="50.8919670328523" lon="6.6827947919828485">
				<ele>126.0</ele>
				<time>2011-02-16T16:24:15Z</time>
			</trkpt>
			<trkpt lat="50.892013298133755" lon="6.682938152066136">
				<ele>126.0</ele>
				<time>2011-02-16T16:24:16Z</time>
			</trkpt>
			<trkpt lat="50.89206212697987" lon="6.6830764292404945">
				<ele>126.0</ele>
				<time>2011-02-16T16:24:17Z</time>
			</trkpt>
			<trkpt lat="50.89211329807387" lon="6.683211730355997">
				<ele>125.0</ele>
				<time>2011-02-16T16:24:18Z</time>
			</trkpt>
			<trkpt lat="50.892167036846985" lon="6.683345227583701">
				<ele>125.0</ele>
				<time>2011-02-16T16:24:19Z</time>
			</trkpt>
			<trkpt lat="50.89222271078112" lon="6.683472666995192">
				<ele>125.0</ele>
				<time>2011-02-16T16:24:20Z</time>
			</trkpt>
			<trkpt lat="50.89228143755268" lon="6.6835985098005635">
				<ele>125.0</ele>
				<time>2011-02-16T16:24:21Z</time>
			</trkpt>
			<trkpt lat="50.892340053810436" lon="6.683725072007024">
				<ele>125.0</ele>
				<time>2011-02-16T16:24:22Z</time>
			</trkpt>
			<trkpt lat="50.89240206549461" lon="6.68384705981747">
				<ele>125.0</ele>
				<time>2011-02-16T16:24:23Z</time>
			</trkpt>
			<trkpt lat="50.89246654794801" lon="6.683965693476637">
				<ele>125.0</ele>
				<time>2011-02-16T16:24:24Z</time>
			</trkpt>
			<trkpt lat="50.89253235295779" lon="6.684081135543857">
				<ele>124.0</ele>
				<time>2011-02-16T16:24:25Z</time>
			</trkpt>
			<trkpt lat="50.89259884289956" lon="6.6841942367746165">
				<ele>124.0</ele>
				<time>2011-02-16T16:24:26Z</time>
			</trkpt>
			<trkpt lat="50.89266418667262" lon="6.684305998397479">
				<ele>124.0</ele>
				<time>2011-02-16T16:24:27Z</time>
			</trkpt>
			<trkpt lat="50.89273138896208" lon="6.684414416414791">
				<ele>124.0</ele>
				<time>2011-02-16T16:24:28Z</time>
			</trkpt>
			<trkpt lat="50.89279875127375" lon="6.684514343737513">
				<ele>124.0</ele>
				<time>2011-02-16T16:24:29Z</time>
			</trkpt>
			<trkpt lat="50.89286986249015" lon="6.684607046267973">
				<ele>125.0</ele>
				<time>2011-02-16T16:24:30Z</time>
			</trkpt>
			<trkpt lat="50.892952951198765" lon="6.684673701926313">
				<ele>125.0</ele>
				<time>2011-02-16T16:24:31Z</time>
			</trkpt>
			<trkpt lat="50.89303828789874" lon="6.684735414437726">
				<ele>125.0</ele>
				<time>2011-02-16T16:24:32Z</time>
			</trkpt>
			<trkpt lat="50.89312973973336" lon="6.684792901951316">
				<ele>125.0</ele>
				<time>2011-02-16T16:24:33Z</time>
			</trkpt>
			<trkpt lat="50.89322112000651" lon="6.684843978578187">
				<ele>125.0</ele>
				<time>2011-02-16T16:24:34Z</time>
			</trkpt>
			<trkpt lat="50.893311481352704" lon="6.684893873292372">
				<ele>125.0</ele>
				<time>2011-02-16T16:24:35Z</time>
			</trkpt>
			<trkpt lat="50.89340211418745" lon="6.6849425574905625">
				<ele>125.0</ele>
				<time>2011-02-16T16:24:36Z</time>
			</trkpt>
			<trkpt lat="50.893492098865856" lon="6.684990463607426">
				<ele>125.0</ele>
				<time>2011-02-16T16:24:37Z</time>
			</trkpt>
			<trkpt lat="50.89357966183797" lon="6.685034465695983">
				<ele>125.0</ele>
				<time>2011-02-16T16:24:38Z</time>
			</trkpt>
			<trkpt lat="50.89366752569427" lon="6.685065790091758">
				<ele>125.0</ele>
				<time>2011-02-16T16:24:39Z</time>
			</trkpt>
			<trkpt lat="50.89375331021182" lon="6.685062333625914">
				<ele>125.0</ele>
				<time>2011-02-16T16:24:40Z</time>
			</trkpt>
			<trkpt lat="50.89383451166811" lon="6.685050072958504">
				<ele>125.0</ele>
				<time>2011-02-16T16:24:41Z</time>
			</trkpt>
			<trkpt lat="50.89390464316796" lon="6.685014348888659">
				<ele>125.0</ele>
				<time>2011-02-16T16:24:42Z</time>
			</trkpt>
			<trkpt lat="50.893972423993056" lon="6.684986918549069">
				<ele>125.0</ele>
				<time>2011-02-16T16:24:43Z</time>
			</trkpt>
			<trkpt lat="50.89403610476018" lon="6.685000854426717">
				<ele>125.0</ele>
				<time>2011-02-16T16:24:44Z</time>
			</trkpt>
			<trkpt lat="50.89409388817363" lon="6.685036984227073">
				<ele>125.0</ele>
				<time>2011-02-16T16:24:45Z</time>
			</trkpt>
			<trkpt lat="50.89415353425445" lon="6.685069159763287">
				<ele>125.0</ele>
				<time>2011-02-16T16:24:46Z</time>
			</trkpt>
			<trkpt lat="50.894216427111495" lon="6.685073754730866">
				<ele>126.0</ele>
				<time>2011-02-16T16:24:47Z</time>
			</trkpt>
			<trkpt lat="50.89427885713103" lon="6.685051014008058">
				<ele>126.0</ele>
				<time>2011-02-16T16:24:48Z</time>
			</trkpt>
			<trkpt lat="50.89433353029266" lon="6.685001363062724">
				<ele>126.0</ele>
				<time>2011-02-16T16:24:49Z</time>
			</trkpt>
			<trkpt lat="50.89437488068222" lon="6.68492836714844">
				<ele>126.0</ele>
				<time>2011-02-16T16:24:50Z</time>
			</trkpt>
			<trkpt lat="50.89440047729624" lon="6.684837661481104">
				<ele>126.0</ele>
				<time>2011-02-16T16:24:51Z</time>
			</trkpt>
			<trkpt lat="50.89442282847543" lon="6.684740194816565">
				<ele>126.0</ele>
				<time>2011-02-16T16:24:52Z</time>
			</trkpt>
			<trkpt lat="50.89444436976732" lon="6.684641576795613">
				<ele>126.0</ele>
				<time>2011-02-16T16:24:53Z</time>
			</trkpt>
			<trkpt lat="50.89448671019946" lon="6.684558727643206">
				<ele>126.0</ele>
				<time>2011-02-16T16:24:54Z</time>
			</trkpt>
			<trkpt lat="50.894541073963886" lon="6.684493676501558">
				<ele>126.0</ele>
				<time>2011-02-16T16:24:55Z</time>
			</trkpt>
			<trkpt lat="50.894606272648346" lon="6.6844257405845795">
				<ele>126.0</ele>
				<time>2011-02-16T16:24:56Z</time>
			</trkpt>
			<trkpt lat="50.894678469137794" lon="6.684355697024568">
				<ele>125.0</ele>
				<time>2011-02-16T16:24:57Z</time>
			</trkpt>
			<trkpt lat="50.89475472563916" lon="6.684282760899731">
				<ele>125.0</ele>
				<time>2011-02-16T16:24:58Z</time>
			</trkpt>
			<trkpt lat="50.89483392880596" lon="6.6842061523258565">
				<ele>125.0</ele>
				<time>2011-02-16T16:24:59Z</time>
			</trkpt>
			<trkpt lat="50.89491436606013" lon="6.6841249109145595">
				<ele>125.0</ele>
				<time>2011-02-16T16:25:00Z</time>
			</trkpt>
			<trkpt lat="50.894993911016606" lon="6.684039909957444">
				<ele>125.0</ele>
				<time>2011-02-16T16:25:01Z</time>
			</trkpt>
			<trkpt lat="50.8950737811636" lon="6.683953152188488">
				<ele>125.0</ele>
				<time>2011-02-16T16:25:02Z</time>
			</trkpt>
			<trkpt lat="50.89514897315971" lon="6.683862832227735">
				<ele>125.0</ele>
				<time>2011-02-16T16:25:03Z</time>
			</trkpt>
			<trkpt lat="50.89522425489728" lon="6.6837646629924565">
				<ele>125.0</ele>
				<time>2011-02-16T16:25:04Z</time>
			</trkpt>
			<trkpt lat="50.895297711528784" lon="6.683661154310029">
				<ele>125.0</ele>
				<time>2011-02-16T16:25:05Z</time>
			</trkpt>
			<trkpt lat="50.89536485674493" lon="6.683549269833731">
				<ele>125.0</ele>
				<time>2011-02-16T16:25:06Z</time>
			</trkpt>
			<trkpt lat="50.89541047232052" lon="6.683415856991526">
				<ele>125.0</ele>
				<time>2011-02-16T16:25:07Z</time>
			</trkpt>
			<trkpt lat="50.89545194068475" lon="6.683285243830299">
				<ele>125.0</ele>
				<time>2011-02-16T16:25:08Z</time>
			</trkpt>
			<trkpt lat="50.895486372486346" lon="6.683154282426059">
				<ele>125.0</ele>
				<time>2011-02-16T16:25:09Z</time>
			</trkpt>
			<trkpt lat="50.89550243228574" lon="6.683013858901179">
				<ele>125.0</ele>
				<time>2011-02-16T16:25:10Z</time>
			</trkpt>
			<trkpt lat="50.89551512209133" lon="6.682871751632284">
				<ele>125.0</ele>
				<time>2011-02-16T16:25:11Z</time>
			</trkpt>
			<trkpt lat="50.89552307380752" lon="6.682729213561326">
				<ele>125.0</ele>
				<time>2011-02-16T16:25:12Z</time>
			</trkpt>
			<trkpt lat="50.89552517376352" lon="6.682584712046926">
				<ele>125.0</ele>
				<time>2011-02-16T16:25:13Z</time>
			</trkpt>
			<trkpt lat="50.89550691254137" lon="6.682438566229334">
				<ele>125.0</ele>
				<time>2011-02-16T16:25:14Z</time>
			</trkpt>
			<trkpt lat="50.89548787378" lon="6.682292036453584">
				<ele>124.0</ele>
				<time>2011-02-16T16:25:15Z</time>
			</trkpt>
			<trkpt lat="50.89546356881441" lon="6.682146250720095">
				<ele>124.0</ele>
				<time>2011-02-16T16:25:16Z</time>
			</trkpt>
			<trkpt lat="50.895434768382835" lon="6.682004898618924">
				<ele>124.0</ele>
				<time>2011-02-16T16:25:17Z</time>
			</trkpt>
			<trkpt lat="50.89539945586444" lon="6.681866498492049">
				<ele>124.0</ele>
				<time>2011-02-16T16:25:18Z</time>
			</trkpt>
			<trkpt lat="50.895345292773605" lon="6.681736896257842">
				<ele>124.0</ele>
				<time>2011-02-16T16:25:19Z</time>
			</trkpt>
			<trkpt lat="50.8952871546748" lon="6.681609335162343">
				<ele>124.0</ele>
				<time>2011-02-16T16:25:20Z</time>
			</trkpt>
			<trkpt lat="50.89522170479797" lon="6.681487691700857">
				<ele>124.0</ele>
				<time>2011-02-16T16:25:21Z</time>
			</trkpt>
			<trkpt lat="50.895137944602624" lon="6.681387769471989">
				<ele>124.0</ele>
				<time>2011-02-16T16:25:22Z</time>
			</trkpt>
			<trkpt lat="50.89505306964459" lon="6.681287554875932">
				<ele>124.0</ele>
				<time>2011-02-16T16:25:23Z</time>
			</trkpt>
			<trkpt lat="50.89496858300315" lon="6.681192962132834">
				<ele>124.0</ele>
				<time>2011-02-16T16:25:24Z</time>
			</trkpt>
			<trkpt lat="50.89488125090434" lon="6.681096113613633">
				<ele>124.0</ele>
				<time>2011-02-16T16:25:25Z</time>
			</trkpt>
			<trkpt lat="50.89478926402504" lon="6.680998343174399">
				<ele>124.0</ele>
				<time>2011-02-16T16:25:26Z</time>
			</trkpt>
			<trkpt lat="50.89469457692798" lon="6.680896618557883">
				<ele>124.0</ele>
				<time>2011-02-16T16:25:27Z</time>
			</trkpt>
			<trkpt lat="50.89460090504136" lon="6.680787693063914">
				<ele>125.0</ele>
				<time>2011-02-16T16:25:28Z</time>
			</trkpt>
			<trkpt lat="50.89451105534123" lon="6.680666012535811">
				<ele>125.0</ele>
				<time>2011-02-16T16:25:29Z</time>
			</trkpt>
			<trkpt lat="50.894429528033086" lon="6.6805345453753295">
				<ele>125.0</ele>
				<time>2011-02-16T16:25:30Z</time>
			</trkpt>
			<trkpt lat="50.89435592298259" lon="6.680393615404388">
				<ele>125.0</ele>
				<time>2011-02-16T16:25:31Z</time>
			</trkpt>
			<trkpt lat="50.89430087232741" lon="6.6802334341343785">
				<ele>125.0</ele>
				<time>2011-02-16T16:25:32Z</time>
			</trkpt>
			<trkpt lat="50.89424878262082" lon="6.6800696234993895">
				<ele>125.0</ele>
				<time>2011-02-16T16:25:33Z</time>
			</trkpt>
			<trkpt lat="50.89420224450201" lon="6.679901172295597">
				<ele>125.0</ele>
				<time>2011-02-16T16:25:34Z</time>
			</trkpt>
			<trkpt lat="50.894163345469536" lon="6.679727511121922">
				<ele>125.0</ele>
				<time>2011-02-16T16:25:35Z</time>
			</trkpt>
			<trkpt lat="50.89413336349321" lon="6.6795480539201675">
				<ele>125.0</ele>
				<time>2011-02-16T16:25:36Z</time>
			</trkpt>
			<trkpt lat="50.894109656089896" lon="6.679363829012265">
				<ele>125.0</ele>
				<time>2011-02-16T16:25:37Z</time>
			</trkpt>
			<trkpt lat="50.89409256102682" lon="6.67917463217962">
				<ele>125.0</ele>
				<time>2011-02-16T16:25:38Z</time>
			</trkpt>
			<trkpt lat="50.89408019122331" lon="6.678983980577935">
				<ele>126.0</ele>
				<time>2011-02-16T16:25:39Z</time>
			</trkpt>
			<trkpt lat="50.89407058652366" lon="6.678793139053553">
				<ele>126.0</ele>
				<time>2011-02-16T16:25:40Z</time>
			</trkpt>
			<trkpt lat="50.894061117516856" lon="6.67860382333226">
				<ele>125.0</ele>
				<time>2011-02-16T16:25:41Z</time>
			</trkpt>
			<trkpt lat="50.89405627841862" lon="6.678416900782238">
				<ele>125.0</ele>
				<time>2011-02-16T16:25:42Z</time>
			</trkpt>
			<trkpt lat="50.89405565007165" lon="6.678235113030032">
				<ele>125.0</ele>
				<time>2011-02-16T16:25:43Z</time>
			</trkpt>
			<trkpt lat="50.89405753069028" lon="6.678072660342566">
				<ele>125.0</ele>
				<time>2011-02-16T16:25:44Z</time>
			</trkpt>
			<trkpt lat="50.8940591640726" lon="6.677925635677056">
				<ele>125.0</ele>
				<time>2011-02-16T16:25:45Z</time>
			</trkpt>
			<trkpt lat="50.89406173977739" lon="6.677789440587516">
				<ele>125.0</ele>
				<time>2011-02-16T16:25:46Z</time>
			</trkpt>
			<trkpt lat="50.894063846060654" lon="6.677660218818074">
				<ele>125.0</ele>
				<time>2011-02-16T16:25:47Z</time>
			</trkpt>
			<trkpt lat="50.89406705058875" lon="6.677540079683785">
				<ele>126.0</ele>
				<time>2011-02-16T16:25:48Z</time>
			</trkpt>
			<trkpt lat="50.89406970784787" lon="6.6774297606230455">
				<ele>125.0</ele>
				<time>2011-02-16T16:25:49Z</time>
			</trkpt>
			<trkpt lat="50.894073793920484" lon="6.677326352115382">
				<ele>125.0</ele>
				<time>2011-02-16T16:25:50Z</time>
			</trkpt>
			<trkpt lat="50.89409267280232" lon="6.677236165096459">
				<ele>125.0</ele>
				<time>2011-02-16T16:25:51Z</time>
			</trkpt>
			<trkpt lat="50.894129457616735" lon="6.677158381079568">
				<ele>125.0</ele>
				<time>2011-02-16T16:25:52Z</time>
			</trkpt>
			<trkpt lat="50.89417427965781" lon="6.677071282276532">
				<ele>125.0</ele>
				<time>2011-02-16T16:25:53Z</time>
			</trkpt>
			<trkpt lat="50.89422663797287" lon="6.6769731019960314">
				<ele>125.0</ele>
				<time>2011-02-16T16:25:54Z</time>
			</trkpt>
			<trkpt lat="50.89428872291835" lon="6.67686867633856">
				<ele>125.0</ele>
				<time>2011-02-16T16:25:55Z</time>
			</trkpt>
			<trkpt lat="50.89436496003197" lon="6.676789211953133">
				<ele>125.0</ele>
				<time>2011-02-16T16:25:56Z</time>
			</trkpt>
			<trkpt lat="50.89444717468116" lon="6.676705577194904">
				<ele>125.0</ele>
				<time>2011-02-16T16:25:57Z</time>
			</trkpt>
			<trkpt lat="50.894528523795394" lon="6.67662406043314">
				<ele>125.0</ele>
				<time>2011-02-16T16:25:58Z</time>
			</trkpt>
			<trkpt lat="50.894612137118806" lon="6.676539286988044">
				<ele>124.0</ele>
				<time>2011-02-16T16:25:59Z</time>
			</trkpt>
			<trkpt lat="50.89469019140562" lon="6.6764534223901215">
				<ele>124.0</ele>
				<time>2011-02-16T16:26:00Z</time>
			</trkpt>
			<trkpt lat="50.894762682014544" lon="6.676368938367401">
				<ele>124.0</ele>
				<time>2011-02-16T16:26:01Z</time>
			</trkpt>
			<trkpt lat="50.894835898892346" lon="6.676284158285118">
				<ele>124.0</ele>
				<time>2011-02-16T16:26:02Z</time>
			</trkpt>
			<trkpt lat="50.89490335015413" lon="6.676207117915682">
				<ele>124.0</ele>
				<time>2011-02-16T16:26:03Z</time>
			</trkpt>
			<trkpt lat="50.894969929493406" lon="6.676131784917485">
				<ele>124.0</ele>
				<time>2011-02-16T16:26:04Z</time>
			</trkpt>
			<trkpt lat="50.89502981423591" lon="6.6760623305608195">
				<ele>124.0</ele>
				<time>2011-02-16T16:26:05Z</time>
			</trkpt>
			<trkpt lat="50.89509008377809" lon="6.67599283750877">
				<ele>124.0</ele>
				<time>2011-02-16T16:26:06Z</time>
			</trkpt>
			<trkpt lat="50.895146210504" lon="6.675930478666185">
				<ele>124.0</ele>
				<time>2011-02-16T16:26:07Z</time>
			</trkpt>
			<trkpt lat="50.89519098478878" lon="6.675881029203524">
				<ele>124.0</ele>
				<time>2011-02-16T16:26:08Z</time>
			</trkpt>
			<trkpt lat="50.89521777524043" lon="6.6758517121604966">
				<ele>124.0</ele>
				<time>2011-02-16T16:26:09Z</time>
			</trkpt>
			<trkpt lat="50.89523528715209" lon="6.675831166091438">
				<ele>124.0</ele>
				<time>2011-02-16T16:26:10Z</time>
			</trkpt>
			<trkpt lat="50.8952490028783" lon="6.675814904753801">
				<ele>124.0</ele>
				<time>2011-02-16T16:26:11Z</time>
			</trkpt>
			<trkpt lat="50.89526276523721" lon="6.675798670591162">
				<ele>124.0</ele>
				<time>2011-02-16T16:26:12Z</time>
			</trkpt>
			<trkpt lat="50.895281321079885" lon="6.675776867945758">
				<ele>124.0</ele>
				<time>2011-02-16T16:26:13Z</time>
			</trkpt>
			<trkpt lat="50.89530207438204" lon="6.675752769713143">
				<ele>124.0</ele>
				<time>2011-02-16T16:26:14Z</time>
			</trkpt>
			<trkpt lat="50.89532190150385" lon="6.675732523894192">
				<ele>124.0</ele>
				<time>2011-02-16T16:26:15Z</time>
			</trkpt>
			<trkpt lat="50.89534535571327" lon="6.675721279833757">
				<ele>124.0</ele>
				<time>2011-02-16T16:26:16Z</time>
			</trkpt>
			<trkpt lat="50.895378917346044" lon="6.675707185856294">
				<ele>124.0</ele>
				<time>2011-02-16T16:26:17Z</time>
			</trkpt>
			<trkpt lat="50.89542049901033" lon="6.675692171346876">
				<ele>124.0</ele>
				<time>2011-02-16T16:26:18Z</time>
			</trkpt>
			<trkpt lat="50.895464741174635" lon="6.675673811301009">
				<ele>124.0</ele>
				<time>2011-02-16T16:26:19Z</time>
			</trkpt>
			<trkpt lat="50.89550281348742" lon="6.675632267510939">
				<ele>124.0</ele>
				<time>2011-02-16T16:26:20Z</time>
			</trkpt>
			<trkpt lat="50.89552616306059" lon="6.675567721886803">
				<ele>125.0</ele>
				<time>2011-02-16T16:26:21Z</time>
			</trkpt>
			<trkpt lat="50.89553400193632" lon="6.675495438364671">
				<ele>125.0</ele>
				<time>2011-02-16T16:26:22Z</time>
			</trkpt>
			<trkpt lat="50.895522243520695" lon="6.675423764505061">
				<ele>125.0</ele>
				<time>2011-02-16T16:26:23Z</time>
			</trkpt>
			<trkpt lat="50.895505458019244" lon="6.675340387209464">
				<ele>125.0</ele>
				<time>2011-02-16T16:26:24Z</time>
			</trkpt>
			<trkpt lat="50.89548452577049" lon="6.675238302730019">
				<ele>125.0</ele>
				<time>2011-02-16T16:26:25Z</time>
			</trkpt>
			<trkpt lat="50.895464496856604" lon="6.675135119611051">
				<ele>125.0</ele>
				<time>2011-02-16T16:26:26Z</time>
			</trkpt>
			<trkpt lat="50.89546320589813" lon="6.675019226860764">
				<ele>125.0</ele>
				<time>2011-02-16T16:26:27Z</time>
			</trkpt>
			<trkpt lat="50.895461832334156" lon="6.674889223129656">
				<ele>126.0</ele>
				<time>2011-02-16T16:26:28Z</time>
			</trkpt>
			<trkpt lat="50.89546006899143" lon="6.674747404983451">
				<ele>126.0</ele>
				<time>2011-02-16T16:26:29Z</time>
			</trkpt>
			<trkpt lat="50.89545326456055" lon="6.674593156092149">
				<ele>126.0</ele>
				<time>2011-02-16T16:26:30Z</time>
			</trkpt>
			<trkpt lat="50.89543852195312" lon="6.674432386655103">
				<ele>126.0</ele>
				<time>2011-02-16T16:26:31Z</time>
			</trkpt>
			<trkpt lat="50.89541584389768" lon="6.674272353764538">
				<ele>126.0</ele>
				<time>2011-02-16T16:26:32Z</time>
			</trkpt>
			<trkpt lat="50.89538573493273" lon="6.674111268240729">
				<ele>127.0</ele>
				<time>2011-02-16T16:26:33Z</time>
			</trkpt>
			<trkpt lat="50.89534882702996" lon="6.673942184218473">
				<ele>127.0</ele>
				<time>2011-02-16T16:26:34Z</time>
			</trkpt>
			<trkpt lat="50.89530852182065" lon="6.673768368124033">
				<ele>127.0</ele>
				<time>2011-02-16T16:26:35Z</time>
			</trkpt>
			<trkpt lat="50.89526488497761" lon="6.673588193532176">
				<ele>127.0</ele>
				<time>2011-02-16T16:26:36Z</time>
			</trkpt>
			<trkpt lat="50.89521617714965" lon="6.673402242211288">
				<ele>127.0</ele>
				<time>2011-02-16T16:26:37Z</time>
			</trkpt>
			<trkpt lat="50.89516280561402" lon="6.6732140965816065">
				<ele>126.0</ele>
				<time>2011-02-16T16:26:38Z</time>
			</trkpt>
			<trkpt lat="50.8951048118454" lon="6.67302367390598">
				<ele>126.0</ele>
				<time>2011-02-16T16:26:39Z</time>
			</trkpt>
			<trkpt lat="50.895045454806294" lon="6.672829754909069">
				<ele>126.0</ele>
				<time>2011-02-16T16:26:40Z</time>
			</trkpt>
			<trkpt lat="50.894981444105326" lon="6.672635985869608">
				<ele>126.0</ele>
				<time>2011-02-16T16:26:41Z</time>
			</trkpt>
			<trkpt lat="50.894916164255186" lon="6.672438390370335">
				<ele>127.0</ele>
				<time>2011-02-16T16:26:42Z</time>
			</trkpt>
			<trkpt lat="50.89484818574276" lon="6.672243343338367">
				<ele>127.0</ele>
				<time>2011-02-16T16:26:43Z</time>
			</trkpt>
			<trkpt lat="50.89478045691835" lon="6.672048462434644">
				<ele>127.0</ele>
				<time>2011-02-16T16:26:44Z</time>
			</trkpt>
			<trkpt lat="50.89471137639602" lon="6.671857103491227">
				<ele>127.0</ele>
				<time>2011-02-16T16:26:45Z</time>
			</trkpt>
			<trkpt lat="50.89464110742882" lon="6.671659355746629">
				<ele>127.0</ele>
				<time>2011-02-16T16:26:46Z</time>
			</trkpt>
			<trkpt lat="50.8945695547307" lon="6.671456350813922">
				<ele>127.0</ele>
				<time>2011-02-16T16:26:47Z</time>
			</trkpt>
			<trkpt lat="50.89449752129752" lon="6.671251182747368">
				<ele>127.0</ele>
				<time>2011-02-16T16:26:48Z</time>
			</trkpt>
			<trkpt lat="50.894425197924114" lon="6.671044810300746">
				<ele>127.0</ele>
				<time>2011-02-16T16:26:49Z</time>
			</trkpt>
			<trkpt lat="50.894353558580534" lon="6.670840454145965">
				<ele>128.0</ele>
				<time>2011-02-16T16:26:50Z</time>
			</trkpt>
			<trkpt lat="50.89428258722784" lon="6.670638210785056">
				<ele>128.0</ele>
				<time>2011-02-16T16:26:51Z</time>
			</trkpt>
			<trkpt lat="50.8942115071425" lon="6.670436309960308">
				<ele>128.0</ele>
				<time>2011-02-16T16:26:52Z</time>
			</trkpt>
			<trkpt lat="50.89413889646278" lon="6.67023846730346">
				<ele>128.0</ele>
				<time>2011-02-16T16:26:53Z</time>
			</trkpt>
			<trkpt lat="50.894067504819525" lon="6.670042509464106">
				<ele>128.0</ele>
				<time>2011-02-16T16:26:54Z</time>
			</trkpt>
			<trkpt lat="50.893997712904905" lon="6.669849354210274">
				<ele>128.0</ele>
				<time>2011-02-16T16:26:55Z</time>
			</trkpt>
			<trkpt lat="50.89392934616816" lon="6.669658666532154">
				<ele>128.0</ele>
				<time>2011-02-16T16:26:56Z</time>
			</trkpt>
			<trkpt lat="50.893862280386806" lon="6.669470356787391">
				<ele>128.0</ele>
				<time>2011-02-16T16:26:57Z</time>
			</trkpt>
			<trkpt lat="50.893796615625774" lon="6.669285551164899">
				<ele>128.0</ele>
				<time>2011-02-16T16:26:58Z</time>
			</trkpt>
			<trkpt lat="50.89373231562146" lon="6.669104653941637">
				<ele>128.0</ele>
				<time>2011-02-16T16:26:59Z</time>
			</trkpt>
			<trkpt lat="50.89366960839188" lon="6.668927428636997">
				<ele>128.0</ele>
				<time>2011-02-16T16:27:00Z</time>
			</trkpt>
			<trkpt lat="50.89360840645222" lon="6.668752433499254">
				<ele>128.0</ele>
				<time>2011-02-16T16:27:01Z</time>
			</trkpt>
			<trkpt lat="50.89354899360929" lon="6.668580234644295">
				<ele>128.0</ele>
				<time>2011-02-16T16:27:02Z</time>
			</trkpt>
			<trkpt lat="50.89349395773724" lon="6.668409536757005">
				<ele>128.0</ele>
				<time>2011-02-16T16:27:03Z</time>
			</trkpt>
			<trkpt lat="50.89344286147068" lon="6.668240934341673">
				<ele>128.0</ele>
				<time>2011-02-16T16:27:04Z</time>
			</trkpt>
			<trkpt lat="50.89340119808827" lon="6.668080255796409">
				<ele>128.0</ele>
				<time>2011-02-16T16:27:05Z</time>
			</trkpt>
			<trkpt lat="50.89337328318885" lon="6.667935095358156">
				<ele>128.0</ele>
				<time>2011-02-16T16:27:06Z</time>
			</trkpt>
			<trkpt lat="50.893370502335046" lon="6.667804698926706">
				<ele>128.0</ele>
				<time>2011-02-16T16:27:07Z</time>
			</trkpt>
			<trkpt lat="50.89338282676099" lon="6.667689704465467">
				<ele>128.0</ele>
				<time>2011-02-16T16:27:08Z</time>
			</trkpt>
			<trkpt lat="50.89341153417762" lon="6.667592960188086">
				<ele>128.0</ele>
				<time>2011-02-16T16:27:09Z</time>
			</trkpt>
			<trkpt lat="50.89345492088437" lon="6.667516370249701">
				<ele>128.0</ele>
				<time>2011-02-16T16:27:10Z</time>
			</trkpt>
			<trkpt lat="50.89350685026456" lon="6.667466767363832">
				<ele>128.0</ele>
				<time>2011-02-16T16:27:11Z</time>
			</trkpt>
			<trkpt lat="50.893562710372514" lon="6.667421175556295">
				<ele>128.0</ele>
				<time>2011-02-16T16:27:12Z</time>
			</trkpt>
			<trkpt lat="50.89362907817425" lon="6.667376794465537">
				<ele>128.0</ele>
				<time>2011-02-16T16:27:13Z</time>
			</trkpt>
			<trkpt lat="50.893706003157796" lon="6.667332896511744">
				<ele>128.0</ele>
				<time>2011-02-16T16:27:14Z</time>
			</trkpt>
			<trkpt lat="50.893792286141654" lon="6.667285766525226">
				<ele>128.0</ele>
				<time>2011-02-16T16:27:15Z</time>
			</trkpt>
			<trkpt lat="50.893886956681825" lon="6.667238761190663">
				<ele>128.0</ele>
				<time>2011-02-16T16:27:16Z</time>
			</trkpt>
			<trkpt lat="50.89398380889503" lon="6.6671910155251055">
				<ele>128.0</ele>
				<time>2011-02-16T16:27:17Z</time>
			</trkpt>
			<trkpt lat="50.89408425506153" lon="6.667141799127465">
				<ele>128.0</ele>
				<time>2011-02-16T16:27:18Z</time>
			</trkpt>
			<trkpt lat="50.894189869148875" lon="6.667089469514348">
				<ele>128.0</ele>
				<time>2011-02-16T16:27:19Z</time>
			</trkpt>
			<trkpt lat="50.89429874580793" lon="6.667034220505555">
				<ele>128.0</ele>
				<time>2011-02-16T16:27:20Z</time>
			</trkpt>
			<trkpt lat="50.8944072378023" lon="6.666973006749321">
				<ele>129.0</ele>
				<time>2011-02-16T16:27:21Z</time>
			</trkpt>
			<trkpt lat="50.894515551987084" lon="6.666911227142682">
				<ele>129.0</ele>
				<time>2011-02-16T16:27:22Z</time>
			</trkpt>
			<trkpt lat="50.89462159635219" lon="6.6668448517149725">
				<ele>129.0</ele>
				<time>2011-02-16T16:27:23Z</time>
			</trkpt>
			<trkpt lat="50.894721481639884" lon="6.666777554089463">
				<ele>129.0</ele>
				<time>2011-02-16T16:27:24Z</time>
			</trkpt>
			<trkpt lat="50.89481818717758" lon="6.666707421094233">
				<ele>129.0</ele>
				<time>2011-02-16T16:27:25Z</time>
			</trkpt>
			<trkpt lat="50.894911780132226" lon="6.666634100473083">
				<ele>128.0</ele>
				<time>2011-02-16T16:27:26Z</time>
			</trkpt>
			<trkpt lat="50.89500157178901" lon="6.666559101789406">
				<ele>128.0</ele>
				<time>2011-02-16T16:27:27Z</time>
			</trkpt>
			<trkpt lat="50.89508114319193" lon="6.66648750631052">
				<ele>127.0</ele>
				<time>2011-02-16T16:27:28Z</time>
			</trkpt>
			<trkpt lat="50.89514871199085" lon="6.666426444565313">
				<ele>127.0</ele>
				<time>2011-02-16T16:27:29Z</time>
			</trkpt>
			<trkpt lat="50.895201348501615" lon="6.6663790802096825">
				<ele>127.0</ele>
				<time>2011-02-16T16:27:30Z</time>
			</trkpt>
			<trkpt lat="50.895241423257104" lon="6.666342765698819">
				<ele>127.0</ele>
				<time>2011-02-16T16:27:31Z</time>
			</trkpt>
			<trkpt lat="50.89527350851559" lon="6.66631208091869">
				<ele>127.0</ele>
				<time>2011-02-16T16:27:32Z</time>
			</trkpt>
			<trkpt lat="50.89530308283992" lon="6.666284731549551">
				<ele>127.0</ele>
				<time>2011-02-16T16:27:33Z</time>
			</trkpt>
			<trkpt lat="50.89533670840555" lon="6.66625408605438">
				<ele>127.0</ele>
				<time>2011-02-16T16:27:34Z</time>
			</trkpt>
			<trkpt lat="50.89538027991116" lon="6.666215524628788">
				<ele>126.0</ele>
				<time>2011-02-16T16:27:35Z</time>
			</trkpt>
			<trkpt lat="50.89543388848177" lon="6.6661687008739285">
				<ele>126.0</ele>
				<time>2011-02-16T16:27:36Z</time>
			</trkpt>
			<trkpt lat="50.89548778088274" lon="6.6661221581385925">
				<ele>126.0</ele>
				<time>2011-02-16T16:27:37Z</time>
			</trkpt>
			<trkpt lat="50.8955458752635" lon="6.66607181896392">
				<ele>126.0</ele>
				<time>2011-02-16T16:27:38Z</time>
			</trkpt>
			<trkpt lat="50.8956083065015" lon="6.66601737011426">
				<ele>125.0</ele>
				<time>2011-02-16T16:27:39Z</time>
			</trkpt>
			<trkpt lat="50.89567085501128" lon="6.665962424446477">
				<ele>125.0</ele>
				<time>2011-02-16T16:27:40Z</time>
			</trkpt>
			<trkpt lat="50.8957367716293" lon="6.665903159820533">
				<ele>125.0</ele>
				<time>2011-02-16T16:27:41Z</time>
			</trkpt>
			<trkpt lat="50.89580342881402" lon="6.665840759221411">
				<ele>125.0</ele>
				<time>2011-02-16T16:27:42Z</time>
			</trkpt>
			<trkpt lat="50.89586919316017" lon="6.665777770222836">
				<ele>125.0</ele>
				<time>2011-02-16T16:27:43Z</time>
			</trkpt>
			<trkpt lat="50.89593305798122" lon="6.665712917137904">
				<ele>126.0</ele>
				<time>2011-02-16T16:27:44Z</time>
			</trkpt>
			<trkpt lat="50.895997045985425" lon="6.665647867355122">
				<ele>126.0</ele>
				<time>2011-02-16T16:27:45Z</time>
			</trkpt>
			<trkpt lat="50.89606131655942" lon="6.6655854157840615">
				<ele>126.0</ele>
				<time>2011-02-16T16:27:46Z</time>
			</trkpt>
			<trkpt lat="50.89612647255742" lon="6.665525960688134">
				<ele>126.0</ele>
				<time>2011-02-16T16:27:47Z</time>
			</trkpt>
			<trkpt lat="50.89618814447416" lon="6.665469404336223">
				<ele>126.0</ele>
				<time>2011-02-16T16:27:48Z</time>
			</trkpt>
			<trkpt lat="50.89624884881138" lon="6.665414174608531">
				<ele>126.0</ele>
				<time>2011-02-16T16:27:49Z</time>
			</trkpt>
			<trkpt lat="50.89630788340594" lon="6.665368919630602">
				<ele>126.0</ele>
				<time>2011-02-16T16:27:50Z</time>
			</trkpt>
			<trkpt lat="50.896370648711404" lon="6.665360175688675">
				<ele>126.0</ele>
				<time>2011-02-16T16:27:51Z</time>
			</trkpt>
			<trkpt lat="50.89642732979727" lon="6.665369749584739">
				<ele>126.0</ele>
				<time>2011-02-16T16:27:52Z</time>
			</trkpt>
			<trkpt lat="50.89647795713754" lon="6.6653794657555485">
				<ele>126.0</ele>
				<time>2011-02-16T16:27:53Z</time>
			</trkpt>
			<trkpt lat="50.89652743642891" lon="6.665366432189228">
				<ele>126.0</ele>
				<time>2011-02-16T16:27:54Z</time>
			</trkpt>
			<trkpt lat="50.89656659629798" lon="6.665327915874244">
				<ele>127.0</ele>
				<time>2011-02-16T16:27:55Z</time>
			</trkpt>
			<trkpt lat="50.896580539691314" lon="6.665272014494014">
				<ele>127.0</ele>
				<time>2011-02-16T16:27:56Z</time>
			</trkpt>
			<trkpt lat="50.89657268737755" lon="6.665220863682227">
				<ele>127.0</ele>
				<time>2011-02-16T16:27:57Z</time>
			</trkpt>
			<trkpt lat="50.896547137927755" lon="6.665188429386942">
				<ele>127.0</ele>
				<time>2011-02-16T16:27:58Z</time>
			</trkpt>
			<trkpt lat="50.89651143847158" lon="6.66518709662732">
				<ele>127.0</ele>
				<time>2011-02-16T16:27:59Z</time>
			</trkpt>
			<trkpt lat="50.89647078407336" lon="6.665208564354132">
				<ele>128.0</ele>
				<time>2011-02-16T16:28:00Z</time>
			</trkpt>
			<trkpt lat="50.89642160099099" lon="6.665241803541529">
				<ele>128.0</ele>
				<time>2011-02-16T16:28:01Z</time>
			</trkpt>
			<trkpt lat="50.896363692161856" lon="6.665285453530054">
				<ele>128.0</ele>
				<time>2011-02-16T16:28:02Z</time>
			</trkpt>
			<trkpt lat="50.89630019056463" lon="6.665337527560198">
				<ele>128.0</ele>
				<time>2011-02-16T16:28:03Z</time>
			</trkpt>
			<trkpt lat="50.896235262053175" lon="6.665392028398945">
				<ele>129.0</ele>
				<time>2011-02-16T16:28:04Z</time>
			</trkpt>
			<trkpt lat="50.896167609618196" lon="6.665454094808629">
				<ele>129.0</ele>
				<time>2011-02-16T16:28:05Z</time>
			</trkpt>
			<trkpt lat="50.89609966313863" lon="6.665517690046269">
				<ele>129.0</ele>
				<time>2011-02-16T16:28:06Z</time>
			</trkpt>
			<trkpt lat="50.89603076693398" lon="6.6655841519469">
				<ele>129.0</ele>
				<time>2011-02-16T16:28:07Z</time>
			</trkpt>
			<trkpt lat="50.89596221078883" lon="6.665649905049606">
				<ele>129.0</ele>
				<time>2011-02-16T16:28:08Z</time>
			</trkpt>
			<trkpt lat="50.89589338092771" lon="6.6657161321248655">
				<ele>129.0</ele>
				<time>2011-02-16T16:28:09Z</time>
			</trkpt>
			<trkpt lat="50.895824612883935" lon="6.665783741748363">
				<ele>129.0</ele>
				<time>2011-02-16T16:28:10Z</time>
			</trkpt>
			<trkpt lat="50.895756042668324" lon="6.66585012940174">
				<ele>129.0</ele>
				<time>2011-02-16T16:28:11Z</time>
			</trkpt>
			<trkpt lat="50.895691599498306" lon="6.665911856074926">
				<ele>129.0</ele>
				<time>2011-02-16T16:28:12Z</time>
			</trkpt>
			<trkpt lat="50.89562980404069" lon="6.665971034342199">
				<ele>129.0</ele>
				<time>2011-02-16T16:28:13Z</time>
			</trkpt>
			<trkpt lat="50.895571300183846" lon="6.666026936966163">
				<ele>129.0</ele>
				<time>2011-02-16T16:28:14Z</time>
			</trkpt>
			<trkpt lat="50.89551505768377" lon="6.6660808651378565">
				<ele>129.0</ele>
				<time>2011-02-16T16:28:15Z</time>
			</trkpt>
			<trkpt lat="50.89546029162773" lon="6.666131996960512">
				<ele>129.0</ele>
				<time>2011-02-16T16:28:16Z</time>
			</trkpt>
			<trkpt lat="50.89540614159913" lon="6.666172829934496">
				<ele>129.0</ele>
				<time>2011-02-16T16:28:17Z</time>
			</trkpt>
			<trkpt lat="50.895353003611916" lon="6.666182776428023">
				<ele>129.0</ele>
				<time>2011-02-16T16:28:18Z</time>
			</trkpt>
			<trkpt lat="50.8953060221179" lon="6.666152195588719">
				<ele>129.0</ele>
				<time>2011-02-16T16:28:19Z</time>
			</trkpt>
			<trkpt lat="50.895261347305166" lon="6.666095572061129">
				<ele>129.0</ele>
				<time>2011-02-16T16:28:20Z</time>
			</trkpt>
			<trkpt lat="50.895212981171746" lon="6.66602182852747">
				<ele>130.0</ele>
				<time>2011-02-16T16:28:21Z</time>
			</trkpt>
			<trkpt lat="50.89516364998714" lon="6.6659294808741025">
				<ele>130.0</ele>
				<time>2011-02-16T16:28:22Z</time>
			</trkpt>
			<trkpt lat="50.89511347021563" lon="6.665821379260661">
				<ele>130.0</ele>
				<time>2011-02-16T16:28:23Z</time>
			</trkpt>
			<trkpt lat="50.895062410904146" lon="6.665700689589096">
				<ele>130.0</ele>
				<time>2011-02-16T16:28:24Z</time>
			</trkpt>
			<trkpt lat="50.8950070620491" lon="6.66556806440326">
				<ele>130.0</ele>
				<time>2011-02-16T16:28:25Z</time>
			</trkpt>
			<trkpt lat="50.894954827006096" lon="6.665434681208315">
				<ele>130.0</ele>
				<time>2011-02-16T16:28:26Z</time>
			</trkpt>
			<trkpt lat="50.89490285908996" lon="6.665301625894065">
				<ele>130.0</ele>
				<time>2011-02-16T16:28:27Z</time>
			</trkpt>
			<trkpt lat="50.894853545337085" lon="6.6651713077887695">
				<ele>131.0</ele>
				<time>2011-02-16T16:28:28Z</time>
			</trkpt>
			<trkpt lat="50.89480460124628" lon="6.665040461114284">
				<ele>131.0</ele>
				<time>2011-02-16T16:28:29Z</time>
			</trkpt>
			<trkpt lat="50.89475783903753" lon="6.664904929548628">
				<ele>131.0</ele>
				<time>2011-02-16T16:28:30Z</time>
			</trkpt>
			<trkpt lat="50.89471200542188" lon="6.664772010916651">
				<ele>131.0</ele>
				<time>2011-02-16T16:28:31Z</time>
			</trkpt>
			<trkpt lat="50.894666221355706" lon="6.664641275882394">
				<ele>130.0</ele>
				<time>2011-02-16T16:28:32Z</time>
			</trkpt>
			<trkpt lat="50.89462083354723" lon="6.664513509040148">
				<ele>130.0</ele>
				<time>2011-02-16T16:28:33Z</time>
			</trkpt>
			<trkpt lat="50.89457605242382" lon="6.6643899561576205">
				<ele>130.0</ele>
				<time>2011-02-16T16:28:34Z</time>
			</trkpt>
			<trkpt lat="50.89453176862961" lon="6.664269253153485">
				<ele>130.0</ele>
				<time>2011-02-16T16:28:35Z</time>
			</trkpt>
			<trkpt lat="50.894489053469286" lon="6.664152843313519">
				<ele>130.0</ele>
				<time>2011-02-16T16:28:36Z</time>
			</trkpt>
			<trkpt lat="50.89444757803315" lon="6.664044058394196">
				<ele>130.0</ele>
				<time>2011-02-16T16:28:37Z</time>
			</trkpt>
			<trkpt lat="50.8944128614995" lon="6.663952908667097">
				<ele>130.0</ele>
				<time>2011-02-16T16:28:38Z</time>
			</trkpt>
			<trkpt lat="50.894381672492564" lon="6.663870140235497">
				<ele>130.0</ele>
				<time>2011-02-16T16:28:39Z</time>
			</trkpt>
			<trkpt lat="50.89435409034937" lon="6.663792242431031">
				<ele>130.0</ele>
				<time>2011-02-16T16:28:40Z</time>
			</trkpt>
			<trkpt lat="50.89432424121865" lon="6.663708080310011">
				<ele>130.0</ele>
				<time>2011-02-16T16:28:41Z</time>
			</trkpt>
			<trkpt lat="50.89428973274457" lon="6.663623476613714">
				<ele>130.0</ele>
				<time>2011-02-16T16:28:42Z</time>
			</trkpt>
			<trkpt lat="50.89425163995316" lon="6.663540880782894">
				<ele>130.0</ele>
				<time>2011-02-16T16:28:43Z</time>
			</trkpt>
			<trkpt lat="50.89421401605818" lon="6.663465047127054">
				<ele>130.0</ele>
				<time>2011-02-16T16:28:44Z</time>
			</trkpt>
			<trkpt lat="50.89417999378543" lon="6.6633961324546425">
				<ele>130.0</ele>
				<time>2011-02-16T16:28:45Z</time>
			</trkpt>
			<trkpt lat="50.89414816594367" lon="6.663331833389855">
				<ele>130.0</ele>
				<time>2011-02-16T16:28:46Z</time>
			</trkpt>
			<trkpt lat="50.89411059518478" lon="6.663292940040762">
				<ele>130.0</ele>
				<time>2011-02-16T16:28:47Z</time>
			</trkpt>
			<trkpt lat="50.89407281736132" lon="6.66329496355755">
				<ele>130.0</ele>
				<time>2011-02-16T16:28:48Z</time>
			</trkpt>
			<trkpt lat="50.89404649451529" lon="6.6633323020791675">
				<ele>130.0</ele>
				<time>2011-02-16T16:28:49Z</time>
			</trkpt>
			<trkpt lat="50.89402466806977" lon="6.663375688156183">
				<ele>130.0</ele>
				<time>2011-02-16T16:28:50Z</time>
			</trkpt>
			<trkpt lat="50.89403726612352" lon="6.6634417038869325">
				<ele>130.0</ele>
				<time>2011-02-16T16:28:51Z</time>
			</trkpt>
			<trkpt lat="50.89407357408891" lon="6.663492359162484">
				<ele>130.0</ele>
				<time>2011-02-16T16:28:52Z</time>
			</trkpt>
			<trkpt lat="50.8941356960656" lon="6.663540673425939">
				<ele>130.0</ele>
				<time>2011-02-16T16:28:53Z</time>
			</trkpt>
			<trkpt lat="50.89419363336057" lon="6.663593496905264">
				<ele>130.0</ele>
				<time>2011-02-16T16:28:54Z</time>
			</trkpt>
			<trkpt lat="50.89425333506069" lon="6.66365588166194">
				<ele>130.0</ele>
				<time>2011-02-16T16:28:55Z</time>
			</trkpt>
			<trkpt lat="50.89430507223162" lon="6.663746352760766">
				<ele>130.0</ele>
				<time>2011-02-16T16:28:56Z</time>
			</trkpt>
			<trkpt lat="50.8943594373636" lon="6.663860482736613">
				<ele>130.0</ele>
				<time>2011-02-16T16:28:57Z</time>
			</trkpt>
			<trkpt lat="50.89441371940229" lon="6.663982199781707">
				<ele>130.0</ele>
				<time>2011-02-16T16:28:58Z</time>
			</trkpt>
			<trkpt lat="50.894465487110836" lon="6.664112063436826">
				<ele>130.0</ele>
				<time>2011-02-16T16:28:59Z</time>
			</trkpt>
			<trkpt lat="50.89451694127987" lon="6.664242240653542">
				<ele>129.0</ele>
				<time>2011-02-16T16:29:00Z</time>
			</trkpt>
			<trkpt lat="50.89456730956138" lon="6.664370416757534">
				<ele>129.0</ele>
				<time>2011-02-16T16:29:01Z</time>
			</trkpt>
			<trkpt lat="50.89461562924673" lon="6.664499182291314">
				<ele>129.0</ele>
				<time>2011-02-16T16:29:02Z</time>
			</trkpt>
			<trkpt lat="50.8946624813786" lon="6.6646245143371">
				<ele>129.0</ele>
				<time>2011-02-16T16:29:03Z</time>
			</trkpt>
			<trkpt lat="50.89470679763906" lon="6.66474790128501">
				<ele>129.0</ele>
				<time>2011-02-16T16:29:04Z</time>
			</trkpt>
			<trkpt lat="50.894750350300725" lon="6.6648676485578715">
				<ele>129.0</ele>
				<time>2011-02-16T16:29:05Z</time>
			</trkpt>
			<trkpt lat="50.89479207479266" lon="6.6649824667435915">
				<ele>129.0</ele>
				<time>2011-02-16T16:29:06Z</time>
			</trkpt>
			<trkpt lat="50.89483325526501" lon="6.6650950532846585">
				<ele>128.0</ele>
				<time>2011-02-16T16:29:07Z</time>
			</trkpt>
			<trkpt lat="50.894872338244866" lon="6.665205915783875">
				<ele>128.0</ele>
				<time>2011-02-16T16:29:08Z</time>
			</trkpt>
			<trkpt lat="50.89491099936921" lon="6.6653132844971985">
				<ele>128.0</ele>
				<time>2011-02-16T16:29:09Z</time>
			</trkpt>
			<trkpt lat="50.89495140745412" lon="6.665418853775637">
				<ele>129.0</ele>
				<time>2011-02-16T16:29:10Z</time>
			</trkpt>
			<trkpt lat="50.89499203587479" lon="6.6655253115204465">
				<ele>129.0</ele>
				<time>2011-02-16T16:29:11Z</time>
			</trkpt>
			<trkpt lat="50.89503454011744" lon="6.665637226155948">
				<ele>129.0</ele>
				<time>2011-02-16T16:29:12Z</time>
			</trkpt>
			<trkpt lat="50.89507777349218" lon="6.665749513848609">
				<ele>129.0</ele>
				<time>2011-02-16T16:29:13Z</time>
			</trkpt>
			<trkpt lat="50.895120482952336" lon="6.665859695521514">
				<ele>129.0</ele>
				<time>2011-02-16T16:29:14Z</time>
			</trkpt>
			<trkpt lat="50.89516006862368" lon="6.665961771679139">
				<ele>129.0</ele>
				<time>2011-02-16T16:29:15Z</time>
			</trkpt>
			<trkpt lat="50.89519502192572" lon="6.6660525545059786">
				<ele>129.0</ele>
				<time>2011-02-16T16:29:16Z</time>
			</trkpt>
			<trkpt lat="50.895215365268655" lon="6.666143830175838">
				<ele>130.0</ele>
				<time>2011-02-16T16:29:17Z</time>
			</trkpt>
			<trkpt lat="50.89521718987837" lon="6.666235417600389">
				<ele>130.0</ele>
				<time>2011-02-16T16:29:18Z</time>
			</trkpt>
			<trkpt lat="50.89519802748295" lon="6.666316687820512">
				<ele>130.0</ele>
				<time>2011-02-16T16:29:19Z</time>
			</trkpt>
			<trkpt lat="50.89515771452327" lon="6.66638058386277">
				<ele>130.0</ele>
				<time>2011-02-16T16:29:20Z</time>
			</trkpt>
			<trkpt lat="50.89510807697799" lon="6.666448657487762">
				<ele>130.0</ele>
				<time>2011-02-16T16:29:21Z</time>
			</trkpt>
			<trkpt lat="50.895048921789645" lon="6.666521305293747">
				<ele>130.0</ele>
				<time>2011-02-16T16:29:22Z</time>
			</trkpt>
			<trkpt lat="50.89497938469035" lon="6.666595851932841">
				<ele>130.0</ele>
				<time>2011-02-16T16:29:23Z</time>
			</trkpt>
			<trkpt lat="50.894900522970005" lon="6.666671975772401">
				<ele>130.0</ele>
				<time>2011-02-16T16:29:24Z</time>
			</trkpt>
			<trkpt lat="50.89481375403759" lon="6.666748803558038">
				<ele>130.0</ele>
				<time>2011-02-16T16:29:25Z</time>
			</trkpt>
			<trkpt lat="50.8947244436012" lon="6.6668210318297865">
				<ele>129.0</ele>
				<time>2011-02-16T16:29:26Z</time>
			</trkpt>
			<trkpt lat="50.89463227666125" lon="6.666888878772548">
				<ele>129.0</ele>
				<time>2011-02-16T16:29:27Z</time>
			</trkpt>
			<trkpt lat="50.89453867367364" lon="6.666951693630269">
				<ele>129.0</ele>
				<time>2011-02-16T16:29:28Z</time>
			</trkpt>
			<trkpt lat="50.894444011308444" lon="6.667008877309587">
				<ele>129.0</ele>
				<time>2011-02-16T16:29:29Z</time>
			</trkpt>
			<trkpt lat="50.89434965505919" lon="6.667063742362248">
				<ele>129.0</ele>
				<time>2011-02-16T16:29:30Z</time>
			</trkpt>
			<trkpt lat="50.89425553977635" lon="6.667112401726395">
				<ele>129.0</ele>
				<time>2011-02-16T16:29:31Z</time>
			</trkpt>
			<trkpt lat="50.89416237935752" lon="6.667157926069893">
				<ele>129.0</ele>
				<time>2011-02-16T16:29:32Z</time>
			</trkpt>
			<trkpt lat="50.894068636552895" lon="6.6671999411289695">
				<ele>129.0</ele>
				<time>2011-02-16T16:29:33Z</time>
			</trkpt>
			<trkpt lat="50.89397946488002" lon="6.667240099616234">
				<ele>129.0</ele>
				<time>2011-02-16T16:29:34Z</time>
			</trkpt>
			<trkpt lat="50.893889975667754" lon="6.667278125160951">
				<ele>129.0</ele>
				<time>2011-02-16T16:29:35Z</time>
			</trkpt>
			<trkpt lat="50.893801828217896" lon="6.6673159202588685">
				<ele>129.0</ele>
				<time>2011-02-16T16:29:36Z</time>
			</trkpt>
			<trkpt lat="50.89371803216027" lon="6.667347727224072">
				<ele>129.0</ele>
				<time>2011-02-16T16:29:37Z</time>
			</trkpt>
			<trkpt lat="50.89363463357464" lon="6.667375890880116">
				<ele>129.0</ele>
				<time>2011-02-16T16:29:38Z</time>
			</trkpt>
			<trkpt lat="50.89355313966269" lon="6.667399019455302">
				<ele>129.0</ele>
				<time>2011-02-16T16:29:39Z</time>
			</trkpt>
			<trkpt lat="50.893472800093605" lon="6.6674214610711795">
				<ele>129.0</ele>
				<time>2011-02-16T16:29:40Z</time>
			</trkpt>
			<trkpt lat="50.89339711623352" lon="6.667437383799697">
				<ele>129.0</ele>
				<time>2011-02-16T16:29:41Z</time>
			</trkpt>
			<trkpt lat="50.89333200647577" lon="6.66745086647715">
				<ele>129.0</ele>
				<time>2011-02-16T16:29:42Z</time>
			</trkpt>
			<trkpt lat="50.89328028186963" lon="6.667456057053286">
				<ele>129.0</ele>
				<time>2011-02-16T16:29:43Z</time>
			</trkpt>
			<trkpt lat="50.89324837613695" lon="6.667457517864455">
				<ele>129.0</ele>
				<time>2011-02-16T16:29:44Z</time>
			</trkpt>
			<trkpt lat="50.89324837613695" lon="6.667457517864455">
				<ele>129.0</ele>
				<time>2011-02-16T16:29:45Z</time>
			</trkpt>
			<trkpt lat="50.89324837613695" lon="6.667457517864455">
				<ele>129.0</ele>
				<time>2011-02-16T16:29:46Z</time>
			</trkpt>
			<trkpt lat="50.89324837613695" lon="6.667457517864455">
				<ele>129.0</ele>
				<time>2011-02-16T16:29:47Z</time>
			</trkpt>
			<trkpt lat="50.8932043579097" lon="6.667441353157669">
				<ele>129.0</ele>
				<time>2011-02-16T16:29:48Z</time>
			</trkpt>
			<trkpt lat="50.893181680266004" lon="6.667409673432292">
				<ele>129.0</ele>
				<time>2011-02-16T16:29:49Z</time>
			</trkpt>
			<trkpt lat="50.89315637150029" lon="6.667369976055614">
				<ele>129.0</ele>
				<time>2011-02-16T16:29:50Z</time>
			</trkpt>
			<trkpt lat="50.89313710779868" lon="6.66731248461621">
				<ele>129.0</ele>
				<time>2011-02-16T16:29:51Z</time>
			</trkpt>
			<trkpt lat="50.893115636621204" lon="6.667237536753769">
				<ele>129.0</ele>
				<time>2011-02-16T16:29:52Z</time>
			</trkpt>
			<trkpt lat="50.89310624100328" lon="6.6671423122595295">
				<ele>129.0</ele>
				<time>2011-02-16T16:29:53Z</time>
			</trkpt>
			<trkpt lat="50.89309874410935" lon="6.66704602397462">
				<ele>129.0</ele>
				<time>2011-02-16T16:29:54Z</time>
			</trkpt>
			<trkpt lat="50.89309197829126" lon="6.666951323959546">
				<ele>130.0</ele>
				<time>2011-02-16T16:29:55Z</time>
			</trkpt>
			<trkpt lat="50.89308500538493" lon="6.666871893800916">
				<ele>130.0</ele>
				<time>2011-02-16T16:29:56Z</time>
			</trkpt>
			<trkpt lat="50.893078631727356" lon="6.666815418573217">
				<ele>130.0</ele>
				<time>2011-02-16T16:29:57Z</time>
			</trkpt>
			<trkpt lat="50.89307421804439" lon="6.666776892502792">
				<ele>130.0</ele>
				<time>2011-02-16T16:29:58Z</time>
			</trkpt>
			<trkpt lat="50.89307421804439" lon="6.666776892502792">
				<ele>130.0</ele>
				<time>2011-02-16T16:29:59Z</time>
			</trkpt>
			<trkpt lat="50.89307421804439" lon="6.666776892502792">
				<ele>130.0</ele>
				<time>2011-02-16T16:30:00Z</time>
			</trkpt>
			<trkpt lat="50.89307421804439" lon="6.666776892502792">
				<ele>130.0</ele>
				<time>2011-02-16T16:30:01Z</time>
			</trkpt>
			<trkpt lat="50.89307421804439" lon="6.666776892502792">
				<ele>130.0</ele>
				<time>2011-02-16T16:30:02Z</time>
			</trkpt>
			<trkpt lat="50.89307421804439" lon="6.666776892502792">
				<ele>130.0</ele>
				<time>2011-02-16T16:30:03Z</time>
			</trkpt>
			<trkpt lat="50.89307421804439" lon="6.666776892502792">
				<ele>130.0</ele>
				<time>2011-02-16T16:30:04Z</time>
			</trkpt>
			<trkpt lat="50.89307421804439" lon="6.666776892502792">
				<ele>130.0</ele>
				<time>2011-02-16T16:30:05Z</time>
			</trkpt>
			<trkpt lat="50.89307421804439" lon="6.666776892502792">
				<ele>130.0</ele>
				<time>2011-02-16T16:30:06Z</time>
			</trkpt>
			<trkpt lat="50.893055406343194" lon="6.666709710352091">
				<ele>130.0</ele>
				<time>2011-02-16T16:30:07Z</time>
			</trkpt>
			<trkpt lat="50.89303566994604" lon="6.666654440876195">
				<ele>130.0</ele>
				<time>2011-02-16T16:30:08Z</time>
			</trkpt>
			<trkpt lat="50.89301562155613" lon="6.666592188954463">
				<ele>131.0</ele>
				<time>2011-02-16T16:30:09Z</time>
			</trkpt>
			<trkpt lat="50.89299295528116" lon="6.666505847551781">
				<ele>131.0</ele>
				<time>2011-02-16T16:30:10Z</time>
			</trkpt>
			<trkpt lat="50.892981129337834" lon="6.666399024048096">
				<ele>131.0</ele>
				<time>2011-02-16T16:30:11Z</time>
			</trkpt>
			<trkpt lat="50.89297151773417" lon="6.666287826414315">
				<ele>131.0</ele>
				<time>2011-02-16T16:30:12Z</time>
			</trkpt>
			<trkpt lat="50.89296180181363" lon="6.666159507414365">
				<ele>131.0</ele>
				<time>2011-02-16T16:30:13Z</time>
			</trkpt>
			<trkpt lat="50.892955299572954" lon="6.666014160893732">
				<ele>131.0</ele>
				<time>2011-02-16T16:30:14Z</time>
			</trkpt>
			<trkpt lat="50.89295271785285" lon="6.665854547250785">
				<ele>131.0</ele>
				<time>2011-02-16T16:30:15Z</time>
			</trkpt>
			<trkpt lat="50.89295562283222" lon="6.665693691942847">
				<ele>132.0</ele>
				<time>2011-02-16T16:30:16Z</time>
			</trkpt>
			<trkpt lat="50.89296218339859" lon="6.6655307757379445">
				<ele>132.0</ele>
				<time>2011-02-16T16:30:17Z</time>
			</trkpt>
			<trkpt lat="50.89297476382453" lon="6.6653569546526565">
				<ele>132.0</ele>
				<time>2011-02-16T16:30:18Z</time>
			</trkpt>
			<trkpt lat="50.89299514502244" lon="6.6651770916866235">
				<ele>132.0</ele>
				<time>2011-02-16T16:30:19Z</time>
			</trkpt>
			<trkpt lat="50.89302390396311" lon="6.664993861981454">
				<ele>131.0</ele>
				<time>2011-02-16T16:30:20Z</time>
			</trkpt>
			<trkpt lat="50.89305994280113" lon="6.664811983976264">
				<ele>131.0</ele>
				<time>2011-02-16T16:30:21Z</time>
			</trkpt>
			<trkpt lat="50.893104643259456" lon="6.664633339604062">
				<ele>131.0</ele>
				<time>2011-02-16T16:30:22Z</time>
			</trkpt>
			<trkpt lat="50.89315618882399" lon="6.664460145800897">
				<ele>131.0</ele>
				<time>2011-02-16T16:30:23Z</time>
			</trkpt>
			<trkpt lat="50.89321612708955" lon="6.664291112536029">
				<ele>131.0</ele>
				<time>2011-02-16T16:30:24Z</time>
			</trkpt>
			<trkpt lat="50.89328307087576" lon="6.66411827862041">
				<ele>131.0</ele>
				<time>2011-02-16T16:30:25Z</time>
			</trkpt>
			<trkpt lat="50.8933527387767" lon="6.663949978797432">
				<ele>131.0</ele>
				<time>2011-02-16T16:30:26Z</time>
			</trkpt>
			<trkpt lat="50.89343190414786" lon="6.6637765178844575">
				<ele>131.0</ele>
				<time>2011-02-16T16:30:27Z</time>
			</trkpt>
			<trkpt lat="50.89351762043435" lon="6.663605684762496">
				<ele>131.0</ele>
				<time>2011-02-16T16:30:28Z</time>
			</trkpt>
			<trkpt lat="50.89360930072083" lon="6.663439901688095">
				<ele>131.0</ele>
				<time>2011-02-16T16:30:29Z</time>
			</trkpt>
			<trkpt lat="50.89371158766984" lon="6.663288627583775">
				<ele>131.0</ele>
				<time>2011-02-16T16:30:30Z</time>
			</trkpt>
			<trkpt lat="50.893817489250054" lon="6.6631391029308835">
				<ele>130.0</ele>
				<time>2011-02-16T16:30:31Z</time>
			</trkpt>
			<trkpt lat="50.89392878699894" lon="6.662995567277888">
				<ele>130.0</ele>
				<time>2011-02-16T16:30:32Z</time>
			</trkpt>
			<trkpt lat="50.89404744252889" lon="6.662861145919409">
				<ele>130.0</ele>
				<time>2011-02-16T16:30:33Z</time>
			</trkpt>
			<trkpt lat="50.89417224547353" lon="6.662727916093721">
				<ele>130.0</ele>
				<time>2011-02-16T16:30:34Z</time>
			</trkpt>
			<trkpt lat="50.89429854958167" lon="6.662599274405081">
				<ele>130.0</ele>
				<time>2011-02-16T16:30:35Z</time>
			</trkpt>
			<trkpt lat="50.89442766058885" lon="6.662474999837928">
				<ele>131.0</ele>
				<time>2011-02-16T16:30:36Z</time>
			</trkpt>
			<trkpt lat="50.89455990527273" lon="6.66235585284604">
				<ele>131.0</ele>
				<time>2011-02-16T16:30:37Z</time>
			</trkpt>
			<trkpt lat="50.8946956743093" lon="6.662241269378705">
				<ele>131.0</ele>
				<time>2011-02-16T16:30:38Z</time>
			</trkpt>
			<trkpt lat="50.89482992024462" lon="6.662124621476278">
				<ele>130.0</ele>
				<time>2011-02-16T16:30:39Z</time>
			</trkpt>
			<trkpt lat="50.8949633461961" lon="6.662007611844415">
				<ele>130.0</ele>
				<time>2011-02-16T16:30:40Z</time>
			</trkpt>
			<trkpt lat="50.895096364601315" lon="6.661895222950971">
				<ele>130.0</ele>
				<time>2011-02-16T16:30:41Z</time>
			</trkpt>
			<trkpt lat="50.895228645543554" lon="6.661781917756682">
				<ele>129.0</ele>
				<time>2011-02-16T16:30:42Z</time>
			</trkpt>
			<trkpt lat="50.89535773479069" lon="6.661669125474982">
				<ele>129.0</ele>
				<time>2011-02-16T16:30:43Z</time>
			</trkpt>
			<trkpt lat="50.895485721906475" lon="6.66155625290774">
				<ele>129.0</ele>
				<time>2011-02-16T16:30:44Z</time>
			</trkpt>
			<trkpt lat="50.89561204750351" lon="6.66144285366479">
				<ele>129.0</ele>
				<time>2011-02-16T16:30:45Z</time>
			</trkpt>
			<trkpt lat="50.89573648214879" lon="6.661325858683676">
				<ele>129.0</ele>
				<time>2011-02-16T16:30:46Z</time>
			</trkpt>
			<trkpt lat="50.89585965925688" lon="6.661210041889908">
				<ele>129.0</ele>
				<time>2011-02-16T16:30:47Z</time>
			</trkpt>
			<trkpt lat="50.89598081809399" lon="6.661095709677414">
				<ele>129.0</ele>
				<time>2011-02-16T16:30:48Z</time>
			</trkpt>
			<trkpt lat="50.89610293236931" lon="6.660980579428682">
				<ele>129.0</ele>
				<time>2011-02-16T16:30:49Z</time>
			</trkpt>
			<trkpt lat="50.896223325578404" lon="6.660865800274618">
				<ele>129.0</ele>
				<time>2011-02-16T16:30:50Z</time>
			</trkpt>
			<trkpt lat="50.89634255556309" lon="6.6607507668911685">
				<ele>129.0</ele>
				<time>2011-02-16T16:30:51Z</time>
			</trkpt>
			<trkpt lat="50.89646072083903" lon="6.660635712089147">
				<ele>129.0</ele>
				<time>2011-02-16T16:30:52Z</time>
			</trkpt>
			<trkpt lat="50.896578917607584" lon="6.66052023325953">
				<ele>129.0</ele>
				<time>2011-02-16T16:30:53Z</time>
			</trkpt>
			<trkpt lat="50.89669855150962" lon="6.660402450298871">
				<ele>130.0</ele>
				<time>2011-02-16T16:30:54Z</time>
			</trkpt>
			<trkpt lat="50.89681974824393" lon="6.660283374999458">
				<ele>130.0</ele>
				<time>2011-02-16T16:30:55Z</time>
			</trkpt>
			<trkpt lat="50.896939265749864" lon="6.660166272289754">
				<ele>130.0</ele>
				<time>2011-02-16T16:30:56Z</time>
			</trkpt>
			<trkpt lat="50.89704904286575" lon="6.660058735267068">
				<ele>130.0</ele>
				<time>2011-02-16T16:30:57Z</time>
			</trkpt>
			<trkpt lat="50.89715118041343" lon="6.659959461554458">
				<ele>130.0</ele>
				<time>2011-02-16T16:30:58Z</time>
			</trkpt>
			<trkpt lat="50.89724392013371" lon="6.659869977637911">
				<ele>130.0</ele>
				<time>2011-02-16T16:30:59Z</time>
			</trkpt>
			<trkpt lat="50.897326900307775" lon="6.659792996411545">
				<ele>130.0</ele>
				<time>2011-02-16T16:31:00Z</time>
			</trkpt>
			<trkpt lat="50.897396393310316" lon="6.659728523374596">
				<ele>130.0</ele>
				<time>2011-02-16T16:31:01Z</time>
			</trkpt>
			<trkpt lat="50.89745947412162" lon="6.6596704548670695">
				<ele>130.0</ele>
				<time>2011-02-16T16:31:02Z</time>
			</trkpt>
			<trkpt lat="50.89751085271769" lon="6.659627725030568">
				<ele>130.0</ele>
				<time>2011-02-16T16:31:03Z</time>
			</trkpt>
			<trkpt lat="50.89756202903801" lon="6.659614452307582">
				<ele>130.0</ele>
				<time>2011-02-16T16:31:04Z</time>
			</trkpt>
			<trkpt lat="50.8976135179507" lon="6.659607777277454">
				<ele>130.0</ele>
				<time>2011-02-16T16:31:05Z</time>
			</trkpt>
			<trkpt lat="50.897665155856" lon="6.659603454499291">
				<ele>130.0</ele>
				<time>2011-02-16T16:31:06Z</time>
			</trkpt>
			<trkpt lat="50.89771302831185" lon="6.659573408768428">
				<ele>130.0</ele>
				<time>2011-02-16T16:31:07Z</time>
			</trkpt>
			<trkpt lat="50.89774949093379" lon="6.659523327455379">
				<ele>130.0</ele>
				<time>2011-02-16T16:31:08Z</time>
			</trkpt>
			<trkpt lat="50.897766072873715" lon="6.659457313429091">
				<ele>130.0</ele>
				<time>2011-02-16T16:31:09Z</time>
			</trkpt>
			<trkpt lat="50.89776457479589" lon="6.659386068090371">
				<ele>130.0</ele>
				<time>2011-02-16T16:31:10Z</time>
			</trkpt>
			<trkpt lat="50.89774031244782" lon="6.659319643781554">
				<ele>130.0</ele>
				<time>2011-02-16T16:31:11Z</time>
			</trkpt>
			<trkpt lat="50.89770966859911" lon="6.659249621175142">
				<ele>129.0</ele>
				<time>2011-02-16T16:31:12Z</time>
			</trkpt>
			<trkpt lat="50.89766875026477" lon="6.659170551082993">
				<ele>129.0</ele>
				<time>2011-02-16T16:31:13Z</time>
			</trkpt>
			<trkpt lat="50.89762683065986" lon="6.6590905422016435">
				<ele>130.0</ele>
				<time>2011-02-16T16:31:14Z</time>
			</trkpt>
			<trkpt lat="50.89758762727619" lon="6.658998265217635">
				<ele>130.0</ele>
				<time>2011-02-16T16:31:15Z</time>
			</trkpt>
			<trkpt lat="50.89755829292609" lon="6.658879191514303">
				<ele>130.0</ele>
				<time>2011-02-16T16:31:16Z</time>
			</trkpt>
			<trkpt lat="50.89752558117142" lon="6.6587454323798525">
				<ele>130.0</ele>
				<time>2011-02-16T16:31:17Z</time>
			</trkpt>
			<trkpt lat="50.89749171386286" lon="6.6586057006603365">
				<ele>130.0</ele>
				<time>2011-02-16T16:31:18Z</time>
			</trkpt>
			<trkpt lat="50.897458849942865" lon="6.658461721221669">
				<ele>130.0</ele>
				<time>2011-02-16T16:31:19Z</time>
			</trkpt>
			<trkpt lat="50.89742344459054" lon="6.658309388697579">
				<ele>131.0</ele>
				<time>2011-02-16T16:31:20Z</time>
			</trkpt>
			<trkpt lat="50.8973848143492" lon="6.658156409437681">
				<ele>131.0</ele>
				<time>2011-02-16T16:31:21Z</time>
			</trkpt>
			<trkpt lat="50.897345244805095" lon="6.657998473949347">
				<ele>131.0</ele>
				<time>2011-02-16T16:31:22Z</time>
			</trkpt>
			<trkpt lat="50.897305144031215" lon="6.657840788185814">
				<ele>131.0</ele>
				<time>2011-02-16T16:31:23Z</time>
			</trkpt>
			<trkpt lat="50.8972622317677" lon="6.657683272657203">
				<ele>131.0</ele>
				<time>2011-02-16T16:31:24Z</time>
			</trkpt>
			<trkpt lat="50.89721825402739" lon="6.657523356377767">
				<ele>131.0</ele>
				<time>2011-02-16T16:31:25Z</time>
			</trkpt>
			<trkpt lat="50.89717118400464" lon="6.657362311792499">
				<ele>131.0</ele>
				<time>2011-02-16T16:31:26Z</time>
			</trkpt>
			<trkpt lat="50.89712298895623" lon="6.657199247513745">
				<ele>131.0</ele>
				<time>2011-02-16T16:31:27Z</time>
			</trkpt>
			<trkpt lat="50.89707288788677" lon="6.6570314953056675">
				<ele>131.0</ele>
				<time>2011-02-16T16:31:28Z</time>
			</trkpt>
			<trkpt lat="50.89702097987665" lon="6.656864060458289">
				<ele>131.0</ele>
				<time>2011-02-16T16:31:29Z</time>
			</trkpt>
			<trkpt lat="50.89696816174703" lon="6.656692959456128">
				<ele>130.0</ele>
				<time>2011-02-16T16:31:30Z</time>
			</trkpt>
			<trkpt lat="50.896915431713715" lon="6.656521308194964">
				<ele>130.0</ele>
				<time>2011-02-16T16:31:31Z</time>
			</trkpt>
			<trkpt lat="50.89686226206248" lon="6.656349383815501">
				<ele>130.0</ele>
				<time>2011-02-16T16:31:32Z</time>
			</trkpt>
			<trkpt lat="50.89680861914071" lon="6.65618017578952">
				<ele>130.0</ele>
				<time>2011-02-16T16:31:33Z</time>
			</trkpt>
			<trkpt lat="50.89675602762209" lon="6.656014830607778">
				<ele>130.0</ele>
				<time>2011-02-16T16:31:34Z</time>
			</trkpt>
			<trkpt lat="50.89670523841525" lon="6.655853780483563">
				<ele>130.0</ele>
				<time>2011-02-16T16:31:35Z</time>
			</trkpt>
			<trkpt lat="50.896656374414675" lon="6.655697399316438">
				<ele>130.0</ele>
				<time>2011-02-16T16:31:36Z</time>
			</trkpt>
			<trkpt lat="50.89660811185952" lon="6.655542704050269">
				<ele>130.0</ele>
				<time>2011-02-16T16:31:37Z</time>
			</trkpt>
			<trkpt lat="50.896560461197815" lon="6.655389725783675">
				<ele>130.0</ele>
				<time>2011-02-16T16:31:38Z</time>
			</trkpt>
			<trkpt lat="50.89651413408519" lon="6.655241116633337">
				<ele>130.0</ele>
				<time>2011-02-16T16:31:39Z</time>
			</trkpt>
			<trkpt lat="50.89646856883411" lon="6.655101900394295">
				<ele>130.0</ele>
				<time>2011-02-16T16:31:40Z</time>
			</trkpt>
			<trkpt lat="50.896424447457676" lon="6.654982342854858">
				<ele>130.0</ele>
				<time>2011-02-16T16:31:41Z</time>
			</trkpt>
			<trkpt lat="50.896390446479" lon="6.654892081305214">
				<ele>130.0</ele>
				<time>2011-02-16T16:31:42Z</time>
			</trkpt>
			<trkpt lat="50.89637331877505" lon="6.654817492436875">
				<ele>130.0</ele>
				<time>2011-02-16T16:31:43Z</time>
			</trkpt>
			<trkpt lat="50.896356156092395" lon="6.654750074495206">
				<ele>130.0</ele>
				<time>2011-02-16T16:31:44Z</time>
			</trkpt>
			<trkpt lat="50.89633387249552" lon="6.654708550662138">
				<ele>130.0</ele>
				<time>2011-02-16T16:31:45Z</time>
			</trkpt>
			<trkpt lat="50.89630812313704" lon="6.654687139907015">
				<ele>130.0</ele>
				<time>2011-02-16T16:31:46Z</time>
			</trkpt>
			<trkpt lat="50.89628994872149" lon="6.654682127501033">
				<ele>130.0</ele>
				<time>2011-02-16T16:31:47Z</time>
			</trkpt>
			<trkpt lat="50.896276887958635" lon="6.654689796541157">
				<ele>130.0</ele>
				<time>2011-02-16T16:31:48Z</time>
			</trkpt>
			<trkpt lat="50.89626572124575" lon="6.654703880099314">
				<ele>130.0</ele>
				<time>2011-02-16T16:31:49Z</time>
			</trkpt>
			<trkpt lat="50.89625499963169" lon="6.654732843942682">
				<ele>130.0</ele>
				<time>2011-02-16T16:31:50Z</time>
			</trkpt>
			<trkpt lat="50.89625499963169" lon="6.654732843942682">
				<ele>130.0</ele>
				<time>2011-02-16T16:31:51Z</time>
			</trkpt>
			<trkpt lat="50.896261317049856" lon="6.654818029137423">
				<ele>130.0</ele>
				<time>2011-02-16T16:31:52Z</time>
			</trkpt>
			<trkpt lat="50.89628709244225" lon="6.654864931344943">
				<ele>130.0</ele>
				<time>2011-02-16T16:31:53Z</time>
			</trkpt>
			<trkpt lat="50.89631116564815" lon="6.654910949151105">
				<ele>130.0</ele>
				<time>2011-02-16T16:31:54Z</time>
			</trkpt>
			<trkpt lat="50.89633378969632" lon="6.654957218425892">
				<ele>130.0</ele>
				<time>2011-02-16T16:31:55Z</time>
			</trkpt>
			<trkpt lat="50.89635529955877" lon="6.655005033576222">
				<ele>130.0</ele>
				<time>2011-02-16T16:31:56Z</time>
			</trkpt>
			<trkpt lat="50.896382421309404" lon="6.655066357586927">
				<ele>130.0</ele>
				<time>2011-02-16T16:31:57Z</time>
			</trkpt>
			<trkpt lat="50.89641421448418" lon="6.655142799088212">
				<ele>130.0</ele>
				<time>2011-02-16T16:31:58Z</time>
			</trkpt>
			<trkpt lat="50.89644682099394" lon="6.65522898873438">
				<ele>130.0</ele>
				<time>2011-02-16T16:31:59Z</time>
			</trkpt>
			<trkpt lat="50.89648182758324" lon="6.655328089567014">
				<ele>129.0</ele>
				<time>2011-02-16T16:32:00Z</time>
			</trkpt>
			<trkpt lat="50.896516362611145" lon="6.655428261079557">
				<ele>129.0</ele>
				<time>2011-02-16T16:32:01Z</time>
			</trkpt>
			<trkpt lat="50.89655114544885" lon="6.6555308082261915">
				<ele>129.0</ele>
				<time>2011-02-16T16:32:02Z</time>
			</trkpt>
			<trkpt lat="50.89658663247779" lon="6.655644136504451">
				<ele>129.0</ele>
				<time>2011-02-16T16:32:03Z</time>
			</trkpt>
			<trkpt lat="50.89662073020096" lon="6.655765748362412">
				<ele>128.0</ele>
				<time>2011-02-16T16:32:04Z</time>
			</trkpt>
			<trkpt lat="50.89665325974324" lon="6.655890109309547">
				<ele>128.0</ele>
				<time>2011-02-16T16:32:05Z</time>
			</trkpt>
			<trkpt lat="50.89668637267394" lon="6.656016471089287">
				<ele>128.0</ele>
				<time>2011-02-16T16:32:06Z</time>
			</trkpt>
			<trkpt lat="50.89672106765059" lon="6.656145131006597">
				<ele>128.0</ele>
				<time>2011-02-16T16:32:07Z</time>
			</trkpt>
			<trkpt lat="50.89675669171461" lon="6.656274533442111">
				<ele>128.0</ele>
				<time>2011-02-16T16:32:08Z</time>
			</trkpt>
			<trkpt lat="50.89679296288518" lon="6.656403946996973">
				<ele>127.0</ele>
				<time>2011-02-16T16:32:09Z</time>
			</trkpt>
			<trkpt lat="50.896830449200145" lon="6.656532641709175">
				<ele>127.0</ele>
				<time>2011-02-16T16:32:10Z</time>
			</trkpt>
			<trkpt lat="50.896870088305576" lon="6.656659269907255">
				<ele>127.0</ele>
				<time>2011-02-16T16:32:11Z</time>
			</trkpt>
			<trkpt lat="50.89690979682956" lon="6.656787417558394">
				<ele>127.0</ele>
				<time>2011-02-16T16:32:12Z</time>
			</trkpt>
			<trkpt lat="50.896951101201495" lon="6.656919358118169">
				<ele>127.0</ele>
				<time>2011-02-16T16:32:13Z</time>
			</trkpt>
			<trkpt lat="50.89699548290665" lon="6.657058636948217">
				<ele>127.0</ele>
				<time>2011-02-16T16:32:14Z</time>
			</trkpt>
			<trkpt lat="50.89704085055797" lon="6.657201040378557">
				<ele>127.0</ele>
				<time>2011-02-16T16:32:15Z</time>
			</trkpt>
			<trkpt lat="50.897085711287254" lon="6.657343862682682">
				<ele>127.0</ele>
				<time>2011-02-16T16:32:16Z</time>
			</trkpt>
			<trkpt lat="50.897128042872886" lon="6.657489923251933">
				<ele>127.0</ele>
				<time>2011-02-16T16:32:17Z</time>
			</trkpt>
			<trkpt lat="50.897170561883165" lon="6.657638809774963">
				<ele>127.0</ele>
				<time>2011-02-16T16:32:18Z</time>
			</trkpt>
			<trkpt lat="50.89721119519516" lon="6.657789771081562">
				<ele>127.0</ele>
				<time>2011-02-16T16:32:19Z</time>
			</trkpt>
			<trkpt lat="50.89724876055762" lon="6.6579388186774615">
				<ele>127.0</ele>
				<time>2011-02-16T16:32:20Z</time>
			</trkpt>
			<trkpt lat="50.89728284284269" lon="6.658086431190477">
				<ele>128.0</ele>
				<time>2011-02-16T16:32:21Z</time>
			</trkpt>
			<trkpt lat="50.89731688833086" lon="6.658230748539165">
				<ele>128.0</ele>
				<time>2011-02-16T16:32:22Z</time>
			</trkpt>
			<trkpt lat="50.8973551525106" lon="6.6583672087494605">
				<ele>128.0</ele>
				<time>2011-02-16T16:32:23Z</time>
			</trkpt>
			<trkpt lat="50.897390868476236" lon="6.658497427359371">
				<ele>128.0</ele>
				<time>2011-02-16T16:32:24Z</time>
			</trkpt>
			<trkpt lat="50.89742413246299" lon="6.658626409419557">
				<ele>128.0</ele>
				<time>2011-02-16T16:32:25Z</time>
			</trkpt>
			<trkpt lat="50.89745632161693" lon="6.6587551976435355">
				<ele>128.0</ele>
				<time>2011-02-16T16:32:26Z</time>
			</trkpt>
			<trkpt lat="50.8974847821419" lon="6.658885086581366">
				<ele>128.0</ele>
				<time>2011-02-16T16:32:27Z</time>
			</trkpt>
			<trkpt lat="50.89751047807854" lon="6.6590138281162465">
				<ele>128.0</ele>
				<time>2011-02-16T16:32:28Z</time>
			</trkpt>
			<trkpt lat="50.89753024684966" lon="6.6591335840817845">
				<ele>128.0</ele>
				<time>2011-02-16T16:32:29Z</time>
			</trkpt>
			<trkpt lat="50.897533045285115" lon="6.659247254873718">
				<ele>127.0</ele>
				<time>2011-02-16T16:32:30Z</time>
			</trkpt>
			<trkpt lat="50.89752061386503" lon="6.659343856217839">
				<ele>127.0</ele>
				<time>2011-02-16T16:32:31Z</time>
			</trkpt>
			<trkpt lat="50.89750960948007" lon="6.659434149594435">
				<ele>127.0</ele>
				<time>2011-02-16T16:32:32Z</time>
			</trkpt>
			<trkpt lat="50.897515302084706" lon="6.659520928891457">
				<ele>127.0</ele>
				<time>2011-02-16T16:32:33Z</time>
			</trkpt>
			<trkpt lat="50.89753560179556" lon="6.659600923827104">
				<ele>127.0</ele>
				<time>2011-02-16T16:32:34Z</time>
			</trkpt>
			<trkpt lat="50.89757205038397" lon="6.659667350042565">
				<ele>126.0</ele>
				<time>2011-02-16T16:32:35Z</time>
			</trkpt>
			<trkpt lat="50.89760948379751" lon="6.659732576020894">
				<ele>126.0</ele>
				<time>2011-02-16T16:32:36Z</time>
			</trkpt>
			<trkpt lat="50.89764666733909" lon="6.659798548849935">
				<ele>127.0</ele>
				<time>2011-02-16T16:32:37Z</time>
			</trkpt>
			<trkpt lat="50.89767314203324" lon="6.6598782145796855">
				<ele>127.0</ele>
				<time>2011-02-16T16:32:38Z</time>
			</trkpt>
			<trkpt lat="50.897699343367776" lon="6.65996190538097">
				<ele>127.0</ele>
				<time>2011-02-16T16:32:39Z</time>
			</trkpt>
			<trkpt lat="50.89772377773617" lon="6.660049561310545">
				<ele>127.0</ele>
				<time>2011-02-16T16:32:40Z</time>
			</trkpt>
			<trkpt lat="50.89774692800978" lon="6.66014320508634">
				<ele>127.0</ele>
				<time>2011-02-16T16:32:41Z</time>
			</trkpt>
			<trkpt lat="50.897772429387345" lon="6.660243581414885">
				<ele>127.0</ele>
				<time>2011-02-16T16:32:42Z</time>
			</trkpt>
			<trkpt lat="50.89780397384804" lon="6.660353719112655">
				<ele>127.0</ele>
				<time>2011-02-16T16:32:43Z</time>
			</trkpt>
			<trkpt lat="50.897840226713846" lon="6.660475880523003">
				<ele>127.0</ele>
				<time>2011-02-16T16:32:44Z</time>
			</trkpt>
			<trkpt lat="50.89787969129539" lon="6.660606087108552">
				<ele>127.0</ele>
				<time>2011-02-16T16:32:45Z</time>
			</trkpt>
			<trkpt lat="50.89792004192363" lon="6.660738449463559">
				<ele>127.0</ele>
				<time>2011-02-16T16:32:46Z</time>
			</trkpt>
			<trkpt lat="50.89796078446359" lon="6.660878581266452">
				<ele>127.0</ele>
				<time>2011-02-16T16:32:47Z</time>
			</trkpt>
			<trkpt lat="50.89800438293844" lon="6.6610264183100165">
				<ele>127.0</ele>
				<time>2011-02-16T16:32:48Z</time>
			</trkpt>
			<trkpt lat="50.89804951135679" lon="6.661178724015927">
				<ele>127.0</ele>
				<time>2011-02-16T16:32:49Z</time>
			</trkpt>
			<trkpt lat="50.898095475527754" lon="6.661334226678195">
				<ele>128.0</ele>
				<time>2011-02-16T16:32:50Z</time>
			</trkpt>
			<trkpt lat="50.8981433739836" lon="6.661489501659935">
				<ele>128.0</ele>
				<time>2011-02-16T16:32:51Z</time>
			</trkpt>
			<trkpt lat="50.89819152233463" lon="6.661646128689521">
				<ele>128.0</ele>
				<time>2011-02-16T16:32:52Z</time>
			</trkpt>
			<trkpt lat="50.89823944951581" lon="6.661803036641304">
				<ele>128.0</ele>
				<time>2011-02-16T16:32:53Z</time>
			</trkpt>
			<trkpt lat="50.89828549394562" lon="6.661963306432914">
				<ele>128.0</ele>
				<time>2011-02-16T16:32:54Z</time>
			</trkpt>
			<trkpt lat="50.89833211240671" lon="6.662125806132759">
				<ele>128.0</ele>
				<time>2011-02-16T16:32:55Z</time>
			</trkpt>
			<trkpt lat="50.89837900252789" lon="6.662290571931004">
				<ele>128.0</ele>
				<time>2011-02-16T16:32:56Z</time>
			</trkpt>
			<trkpt lat="50.8984264408014" lon="6.662456815978608">
				<ele>128.0</ele>
				<time>2011-02-16T16:32:57Z</time>
			</trkpt>
			<trkpt lat="50.89847489191745" lon="6.662626263521656">
				<ele>128.0</ele>
				<time>2011-02-16T16:32:58Z</time>
			</trkpt>
			<trkpt lat="50.89852368745567" lon="6.662796775358466">
				<ele>127.0</ele>
				<time>2011-02-16T16:32:59Z</time>
			</trkpt>
			<trkpt lat="50.89857215038308" lon="6.662966429986675">
				<ele>128.0</ele>
				<time>2011-02-16T16:33:00Z</time>
			</trkpt>
			<trkpt lat="50.89862076423432" lon="6.663135812906019">
				<ele>127.0</ele>
				<time>2011-02-16T16:33:01Z</time>
			</trkpt>
			<trkpt lat="50.89866886052356" lon="6.663304020322685">
				<ele>127.0</ele>
				<time>2011-02-16T16:33:02Z</time>
			</trkpt>
			<trkpt lat="50.898716902886775" lon="6.663471055035391">
				<ele>127.0</ele>
				<time>2011-02-16T16:33:03Z</time>
			</trkpt>
			<trkpt lat="50.898764935158724" lon="6.66363684335621">
				<ele>127.0</ele>
				<time>2011-02-16T16:33:04Z</time>
			</trkpt>
			<trkpt lat="50.898812643419646" lon="6.6638022982678065">
				<ele>127.0</ele>
				<time>2011-02-16T16:33:05Z</time>
			</trkpt>
			<trkpt lat="50.89885958633312" lon="6.663967282445739">
				<ele>127.0</ele>
				<time>2011-02-16T16:33:06Z</time>
			</trkpt>
			<trkpt lat="50.89890616301476" lon="6.6641305750954665">
				<ele>127.0</ele>
				<time>2011-02-16T16:33:07Z</time>
			</trkpt>
			<trkpt lat="50.89895252047259" lon="6.664292634094137">
				<ele>126.0</ele>
				<time>2011-02-16T16:33:08Z</time>
			</trkpt>
			<trkpt lat="50.898998236064195" lon="6.664452725895798">
				<ele>126.0</ele>
				<time>2011-02-16T16:33:09Z</time>
			</trkpt>
			<trkpt lat="50.89904290561655" lon="6.6646102666615805">
				<ele>126.0</ele>
				<time>2011-02-16T16:33:10Z</time>
			</trkpt>
			<trkpt lat="50.899086583778164" lon="6.664764291544723">
				<ele>126.0</ele>
				<time>2011-02-16T16:33:11Z</time>
			</trkpt>
			<trkpt lat="50.89912939956738" lon="6.664913401639404">
				<ele>126.0</ele>
				<time>2011-02-16T16:33:12Z</time>
			</trkpt>
			<trkpt lat="50.89917110680157" lon="6.66505764826592">
				<ele>126.0</ele>
				<time>2011-02-16T16:33:13Z</time>
			</trkpt>
			<trkpt lat="50.89921480006401" lon="6.66519346899769">
				<ele>127.0</ele>
				<time>2011-02-16T16:33:14Z</time>
			</trkpt>
			<trkpt lat="50.89925646581746" lon="6.665321852706577">
				<ele>127.0</ele>
				<time>2011-02-16T16:33:15Z</time>
			</trkpt>
			<trkpt lat="50.89929913917694" lon="6.665448546631728">
				<ele>127.0</ele>
				<time>2011-02-16T16:33:16Z</time>
			</trkpt>
			<trkpt lat="50.899341529646165" lon="6.665575283181494">
				<ele>127.0</ele>
				<time>2011-02-16T16:33:17Z</time>
			</trkpt>
			<trkpt lat="50.89938668620191" lon="6.665704779203271">
				<ele>127.0</ele>
				<time>2011-02-16T16:33:18Z</time>
			</trkpt>
			<trkpt lat="50.89943198556568" lon="6.66583417391371">
				<ele>127.0</ele>
				<time>2011-02-16T16:33:19Z</time>
			</trkpt>
			<trkpt lat="50.89947953498401" lon="6.665962397117948">
				<ele>127.0</ele>
				<time>2011-02-16T16:33:20Z</time>
			</trkpt>
			<trkpt lat="50.89952506080587" lon="6.666087051033917">
				<ele>127.0</ele>
				<time>2011-02-16T16:33:21Z</time>
			</trkpt>
			<trkpt lat="50.89956900624822" lon="6.666210395543497">
				<ele>127.0</ele>
				<time>2011-02-16T16:33:22Z</time>
			</trkpt>
			<trkpt lat="50.89961208589124" lon="6.666333732968428">
				<ele>127.0</ele>
				<time>2011-02-16T16:33:23Z</time>
			</trkpt>
			<trkpt lat="50.89965510273268" lon="6.666456887539599">
				<ele>128.0</ele>
				<time>2011-02-16T16:33:24Z</time>
			</trkpt>
			<trkpt lat="50.899697514274216" lon="6.6665774169448735">
				<ele>128.0</ele>
				<time>2011-02-16T16:33:25Z</time>
			</trkpt>
			<trkpt lat="50.89974017711008" lon="6.666696563862575">
				<ele>128.0</ele>
				<time>2011-02-16T16:33:26Z</time>
			</trkpt>
			<trkpt lat="50.89978554765504" lon="6.666810281334506">
				<ele>128.0</ele>
				<time>2011-02-16T16:33:27Z</time>
			</trkpt>
			<trkpt lat="50.89982911885836" lon="6.666918354253135">
				<ele>128.0</ele>
				<time>2011-02-16T16:33:28Z</time>
			</trkpt>
			<trkpt lat="50.89987101916629" lon="6.667030100959759">
				<ele>128.0</ele>
				<time>2011-02-16T16:33:29Z</time>
			</trkpt>
			<trkpt lat="50.89991051192767" lon="6.667145946631155">
				<ele>128.0</ele>
				<time>2011-02-16T16:33:30Z</time>
			</trkpt>
			<trkpt lat="50.89994823326061" lon="6.667262981995116">
				<ele>128.0</ele>
				<time>2011-02-16T16:33:31Z</time>
			</trkpt>
			<trkpt lat="50.89998566493875" lon="6.667378117212062">
				<ele>128.0</ele>
				<time>2011-02-16T16:33:32Z</time>
			</trkpt>
			<trkpt lat="50.90002457901261" lon="6.667490373324087">
				<ele>128.0</ele>
				<time>2011-02-16T16:33:33Z</time>
			</trkpt>
			<trkpt lat="50.90006345251821" lon="6.667601577959811">
				<ele>128.0</ele>
				<time>2011-02-16T16:33:34Z</time>
			</trkpt>
			<trkpt lat="50.900101701478064" lon="6.6677091461643645">
				<ele>128.0</ele>
				<time>2011-02-16T16:33:35Z</time>
			</trkpt>
			<trkpt lat="50.90014230787412" lon="6.667813032952521">
				<ele>128.0</ele>
				<time>2011-02-16T16:33:36Z</time>
			</trkpt>
			<trkpt lat="50.90018236329876" lon="6.667914542012059">
				<ele>128.0</ele>
				<time>2011-02-16T16:33:37Z</time>
			</trkpt>
			<trkpt lat="50.90022224333684" lon="6.668017518749133">
				<ele>128.0</ele>
				<time>2011-02-16T16:33:38Z</time>
			</trkpt>
			<trkpt lat="50.90026034005776" lon="6.668128611870519">
				<ele>128.0</ele>
				<time>2011-02-16T16:33:39Z</time>
			</trkpt>
			<trkpt lat="50.90029941335293" lon="6.668242970859727">
				<ele>128.0</ele>
				<time>2011-02-16T16:33:40Z</time>
			</trkpt>
			<trkpt lat="50.90033844990055" lon="6.66835742358633">
				<ele>128.0</ele>
				<time>2011-02-16T16:33:41Z</time>
			</trkpt>
			<trkpt lat="50.900380414761415" lon="6.668471277900736">
				<ele>128.0</ele>
				<time>2011-02-16T16:33:42Z</time>
			</trkpt>
			<trkpt lat="50.90042440198387" lon="6.668587377458584">
				<ele>128.0</ele>
				<time>2011-02-16T16:33:43Z</time>
			</trkpt>
			<trkpt lat="50.900469524128084" lon="6.668704392165768">
				<ele>128.0</ele>
				<time>2011-02-16T16:33:44Z</time>
			</trkpt>
			<trkpt lat="50.900514844655156" lon="6.668822410017818">
				<ele>128.0</ele>
				<time>2011-02-16T16:33:45Z</time>
			</trkpt>
			<trkpt lat="50.90055805894113" lon="6.668944480846787">
				<ele>128.0</ele>
				<time>2011-02-16T16:33:46Z</time>
			</trkpt>
			<trkpt lat="50.900601712778005" lon="6.669069602466861">
				<ele>128.0</ele>
				<time>2011-02-16T16:33:47Z</time>
			</trkpt>
			<trkpt lat="50.90064538602506" lon="6.6691949879915065">
				<ele>128.0</ele>
				<time>2011-02-16T16:33:48Z</time>
			</trkpt>
			<trkpt lat="50.900689233522336" lon="6.6693188295120605">
				<ele>128.0</ele>
				<time>2011-02-16T16:33:49Z</time>
			</trkpt>
			<trkpt lat="50.90073547174919" lon="6.669438611455684">
				<ele>128.0</ele>
				<time>2011-02-16T16:33:50Z</time>
			</trkpt>
			<trkpt lat="50.9007818059674" lon="6.669557621270392">
				<ele>128.0</ele>
				<time>2011-02-16T16:33:51Z</time>
			</trkpt>
			<trkpt lat="50.90082694915088" lon="6.669676307940256">
				<ele>128.0</ele>
				<time>2011-02-16T16:33:52Z</time>
			</trkpt>
			<trkpt lat="50.9008671430849" lon="6.669800353964319">
				<ele>128.0</ele>
				<time>2011-02-16T16:33:53Z</time>
			</trkpt>
			<trkpt lat="50.90090799733456" lon="6.669926429555541">
				<ele>128.0</ele>
				<time>2011-02-16T16:33:54Z</time>
			</trkpt>
			<trkpt lat="50.90094881220594" lon="6.670051683870958">
				<ele>128.0</ele>
				<time>2011-02-16T16:33:55Z</time>
			</trkpt>
			<trkpt lat="50.9009910254805" lon="6.670173806812667">
				<ele>128.0</ele>
				<time>2011-02-16T16:33:56Z</time>
			</trkpt>
			<trkpt lat="50.901032650983346" lon="6.670293074647974">
				<ele>128.0</ele>
				<time>2011-02-16T16:33:57Z</time>
			</trkpt>
			<trkpt lat="50.901075776786435" lon="6.670409554124796">
				<ele>128.0</ele>
				<time>2011-02-16T16:33:58Z</time>
			</trkpt>
			<trkpt lat="50.90111702094717" lon="6.670522151060535">
				<ele>128.0</ele>
				<time>2011-02-16T16:33:59Z</time>
			</trkpt>
			<trkpt lat="50.9011567142897" lon="6.670631109523845">
				<ele>127.0</ele>
				<time>2011-02-16T16:34:00Z</time>
			</trkpt>
			<trkpt lat="50.901195691052" lon="6.6707381589474775">
				<ele>127.0</ele>
				<time>2011-02-16T16:34:01Z</time>
			</trkpt>
			<trkpt lat="50.901233700725506" lon="6.670843782854846">
				<ele>127.0</ele>
				<time>2011-02-16T16:34:02Z</time>
			</trkpt>
			<trkpt lat="50.90126957548216" lon="6.670944022582128">
				<ele>127.0</ele>
				<time>2011-02-16T16:34:03Z</time>
			</trkpt>
			<trkpt lat="50.90130561627784" lon="6.671043402349566">
				<ele>127.0</ele>
				<time>2011-02-16T16:34:04Z</time>
			</trkpt>
			<trkpt lat="50.90134498188997" lon="6.6711397309709355">
				<ele>127.0</ele>
				<time>2011-02-16T16:34:05Z</time>
			</trkpt>
			<trkpt lat="50.901384159488515" lon="6.67123327930952">
				<ele>127.0</ele>
				<time>2011-02-16T16:34:06Z</time>
			</trkpt>
			<trkpt lat="50.90142273500344" lon="6.671325139970732">
				<ele>127.0</ele>
				<time>2011-02-16T16:34:07Z</time>
			</trkpt>
			<trkpt lat="50.90146284128864" lon="6.67141525546378">
				<ele>127.0</ele>
				<time>2011-02-16T16:34:08Z</time>
			</trkpt>
			<trkpt lat="50.90150708578869" lon="6.671506202336554">
				<ele>127.0</ele>
				<time>2011-02-16T16:34:09Z</time>
			</trkpt>
			<trkpt lat="50.90156134244902" lon="6.671613306049225">
				<ele>127.0</ele>
				<time>2011-02-16T16:34:10Z</time>
			</trkpt>
			<trkpt lat="50.901621191537046" lon="6.671734265743196">
				<ele>127.0</ele>
				<time>2011-02-16T16:34:11Z</time>
			</trkpt>
			<trkpt lat="50.90167621547493" lon="6.6718579744533075">
				<ele>127.0</ele>
				<time>2011-02-16T16:34:12Z</time>
			</trkpt>
			<trkpt lat="50.901730546846686" lon="6.6719897512467385">
				<ele>127.0</ele>
				<time>2011-02-16T16:34:13Z</time>
			</trkpt>
			<trkpt lat="50.901786221445256" lon="6.672127090650246">
				<ele>127.0</ele>
				<time>2011-02-16T16:34:14Z</time>
			</trkpt>
			<trkpt lat="50.901841368892825" lon="6.67226376251689">
				<ele>127.0</ele>
				<time>2011-02-16T16:34:15Z</time>
			</trkpt>
			<trkpt lat="50.90189823639515" lon="6.672402628653686">
				<ele>126.0</ele>
				<time>2011-02-16T16:34:16Z</time>
			</trkpt>
			<trkpt lat="50.901955443285146" lon="6.672540261642449">
				<ele>126.0</ele>
				<time>2011-02-16T16:34:17Z</time>
			</trkpt>
			<trkpt lat="50.90201132999159" lon="6.672674442280106">
				<ele>126.0</ele>
				<time>2011-02-16T16:34:18Z</time>
			</trkpt>
			<trkpt lat="50.90206419398097" lon="6.672808812568697">
				<ele>126.0</ele>
				<time>2011-02-16T16:34:19Z</time>
			</trkpt>
			<trkpt lat="50.90211530812724" lon="6.672940955892864">
				<ele>126.0</ele>
				<time>2011-02-16T16:34:20Z</time>
			</trkpt>
			<trkpt lat="50.90216523515402" lon="6.673070647904677">
				<ele>126.0</ele>
				<time>2011-02-16T16:34:21Z</time>
			</trkpt>
			<trkpt lat="50.90221523014751" lon="6.673198802415709">
				<ele>126.0</ele>
				<time>2011-02-16T16:34:22Z</time>
			</trkpt>
			<trkpt lat="50.90226542491066" lon="6.673323910945386">
				<ele>126.0</ele>
				<time>2011-02-16T16:34:23Z</time>
			</trkpt>
			<trkpt lat="50.90231616905758" lon="6.67344632064713">
				<ele>126.0</ele>
				<time>2011-02-16T16:34:24Z</time>
			</trkpt>
			<trkpt lat="50.90236707024276" lon="6.6735607880986745">
				<ele>127.0</ele>
				<time>2011-02-16T16:34:25Z</time>
			</trkpt>
			<trkpt lat="50.9024117548328" lon="6.673669604792383">
				<ele>127.0</ele>
				<time>2011-02-16T16:34:26Z</time>
			</trkpt>
			<trkpt lat="50.90244848526511" lon="6.67376680903905">
				<ele>127.0</ele>
				<time>2011-02-16T16:34:27Z</time>
			</trkpt>
			<trkpt lat="50.90247447886748" lon="6.67383833861389">
				<ele>127.0</ele>
				<time>2011-02-16T16:34:28Z</time>
			</trkpt>
			<trkpt lat="50.90249444937361" lon="6.673894064164941">
				<ele>127.0</ele>
				<time>2011-02-16T16:34:29Z</time>
			</trkpt>
			<trkpt lat="50.902514808214235" lon="6.673944004860993">
				<ele>127.0</ele>
				<time>2011-02-16T16:34:30Z</time>
			</trkpt>
			<trkpt lat="50.9025337365738" lon="6.673990532868692">
				<ele>127.0</ele>
				<time>2011-02-16T16:34:31Z</time>
			</trkpt>
			<trkpt lat="50.90255141572202" lon="6.674033831018864">
				<ele>127.0</ele>
				<time>2011-02-16T16:34:32Z</time>
			</trkpt>
			<trkpt lat="50.90256636640063" lon="6.674067579979347">
				<ele>127.0</ele>
				<time>2011-02-16T16:34:33Z</time>
			</trkpt>
			<trkpt lat="50.90257982810148" lon="6.6740994068883985">
				<ele>127.0</ele>
				<time>2011-02-16T16:34:34Z</time>
			</trkpt>
			<trkpt lat="50.90259640732851" lon="6.674138467030055">
				<ele>127.0</ele>
				<time>2011-02-16T16:34:35Z</time>
			</trkpt>
			<trkpt lat="50.90261779111373" lon="6.674191653112958">
				<ele>127.0</ele>
				<time>2011-02-16T16:34:36Z</time>
			</trkpt>
			<trkpt lat="50.90264234634683" lon="6.674252545700901">
				<ele>127.0</ele>
				<time>2011-02-16T16:34:37Z</time>
			</trkpt>
			<trkpt lat="50.9026668102646" lon="6.674316197209723">
				<ele>127.0</ele>
				<time>2011-02-16T16:34:38Z</time>
			</trkpt>
			<trkpt lat="50.902690986495145" lon="6.67438008079951">
				<ele>127.0</ele>
				<time>2011-02-16T16:34:39Z</time>
			</trkpt>
			<trkpt lat="50.90271550405915" lon="6.67444537557781">
				<ele>127.0</ele>
				<time>2011-02-16T16:34:40Z</time>
			</trkpt>
			<trkpt lat="50.90273777424999" lon="6.674507519709534">
				<ele>127.0</ele>
				<time>2011-02-16T16:34:41Z</time>
			</trkpt>
			<trkpt lat="50.90275999677742" lon="6.674569404886417">
				<ele>127.0</ele>
				<time>2011-02-16T16:34:42Z</time>
			</trkpt>
			<trkpt lat="50.90278187891001" lon="6.674630132418349">
				<ele>127.0</ele>
				<time>2011-02-16T16:34:43Z</time>
			</trkpt>
			<trkpt lat="50.90280134078077" lon="6.674686605277266">
				<ele>127.0</ele>
				<time>2011-02-16T16:34:44Z</time>
			</trkpt>
			<trkpt lat="50.902816227437405" lon="6.674729359073597">
				<ele>127.0</ele>
				<time>2011-02-16T16:34:45Z</time>
			</trkpt>
			<trkpt lat="50.902827233205535" lon="6.674761004341345">
				<ele>127.0</ele>
				<time>2011-02-16T16:34:46Z</time>
			</trkpt>
			<trkpt lat="50.90283746140884" lon="6.6747904274137175">
				<ele>127.0</ele>
				<time>2011-02-16T16:34:47Z</time>
			</trkpt>
			<trkpt lat="50.90284764472272" lon="6.674819657290253">
				<ele>127.0</ele>
				<time>2011-02-16T16:34:48Z</time>
			</trkpt>
			<trkpt lat="50.90285830231959" lon="6.67485012808013">
				<ele>126.0</ele>
				<time>2011-02-16T16:34:49Z</time>
			</trkpt>
			<trkpt lat="50.90287116924627" lon="6.674882543089094">
				<ele>126.0</ele>
				<time>2011-02-16T16:34:50Z</time>
			</trkpt>
			<trkpt lat="50.90288590725304" lon="6.674916520448609">
				<ele>126.0</ele>
				<time>2011-02-16T16:34:51Z</time>
			</trkpt>
			<trkpt lat="50.902904491551084" lon="6.674954206361409">
				<ele>126.0</ele>
				<time>2011-02-16T16:34:52Z</time>
			</trkpt>
			<trkpt lat="50.90292529592644" lon="6.674992169499405">
				<ele>126.0</ele>
				<time>2011-02-16T16:34:53Z</time>
			</trkpt>
			<trkpt lat="50.902946915884684" lon="6.675034379760404">
				<ele>126.0</ele>
				<time>2011-02-16T16:34:54Z</time>
			</trkpt>
			<trkpt lat="50.9029660210651" lon="6.675077981460708">
				<ele>126.0</ele>
				<time>2011-02-16T16:34:55Z</time>
			</trkpt>
			<trkpt lat="50.90298532374741" lon="6.675129763174693">
				<ele>126.0</ele>
				<time>2011-02-16T16:34:56Z</time>
			</trkpt>
			<trkpt lat="50.90299666833697" lon="6.675192522149894">
				<ele>126.0</ele>
				<time>2011-02-16T16:34:57Z</time>
			</trkpt>
			<trkpt lat="50.90300717469583" lon="6.675255730536499">
				<ele>126.0</ele>
				<time>2011-02-16T16:34:58Z</time>
			</trkpt>
			<trkpt lat="50.90300705671874" lon="6.675318260254152">
				<ele>126.0</ele>
				<time>2011-02-16T16:34:59Z</time>
			</trkpt>
			<trkpt lat="50.90299691998916" lon="6.675376722389242">
				<ele>125.0</ele>
				<time>2011-02-16T16:35:00Z</time>
			</trkpt>
			<trkpt lat="50.902988985776574" lon="6.675437997857099">
				<ele>125.0</ele>
				<time>2011-02-16T16:35:01Z</time>
			</trkpt>
			<trkpt lat="50.90298476267686" lon="6.675502083533699">
				<ele>125.0</ele>
				<time>2011-02-16T16:35:02Z</time>
			</trkpt>
			<trkpt lat="50.90299256958618" lon="6.675571678661645">
				<ele>125.0</ele>
				<time>2011-02-16T16:35:03Z</time>
			</trkpt>
			<trkpt lat="50.90300162091891" lon="6.675641118078862">
				<ele>125.0</ele>
				<time>2011-02-16T16:35:04Z</time>
			</trkpt>
			<trkpt lat="50.90301307911916" lon="6.675706548723296">
				<ele>125.0</ele>
				<time>2011-02-16T16:35:05Z</time>
			</trkpt>
			<trkpt lat="50.90302582524765" lon="6.675766572648315">
				<ele>125.0</ele>
				<time>2011-02-16T16:35:06Z</time>
			</trkpt>
			<trkpt lat="50.90303807563011" lon="6.675825995022319">
				<ele>125.0</ele>
				<time>2011-02-16T16:35:07Z</time>
			</trkpt>
			<trkpt lat="50.90305032175794" lon="6.6758867839299585">
				<ele>125.0</ele>
				<time>2011-02-16T16:35:08Z</time>
			</trkpt>
			<trkpt lat="50.903064011384515" lon="6.675955412251519">
				<ele>125.0</ele>
				<time>2011-02-16T16:35:09Z</time>
			</trkpt>
			<trkpt lat="50.903081379162856" lon="6.676031696291086">
				<ele>125.0</ele>
				<time>2011-02-16T16:35:10Z</time>
			</trkpt>
			<trkpt lat="50.90310065829665" lon="6.67611102038998">
				<ele>125.0</ele>
				<time>2011-02-16T16:35:11Z</time>
			</trkpt>
			<trkpt lat="50.90311976508334" lon="6.676191074383172">
				<ele>125.0</ele>
				<time>2011-02-16T16:35:12Z</time>
			</trkpt>
			<trkpt lat="50.90313900426491" lon="6.676270484567308">
				<ele>124.0</ele>
				<time>2011-02-16T16:35:13Z</time>
			</trkpt>
			<trkpt lat="50.90315703922887" lon="6.676347212642421">
				<ele>124.0</ele>
				<time>2011-02-16T16:35:14Z</time>
			</trkpt>
			<trkpt lat="50.903174599445286" lon="6.676421004304863">
				<ele>124.0</ele>
				<time>2011-02-16T16:35:15Z</time>
			</trkpt>
			<trkpt lat="50.90319019984628" lon="6.676491456092144">
				<ele>123.0</ele>
				<time>2011-02-16T16:35:16Z</time>
			</trkpt>
			<trkpt lat="50.903206449948655" lon="6.676557601579389">
				<ele>123.0</ele>
				<time>2011-02-16T16:35:17Z</time>
			</trkpt>
			<trkpt lat="50.90322125971979" lon="6.676618135076921">
				<ele>123.0</ele>
				<time>2011-02-16T16:35:18Z</time>
			</trkpt>
			<trkpt lat="50.903232781173614" lon="6.676674393922419">
				<ele>123.0</ele>
				<time>2011-02-16T16:35:19Z</time>
			</trkpt>
			<trkpt lat="50.90324291156405" lon="6.676727930153826">
				<ele>123.0</ele>
				<time>2011-02-16T16:35:20Z</time>
			</trkpt>
			<trkpt lat="50.90325261773349" lon="6.67677828609393">
				<ele>123.0</ele>
				<time>2011-02-16T16:35:21Z</time>
			</trkpt>
			<trkpt lat="50.90325261773349" lon="6.67677828609393">
				<ele>123.0</ele>
				<time>2011-02-16T16:35:22Z</time>
			</trkpt>
			<trkpt lat="50.90325261773349" lon="6.67677828609393">
				<ele>123.0</ele>
				<time>2011-02-16T16:35:23Z</time>
			</trkpt>
			<trkpt lat="50.90326365170677" lon="6.676828229651102">
				<ele>123.0</ele>
				<time>2011-02-16T16:35:24Z</time>
			</trkpt>
			<trkpt lat="50.90327416116246" lon="6.676876195145162">
				<ele>123.0</ele>
				<time>2011-02-16T16:35:25Z</time>
			</trkpt>
			<trkpt lat="50.903287533029385" lon="6.676932397856212">
				<ele>123.0</ele>
				<time>2011-02-16T16:35:26Z</time>
			</trkpt>
			<trkpt lat="50.90330640675629" lon="6.676998778007723">
				<ele>122.0</ele>
				<time>2011-02-16T16:35:27Z</time>
			</trkpt>
			<trkpt lat="50.90333356086232" lon="6.677076496309901">
				<ele>122.0</ele>
				<time>2011-02-16T16:35:28Z</time>
			</trkpt>
			<trkpt lat="50.90338293011902" lon="6.677151318758559">
				<ele>122.0</ele>
				<time>2011-02-16T16:35:29Z</time>
			</trkpt>
			<trkpt lat="50.90343454234443" lon="6.677229948616081">
				<ele>122.0</ele>
				<time>2011-02-16T16:35:30Z</time>
			</trkpt>
			<trkpt lat="50.90349106858527" lon="6.677317202221394">
				<ele>122.0</ele>
				<time>2011-02-16T16:35:31Z</time>
			</trkpt>
			<trkpt lat="50.90353050411316" lon="6.677424518394197">
				<ele>122.0</ele>
				<time>2011-02-16T16:35:32Z</time>
			</trkpt>
			<trkpt lat="50.90356593563953" lon="6.677534480124942">
				<ele>122.0</ele>
				<time>2011-02-16T16:35:33Z</time>
			</trkpt>
			<trkpt lat="50.90359869575931" lon="6.67764665130184">
				<ele>122.0</ele>
				<time>2011-02-16T16:35:34Z</time>
			</trkpt>
			<trkpt lat="50.90362666090244" lon="6.677758053502806">
				<ele>122.0</ele>
				<time>2011-02-16T16:35:35Z</time>
			</trkpt>
			<trkpt lat="50.90365266339326" lon="6.677864810893864">
				<ele>122.0</ele>
				<time>2011-02-16T16:35:36Z</time>
			</trkpt>
			<trkpt lat="50.90367818067429" lon="6.6779697721569375">
				<ele>122.0</ele>
				<time>2011-02-16T16:35:37Z</time>
			</trkpt>
			<trkpt lat="50.903703859514025" lon="6.678073828921059">
				<ele>122.0</ele>
				<time>2011-02-16T16:35:38Z</time>
			</trkpt>
			<trkpt lat="50.9037320446652" lon="6.678181647203576">
				<ele>122.0</ele>
				<time>2011-02-16T16:35:39Z</time>
			</trkpt>
			<trkpt lat="50.903760695511224" lon="6.678294067691383">
				<ele>122.0</ele>
				<time>2011-02-16T16:35:40Z</time>
			</trkpt>
			<trkpt lat="50.90378941531086" lon="6.678406639862576">
				<ele>122.0</ele>
				<time>2011-02-16T16:35:41Z</time>
			</trkpt>
			<trkpt lat="50.903817499972334" lon="6.67851728355936">
				<ele>122.0</ele>
				<time>2011-02-16T16:35:42Z</time>
			</trkpt>
			<trkpt lat="50.903843759979324" lon="6.678623217140168">
				<ele>122.0</ele>
				<time>2011-02-16T16:35:43Z</time>
			</trkpt>
			<trkpt lat="50.903867119296905" lon="6.678717998582678">
				<ele>122.0</ele>
				<time>2011-02-16T16:35:44Z</time>
			</trkpt>
			<trkpt lat="50.9038853094229" lon="6.678797396543815">
				<ele>123.0</ele>
				<time>2011-02-16T16:35:45Z</time>
			</trkpt>
			<trkpt lat="50.90389751149706" lon="6.678855012962002">
				<ele>123.0</ele>
				<time>2011-02-16T16:35:46Z</time>
			</trkpt>
			<trkpt lat="50.90390488078654" lon="6.678890618021707">
				<ele>123.0</ele>
				<time>2011-02-16T16:35:47Z</time>
			</trkpt>
			<trkpt lat="50.9039103505482" lon="6.678919793999093">
				<ele>123.0</ele>
				<time>2011-02-16T16:35:48Z</time>
			</trkpt>
			<trkpt lat="50.90391187150034" lon="6.678954824313492">
				<ele>123.0</ele>
				<time>2011-02-16T16:35:49Z</time>
			</trkpt>
			<trkpt lat="50.9039019771338" lon="6.679004733612087">
				<ele>123.0</ele>
				<time>2011-02-16T16:35:50Z</time>
			</trkpt>
			<trkpt lat="50.90389118192884" lon="6.679051762754046">
				<ele>123.0</ele>
				<time>2011-02-16T16:35:51Z</time>
			</trkpt>
			<trkpt lat="50.90386955475542" lon="6.679092933702644">
				<ele>123.0</ele>
				<time>2011-02-16T16:35:52Z</time>
			</trkpt>
			<trkpt lat="50.9038384123784" lon="6.679129098976105">
				<ele>123.0</ele>
				<time>2011-02-16T16:35:53Z</time>
			</trkpt>
			<trkpt lat="50.90380633904238" lon="6.679160698623871">
				<ele>123.0</ele>
				<time>2011-02-16T16:35:54Z</time>
			</trkpt>
			<trkpt lat="50.903770719796505" lon="6.67919036256337">
				<ele>123.0</ele>
				<time>2011-02-16T16:35:55Z</time>
			</trkpt>
			<trkpt lat="50.90372851672118" lon="6.679219031917793">
				<ele>123.0</ele>
				<time>2011-02-16T16:35:56Z</time>
			</trkpt>
			<trkpt lat="50.90368611886231" lon="6.679247759666511">
				<ele>123.0</ele>
				<time>2011-02-16T16:35:57Z</time>
			</trkpt>
			<trkpt lat="50.90364316684013" lon="6.679279113273976">
				<ele>123.0</ele>
				<time>2011-02-16T16:35:58Z</time>
			</trkpt>
			<trkpt lat="50.903602238574294" lon="6.679314011139699">
				<ele>123.0</ele>
				<time>2011-02-16T16:35:59Z</time>
			</trkpt>
			<trkpt lat="50.90356400599652" lon="6.679349467891928">
				<ele>123.0</ele>
				<time>2011-02-16T16:36:00Z</time>
			</trkpt>
			<trkpt lat="50.90352687170211" lon="6.679384885639749">
				<ele>123.0</ele>
				<time>2011-02-16T16:36:01Z</time>
			</trkpt>
			<trkpt lat="50.903491615395794" lon="6.6794227465042875">
				<ele>123.0</ele>
				<time>2011-02-16T16:36:02Z</time>
			</trkpt>
			<trkpt lat="50.90345882641305" lon="6.679464135697957">
				<ele>123.0</ele>
				<time>2011-02-16T16:36:03Z</time>
			</trkpt>
			<trkpt lat="50.90343894214636" lon="6.679517180756347">
				<ele>123.0</ele>
				<time>2011-02-16T16:36:04Z</time>
			</trkpt>
			<trkpt lat="50.9034289690821" lon="6.679570614015841">
				<ele>123.0</ele>
				<time>2011-02-16T16:36:05Z</time>
			</trkpt>
			<trkpt lat="50.903429644202895" lon="6.679623009868394">
				<ele>123.0</ele>
				<time>2011-02-16T16:36:06Z</time>
			</trkpt>
			<trkpt lat="50.90343981368304" lon="6.679671315257796">
				<ele>123.0</ele>
				<time>2011-02-16T16:36:07Z</time>
			</trkpt>
			<trkpt lat="50.90345836879905" lon="6.679708291632087">
				<ele>123.0</ele>
				<time>2011-02-16T16:36:08Z</time>
			</trkpt>
			<trkpt lat="50.9034794270355" lon="6.679739978052868">
				<ele>123.0</ele>
				<time>2011-02-16T16:36:09Z</time>
			</trkpt>
			<trkpt lat="50.903512716653694" lon="6.679745660826961">
				<ele>123.0</ele>
				<time>2011-02-16T16:36:10Z</time>
			</trkpt>
			<trkpt lat="50.90355224039955" lon="6.6797319569966325">
				<ele>123.0</ele>
				<time>2011-02-16T16:36:11Z</time>
			</trkpt>
			<trkpt lat="50.903592407858895" lon="6.679702871859867">
				<ele>123.0</ele>
				<time>2011-02-16T16:36:12Z</time>
			</trkpt>
			<trkpt lat="50.90363443806606" lon="6.679671019044819">
				<ele>123.0</ele>
				<time>2011-02-16T16:36:13Z</time>
			</trkpt>
			<trkpt lat="50.90367722694531" lon="6.679635031006539">
				<ele>123.0</ele>
				<time>2011-02-16T16:36:14Z</time>
			</trkpt>
			<trkpt lat="50.903723705537516" lon="6.679595311322729">
				<ele>122.0</ele>
				<time>2011-02-16T16:36:15Z</time>
			</trkpt>
			<trkpt lat="50.90376896840394" lon="6.679555117871068">
				<ele>122.0</ele>
				<time>2011-02-16T16:36:16Z</time>
			</trkpt>
			<trkpt lat="50.903813215320156" lon="6.679513090856936">
				<ele>122.0</ele>
				<time>2011-02-16T16:36:17Z</time>
			</trkpt>
			<trkpt lat="50.90385522630596" lon="6.679470333660911">
				<ele>122.0</ele>
				<time>2011-02-16T16:36:18Z</time>
			</trkpt>
			<trkpt lat="50.90389280852175" lon="6.679430196812057">
				<ele>122.0</ele>
				<time>2011-02-16T16:36:19Z</time>
			</trkpt>
			<trkpt lat="50.903920628708725" lon="6.6793998872953235">
				<ele>122.0</ele>
				<time>2011-02-16T16:36:20Z</time>
			</trkpt>
			<trkpt lat="50.90394604023123" lon="6.679369556933297">
				<ele>122.0</ele>
				<time>2011-02-16T16:36:21Z</time>
			</trkpt>
			<trkpt lat="50.90396707414555" lon="6.679342912368286">
				<ele>122.0</ele>
				<time>2011-02-16T16:36:22Z</time>
			</trkpt>
			<trkpt lat="50.90399280593224" lon="6.679325575114686">
				<ele>122.0</ele>
				<time>2011-02-16T16:36:23Z</time>
			</trkpt>
			<trkpt lat="50.90402470966273" lon="6.679331902138772">
				<ele>122.0</ele>
				<time>2011-02-16T16:36:24Z</time>
			</trkpt>
			<trkpt lat="50.90405062737043" lon="6.679358337549539">
				<ele>122.0</ele>
				<time>2011-02-16T16:36:25Z</time>
			</trkpt>
			<trkpt lat="50.904071570415844" lon="6.679410321466697">
				<ele>122.0</ele>
				<time>2011-02-16T16:36:26Z</time>
			</trkpt>
			<trkpt lat="50.904098871822036" lon="6.679485281302501">
				<ele>122.0</ele>
				<time>2011-02-16T16:36:27Z</time>
			</trkpt>
			<trkpt lat="50.90412759406407" lon="6.679570033253825">
				<ele>122.0</ele>
				<time>2011-02-16T16:36:28Z</time>
			</trkpt>
			<trkpt lat="50.90415690715737" lon="6.679656362030106">
				<ele>121.0</ele>
				<time>2011-02-16T16:36:29Z</time>
			</trkpt>
			<trkpt lat="50.90418636059935" lon="6.679743096107947">
				<ele>121.0</ele>
				<time>2011-02-16T16:36:30Z</time>
			</trkpt>
			<trkpt lat="50.90421479077707" lon="6.679830238954542">
				<ele>121.0</ele>
				<time>2011-02-16T16:36:31Z</time>
			</trkpt>
			<trkpt lat="50.904240986191844" lon="6.679913622488986">
				<ele>121.0</ele>
				<time>2011-02-16T16:36:32Z</time>
			</trkpt>
			<trkpt lat="50.90426493681178" lon="6.6799912447164305">
				<ele>120.0</ele>
				<time>2011-02-16T16:36:33Z</time>
			</trkpt>
			<trkpt lat="50.90428498236978" lon="6.680065121947531">
				<ele>120.0</ele>
				<time>2011-02-16T16:36:34Z</time>
			</trkpt>
			<trkpt lat="50.90430553052834" lon="6.680139544667231">
				<ele>120.0</ele>
				<time>2011-02-16T16:36:35Z</time>
			</trkpt>
			<trkpt lat="50.90432704829232" lon="6.680217734913816">
				<ele>121.0</ele>
				<time>2011-02-16T16:36:36Z</time>
			</trkpt>
			<trkpt lat="50.90435047873343" lon="6.680293156636241">
				<ele>121.0</ele>
				<time>2011-02-16T16:36:37Z</time>
			</trkpt>
			<trkpt lat="50.904365707997215" lon="6.680341442103561">
				<ele>121.0</ele>
				<time>2011-02-16T16:36:38Z</time>
			</trkpt>
			<trkpt lat="50.904365707997215" lon="6.680341442103561">
				<ele>121.0</ele>
				<time>2011-02-16T16:36:39Z</time>
			</trkpt>
			<trkpt lat="50.904365707997215" lon="6.680341442103561">
				<ele>121.0</ele>
				<time>2011-02-16T16:36:40Z</time>
			</trkpt>
			<trkpt lat="50.904365707997215" lon="6.680341442103561">
				<ele>121.0</ele>
				<time>2011-02-16T16:36:41Z</time>
			</trkpt>
			<trkpt lat="50.904365707997215" lon="6.680341442103561">
				<ele>121.0</ele>
				<time>2011-02-16T16:36:42Z</time>
			</trkpt>
			<trkpt lat="50.904365707997215" lon="6.680341442103561">
				<ele>121.0</ele>
				<time>2011-02-16T16:36:43Z</time>
			</trkpt>
			<trkpt lat="50.904365707997215" lon="6.680341442103561">
				<ele>121.0</ele>
				<time>2011-02-16T16:36:44Z</time>
			</trkpt>
			<trkpt lat="50.90437667568547" lon="6.680382644218808">
				<ele>121.0</ele>
				<time>2011-02-16T16:36:45Z</time>
			</trkpt>
			<trkpt lat="50.90439551903224" lon="6.680429805444786">
				<ele>121.0</ele>
				<time>2011-02-16T16:36:46Z</time>
			</trkpt>
			<trkpt lat="50.90441693807731" lon="6.680483846123413">
				<ele>121.0</ele>
				<time>2011-02-16T16:36:47Z</time>
			</trkpt>
			<trkpt lat="50.90444081107685" lon="6.680548714825341">
				<ele>121.0</ele>
				<time>2011-02-16T16:36:48Z</time>
			</trkpt>
			<trkpt lat="50.90446982966692" lon="6.6806334575214015">
				<ele>121.0</ele>
				<time>2011-02-16T16:36:49Z</time>
			</trkpt>
			<trkpt lat="50.90449823274469" lon="6.680725141799617">
				<ele>121.0</ele>
				<time>2011-02-16T16:36:50Z</time>
			</trkpt>
			<trkpt lat="50.904525178251134" lon="6.680819956174667">
				<ele>121.0</ele>
				<time>2011-02-16T16:36:51Z</time>
			</trkpt>
			<trkpt lat="50.90455147904845" lon="6.680912663036328">
				<ele>122.0</ele>
				<time>2011-02-16T16:36:52Z</time>
			</trkpt>
			<trkpt lat="50.9045746558487" lon="6.681004958354465">
				<ele>122.0</ele>
				<time>2011-02-16T16:36:53Z</time>
			</trkpt>
			<trkpt lat="50.90459745055836" lon="6.6810939034703765">
				<ele>122.0</ele>
				<time>2011-02-16T16:36:54Z</time>
			</trkpt>
			<trkpt lat="50.9046173316624" lon="6.681182990744115">
				<ele>122.0</ele>
				<time>2011-02-16T16:36:55Z</time>
			</trkpt>
			<trkpt lat="50.904636630169406" lon="6.681263338756134">
				<ele>122.0</ele>
				<time>2011-02-16T16:36:56Z</time>
			</trkpt>
			<trkpt lat="50.904654687728254" lon="6.68133176065599">
				<ele>122.0</ele>
				<time>2011-02-16T16:36:57Z</time>
			</trkpt>
			<trkpt lat="50.90468144248364" lon="6.681375803984016">
				<ele>122.0</ele>
				<time>2011-02-16T16:36:58Z</time>
			</trkpt>
			<trkpt lat="50.90471953125727" lon="6.681388451541345">
				<ele>122.0</ele>
				<time>2011-02-16T16:36:59Z</time>
			</trkpt>
			<trkpt lat="50.904764026109184" lon="6.681380970855923">
				<ele>122.0</ele>
				<time>2011-02-16T16:37:00Z</time>
			</trkpt>
			<trkpt lat="50.904821177794595" lon="6.681344998389396">
				<ele>122.0</ele>
				<time>2011-02-16T16:37:01Z</time>
			</trkpt>
			<trkpt lat="50.90488222145375" lon="6.681307522890058">
				<ele>122.0</ele>
				<time>2011-02-16T16:37:02Z</time>
			</trkpt>
			<trkpt lat="50.9049495345942" lon="6.681266151694224">
				<ele>122.0</ele>
				<time>2011-02-16T16:37:03Z</time>
			</trkpt>
			<trkpt lat="50.90502380285451" lon="6.681218379573971">
				<ele>122.0</ele>
				<time>2011-02-16T16:37:04Z</time>
			</trkpt>
			<trkpt lat="50.90509820243411" lon="6.681167186877793">
				<ele>122.0</ele>
				<time>2011-02-16T16:37:05Z</time>
			</trkpt>
			<trkpt lat="50.9051760741662" lon="6.681114124228046">
				<ele>122.0</ele>
				<time>2011-02-16T16:37:06Z</time>
			</trkpt>
			<trkpt lat="50.905255483484375" lon="6.681059394406444">
				<ele>122.0</ele>
				<time>2011-02-16T16:37:07Z</time>
			</trkpt>
			<trkpt lat="50.90533507664756" lon="6.681004587473476">
				<ele>122.0</ele>
				<time>2011-02-16T16:37:08Z</time>
			</trkpt>
			<trkpt lat="50.905414543148176" lon="6.680950392290188">
				<ele>123.0</ele>
				<time>2011-02-16T16:37:09Z</time>
			</trkpt>
			<trkpt lat="50.90549216629854" lon="6.680896879759376">
				<ele>123.0</ele>
				<time>2011-02-16T16:37:10Z</time>
			</trkpt>
			<trkpt lat="50.90557065826123" lon="6.680845684910938">
				<ele>123.0</ele>
				<time>2011-02-16T16:37:11Z</time>
			</trkpt>
			<trkpt lat="50.905649325347554" lon="6.680794427107876">
				<ele>123.0</ele>
				<time>2011-02-16T16:37:12Z</time>
			</trkpt>
			<trkpt lat="50.905725873408386" lon="6.680740953725571">
				<ele>124.0</ele>
				<time>2011-02-16T16:37:13Z</time>
			</trkpt>
			<trkpt lat="50.905800879761884" lon="6.680687079424006">
				<ele>124.0</ele>
				<time>2011-02-16T16:37:14Z</time>
			</trkpt>
			<trkpt lat="50.9058741072825" lon="6.6806331228132">
				<ele>124.0</ele>
				<time>2011-02-16T16:37:15Z</time>
			</trkpt>
			<trkpt lat="50.90594570617678" lon="6.680580332898783">
				<ele>125.0</ele>
				<time>2011-02-16T16:37:16Z</time>
			</trkpt>
			<trkpt lat="50.90601544411334" lon="6.680529642355255">
				<ele>125.0</ele>
				<time>2011-02-16T16:37:17Z</time>
			</trkpt>
			<trkpt lat="50.906081403394126" lon="6.680480925912058">
				<ele>125.0</ele>
				<time>2011-02-16T16:37:18Z</time>
			</trkpt>
			<trkpt lat="50.90614223114451" lon="6.680436329990155">
				<ele>125.0</ele>
				<time>2011-02-16T16:37:19Z</time>
			</trkpt>
			<trkpt lat="50.906194693563485" lon="6.680397877034226">
				<ele>126.0</ele>
				<time>2011-02-16T16:37:20Z</time>
			</trkpt>
			<trkpt lat="50.90623394200209" lon="6.680368853418914">
				<ele>126.0</ele>
				<time>2011-02-16T16:37:21Z</time>
			</trkpt>
			<trkpt lat="50.90626208446469" lon="6.6803518770367525">
				<ele>126.0</ele>
				<time>2011-02-16T16:37:22Z</time>
			</trkpt>
			<trkpt lat="50.90627918260976" lon="6.680342039071784">
				<ele>126.0</ele>
				<time>2011-02-16T16:37:23Z</time>
			</trkpt>
			<trkpt lat="50.90627918260976" lon="6.680342039071784">
				<ele>126.0</ele>
				<time>2011-02-16T16:37:24Z</time>
			</trkpt>
			<trkpt lat="50.90627918260976" lon="6.680342039071784">
				<ele>126.0</ele>
				<time>2011-02-16T16:37:25Z</time>
			</trkpt>
			<trkpt lat="50.90627918260976" lon="6.680342039071784">
				<ele>126.0</ele>
				<time>2011-02-16T16:37:26Z</time>
			</trkpt>
			<trkpt lat="50.90631056363513" lon="6.680327975043158">
				<ele>125.0</ele>
				<time>2011-02-16T16:37:27Z</time>
			</trkpt>
			<trkpt lat="50.90631056363513" lon="6.680327975043158">
				<ele>125.0</ele>
				<time>2011-02-16T16:37:28Z</time>
			</trkpt>
			<trkpt lat="50.9063416325335" lon="6.680365021008748">
				<ele>125.0</ele>
				<time>2011-02-16T16:37:29Z</time>
			</trkpt>
			<trkpt lat="50.906354022788825" lon="6.6804186297007835">
				<ele>125.0</ele>
				<time>2011-02-16T16:37:30Z</time>
			</trkpt>
			<trkpt lat="50.90636907579686" lon="6.680477168554893">
				<ele>125.0</ele>
				<time>2011-02-16T16:37:31Z</time>
			</trkpt>
			<trkpt lat="50.90638723961715" lon="6.6805430607290965">
				<ele>125.0</ele>
				<time>2011-02-16T16:37:32Z</time>
			</trkpt>
			<trkpt lat="50.90640888800268" lon="6.680619583442492">
				<ele>125.0</ele>
				<time>2011-02-16T16:37:33Z</time>
			</trkpt>
			<trkpt lat="50.90643159994345" lon="6.68069948254064">
				<ele>125.0</ele>
				<time>2011-02-16T16:37:34Z</time>
			</trkpt>
			<trkpt lat="50.90645409059566" lon="6.6807840072519715">
				<ele>124.0</ele>
				<time>2011-02-16T16:37:35Z</time>
			</trkpt>
			<trkpt lat="50.90647739536717" lon="6.680870473737418">
				<ele>124.0</ele>
				<time>2011-02-16T16:37:36Z</time>
			</trkpt>
			<trkpt lat="50.90650205780175" lon="6.680955206791876">
				<ele>124.0</ele>
				<time>2011-02-16T16:37:37Z</time>
			</trkpt>
			<trkpt lat="50.90652623196043" lon="6.681038376303122">
				<ele>124.0</ele>
				<time>2011-02-16T16:37:38Z</time>
			</trkpt>
			<trkpt lat="50.906552526794286" lon="6.681124218983006">
				<ele>124.0</ele>
				<time>2011-02-16T16:37:39Z</time>
			</trkpt>
			<trkpt lat="50.90657937778792" lon="6.6812166510490005">
				<ele>124.0</ele>
				<time>2011-02-16T16:37:40Z</time>
			</trkpt>
			<trkpt lat="50.906608948674034" lon="6.681318976157765">
				<ele>124.0</ele>
				<time>2011-02-16T16:37:41Z</time>
			</trkpt>
			<trkpt lat="50.90663887725117" lon="6.681422482397667">
				<ele>124.0</ele>
				<time>2011-02-16T16:37:42Z</time>
			</trkpt>
			<trkpt lat="50.90666885136722" lon="6.68152621895261">
				<ele>123.0</ele>
				<time>2011-02-16T16:37:43Z</time>
			</trkpt>
			<trkpt lat="50.90669963878236" lon="6.681633716227877">
				<ele>123.0</ele>
				<time>2011-02-16T16:37:44Z</time>
			</trkpt>
			<trkpt lat="50.90673156484215" lon="6.681738965432599">
				<ele>123.0</ele>
				<time>2011-02-16T16:37:45Z</time>
			</trkpt>
			<trkpt lat="50.906761892181606" lon="6.6818385304721195">
				<ele>123.0</ele>
				<time>2011-02-16T16:37:46Z</time>
			</trkpt>
			<trkpt lat="50.906793071634766" lon="6.6819297494372165">
				<ele>123.0</ele>
				<time>2011-02-16T16:37:47Z</time>
			</trkpt>
			<trkpt lat="50.90682519213322" lon="6.682015002908909">
				<ele>123.0</ele>
				<time>2011-02-16T16:37:48Z</time>
			</trkpt>
			<trkpt lat="50.90685882643463" lon="6.682093052096851">
				<ele>123.0</ele>
				<time>2011-02-16T16:37:49Z</time>
			</trkpt>
			<trkpt lat="50.90689113878618" lon="6.682169204745323">
				<ele>123.0</ele>
				<time>2011-02-16T16:37:50Z</time>
			</trkpt>
			<trkpt lat="50.906923333815286" lon="6.682245803836406">
				<ele>123.0</ele>
				<time>2011-02-16T16:37:51Z</time>
			</trkpt>
			<trkpt lat="50.90695569163554" lon="6.682323293183634">
				<ele>123.0</ele>
				<time>2011-02-16T16:37:52Z</time>
			</trkpt>
			<trkpt lat="50.90699415407499" lon="6.6823976559336336">
				<ele>123.0</ele>
				<time>2011-02-16T16:37:53Z</time>
			</trkpt>
			<trkpt lat="50.90703764616382" lon="6.682470208512859">
				<ele>123.0</ele>
				<time>2011-02-16T16:37:54Z</time>
			</trkpt>
			<trkpt lat="50.907097682368445" lon="6.682534381427187">
				<ele>123.0</ele>
				<time>2011-02-16T16:37:55Z</time>
			</trkpt>
			<trkpt lat="50.9071605527939" lon="6.682601892009425">
				<ele>123.0</ele>
				<time>2011-02-16T16:37:56Z</time>
			</trkpt>
			<trkpt lat="50.90722448685928" lon="6.6826687187498415">
				<ele>123.0</ele>
				<time>2011-02-16T16:37:57Z</time>
			</trkpt>
			<trkpt lat="50.907287788863194" lon="6.682731710503054">
				<ele>123.0</ele>
				<time>2011-02-16T16:37:58Z</time>
			</trkpt>
			<trkpt lat="50.90735258105855" lon="6.682792222572964">
				<ele>123.0</ele>
				<time>2011-02-16T16:37:59Z</time>
			</trkpt>
			<trkpt lat="50.907417545445256" lon="6.682852702887378">
				<ele>123.0</ele>
				<time>2011-02-16T16:38:00Z</time>
			</trkpt>
			<trkpt lat="50.907484707089175" lon="6.682907722660172">
				<ele>123.0</ele>
				<time>2011-02-16T16:38:01Z</time>
			</trkpt>
			<trkpt lat="50.90755535662305" lon="6.6829582200224085">
				<ele>123.0</ele>
				<time>2011-02-16T16:38:02Z</time>
			</trkpt>
			<trkpt lat="50.907628039385486" lon="6.683001275535472">
				<ele>123.0</ele>
				<time>2011-02-16T16:38:03Z</time>
			</trkpt>
			<trkpt lat="50.90770252676533" lon="6.68303619647384">
				<ele>123.0</ele>
				<time>2011-02-16T16:38:04Z</time>
			</trkpt>
			<trkpt lat="50.907776748979" lon="6.68306499011781">
				<ele>123.0</ele>
				<time>2011-02-16T16:38:05Z</time>
			</trkpt>
			<trkpt lat="50.907850989397694" lon="6.683086369683815">
				<ele>123.0</ele>
				<time>2011-02-16T16:38:06Z</time>
			</trkpt>
			<trkpt lat="50.90792363984907" lon="6.6831014015434205">
				<ele>123.0</ele>
				<time>2011-02-16T16:38:07Z</time>
			</trkpt>
			<trkpt lat="50.90799398966147" lon="6.6831112599085785">
				<ele>123.0</ele>
				<time>2011-02-16T16:38:08Z</time>
			</trkpt>
			<trkpt lat="50.9080638157336" lon="6.683117792633829">
				<ele>124.0</ele>
				<time>2011-02-16T16:38:09Z</time>
			</trkpt>
			<trkpt lat="50.908134372201076" lon="6.683120889578937">
				<ele>124.0</ele>
				<time>2011-02-16T16:38:10Z</time>
			</trkpt>
			<trkpt lat="50.9082076201423" lon="6.683124349033464">
				<ele>124.0</ele>
				<time>2011-02-16T16:38:11Z</time>
			</trkpt>
			<trkpt lat="50.90828006255553" lon="6.683124834020303">
				<ele>124.0</ele>
				<time>2011-02-16T16:38:12Z</time>
			</trkpt>
			<trkpt lat="50.908353390316066" lon="6.683129964915236">
				<ele>124.0</ele>
				<time>2011-02-16T16:38:13Z</time>
			</trkpt>
			<trkpt lat="50.908427577365565" lon="6.683135725617397">
				<ele>124.0</ele>
				<time>2011-02-16T16:38:14Z</time>
			</trkpt>
			<trkpt lat="50.908501365706464" lon="6.683143664519676">
				<ele>124.0</ele>
				<time>2011-02-16T16:38:15Z</time>
			</trkpt>
			<trkpt lat="50.908574369800675" lon="6.68315211356775">
				<ele>124.0</ele>
				<time>2011-02-16T16:38:16Z</time>
			</trkpt>
			<trkpt lat="50.908646349535516" lon="6.683160460463156">
				<ele>124.0</ele>
				<time>2011-02-16T16:38:17Z</time>
			</trkpt>
			<trkpt lat="50.90871643608863" lon="6.6831690953726985">
				<ele>124.0</ele>
				<time>2011-02-16T16:38:18Z</time>
			</trkpt>
			<trkpt lat="50.908785910161654" lon="6.683178095515635">
				<ele>124.0</ele>
				<time>2011-02-16T16:38:19Z</time>
			</trkpt>
			<trkpt lat="50.90885177099352" lon="6.68318784339238">
				<ele>124.0</ele>
				<time>2011-02-16T16:38:20Z</time>
			</trkpt>
			<trkpt lat="50.90891391578876" lon="6.683198066560486">
				<ele>123.0</ele>
				<time>2011-02-16T16:38:21Z</time>
			</trkpt>
			<trkpt lat="50.90897711115184" lon="6.683208843580652">
				<ele>123.0</ele>
				<time>2011-02-16T16:38:22Z</time>
			</trkpt>
			<trkpt lat="50.90904390165837" lon="6.683217597952006">
				<ele>123.0</ele>
				<time>2011-02-16T16:38:23Z</time>
			</trkpt>
			<trkpt lat="50.909113005347564" lon="6.6832237414536655">
				<ele>123.0</ele>
				<time>2011-02-16T16:38:24Z</time>
			</trkpt>
			<trkpt lat="50.90918338215835" lon="6.6832263413064625">
				<ele>123.0</ele>
				<time>2011-02-16T16:38:25Z</time>
			</trkpt>
			<trkpt lat="50.90925381047375" lon="6.683225516936308">
				<ele>122.0</ele>
				<time>2011-02-16T16:38:26Z</time>
			</trkpt>
			<trkpt lat="50.90932438825462" lon="6.683220029991427">
				<ele>122.0</ele>
				<time>2011-02-16T16:38:27Z</time>
			</trkpt>
			<trkpt lat="50.909393457979746" lon="6.68320948092355">
				<ele>122.0</ele>
				<time>2011-02-16T16:38:28Z</time>
			</trkpt>
			<trkpt lat="50.90946087263618" lon="6.6831953676052835">
				<ele>122.0</ele>
				<time>2011-02-16T16:38:29Z</time>
			</trkpt>
			<trkpt lat="50.90952454214419" lon="6.683180201474753">
				<ele>122.0</ele>
				<time>2011-02-16T16:38:30Z</time>
			</trkpt>
			<trkpt lat="50.90958606975704" lon="6.683162071414676">
				<ele>122.0</ele>
				<time>2011-02-16T16:38:31Z</time>
			</trkpt>
			<trkpt lat="50.90964893318539" lon="6.68313926714249">
				<ele>121.0</ele>
				<time>2011-02-16T16:38:32Z</time>
			</trkpt>
			<trkpt lat="50.90970869505191" lon="6.683112442664297">
				<ele>121.0</ele>
				<time>2011-02-16T16:38:33Z</time>
			</trkpt>
			<trkpt lat="50.90976291367538" lon="6.683087093018057">
				<ele>121.0</ele>
				<time>2011-02-16T16:38:34Z</time>
			</trkpt>
			<trkpt lat="50.909808151357836" lon="6.683062795879075">
				<ele>121.0</ele>
				<time>2011-02-16T16:38:35Z</time>
			</trkpt>
			<trkpt lat="50.909833856400915" lon="6.683049656456909">
				<ele>121.0</ele>
				<time>2011-02-16T16:38:36Z</time>
			</trkpt>
			<trkpt lat="50.90985025903656" lon="6.683040686484712">
				<ele>121.0</ele>
				<time>2011-02-16T16:38:37Z</time>
			</trkpt>
			<trkpt lat="50.9098624091062" lon="6.683033648133039">
				<ele>121.0</ele>
				<time>2011-02-16T16:38:38Z</time>
			</trkpt>
			<trkpt lat="50.909874959104314" lon="6.6830258475703594">
				<ele>121.0</ele>
				<time>2011-02-16T16:38:39Z</time>
			</trkpt>
			<trkpt lat="50.909892801809974" lon="6.683005799617938">
				<ele>121.0</ele>
				<time>2011-02-16T16:38:40Z</time>
			</trkpt>
			<trkpt lat="50.90991895908059" lon="6.682978076546863">
				<ele>121.0</ele>
				<time>2011-02-16T16:38:41Z</time>
			</trkpt>
			<trkpt lat="50.909949140273646" lon="6.682946509678154">
				<ele>121.0</ele>
				<time>2011-02-16T16:38:42Z</time>
			</trkpt>
			<trkpt lat="50.909981118048385" lon="6.682919201241888">
				<ele>121.0</ele>
				<time>2011-02-16T16:38:43Z</time>
			</trkpt>
			<trkpt lat="50.91001407870174" lon="6.682895433791328">
				<ele>121.0</ele>
				<time>2011-02-16T16:38:44Z</time>
			</trkpt>
			<trkpt lat="50.91004798965915" lon="6.68287383854494">
				<ele>121.0</ele>
				<time>2011-02-16T16:38:45Z</time>
			</trkpt>
			<trkpt lat="50.91008208454091" lon="6.68285367287113">
				<ele>121.0</ele>
				<time>2011-02-16T16:38:46Z</time>
			</trkpt>
			<trkpt lat="50.910112227999576" lon="6.682836268412567">
				<ele>121.0</ele>
				<time>2011-02-16T16:38:47Z</time>
			</trkpt>
			<trkpt lat="50.91013371773878" lon="6.682825687719145">
				<ele>121.0</ele>
				<time>2011-02-16T16:38:48Z</time>
			</trkpt>
			<trkpt lat="50.91014660190129" lon="6.682820549140705">
				<ele>121.0</ele>
				<time>2011-02-16T16:38:49Z</time>
			</trkpt>
			<trkpt lat="50.91014660190129" lon="6.682820549140705">
				<ele>121.0</ele>
				<time>2011-02-16T16:38:50Z</time>
			</trkpt>
			<trkpt lat="50.91017674062872" lon="6.682806230187926">
				<ele>121.0</ele>
				<time>2011-02-16T16:38:51Z</time>
			</trkpt>
			<trkpt lat="50.910208147496554" lon="6.682789722999414">
				<ele>121.0</ele>
				<time>2011-02-16T16:38:52Z</time>
			</trkpt>
			<trkpt lat="50.91024063762491" lon="6.682772407216893">
				<ele>121.0</ele>
				<time>2011-02-16T16:38:53Z</time>
			</trkpt>
			<trkpt lat="50.91027643604345" lon="6.682752435055123">
				<ele>121.0</ele>
				<time>2011-02-16T16:38:54Z</time>
			</trkpt>
			<trkpt lat="50.910318291632805" lon="6.682727118157157">
				<ele>121.0</ele>
				<time>2011-02-16T16:38:55Z</time>
			</trkpt>
			<trkpt lat="50.91036390535642" lon="6.682698892158595">
				<ele>121.0</ele>
				<time>2011-02-16T16:38:56Z</time>
			</trkpt>
			<trkpt lat="50.91040935598417" lon="6.682667710798923">
				<ele>122.0</ele>
				<time>2011-02-16T16:38:57Z</time>
			</trkpt>
			<trkpt lat="50.910452459658366" lon="6.6826352971769">
				<ele>122.0</ele>
				<time>2011-02-16T16:38:58Z</time>
			</trkpt>
			<trkpt lat="50.91049693723617" lon="6.682603294955442">
				<ele>122.0</ele>
				<time>2011-02-16T16:38:59Z</time>
			</trkpt>
			<trkpt lat="50.910540471697665" lon="6.682573892750097">
				<ele>122.0</ele>
				<time>2011-02-16T16:39:00Z</time>
			</trkpt>
			<trkpt lat="50.91058158512009" lon="6.682546034904249">
				<ele>122.0</ele>
				<time>2011-02-16T16:39:01Z</time>
			</trkpt>
			<trkpt lat="50.91061906225791" lon="6.6825206063789535">
				<ele>122.0</ele>
				<time>2011-02-16T16:39:02Z</time>
			</trkpt>
			<trkpt lat="50.9106560054169" lon="6.682497411310624">
				<ele>122.0</ele>
				<time>2011-02-16T16:39:03Z</time>
			</trkpt>
			<trkpt lat="50.910693202272356" lon="6.68247556675276">
				<ele>122.0</ele>
				<time>2011-02-16T16:39:04Z</time>
			</trkpt>
			<trkpt lat="50.91073696205054" lon="6.682451487050135">
				<ele>122.0</ele>
				<time>2011-02-16T16:39:05Z</time>
			</trkpt>
			<trkpt lat="50.91078393468017" lon="6.682425423117647">
				<ele>122.0</ele>
				<time>2011-02-16T16:39:06Z</time>
			</trkpt>
			<trkpt lat="50.91083067936778" lon="6.682398367233939">
				<ele>122.0</ele>
				<time>2011-02-16T16:39:07Z</time>
			</trkpt>
			<trkpt lat="50.91087697135496" lon="6.68237194651134">
				<ele>122.0</ele>
				<time>2011-02-16T16:39:08Z</time>
			</trkpt>
			<trkpt lat="50.91092076816322" lon="6.682349755047174">
				<ele>122.0</ele>
				<time>2011-02-16T16:39:09Z</time>
			</trkpt>
			<trkpt lat="50.910950022917625" lon="6.682334331136793">
				<ele>122.0</ele>
				<time>2011-02-16T16:39:10Z</time>
			</trkpt>
			<trkpt lat="50.910950022917625" lon="6.682334331136793">
				<ele>122.0</ele>
				<time>2011-02-16T16:39:11Z</time>
			</trkpt>
			<trkpt lat="50.91097529558162" lon="6.682321723913581">
				<ele>122.0</ele>
				<time>2011-02-16T16:39:12Z</time>
			</trkpt>
			<trkpt lat="50.91100384918417" lon="6.682308788778432">
				<ele>122.0</ele>
				<time>2011-02-16T16:39:13Z</time>
			</trkpt>
			<trkpt lat="50.91103390440336" lon="6.682296889400981">
				<ele>122.0</ele>
				<time>2011-02-16T16:39:14Z</time>
			</trkpt>
			<trkpt lat="50.911062929356994" lon="6.682268476415577">
				<ele>122.0</ele>
				<time>2011-02-16T16:39:15Z</time>
			</trkpt>
			<trkpt lat="50.91108835455494" lon="6.682219644627147">
				<ele>122.0</ele>
				<time>2011-02-16T16:39:16Z</time>
			</trkpt>
			<trkpt lat="50.911121414482395" lon="6.682158245734012">
				<ele>122.0</ele>
				<time>2011-02-16T16:39:17Z</time>
			</trkpt>
			<trkpt lat="50.9111609986903" lon="6.682097696060299">
				<ele>122.0</ele>
				<time>2011-02-16T16:39:18Z</time>
			</trkpt>
			<trkpt lat="50.91121659221611" lon="6.682043246638448">
				<ele>122.0</ele>
				<time>2011-02-16T16:39:19Z</time>
			</trkpt>
			<trkpt lat="50.91127659106923" lon="6.681984568215423">
				<ele>122.0</ele>
				<time>2011-02-16T16:39:20Z</time>
			</trkpt>
			<trkpt lat="50.91134129220907" lon="6.681919882350516">
				<ele>122.0</ele>
				<time>2011-02-16T16:39:21Z</time>
			</trkpt>
			<trkpt lat="50.91140631747335" lon="6.681851744378566">
				<ele>122.0</ele>
				<time>2011-02-16T16:39:22Z</time>
			</trkpt>
			<trkpt lat="50.911473746647964" lon="6.681779554386882">
				<ele>122.0</ele>
				<time>2011-02-16T16:39:23Z</time>
			</trkpt>
			<trkpt lat="50.911543838029544" lon="6.681703544582232">
				<ele>122.0</ele>
				<time>2011-02-16T16:39:24Z</time>
			</trkpt>
			<trkpt lat="50.91161361185459" lon="6.681628249190916">
				<ele>122.0</ele>
				<time>2011-02-16T16:39:25Z</time>
			</trkpt>
			<trkpt lat="50.91168342333343" lon="6.681553037456647">
				<ele>122.0</ele>
				<time>2011-02-16T16:39:26Z</time>
			</trkpt>
			<trkpt lat="50.911753773770364" lon="6.68148137411899">
				<ele>122.0</ele>
				<time>2011-02-16T16:39:27Z</time>
			</trkpt>
			<trkpt lat="50.9118226557983" lon="6.681407240210337">
				<ele>122.0</ele>
				<time>2011-02-16T16:39:28Z</time>
			</trkpt>
			<trkpt lat="50.911891315316026" lon="6.681334029642122">
				<ele>122.0</ele>
				<time>2011-02-16T16:39:29Z</time>
			</trkpt>
			<trkpt lat="50.911959640229774" lon="6.6812615041088605">
				<ele>122.0</ele>
				<time>2011-02-16T16:39:30Z</time>
			</trkpt>
			<trkpt lat="50.912027564655325" lon="6.681188721356094">
				<ele>122.0</ele>
				<time>2011-02-16T16:39:31Z</time>
			</trkpt>
			<trkpt lat="50.91209367170644" lon="6.681117014065652">
				<ele>122.0</ele>
				<time>2011-02-16T16:39:32Z</time>
			</trkpt>
			<trkpt lat="50.91216008512967" lon="6.6810443401131705">
				<ele>122.0</ele>
				<time>2011-02-16T16:39:33Z</time>
			</trkpt>
			<trkpt lat="50.9122283903537" lon="6.680969191639579">
				<ele>122.0</ele>
				<time>2011-02-16T16:39:34Z</time>
			</trkpt>
			<trkpt lat="50.91229597002266" lon="6.680893839901952">
				<ele>122.0</ele>
				<time>2011-02-16T16:39:35Z</time>
			</trkpt>
			<trkpt lat="50.91236191359859" lon="6.680820473313453">
				<ele>121.0</ele>
				<time>2011-02-16T16:39:36Z</time>
			</trkpt>
			<trkpt lat="50.91242615155384" lon="6.680745238064656">
				<ele>121.0</ele>
				<time>2011-02-16T16:39:37Z</time>
			</trkpt>
			<trkpt lat="50.91249093793075" lon="6.680669243672766">
				<ele>121.0</ele>
				<time>2011-02-16T16:39:38Z</time>
			</trkpt>
			<trkpt lat="50.91255696892169" lon="6.680595003524608">
				<ele>121.0</ele>
				<time>2011-02-16T16:39:39Z</time>
			</trkpt>
			<trkpt lat="50.9126228632904" lon="6.680520637077754">
				<ele>121.0</ele>
				<time>2011-02-16T16:39:40Z</time>
			</trkpt>
			<trkpt lat="50.91268611077341" lon="6.680448032441306">
				<ele>121.0</ele>
				<time>2011-02-16T16:39:41Z</time>
			</trkpt>
			<trkpt lat="50.91274952316327" lon="6.6803757665534365">
				<ele>121.0</ele>
				<time>2011-02-16T16:39:42Z</time>
			</trkpt>
			<trkpt lat="50.91281189098346" lon="6.680305076874197">
				<ele>121.0</ele>
				<time>2011-02-16T16:39:43Z</time>
			</trkpt>
			<trkpt lat="50.91287154316795" lon="6.680237265174572">
				<ele>121.0</ele>
				<time>2011-02-16T16:39:44Z</time>
			</trkpt>
			<trkpt lat="50.912928793392354" lon="6.680169087067252">
				<ele>121.0</ele>
				<time>2011-02-16T16:39:45Z</time>
			</trkpt>
			<trkpt lat="50.91298387035219" lon="6.680102496548318">
				<ele>121.0</ele>
				<time>2011-02-16T16:39:46Z</time>
			</trkpt>
			<trkpt lat="50.91303421344926" lon="6.680036383157816">
				<ele>121.0</ele>
				<time>2011-02-16T16:39:47Z</time>
			</trkpt>
			<trkpt lat="50.91308683798679" lon="6.67997025713089">
				<ele>121.0</ele>
				<time>2011-02-16T16:39:48Z</time>
			</trkpt>
			<trkpt lat="50.913138998765405" lon="6.679903191562286">
				<ele>121.0</ele>
				<time>2011-02-16T16:39:49Z</time>
			</trkpt>
			<trkpt lat="50.91318981932144" lon="6.6798356413663855">
				<ele>121.0</ele>
				<time>2011-02-16T16:39:50Z</time>
			</trkpt>
			<trkpt lat="50.913231889132994" lon="6.6797792915129115">
				<ele>120.0</ele>
				<time>2011-02-16T16:39:51Z</time>
			</trkpt>
			<trkpt lat="50.91326098124023" lon="6.679735518080176">
				<ele>120.0</ele>
				<time>2011-02-16T16:39:52Z</time>
			</trkpt>
			<trkpt lat="50.91329057647256" lon="6.67969420753959">
				<ele>121.0</ele>
				<time>2011-02-16T16:39:53Z</time>
			</trkpt>
			<trkpt lat="50.91331986716292" lon="6.6796561157364795">
				<ele>121.0</ele>
				<time>2011-02-16T16:39:54Z</time>
			</trkpt>
			<trkpt lat="50.913350217723156" lon="6.679617795266317">
				<ele>120.0</ele>
				<time>2011-02-16T16:39:55Z</time>
			</trkpt>
			<trkpt lat="50.91338036533268" lon="6.6795811418729265">
				<ele>120.0</ele>
				<time>2011-02-16T16:39:56Z</time>
			</trkpt>
			<trkpt lat="50.91340963184369" lon="6.679546438670201">
				<ele>120.0</ele>
				<time>2011-02-16T16:39:57Z</time>
			</trkpt>
			<trkpt lat="50.9134388813186" lon="6.679511850485519">
				<ele>120.0</ele>
				<time>2011-02-16T16:39:58Z</time>
			</trkpt>
			<trkpt lat="50.91346735502835" lon="6.6794748974892615">
				<ele>120.0</ele>
				<time>2011-02-16T16:39:59Z</time>
			</trkpt>
			<trkpt lat="50.913487102338614" lon="6.67942712081207">
				<ele>120.0</ele>
				<time>2011-02-16T16:40:00Z</time>
			</trkpt>
			<trkpt lat="50.913508996851554" lon="6.679377564859252">
				<ele>121.0</ele>
				<time>2011-02-16T16:40:01Z</time>
			</trkpt>
			<trkpt lat="50.9135332034434" lon="6.679327651557587">
				<ele>121.0</ele>
				<time>2011-02-16T16:40:02Z</time>
			</trkpt>
			<trkpt lat="50.91356686514862" lon="6.67928772306694">
				<ele>121.0</ele>
				<time>2011-02-16T16:40:03Z</time>
			</trkpt>
			<trkpt lat="50.91360220136108" lon="6.679239350703215">
				<ele>121.0</ele>
				<time>2011-02-16T16:40:04Z</time>
			</trkpt>
			<trkpt lat="50.91363769282655" lon="6.679182877179929">
				<ele>122.0</ele>
				<time>2011-02-16T16:40:05Z</time>
			</trkpt>
			<trkpt lat="50.91367322786402" lon="6.679119354007346">
				<ele>122.0</ele>
				<time>2011-02-16T16:40:06Z</time>
			</trkpt>
			<trkpt lat="50.913713291580116" lon="6.679046778575139">
				<ele>122.0</ele>
				<time>2011-02-16T16:40:07Z</time>
			</trkpt>
			<trkpt lat="50.91375529352632" lon="6.6789666260924285">
				<ele>122.0</ele>
				<time>2011-02-16T16:40:08Z</time>
			</trkpt>
			<trkpt lat="50.91380088325538" lon="6.6788831285636405">
				<ele>123.0</ele>
				<time>2011-02-16T16:40:09Z</time>
			</trkpt>
			<trkpt lat="50.913847547630695" lon="6.678795838339958">
				<ele>123.0</ele>
				<time>2011-02-16T16:40:10Z</time>
			</trkpt>
			<trkpt lat="50.91390555317843" lon="6.678733514537467">
				<ele>123.0</ele>
				<time>2011-02-16T16:40:11Z</time>
			</trkpt>
			<trkpt lat="50.91396626641531" lon="6.678670717648262">
				<ele>124.0</ele>
				<time>2011-02-16T16:40:12Z</time>
			</trkpt>
			<trkpt lat="50.91402529432726" lon="6.678601712717821">
				<ele>124.0</ele>
				<time>2011-02-16T16:40:13Z</time>
			</trkpt>
			<trkpt lat="50.91406658937604" lon="6.678501182730305">
				<ele>124.0</ele>
				<time>2011-02-16T16:40:14Z</time>
			</trkpt>
			<trkpt lat="50.91410781110988" lon="6.678397325111487">
				<ele>124.0</ele>
				<time>2011-02-16T16:40:15Z</time>
			</trkpt>
			<trkpt lat="50.91414760359372" lon="6.678289732660905">
				<ele>124.0</ele>
				<time>2011-02-16T16:40:16Z</time>
			</trkpt>
			<trkpt lat="50.914186557165934" lon="6.678178911611483">
				<ele>125.0</ele>
				<time>2011-02-16T16:40:17Z</time>
			</trkpt>
			<trkpt lat="50.91422502429131" lon="6.678069373256394">
				<ele>125.0</ele>
				<time>2011-02-16T16:40:18Z</time>
			</trkpt>
			<trkpt lat="50.91426031561835" lon="6.677956510944025">
				<ele>125.0</ele>
				<time>2011-02-16T16:40:19Z</time>
			</trkpt>
			<trkpt lat="50.91429011195189" lon="6.677840803063368">
				<ele>125.0</ele>
				<time>2011-02-16T16:40:20Z</time>
			</trkpt>
			<trkpt lat="50.914318563998414" lon="6.677725800214759">
				<ele>125.0</ele>
				<time>2011-02-16T16:40:21Z</time>
			</trkpt>
			<trkpt lat="50.914348051800815" lon="6.677611964809697">
				<ele>125.0</ele>
				<time>2011-02-16T16:40:22Z</time>
			</trkpt>
			<trkpt lat="50.914376241686064" lon="6.677499121439297">
				<ele>125.0</ele>
				<time>2011-02-16T16:40:23Z</time>
			</trkpt>
			<trkpt lat="50.91440155725671" lon="6.677386375337429">
				<ele>125.0</ele>
				<time>2011-02-16T16:40:24Z</time>
			</trkpt>
			<trkpt lat="50.91442361348116" lon="6.677274754460372">
				<ele>125.0</ele>
				<time>2011-02-16T16:40:25Z</time>
			</trkpt>
			<trkpt lat="50.91444450359688" lon="6.677165272792177">
				<ele>125.0</ele>
				<time>2011-02-16T16:40:26Z</time>
			</trkpt>
			<trkpt lat="50.91446360500316" lon="6.6770597531709575">
				<ele>125.0</ele>
				<time>2011-02-16T16:40:27Z</time>
			</trkpt>
			<trkpt lat="50.914479867642896" lon="6.676953903656394">
				<ele>125.0</ele>
				<time>2011-02-16T16:40:28Z</time>
			</trkpt>
			<trkpt lat="50.914494048084386" lon="6.67684972978556">
				<ele>125.0</ele>
				<time>2011-02-16T16:40:29Z</time>
			</trkpt>
			<trkpt lat="50.91450744316117" lon="6.67675054741728">
				<ele>124.0</ele>
				<time>2011-02-16T16:40:30Z</time>
			</trkpt>
			<trkpt lat="50.9145188505424" lon="6.676654201296878">
				<ele>124.0</ele>
				<time>2011-02-16T16:40:31Z</time>
			</trkpt>
			<trkpt lat="50.91452835006964" lon="6.676562321959144">
				<ele>124.0</ele>
				<time>2011-02-16T16:40:32Z</time>
			</trkpt>
			<trkpt lat="50.914537322466614" lon="6.676473211303718">
				<ele>123.0</ele>
				<time>2011-02-16T16:40:33Z</time>
			</trkpt>
			<trkpt lat="50.91454475958661" lon="6.676386083140484">
				<ele>123.0</ele>
				<time>2011-02-16T16:40:34Z</time>
			</trkpt>
			<trkpt lat="50.91454927329616" lon="6.67629774891138">
				<ele>122.0</ele>
				<time>2011-02-16T16:40:35Z</time>
			</trkpt>
			<trkpt lat="50.91455297835516" lon="6.676204096712016">
				<ele>122.0</ele>
				<time>2011-02-16T16:40:36Z</time>
			</trkpt>
			<trkpt lat="50.91455321715104" lon="6.676107623263012">
				<ele>122.0</ele>
				<time>2011-02-16T16:40:37Z</time>
			</trkpt>
			<trkpt lat="50.91454996233845" lon="6.676011860271584">
				<ele>121.0</ele>
				<time>2011-02-16T16:40:38Z</time>
			</trkpt>
			<trkpt lat="50.91454452187327" lon="6.675916918764833">
				<ele>121.0</ele>
				<time>2011-02-16T16:40:39Z</time>
			</trkpt>
			<trkpt lat="50.91453758479671" lon="6.675821218851077">
				<ele>121.0</ele>
				<time>2011-02-16T16:40:40Z</time>
			</trkpt>
			<trkpt lat="50.91453070941292" lon="6.675728681332134">
				<ele>121.0</ele>
				<time>2011-02-16T16:40:41Z</time>
			</trkpt>
			<trkpt lat="50.914522429898135" lon="6.67563151013589">
				<ele>121.0</ele>
				<time>2011-02-16T16:40:42Z</time>
			</trkpt>
			<trkpt lat="50.91451203905295" lon="6.675523529241657">
				<ele>121.0</ele>
				<time>2011-02-16T16:40:43Z</time>
			</trkpt>
			<trkpt lat="50.91450010314444" lon="6.675409056439896">
				<ele>121.0</ele>
				<time>2011-02-16T16:40:44Z</time>
			</trkpt>
			<trkpt lat="50.9144859728001" lon="6.675294665142211">
				<ele>121.0</ele>
				<time>2011-02-16T16:40:45Z</time>
			</trkpt>
			<trkpt lat="50.91446959469767" lon="6.675182669058343">
				<ele>121.0</ele>
				<time>2011-02-16T16:40:46Z</time>
			</trkpt>
			<trkpt lat="50.91445058682966" lon="6.675074568599536">
				<ele>121.0</ele>
				<time>2011-02-16T16:40:47Z</time>
			</trkpt>
			<trkpt lat="50.91443153211274" lon="6.674971487827468">
				<ele>120.0</ele>
				<time>2011-02-16T16:40:48Z</time>
			</trkpt>
			<trkpt lat="50.914410891081005" lon="6.674872073775673">
				<ele>120.0</ele>
				<time>2011-02-16T16:40:49Z</time>
			</trkpt>
			<trkpt lat="50.914388380003224" lon="6.674774662296981">
				<ele>120.0</ele>
				<time>2011-02-16T16:40:50Z</time>
			</trkpt>
			<trkpt lat="50.914364540725984" lon="6.674682664920669">
				<ele>120.0</ele>
				<time>2011-02-16T16:40:51Z</time>
			</trkpt>
			<trkpt lat="50.91433908909415" lon="6.674593387546169">
				<ele>120.0</ele>
				<time>2011-02-16T16:40:52Z</time>
			</trkpt>
			<trkpt lat="50.914311495825245" lon="6.674505716056347">
				<ele>120.0</ele>
				<time>2011-02-16T16:40:53Z</time>
			</trkpt>
			<trkpt lat="50.91428165625117" lon="6.674415549885164">
				<ele>120.0</ele>
				<time>2011-02-16T16:40:54Z</time>
			</trkpt>
			<trkpt lat="50.914248183681245" lon="6.674321553219867">
				<ele>120.0</ele>
				<time>2011-02-16T16:40:55Z</time>
			</trkpt>
			<trkpt lat="50.914213805941586" lon="6.67422738536092">
				<ele>119.0</ele>
				<time>2011-02-16T16:40:56Z</time>
			</trkpt>
			<trkpt lat="50.914177675489185" lon="6.674136039976275">
				<ele>119.0</ele>
				<time>2011-02-16T16:40:57Z</time>
			</trkpt>
			<trkpt lat="50.914140812864176" lon="6.674048795645134">
				<ele>119.0</ele>
				<time>2011-02-16T16:40:58Z</time>
			</trkpt>
			<trkpt lat="50.91410256467282" lon="6.6739668051463115">
				<ele>119.0</ele>
				<time>2011-02-16T16:40:59Z</time>
			</trkpt>
			<trkpt lat="50.91406540467789" lon="6.673891230153597">
				<ele>119.0</ele>
				<time>2011-02-16T16:41:00Z</time>
			</trkpt>
			<trkpt lat="50.914032766790825" lon="6.67382383362427">
				<ele>119.0</ele>
				<time>2011-02-16T16:41:01Z</time>
			</trkpt>
			<trkpt lat="50.9140072072684" lon="6.673770835197153">
				<ele>119.0</ele>
				<time>2011-02-16T16:41:02Z</time>
			</trkpt>
			<trkpt lat="50.913992574791045" lon="6.673723865961491">
				<ele>119.0</ele>
				<time>2011-02-16T16:41:03Z</time>
			</trkpt>
			<trkpt lat="50.913981232055264" lon="6.673679372536749">
				<ele>119.0</ele>
				<time>2011-02-16T16:41:04Z</time>
			</trkpt>
			<trkpt lat="50.91396987068383" lon="6.673638600385621">
				<ele>119.0</ele>
				<time>2011-02-16T16:41:05Z</time>
			</trkpt>
			<trkpt lat="50.9139491076516" lon="6.673605667391779">
				<ele>119.0</ele>
				<time>2011-02-16T16:41:06Z</time>
			</trkpt>
			<trkpt lat="50.913918309577944" lon="6.673576583375792">
				<ele>119.0</ele>
				<time>2011-02-16T16:41:07Z</time>
			</trkpt>
			<trkpt lat="50.91387943464426" lon="6.673534154008409">
				<ele>119.0</ele>
				<time>2011-02-16T16:41:08Z</time>
			</trkpt>
			<trkpt lat="50.913834559108984" lon="6.673476555403783">
				<ele>118.0</ele>
				<time>2011-02-16T16:41:09Z</time>
			</trkpt>
			<trkpt lat="50.91378413427171" lon="6.673402624169447">
				<ele>118.0</ele>
				<time>2011-02-16T16:41:10Z</time>
			</trkpt>
			<trkpt lat="50.91373326271163" lon="6.673317662109601">
				<ele>118.0</ele>
				<time>2011-02-16T16:41:11Z</time>
			</trkpt>
			<trkpt lat="50.913673999102656" lon="6.673218360443789">
				<ele>118.0</ele>
				<time>2011-02-16T16:41:12Z</time>
			</trkpt>
			<trkpt lat="50.91361495995412" lon="6.673116991574284">
				<ele>119.0</ele>
				<time>2011-02-16T16:41:13Z</time>
			</trkpt>
			<trkpt lat="50.91355501767333" lon="6.673014641423627">
				<ele>119.0</ele>
				<time>2011-02-16T16:41:14Z</time>
			</trkpt>
			<trkpt lat="50.91349242270505" lon="6.6729038349692775">
				<ele>119.0</ele>
				<time>2011-02-16T16:41:15Z</time>
			</trkpt>
			<trkpt lat="50.91342876906593" lon="6.672787055451531">
				<ele>119.0</ele>
				<time>2011-02-16T16:41:16Z</time>
			</trkpt>
			<trkpt lat="50.91336407288209" lon="6.6726686005822105">
				<ele>119.0</ele>
				<time>2011-02-16T16:41:17Z</time>
			</trkpt>
			<trkpt lat="50.91329984688276" lon="6.672551949243187">
				<ele>119.0</ele>
				<time>2011-02-16T16:41:18Z</time>
			</trkpt>
			<trkpt lat="50.9132364651607" lon="6.672438033554417">
				<ele>119.0</ele>
				<time>2011-02-16T16:41:19Z</time>
			</trkpt>
			<trkpt lat="50.91317467508012" lon="6.672326579586337">
				<ele>119.0</ele>
				<time>2011-02-16T16:41:20Z</time>
			</trkpt>
			<trkpt lat="50.913118714454804" lon="6.672217643706683">
				<ele>119.0</ele>
				<time>2011-02-16T16:41:21Z</time>
			</trkpt>
			<trkpt lat="50.913062563544756" lon="6.6721085222197045">
				<ele>120.0</ele>
				<time>2011-02-16T16:41:22Z</time>
			</trkpt>
			<trkpt lat="50.91300529516661" lon="6.671999541593405">
				<ele>120.0</ele>
				<time>2011-02-16T16:41:23Z</time>
			</trkpt>
			<trkpt lat="50.912945491145216" lon="6.671893154735875">
				<ele>120.0</ele>
				<time>2011-02-16T16:41:24Z</time>
			</trkpt>
			<trkpt lat="50.91288424695871" lon="6.671789559577353">
				<ele>120.0</ele>
				<time>2011-02-16T16:41:25Z</time>
			</trkpt>
			<trkpt lat="50.91282441761725" lon="6.671688098432644">
				<ele>120.0</ele>
				<time>2011-02-16T16:41:26Z</time>
			</trkpt>
			<trkpt lat="50.91276922230529" lon="6.671582370092833">
				<ele>120.0</ele>
				<time>2011-02-16T16:41:27Z</time>
			</trkpt>
			<trkpt lat="50.912714097761466" lon="6.671476760093851">
				<ele>120.0</ele>
				<time>2011-02-16T16:41:28Z</time>
			</trkpt>
			<trkpt lat="50.9126603973309" lon="6.6713742443864295">
				<ele>120.0</ele>
				<time>2011-02-16T16:41:29Z</time>
			</trkpt>
			<trkpt lat="50.91260759738784" lon="6.671274341907459">
				<ele>120.0</ele>
				<time>2011-02-16T16:41:30Z</time>
			</trkpt>
			<trkpt lat="50.9125536402154" lon="6.671174319417183">
				<ele>120.0</ele>
				<time>2011-02-16T16:41:31Z</time>
			</trkpt>
			<trkpt lat="50.91249781936607" lon="6.671076265673734">
				<ele>120.0</ele>
				<time>2011-02-16T16:41:32Z</time>
			</trkpt>
			<trkpt lat="50.91244162079157" lon="6.670977665323418">
				<ele>120.0</ele>
				<time>2011-02-16T16:41:33Z</time>
			</trkpt>
			<trkpt lat="50.91238574730972" lon="6.670878895232013">
				<ele>120.0</ele>
				<time>2011-02-16T16:41:34Z</time>
			</trkpt>
			<trkpt lat="50.91233163414197" lon="6.670779484691344">
				<ele>120.0</ele>
				<time>2011-02-16T16:41:35Z</time>
			</trkpt>
			<trkpt lat="50.91227776267126" lon="6.670680884455124">
				<ele>120.0</ele>
				<time>2011-02-16T16:41:36Z</time>
			</trkpt>
			<trkpt lat="50.91222696724735" lon="6.670586221861405">
				<ele>120.0</ele>
				<time>2011-02-16T16:41:37Z</time>
			</trkpt>
			<trkpt lat="50.91217975037334" lon="6.6704940832765125">
				<ele>120.0</ele>
				<time>2011-02-16T16:41:38Z</time>
			</trkpt>
			<trkpt lat="50.91214324680946" lon="6.6704182089699025">
				<ele>120.0</ele>
				<time>2011-02-16T16:41:39Z</time>
			</trkpt>
			<trkpt lat="50.912124535114216" lon="6.670380089533999">
				<ele>120.0</ele>
				<time>2011-02-16T16:41:40Z</time>
			</trkpt>
			<trkpt lat="50.912124535114216" lon="6.670380089533999">
				<ele>120.0</ele>
				<time>2011-02-16T16:41:41Z</time>
			</trkpt>
			<trkpt lat="50.912124535114216" lon="6.670380089533999">
				<ele>120.0</ele>
				<time>2011-02-16T16:41:42Z</time>
			</trkpt>
			<trkpt lat="50.912124535114216" lon="6.670380089533999">
				<ele>120.0</ele>
				<time>2011-02-16T16:41:43Z</time>
			</trkpt>
			<trkpt lat="50.912124535114216" lon="6.670380089533999">
				<ele>120.0</ele>
				<time>2011-02-16T16:41:44Z</time>
			</trkpt>
			<trkpt lat="50.912124535114216" lon="6.670380089533999">
				<ele>120.0</ele>
				<time>2011-02-16T16:41:45Z</time>
			</trkpt>
			<trkpt lat="50.912124535114216" lon="6.670380089533999">
				<ele>120.0</ele>
				<time>2011-02-16T16:41:46Z</time>
			</trkpt>
			<trkpt lat="50.912124535114216" lon="6.670380089533999">
				<ele>120.0</ele>
				<time>2011-02-16T16:41:47Z</time>
			</trkpt>
			<trkpt lat="50.912124535114216" lon="6.670380089533999">
				<ele>120.0</ele>
				<time>2011-02-16T16:41:48Z</time>
			</trkpt>
			<trkpt lat="50.91209286745771" lon="6.670309496821497">
				<ele>120.0</ele>
				<time>2011-02-16T16:41:49Z</time>
			</trkpt>
			<trkpt lat="50.91207477332229" lon="6.670271560461669">
				<ele>120.0</ele>
				<time>2011-02-16T16:41:50Z</time>
			</trkpt>
			<trkpt lat="50.91205399784305" lon="6.6702286224934495">
				<ele>120.0</ele>
				<time>2011-02-16T16:41:51Z</time>
			</trkpt>
			<trkpt lat="50.91203241054461" lon="6.6701819911558164">
				<ele>121.0</ele>
				<time>2011-02-16T16:41:52Z</time>
			</trkpt>
			<trkpt lat="50.91200951561281" lon="6.670131216495442">
				<ele>121.0</ele>
				<time>2011-02-16T16:41:53Z</time>
			</trkpt>
			<trkpt lat="50.91198716375743" lon="6.6700789599977295">
				<ele>121.0</ele>
				<time>2011-02-16T16:41:54Z</time>
			</trkpt>
			<trkpt lat="50.91196557149807" lon="6.670023802940905">
				<ele>121.0</ele>
				<time>2011-02-16T16:41:55Z</time>
			</trkpt>
			<trkpt lat="50.91194480835544" lon="6.66996657221325">
				<ele>121.0</ele>
				<time>2011-02-16T16:41:56Z</time>
			</trkpt>
			<trkpt lat="50.91192306049448" lon="6.669908164011784">
				<ele>121.0</ele>
				<time>2011-02-16T16:41:57Z</time>
			</trkpt>
			<trkpt lat="50.911905088134105" lon="6.669851356722247">
				<ele>121.0</ele>
				<time>2011-02-16T16:41:58Z</time>
			</trkpt>
			<trkpt lat="50.9118901228735" lon="6.6697954929940595">
				<ele>121.0</ele>
				<time>2011-02-16T16:41:59Z</time>
			</trkpt>
			<trkpt lat="50.911884509072856" lon="6.669737310688306">
				<ele>121.0</ele>
				<time>2011-02-16T16:42:00Z</time>
			</trkpt>
			<trkpt lat="50.91189022033108" lon="6.669672447062263">
				<ele>121.0</ele>
				<time>2011-02-16T16:42:01Z</time>
			</trkpt>
			<trkpt lat="50.91189731187655" lon="6.669602123818729">
				<ele>121.0</ele>
				<time>2011-02-16T16:42:02Z</time>
			</trkpt>
			<trkpt lat="50.9119025921936" lon="6.669529300846534">
				<ele>121.0</ele>
				<time>2011-02-16T16:42:03Z</time>
			</trkpt>
			<trkpt lat="50.91189195784845" lon="6.669458101048952">
				<ele>121.0</ele>
				<time>2011-02-16T16:42:04Z</time>
			</trkpt>
			<trkpt lat="50.91186335633102" lon="6.669400060482028">
				<ele>121.0</ele>
				<time>2011-02-16T16:42:05Z</time>
			</trkpt>
			<trkpt lat="50.91182725837158" lon="6.669360215328417">
				<ele>121.0</ele>
				<time>2011-02-16T16:42:06Z</time>
			</trkpt>
			<trkpt lat="50.91178592045836" lon="6.66934131914663">
				<ele>121.0</ele>
				<time>2011-02-16T16:42:07Z</time>
			</trkpt>
			<trkpt lat="50.91174567188963" lon="6.669349011580438">
				<ele>121.0</ele>
				<time>2011-02-16T16:42:08Z</time>
			</trkpt>
			<trkpt lat="50.91171688579047" lon="6.669382479830364">
				<ele>121.0</ele>
				<time>2011-02-16T16:42:09Z</time>
			</trkpt>
			<trkpt lat="50.91169940050068" lon="6.669429897731349">
				<ele>121.0</ele>
				<time>2011-02-16T16:42:10Z</time>
			</trkpt>
			<trkpt lat="50.91168230451179" lon="6.669481856710095">
				<ele>122.0</ele>
				<time>2011-02-16T16:42:11Z</time>
			</trkpt>
			<trkpt lat="50.9116647504568" lon="6.669536906491444">
				<ele>122.0</ele>
				<time>2011-02-16T16:42:12Z</time>
			</trkpt>
			<trkpt lat="50.911639158129084" lon="6.669586710698644">
				<ele>122.0</ele>
				<time>2011-02-16T16:42:13Z</time>
			</trkpt>
			<trkpt lat="50.91161017330269" lon="6.669636879141662">
				<ele>122.0</ele>
				<time>2011-02-16T16:42:14Z</time>
			</trkpt>
			<trkpt lat="50.91157811708266" lon="6.669688364729769">
				<ele>122.0</ele>
				<time>2011-02-16T16:42:15Z</time>
			</trkpt>
			<trkpt lat="50.911542138659854" lon="6.669741834826399">
				<ele>123.0</ele>
				<time>2011-02-16T16:42:16Z</time>
			</trkpt>
			<trkpt lat="50.911493823579285" lon="6.669806934567091">
				<ele>123.0</ele>
				<time>2011-02-16T16:42:17Z</time>
			</trkpt>
			<trkpt lat="50.91143895737849" lon="6.669871277308827">
				<ele>123.0</ele>
				<time>2011-02-16T16:42:18Z</time>
			</trkpt>
			<trkpt lat="50.91138092429272" lon="6.669929017896094">
				<ele>123.0</ele>
				<time>2011-02-16T16:42:19Z</time>
			</trkpt>
			<trkpt lat="50.91131231237717" lon="6.669970034737747">
				<ele>123.0</ele>
				<time>2011-02-16T16:42:20Z</time>
			</trkpt>
			<trkpt lat="50.91124434460473" lon="6.670014035293217">
				<ele>123.0</ele>
				<time>2011-02-16T16:42:21Z</time>
			</trkpt>
			<trkpt lat="50.911177803445895" lon="6.670061420556421">
				<ele>124.0</ele>
				<time>2011-02-16T16:42:22Z</time>
			</trkpt>
			<trkpt lat="50.91111185701313" lon="6.670109306414955">
				<ele>124.0</ele>
				<time>2011-02-16T16:42:23Z</time>
			</trkpt>
			<trkpt lat="50.911049772931236" lon="6.670155540660873">
				<ele>123.0</ele>
				<time>2011-02-16T16:42:24Z</time>
			</trkpt>
			<trkpt lat="50.910988082595416" lon="6.670201756836576">
				<ele>123.0</ele>
				<time>2011-02-16T16:42:25Z</time>
			</trkpt>
			<trkpt lat="50.910925924757194" lon="6.670241374679827">
				<ele>123.0</ele>
				<time>2011-02-16T16:42:26Z</time>
			</trkpt>
			<trkpt lat="50.91086687912199" lon="6.670279590364459">
				<ele>123.0</ele>
				<time>2011-02-16T16:42:27Z</time>
			</trkpt>
			<trkpt lat="50.9108071822469" lon="6.670319017537246">
				<ele>123.0</ele>
				<time>2011-02-16T16:42:28Z</time>
			</trkpt>
			<trkpt lat="50.9107429965901" lon="6.670364968031451">
				<ele>123.0</ele>
				<time>2011-02-16T16:42:29Z</time>
			</trkpt>
			<trkpt lat="50.91066984821975" lon="6.670417965992187">
				<ele>123.0</ele>
				<time>2011-02-16T16:42:30Z</time>
			</trkpt>
			<trkpt lat="50.91059628166244" lon="6.670474927483201">
				<ele>123.0</ele>
				<time>2011-02-16T16:42:31Z</time>
			</trkpt>
			<trkpt lat="50.91052227010318" lon="6.670531813286885">
				<ele>123.0</ele>
				<time>2011-02-16T16:42:32Z</time>
			</trkpt>
			<trkpt lat="50.910449287648895" lon="6.670586666294811">
				<ele>123.0</ele>
				<time>2011-02-16T16:42:33Z</time>
			</trkpt>
			<trkpt lat="50.91037216019068" lon="6.670633801812103">
				<ele>123.0</ele>
				<time>2011-02-16T16:42:34Z</time>
			</trkpt>
			<trkpt lat="50.910287698899275" lon="6.670686677266147">
				<ele>123.0</ele>
				<time>2011-02-16T16:42:35Z</time>
			</trkpt>
			<trkpt lat="50.910189584093075" lon="6.670739950298503">
				<ele>122.0</ele>
				<time>2011-02-16T16:42:36Z</time>
			</trkpt>
			<trkpt lat="50.91008713747254" lon="6.670784334815306">
				<ele>122.0</ele>
				<time>2011-02-16T16:42:37Z</time>
			</trkpt>
			<trkpt lat="50.90998121910436" lon="6.670830187232697">
				<ele>122.0</ele>
				<time>2011-02-16T16:42:38Z</time>
			</trkpt>
			<trkpt lat="50.90987238735752" lon="6.6708759543719225">
				<ele>122.0</ele>
				<time>2011-02-16T16:42:39Z</time>
			</trkpt>
			<trkpt lat="50.909764186542326" lon="6.6709235691008555">
				<ele>122.0</ele>
				<time>2011-02-16T16:42:40Z</time>
			</trkpt>
			<trkpt lat="50.90966037360755" lon="6.670978857644507">
				<ele>122.0</ele>
				<time>2011-02-16T16:42:41Z</time>
			</trkpt>
			<trkpt lat="50.90956136229304" lon="6.671044915532537">
				<ele>122.0</ele>
				<time>2011-02-16T16:42:42Z</time>
			</trkpt>
			<trkpt lat="50.90948193289439" lon="6.6711479423549935">
				<ele>123.0</ele>
				<time>2011-02-16T16:42:43Z</time>
			</trkpt>
			<trkpt lat="50.909407417510366" lon="6.671257777035193">
				<ele>123.0</ele>
				<time>2011-02-16T16:42:44Z</time>
			</trkpt>
			<trkpt lat="50.909340236659624" lon="6.671377677006835">
				<ele>123.0</ele>
				<time>2011-02-16T16:42:45Z</time>
			</trkpt>
			<trkpt lat="50.909279229384225" lon="6.671503069658999">
				<ele>123.0</ele>
				<time>2011-02-16T16:42:46Z</time>
			</trkpt>
			<trkpt lat="50.90921937766467" lon="6.671626706143938">
				<ele>123.0</ele>
				<time>2011-02-16T16:42:47Z</time>
			</trkpt>
			<trkpt lat="50.90915760897756" lon="6.671743543347204">
				<ele>123.0</ele>
				<time>2011-02-16T16:42:48Z</time>
			</trkpt>
			<trkpt lat="50.90907939440939" lon="6.671836229029296">
				<ele>123.0</ele>
				<time>2011-02-16T16:42:49Z</time>
			</trkpt>
			<trkpt lat="50.90899507726816" lon="6.67192681817286">
				<ele>123.0</ele>
				<time>2011-02-16T16:42:50Z</time>
			</trkpt>
			<trkpt lat="50.90890901836301" lon="6.67201682560065">
				<ele>123.0</ele>
				<time>2011-02-16T16:42:51Z</time>
			</trkpt>
			<trkpt lat="50.90881573635696" lon="6.672102513790001">
				<ele>123.0</ele>
				<time>2011-02-16T16:42:52Z</time>
			</trkpt>
			<trkpt lat="50.90872315980808" lon="6.672182947976299">
				<ele>123.0</ele>
				<time>2011-02-16T16:42:53Z</time>
			</trkpt>
			<trkpt lat="50.90863757681022" lon="6.672261836724533">
				<ele>123.0</ele>
				<time>2011-02-16T16:42:54Z</time>
			</trkpt>
			<trkpt lat="50.90856090423821" lon="6.672333194028671">
				<ele>123.0</ele>
				<time>2011-02-16T16:42:55Z</time>
			</trkpt>
			<trkpt lat="50.90849998568664" lon="6.672384017629421">
				<ele>123.0</ele>
				<time>2011-02-16T16:42:56Z</time>
			</trkpt>
			<trkpt lat="50.90845482671504" lon="6.672418998269991">
				<ele>123.0</ele>
				<time>2011-02-16T16:42:57Z</time>
			</trkpt>
			<trkpt lat="50.90841990014523" lon="6.672442845920801">
				<ele>123.0</ele>
				<time>2011-02-16T16:42:58Z</time>
			</trkpt>
			<trkpt lat="50.90839953692953" lon="6.672457480121215">
				<ele>123.0</ele>
				<time>2011-02-16T16:42:59Z</time>
			</trkpt>
			<trkpt lat="50.90839953692953" lon="6.672457480121215">
				<ele>123.0</ele>
				<time>2011-02-16T16:43:00Z</time>
			</trkpt>
			<trkpt lat="50.90839953692953" lon="6.672457480121215">
				<ele>123.0</ele>
				<time>2011-02-16T16:43:01Z</time>
			</trkpt>
			<trkpt lat="50.90839953692953" lon="6.672457480121215">
				<ele>123.0</ele>
				<time>2011-02-16T16:43:02Z</time>
			</trkpt>
			<trkpt lat="50.90839953692953" lon="6.672457480121215">
				<ele>123.0</ele>
				<time>2011-02-16T16:43:03Z</time>
			</trkpt>
			<trkpt lat="50.90839953692953" lon="6.672457480121215">
				<ele>123.0</ele>
				<time>2011-02-16T16:43:04Z</time>
			</trkpt>
			<trkpt lat="50.90839953692953" lon="6.672457480121215">
				<ele>123.0</ele>
				<time>2011-02-16T16:43:05Z</time>
			</trkpt>
			<trkpt lat="50.90839953692953" lon="6.672457480121215">
				<ele>123.0</ele>
				<time>2011-02-16T16:43:06Z</time>
			</trkpt>
			<trkpt lat="50.90839953692953" lon="6.672457480121215">
				<ele>123.0</ele>
				<time>2011-02-16T16:43:07Z</time>
			</trkpt>
			<trkpt lat="50.90839953692953" lon="6.672457480121215">
				<ele>123.0</ele>
				<time>2011-02-16T16:43:08Z</time>
			</trkpt>
			<trkpt lat="50.90834950357099" lon="6.672495834123433">
				<ele>123.0</ele>
				<time>2011-02-16T16:43:09Z</time>
			</trkpt>
			<trkpt lat="50.90833450299908" lon="6.672536151567187">
				<ele>123.0</ele>
				<time>2011-02-16T16:43:10Z</time>
			</trkpt>
			<trkpt lat="50.90833254430459" lon="6.672587242251912">
				<ele>123.0</ele>
				<time>2011-02-16T16:43:11Z</time>
			</trkpt>
			<trkpt lat="50.90834485063075" lon="6.672653409113554">
				<ele>123.0</ele>
				<time>2011-02-16T16:43:12Z</time>
			</trkpt>
			<trkpt lat="50.908362764654385" lon="6.672730578935535">
				<ele>123.0</ele>
				<time>2011-02-16T16:43:13Z</time>
			</trkpt>
			<trkpt lat="50.908385301368575" lon="6.672815637047628">
				<ele>123.0</ele>
				<time>2011-02-16T16:43:14Z</time>
			</trkpt>
			<trkpt lat="50.908419847003074" lon="6.672920391370837">
				<ele>123.0</ele>
				<time>2011-02-16T16:43:15Z</time>
			</trkpt>
			<trkpt lat="50.908459415117534" lon="6.6730268824188075">
				<ele>123.0</ele>
				<time>2011-02-16T16:43:16Z</time>
			</trkpt>
			<trkpt lat="50.90850541022373" lon="6.6731400014827855">
				<ele>123.0</ele>
				<time>2011-02-16T16:43:17Z</time>
			</trkpt>
			<trkpt lat="50.90857100644911" lon="6.673248460511776">
				<ele>122.0</ele>
				<time>2011-02-16T16:43:18Z</time>
			</trkpt>
			<trkpt lat="50.90863677099871" lon="6.673356952049305">
				<ele>122.0</ele>
				<time>2011-02-16T16:43:19Z</time>
			</trkpt>
			<trkpt lat="50.908703955184485" lon="6.673461847193168">
				<ele>122.0</ele>
				<time>2011-02-16T16:43:20Z</time>
			</trkpt>
			<trkpt lat="50.90876222025389" lon="6.6735734111921445">
				<ele>122.0</ele>
				<time>2011-02-16T16:43:21Z</time>
			</trkpt>
			<trkpt lat="50.90879959469045" lon="6.673696902474068">
				<ele>122.0</ele>
				<time>2011-02-16T16:43:22Z</time>
			</trkpt>
			<trkpt lat="50.908814402485376" lon="6.6738271461445136">
				<ele>122.0</ele>
				<time>2011-02-16T16:43:23Z</time>
			</trkpt>
			<trkpt lat="50.90880770948711" lon="6.673956790491749">
				<ele>122.0</ele>
				<time>2011-02-16T16:43:24Z</time>
			</trkpt>
			<trkpt lat="50.90879407205483" lon="6.674090477819188">
				<ele>122.0</ele>
				<time>2011-02-16T16:43:25Z</time>
			</trkpt>
			<trkpt lat="50.90877386595005" lon="6.674225897639783">
				<ele>122.0</ele>
				<time>2011-02-16T16:43:26Z</time>
			</trkpt>
			<trkpt lat="50.90875021808264" lon="6.674363033288824">
				<ele>122.0</ele>
				<time>2011-02-16T16:43:27Z</time>
			</trkpt>
			<trkpt lat="50.90872722494638" lon="6.67449977220659">
				<ele>122.0</ele>
				<time>2011-02-16T16:43:28Z</time>
			</trkpt>
			<trkpt lat="50.90872408112861" lon="6.674640664907711">
				<ele>122.0</ele>
				<time>2011-02-16T16:43:29Z</time>
			</trkpt>
			<trkpt lat="50.908748152151176" lon="6.6747866718792785">
				<ele>122.0</ele>
				<time>2011-02-16T16:43:30Z</time>
			</trkpt>
			<trkpt lat="50.908777441801256" lon="6.674936625982239">
				<ele>122.0</ele>
				<time>2011-02-16T16:43:31Z</time>
			</trkpt>
			<trkpt lat="50.9088134032177" lon="6.675089514039729">
				<ele>121.0</ele>
				<time>2011-02-16T16:43:32Z</time>
			</trkpt>
			<trkpt lat="50.9088520094408" lon="6.675250050518827">
				<ele>121.0</ele>
				<time>2011-02-16T16:43:33Z</time>
			</trkpt>
			<trkpt lat="50.90889144216909" lon="6.675412877970358">
				<ele>121.0</ele>
				<time>2011-02-16T16:43:34Z</time>
			</trkpt>
			<trkpt lat="50.908931877822766" lon="6.6755782220000635">
				<ele>121.0</ele>
				<time>2011-02-16T16:43:35Z</time>
			</trkpt>
			<trkpt lat="50.908972830362416" lon="6.675745876083686">
				<ele>121.0</ele>
				<time>2011-02-16T16:43:36Z</time>
			</trkpt>
			<trkpt lat="50.90901446377865" lon="6.675916914572787">
				<ele>121.0</ele>
				<time>2011-02-16T16:43:37Z</time>
			</trkpt>
			<trkpt lat="50.909056882155056" lon="6.676088369620828">
				<ele>121.0</ele>
				<time>2011-02-16T16:43:38Z</time>
			</trkpt>
			<trkpt lat="50.90910033159747" lon="6.676258912348787">
				<ele>120.0</ele>
				<time>2011-02-16T16:43:39Z</time>
			</trkpt>
			<trkpt lat="50.90914723843937" lon="6.676426436995771">
				<ele>120.0</ele>
				<time>2011-02-16T16:43:40Z</time>
			</trkpt>
			<trkpt lat="50.90919422203164" lon="6.6765903822824875">
				<ele>120.0</ele>
				<time>2011-02-16T16:43:41Z</time>
			</trkpt>
			<trkpt lat="50.90924407738343" lon="6.676747433078916">
				<ele>120.0</ele>
				<time>2011-02-16T16:43:42Z</time>
			</trkpt>
			<trkpt lat="50.90929367334675" lon="6.6769007693942255">
				<ele>120.0</ele>
				<time>2011-02-16T16:43:43Z</time>
			</trkpt>
			<trkpt lat="50.90934541536847" lon="6.677047343368733">
				<ele>120.0</ele>
				<time>2011-02-16T16:43:44Z</time>
			</trkpt>
			<trkpt lat="50.90939725078334" lon="6.677188148263205">
				<ele>120.0</ele>
				<time>2011-02-16T16:43:45Z</time>
			</trkpt>
			<trkpt lat="50.909447461359576" lon="6.677313857711641">
				<ele>120.0</ele>
				<time>2011-02-16T16:43:46Z</time>
			</trkpt>
			<trkpt lat="50.909488604145174" lon="6.6774112043696565">
				<ele>120.0</ele>
				<time>2011-02-16T16:43:47Z</time>
			</trkpt>
			<trkpt lat="50.909521654211865" lon="6.677489697299969">
				<ele>120.0</ele>
				<time>2011-02-16T16:43:48Z</time>
			</trkpt>
			<trkpt lat="50.909549598600016" lon="6.6775551525314345">
				<ele>120.0</ele>
				<time>2011-02-16T16:43:49Z</time>
			</trkpt>
			<trkpt lat="50.90957800853036" lon="6.677614952742006">
				<ele>120.0</ele>
				<time>2011-02-16T16:43:50Z</time>
			</trkpt>
			<trkpt lat="50.90961106120746" lon="6.677677393116321">
				<ele>120.0</ele>
				<time>2011-02-16T16:43:51Z</time>
			</trkpt>
			<trkpt lat="50.909656037441174" lon="6.6777633735467035">
				<ele>120.0</ele>
				<time>2011-02-16T16:43:52Z</time>
			</trkpt>
			<trkpt lat="50.909701112130776" lon="6.677851012533964">
				<ele>120.0</ele>
				<time>2011-02-16T16:43:53Z</time>
			</trkpt>
			<trkpt lat="50.90974721249241" lon="6.677943795959526">
				<ele>119.0</ele>
				<time>2011-02-16T16:43:54Z</time>
			</trkpt>
			<trkpt lat="50.90979629125402" lon="6.678044186568274">
				<ele>119.0</ele>
				<time>2011-02-16T16:43:55Z</time>
			</trkpt>
			<trkpt lat="50.90985021498287" lon="6.678153463324529">
				<ele>119.0</ele>
				<time>2011-02-16T16:43:56Z</time>
			</trkpt>
			<trkpt lat="50.90990589711057" lon="6.678261911896035">
				<ele>119.0</ele>
				<time>2011-02-16T16:43:57Z</time>
			</trkpt>
			<trkpt lat="50.909961663209295" lon="6.678371567510465">
				<ele>119.0</ele>
				<time>2011-02-16T16:43:58Z</time>
			</trkpt>
			<trkpt lat="50.91001684933294" lon="6.678481125923567">
				<ele>119.0</ele>
				<time>2011-02-16T16:43:59Z</time>
			</trkpt>
			<trkpt lat="50.91007116779491" lon="6.678592154026308">
				<ele>119.0</ele>
				<time>2011-02-16T16:44:00Z</time>
			</trkpt>
			<trkpt lat="50.910122485817865" lon="6.67870537667696">
				<ele>119.0</ele>
				<time>2011-02-16T16:44:01Z</time>
			</trkpt>
			<trkpt lat="50.910172771422936" lon="6.6788176264866195">
				<ele>118.0</ele>
				<time>2011-02-16T16:44:02Z</time>
			</trkpt>
			<trkpt lat="50.91021801491339" lon="6.678936377163509">
				<ele>118.0</ele>
				<time>2011-02-16T16:44:03Z</time>
			</trkpt>
			<trkpt lat="50.91026144403158" lon="6.679060542197732">
				<ele>118.0</ele>
				<time>2011-02-16T16:44:04Z</time>
			</trkpt>
			<trkpt lat="50.91030399734856" lon="6.679188641574912">
				<ele>118.0</ele>
				<time>2011-02-16T16:44:05Z</time>
			</trkpt>
			<trkpt lat="50.91034868052945" lon="6.679322015927069">
				<ele>118.0</ele>
				<time>2011-02-16T16:44:06Z</time>
			</trkpt>
			<trkpt lat="50.91039201110966" lon="6.679459439795246">
				<ele>118.0</ele>
				<time>2011-02-16T16:44:07Z</time>
			</trkpt>
			<trkpt lat="50.91043518287171" lon="6.679596763707534">
				<ele>118.0</ele>
				<time>2011-02-16T16:44:08Z</time>
			</trkpt>
			<trkpt lat="50.91047459981549" lon="6.679736490166306">
				<ele>118.0</ele>
				<time>2011-02-16T16:44:09Z</time>
			</trkpt>
			<trkpt lat="50.91050750844766" lon="6.679880511085056">
				<ele>118.0</ele>
				<time>2011-02-16T16:44:10Z</time>
			</trkpt>
			<trkpt lat="50.910539268606094" lon="6.68002706736008">
				<ele>118.0</ele>
				<time>2011-02-16T16:44:11Z</time>
			</trkpt>
			<trkpt lat="50.91057032936499" lon="6.680171674809551">
				<ele>118.0</ele>
				<time>2011-02-16T16:44:12Z</time>
			</trkpt>
			<trkpt lat="50.91060264996631" lon="6.68031242094797">
				<ele>118.0</ele>
				<time>2011-02-16T16:44:13Z</time>
			</trkpt>
			<trkpt lat="50.910633148850344" lon="6.680451354404038">
				<ele>118.0</ele>
				<time>2011-02-16T16:44:14Z</time>
			</trkpt>
			<trkpt lat="50.91066319748154" lon="6.680586765570761">
				<ele>118.0</ele>
				<time>2011-02-16T16:44:15Z</time>
			</trkpt>
			<trkpt lat="50.91069125424814" lon="6.680719952453491">
				<ele>119.0</ele>
				<time>2011-02-16T16:44:16Z</time>
			</trkpt>
			<trkpt lat="50.9107195820207" lon="6.680852732986256">
				<ele>119.0</ele>
				<time>2011-02-16T16:44:17Z</time>
			</trkpt>
			<trkpt lat="50.91074902617069" lon="6.680987611765987">
				<ele>119.0</ele>
				<time>2011-02-16T16:44:18Z</time>
			</trkpt>
			<trkpt lat="50.91077906624674" lon="6.681123355576192">
				<ele>118.0</ele>
				<time>2011-02-16T16:44:19Z</time>
			</trkpt>
			<trkpt lat="50.9108069478423" lon="6.681261495265964">
				<ele>118.0</ele>
				<time>2011-02-16T16:44:20Z</time>
			</trkpt>
			<trkpt lat="50.91083482893469" lon="6.681399927087469">
				<ele>118.0</ele>
				<time>2011-02-16T16:44:21Z</time>
			</trkpt>
			<trkpt lat="50.91086284554869" lon="6.681535402467834">
				<ele>118.0</ele>
				<time>2011-02-16T16:44:22Z</time>
			</trkpt>
			<trkpt lat="50.91088817385708" lon="6.68167032004625">
				<ele>118.0</ele>
				<time>2011-02-16T16:44:23Z</time>
			</trkpt>
			<trkpt lat="50.91091046557714" lon="6.681803002454673">
				<ele>118.0</ele>
				<time>2011-02-16T16:44:24Z</time>
			</trkpt>
			<trkpt lat="50.91092565555014" lon="6.681924148405139">
				<ele>118.0</ele>
				<time>2011-02-16T16:44:25Z</time>
			</trkpt>
			<trkpt lat="50.91093626195714" lon="6.681993144620902">
				<ele>118.0</ele>
				<time>2011-02-16T16:44:26Z</time>
			</trkpt>
			<trkpt lat="50.910947581347855" lon="6.6820488024313045">
				<ele>118.0</ele>
				<time>2011-02-16T16:44:27Z</time>
			</trkpt>
			<trkpt lat="50.91095851740815" lon="6.68209301123915">
				<ele>118.0</ele>
				<time>2011-02-16T16:44:28Z</time>
			</trkpt>
			<trkpt lat="50.91096710834124" lon="6.682124605426727">
				<ele>118.0</ele>
				<time>2011-02-16T16:44:29Z</time>
			</trkpt>
			<trkpt lat="50.91096710834124" lon="6.682124605426727">
				<ele>118.0</ele>
				<time>2011-02-16T16:44:30Z</time>
			</trkpt>
			<trkpt lat="50.91096710834124" lon="6.682124605426727">
				<ele>118.0</ele>
				<time>2011-02-16T16:44:31Z</time>
			</trkpt>
			<trkpt lat="50.91096710834124" lon="6.682124605426727">
				<ele>118.0</ele>
				<time>2011-02-16T16:44:32Z</time>
			</trkpt>
			<trkpt lat="50.91096710834124" lon="6.682124605426727">
				<ele>118.0</ele>
				<time>2011-02-16T16:44:33Z</time>
			</trkpt>
			<trkpt lat="50.91096710834124" lon="6.682124605426727">
				<ele>118.0</ele>
				<time>2011-02-16T16:44:34Z</time>
			</trkpt>
			<trkpt lat="50.91096710834124" lon="6.682124605426727">
				<ele>118.0</ele>
				<time>2011-02-16T16:44:35Z</time>
			</trkpt>
			<trkpt lat="50.91096710834124" lon="6.682124605426727">
				<ele>118.0</ele>
				<time>2011-02-16T16:44:36Z</time>
			</trkpt>
			<trkpt lat="50.91096710834124" lon="6.682124605426727">
				<ele>118.0</ele>
				<time>2011-02-16T16:44:37Z</time>
			</trkpt>
			<trkpt lat="50.91096710834124" lon="6.682124605426727">
				<ele>118.0</ele>
				<time>2011-02-16T16:44:38Z</time>
			</trkpt>
			<trkpt lat="50.91096710834124" lon="6.682124605426727">
				<ele>118.0</ele>
				<time>2011-02-16T16:44:39Z</time>
			</trkpt>
			<trkpt lat="50.91096710834124" lon="6.682124605426727">
				<ele>118.0</ele>
				<time>2011-02-16T16:44:40Z</time>
			</trkpt>
			<trkpt lat="50.91096710834124" lon="6.682124605426727">
				<ele>118.0</ele>
				<time>2011-02-16T16:44:41Z</time>
			</trkpt>
			<trkpt lat="50.91096772547274" lon="6.682178228005194">
				<ele>118.0</ele>
				<time>2011-02-16T16:44:42Z</time>
			</trkpt>
			<trkpt lat="50.91096597206284" lon="6.682219672410503">
				<ele>118.0</ele>
				<time>2011-02-16T16:44:43Z</time>
			</trkpt>
			<trkpt lat="50.91097661644904" lon="6.68226719412107">
				<ele>118.0</ele>
				<time>2011-02-16T16:44:44Z</time>
			</trkpt>
			<trkpt lat="50.91100388755664" lon="6.682325441616476">
				<ele>118.0</ele>
				<time>2011-02-16T16:44:45Z</time>
			</trkpt>
			<trkpt lat="50.9110362491873" lon="6.682400387456497">
				<ele>118.0</ele>
				<time>2011-02-16T16:44:46Z</time>
			</trkpt>
			<trkpt lat="50.91107053560296" lon="6.682493703107943">
				<ele>117.0</ele>
				<time>2011-02-16T16:44:47Z</time>
			</trkpt>
			<trkpt lat="50.91109133714356" lon="6.682602701113509">
				<ele>117.0</ele>
				<time>2011-02-16T16:44:48Z</time>
			</trkpt>
			<trkpt lat="50.91111389983334" lon="6.68272090424916">
				<ele>117.0</ele>
				<time>2011-02-16T16:44:49Z</time>
			</trkpt>
			<trkpt lat="50.911137866217835" lon="6.68285366390563">
				<ele>117.0</ele>
				<time>2011-02-16T16:44:50Z</time>
			</trkpt>
			<trkpt lat="50.91116173741286" lon="6.682988884855063">
				<ele>117.0</ele>
				<time>2011-02-16T16:44:51Z</time>
			</trkpt>
			<trkpt lat="50.91118517640755" lon="6.683124402325042">
				<ele>117.0</ele>
				<time>2011-02-16T16:44:52Z</time>
			</trkpt>
			<trkpt lat="50.91120619132701" lon="6.683257108851661">
				<ele>117.0</ele>
				<time>2011-02-16T16:44:53Z</time>
			</trkpt>
			<trkpt lat="50.91122653666802" lon="6.683383323651605">
				<ele>117.0</ele>
				<time>2011-02-16T16:44:54Z</time>
			</trkpt>
			<trkpt lat="50.91124611810179" lon="6.683506498917493">
				<ele>117.0</ele>
				<time>2011-02-16T16:44:55Z</time>
			</trkpt>
			<trkpt lat="50.911262604691764" lon="6.683629726589415">
				<ele>117.0</ele>
				<time>2011-02-16T16:44:56Z</time>
			</trkpt>
			<trkpt lat="50.91127270341597" lon="6.683748168614216">
				<ele>118.0</ele>
				<time>2011-02-16T16:44:57Z</time>
			</trkpt>
			<trkpt lat="50.91125749481874" lon="6.683856925751594">
				<ele>118.0</ele>
				<time>2011-02-16T16:44:58Z</time>
			</trkpt>
			<trkpt lat="50.91123767688427" lon="6.683958486902055">
				<ele>118.0</ele>
				<time>2011-02-16T16:44:59Z</time>
			</trkpt>
			<trkpt lat="50.91122006210658" lon="6.684058300672595">
				<ele>118.0</ele>
				<time>2011-02-16T16:45:00Z</time>
			</trkpt>
			<trkpt lat="50.911224957634175" lon="6.684162131442024">
				<ele>118.0</ele>
				<time>2011-02-16T16:45:01Z</time>
			</trkpt>
			<trkpt lat="50.911246771920624" lon="6.684260073144735">
				<ele>119.0</ele>
				<time>2011-02-16T16:45:02Z</time>
			</trkpt>
			<trkpt lat="50.91127106712478" lon="6.684360896285741">
				<ele>119.0</ele>
				<time>2011-02-16T16:45:03Z</time>
			</trkpt>
			<trkpt lat="50.91129259520563" lon="6.684472808883378">
				<ele>119.0</ele>
				<time>2011-02-16T16:45:04Z</time>
			</trkpt>
			<trkpt lat="50.911313117803815" lon="6.684602993269047">
				<ele>119.0</ele>
				<time>2011-02-16T16:45:05Z</time>
			</trkpt>
			<trkpt lat="50.911332588366285" lon="6.684740716202078">
				<ele>119.0</ele>
				<time>2011-02-16T16:45:06Z</time>
			</trkpt>
			<trkpt lat="50.911352730713055" lon="6.6848830076517">
				<ele>119.0</ele>
				<time>2011-02-16T16:45:07Z</time>
			</trkpt>
			<trkpt lat="50.91137249774605" lon="6.685032531630907">
				<ele>119.0</ele>
				<time>2011-02-16T16:45:08Z</time>
			</trkpt>
			<trkpt lat="50.91139469123193" lon="6.685189232490212">
				<ele>119.0</ele>
				<time>2011-02-16T16:45:09Z</time>
			</trkpt>
			<trkpt lat="50.91141815983711" lon="6.685349294276741">
				<ele>119.0</ele>
				<time>2011-02-16T16:45:10Z</time>
			</trkpt>
			<trkpt lat="50.91144178730981" lon="6.6855084933443365">
				<ele>119.0</ele>
				<time>2011-02-16T16:45:11Z</time>
			</trkpt>
			<trkpt lat="50.91146559762982" lon="6.685665344910673">
				<ele>119.0</ele>
				<time>2011-02-16T16:45:12Z</time>
			</trkpt>
			<trkpt lat="50.91148982302884" lon="6.685819690122701">
				<ele>119.0</ele>
				<time>2011-02-16T16:45:13Z</time>
			</trkpt>
			<trkpt lat="50.911513861980026" lon="6.685972751829157">
				<ele>119.0</ele>
				<time>2011-02-16T16:45:14Z</time>
			</trkpt>
			<trkpt lat="50.911535437231414" lon="6.686122027285013">
				<ele>119.0</ele>
				<time>2011-02-16T16:45:15Z</time>
			</trkpt>
			<trkpt lat="50.91155444199534" lon="6.6862528897182685">
				<ele>119.0</ele>
				<time>2011-02-16T16:45:16Z</time>
			</trkpt>
			<trkpt lat="50.911571678317614" lon="6.686368350461276">
				<ele>119.0</ele>
				<time>2011-02-16T16:45:17Z</time>
			</trkpt>
			<trkpt lat="50.9115886985064" lon="6.686482093922017">
				<ele>119.0</ele>
				<time>2011-02-16T16:45:18Z</time>
			</trkpt>
			<trkpt lat="50.91160527504095" lon="6.6865963406976325">
				<ele>119.0</ele>
				<time>2011-02-16T16:45:19Z</time>
			</trkpt>
			<trkpt lat="50.91162251980216" lon="6.6867166321465605">
				<ele>119.0</ele>
				<time>2011-02-16T16:45:20Z</time>
			</trkpt>
			<trkpt lat="50.91164079161816" lon="6.686843273457321">
				<ele>119.0</ele>
				<time>2011-02-16T16:45:21Z</time>
			</trkpt>
			<trkpt lat="50.91165902770318" lon="6.686971335331146">
				<ele>119.0</ele>
				<time>2011-02-16T16:45:22Z</time>
			</trkpt>
			<trkpt lat="50.91167875605692" lon="6.687098431940544">
				<ele>119.0</ele>
				<time>2011-02-16T16:45:23Z</time>
			</trkpt>
			<trkpt lat="50.91169815695285" lon="6.687224127004764">
				<ele>120.0</ele>
				<time>2011-02-16T16:45:24Z</time>
			</trkpt>
			<trkpt lat="50.91171616273833" lon="6.687341103508582">
				<ele>120.0</ele>
				<time>2011-02-16T16:45:25Z</time>
			</trkpt>
			<trkpt lat="50.911730136175024" lon="6.68743114115082">
				<ele>120.0</ele>
				<time>2011-02-16T16:45:26Z</time>
			</trkpt>
			<trkpt lat="50.91173889041426" lon="6.687487429964781">
				<ele>120.0</ele>
				<time>2011-02-16T16:45:27Z</time>
			</trkpt>
			<trkpt lat="50.91173889041426" lon="6.687487429964781">
				<ele>120.0</ele>
				<time>2011-02-16T16:45:28Z</time>
			</trkpt>
			<trkpt lat="50.91173889041426" lon="6.687487429964781">
				<ele>120.0</ele>
				<time>2011-02-16T16:45:29Z</time>
			</trkpt>
			<trkpt lat="50.91173889041426" lon="6.687487429964781">
				<ele>120.0</ele>
				<time>2011-02-16T16:45:30Z</time>
			</trkpt>
			<trkpt lat="50.91174839083757" lon="6.687549732208321">
				<ele>120.0</ele>
				<time>2011-02-16T16:45:31Z</time>
			</trkpt>
			<trkpt lat="50.91175323238222" lon="6.687585146699924">
				<ele>120.0</ele>
				<time>2011-02-16T16:45:32Z</time>
			</trkpt>
			<trkpt lat="50.91176054297966" lon="6.687631892362417">
				<ele>120.0</ele>
				<time>2011-02-16T16:45:33Z</time>
			</trkpt>
			<trkpt lat="50.91176837673194" lon="6.687681884022288">
				<ele>120.0</ele>
				<time>2011-02-16T16:45:34Z</time>
			</trkpt>
			<trkpt lat="50.91177608501658" lon="6.687743158227157">
				<ele>120.0</ele>
				<time>2011-02-16T16:45:35Z</time>
			</trkpt>
			<trkpt lat="50.91178628099603" lon="6.6878246820785385">
				<ele>121.0</ele>
				<time>2011-02-16T16:45:36Z</time>
			</trkpt>
			<trkpt lat="50.91179887898343" lon="6.687925274981077">
				<ele>121.0</ele>
				<time>2011-02-16T16:45:37Z</time>
			</trkpt>
			<trkpt lat="50.911812514419445" lon="6.688031532825769">
				<ele>121.0</ele>
				<time>2011-02-16T16:45:38Z</time>
			</trkpt>
			<trkpt lat="50.91182842510819" lon="6.688136413115654">
				<ele>121.0</ele>
				<time>2011-02-16T16:45:39Z</time>
			</trkpt>
			<trkpt lat="50.91184472214642" lon="6.688241616583337">
				<ele>121.0</ele>
				<time>2011-02-16T16:45:40Z</time>
			</trkpt>
			<trkpt lat="50.911860924680596" lon="6.688352231188038">
				<ele>122.0</ele>
				<time>2011-02-16T16:45:41Z</time>
			</trkpt>
			<trkpt lat="50.911876780398465" lon="6.688470070557382">
				<ele>122.0</ele>
				<time>2011-02-16T16:45:42Z</time>
			</trkpt>
			<trkpt lat="50.911896187795264" lon="6.688590656837576">
				<ele>122.0</ele>
				<time>2011-02-16T16:45:43Z</time>
			</trkpt>
			<trkpt lat="50.91192037998213" lon="6.688713000511596">
				<ele>122.0</ele>
				<time>2011-02-16T16:45:44Z</time>
			</trkpt>
			<trkpt lat="50.91194861502063" lon="6.6888384957358635">
				<ele>122.0</ele>
				<time>2011-02-16T16:45:45Z</time>
			</trkpt>
			<trkpt lat="50.91198236645498" lon="6.688969380731254">
				<ele>122.0</ele>
				<time>2011-02-16T16:45:46Z</time>
			</trkpt>
			<trkpt lat="50.91202053459765" lon="6.689102585458444">
				<ele>122.0</ele>
				<time>2011-02-16T16:45:47Z</time>
			</trkpt>
			<trkpt lat="50.91206556582512" lon="6.689243684690344">
				<ele>122.0</ele>
				<time>2011-02-16T16:45:48Z</time>
			</trkpt>
			<trkpt lat="50.91211603038009" lon="6.689384129952384">
				<ele>122.0</ele>
				<time>2011-02-16T16:45:49Z</time>
			</trkpt>
			<trkpt lat="50.91217282808203" lon="6.689523093840681">
				<ele>122.0</ele>
				<time>2011-02-16T16:45:50Z</time>
			</trkpt>
			<trkpt lat="50.91223653953926" lon="6.6896667092153494">
				<ele>121.0</ele>
				<time>2011-02-16T16:45:51Z</time>
			</trkpt>
			<trkpt lat="50.91230419610021" lon="6.689816872791489">
				<ele>121.0</ele>
				<time>2011-02-16T16:45:52Z</time>
			</trkpt>
			<trkpt lat="50.91237578345354" lon="6.689974907743836">
				<ele>121.0</ele>
				<time>2011-02-16T16:45:53Z</time>
			</trkpt>
			<trkpt lat="50.912447963295065" lon="6.690134248271114">
				<ele>121.0</ele>
				<time>2011-02-16T16:45:54Z</time>
			</trkpt>
			<trkpt lat="50.91252067891458" lon="6.6902960737539425">
				<ele>120.0</ele>
				<time>2011-02-16T16:45:55Z</time>
			</trkpt>
			<trkpt lat="50.91259091731152" lon="6.69046446335067">
				<ele>120.0</ele>
				<time>2011-02-16T16:45:56Z</time>
			</trkpt>
			<trkpt lat="50.912657579260674" lon="6.690637638445776">
				<ele>120.0</ele>
				<time>2011-02-16T16:45:57Z</time>
			</trkpt>
			<trkpt lat="50.91271798706589" lon="6.690815776619144">
				<ele>120.0</ele>
				<time>2011-02-16T16:45:58Z</time>
			</trkpt>
			<trkpt lat="50.9127695691136" lon="6.690997823532023">
				<ele>119.0</ele>
				<time>2011-02-16T16:45:59Z</time>
			</trkpt>
			<trkpt lat="50.91281125903852" lon="6.691183269555148">
				<ele>119.0</ele>
				<time>2011-02-16T16:46:00Z</time>
			</trkpt>
			<trkpt lat="50.91284434154803" lon="6.691371349992997">
				<ele>119.0</ele>
				<time>2011-02-16T16:46:01Z</time>
			</trkpt>
			<trkpt lat="50.91286796810994" lon="6.691562310668674">
				<ele>119.0</ele>
				<time>2011-02-16T16:46:02Z</time>
			</trkpt>
			<trkpt lat="50.91288382253979" lon="6.691759597797188">
				<ele>118.0</ele>
				<time>2011-02-16T16:46:03Z</time>
			</trkpt>
			<trkpt lat="50.91289270875028" lon="6.691960597583668">
				<ele>118.0</ele>
				<time>2011-02-16T16:46:04Z</time>
			</trkpt>
			<trkpt lat="50.91289697997829" lon="6.6921627143771305">
				<ele>118.0</ele>
				<time>2011-02-16T16:46:05Z</time>
			</trkpt>
			<trkpt lat="50.91290158845574" lon="6.692364241167277">
				<ele>118.0</ele>
				<time>2011-02-16T16:46:06Z</time>
			</trkpt>
			<trkpt lat="50.91290736945456" lon="6.692566099103831">
				<ele>118.0</ele>
				<time>2011-02-16T16:46:07Z</time>
			</trkpt>
			<trkpt lat="50.9129198547121" lon="6.692768747186991">
				<ele>118.0</ele>
				<time>2011-02-16T16:46:08Z</time>
			</trkpt>
			<trkpt lat="50.91293889039618" lon="6.692971525104632">
				<ele>118.0</ele>
				<time>2011-02-16T16:46:09Z</time>
			</trkpt>
			<trkpt lat="50.912968451409526" lon="6.693170732661033">
				<ele>118.0</ele>
				<time>2011-02-16T16:46:10Z</time>
			</trkpt>
			<trkpt lat="50.91302543987395" lon="6.693357231104005">
				<ele>118.0</ele>
				<time>2011-02-16T16:46:11Z</time>
			</trkpt>
			<trkpt lat="50.91308500427861" lon="6.693542359125968">
				<ele>118.0</ele>
				<time>2011-02-16T16:46:12Z</time>
			</trkpt>
			<trkpt lat="50.91314936976769" lon="6.693729458672676">
				<ele>118.0</ele>
				<time>2011-02-16T16:46:13Z</time>
			</trkpt>
			<trkpt lat="50.913218570064316" lon="6.6939188251372315">
				<ele>118.0</ele>
				<time>2011-02-16T16:46:14Z</time>
			</trkpt>
			<trkpt lat="50.913290166118465" lon="6.69411171512156">
				<ele>118.0</ele>
				<time>2011-02-16T16:46:15Z</time>
			</trkpt>
			<trkpt lat="50.913365465496284" lon="6.6943049166165">
				<ele>118.0</ele>
				<time>2011-02-16T16:46:16Z</time>
			</trkpt>
			<trkpt lat="50.91344118739549" lon="6.694497611364736">
				<ele>118.0</ele>
				<time>2011-02-16T16:46:17Z</time>
			</trkpt>
			<trkpt lat="50.91351916533795" lon="6.694689261238832">
				<ele>118.0</ele>
				<time>2011-02-16T16:46:18Z</time>
			</trkpt>
			<trkpt lat="50.91359670707436" lon="6.694880594586537">
				<ele>118.0</ele>
				<time>2011-02-16T16:46:19Z</time>
			</trkpt>
			<trkpt lat="50.91367357122279" lon="6.695071232244622">
				<ele>118.0</ele>
				<time>2011-02-16T16:46:20Z</time>
			</trkpt>
			<trkpt lat="50.91374985089126" lon="6.6952615396924475">
				<ele>118.0</ele>
				<time>2011-02-16T16:46:21Z</time>
			</trkpt>
			<trkpt lat="50.91382594916958" lon="6.695452669905439">
				<ele>118.0</ele>
				<time>2011-02-16T16:46:22Z</time>
			</trkpt>
			<trkpt lat="50.91390233875574" lon="6.695643990454216">
				<ele>118.0</ele>
				<time>2011-02-16T16:46:23Z</time>
			</trkpt>
			<trkpt lat="50.913979380119535" lon="6.6958347796745326">
				<ele>118.0</ele>
				<time>2011-02-16T16:46:24Z</time>
			</trkpt>
			<trkpt lat="50.91405695621425" lon="6.696026019145507">
				<ele>118.0</ele>
				<time>2011-02-16T16:46:25Z</time>
			</trkpt>
			<trkpt lat="50.91413722373222" lon="6.696220875898811">
				<ele>118.0</ele>
				<time>2011-02-16T16:46:26Z</time>
			</trkpt>
			<trkpt lat="50.91421740554619" lon="6.696414354075806">
				<ele>117.0</ele>
				<time>2011-02-16T16:46:27Z</time>
			</trkpt>
			<trkpt lat="50.914297326514045" lon="6.696606591002534">
				<ele>117.0</ele>
				<time>2011-02-16T16:46:28Z</time>
			</trkpt>
			<trkpt lat="50.91437664087923" lon="6.6967981254647455">
				<ele>117.0</ele>
				<time>2011-02-16T16:46:29Z</time>
			</trkpt>
			<trkpt lat="50.91445542837954" lon="6.6969893483561265">
				<ele>117.0</ele>
				<time>2011-02-16T16:46:30Z</time>
			</trkpt>
			<trkpt lat="50.9145337799901" lon="6.69718239283399">
				<ele>117.0</ele>
				<time>2011-02-16T16:46:31Z</time>
			</trkpt>
			<trkpt lat="50.91460995571921" lon="6.69738093760851">
				<ele>117.0</ele>
				<time>2011-02-16T16:46:32Z</time>
			</trkpt>
			<trkpt lat="50.91468632796593" lon="6.697583531866144">
				<ele>117.0</ele>
				<time>2011-02-16T16:46:33Z</time>
			</trkpt>
			<trkpt lat="50.91475604983979" lon="6.697789852795678">
				<ele>117.0</ele>
				<time>2011-02-16T16:46:34Z</time>
			</trkpt>
			<trkpt lat="50.91482008058984" lon="6.6980005210973665">
				<ele>117.0</ele>
				<time>2011-02-16T16:46:35Z</time>
			</trkpt>
			<trkpt lat="50.91487743184367" lon="6.698214241161862">
				<ele>117.0</ele>
				<time>2011-02-16T16:46:36Z</time>
			</trkpt>
			<trkpt lat="50.91492601647544" lon="6.698433376913021">
				<ele>117.0</ele>
				<time>2011-02-16T16:46:37Z</time>
			</trkpt>
			<trkpt lat="50.91497025027451" lon="6.698655255793988">
				<ele>117.0</ele>
				<time>2011-02-16T16:46:38Z</time>
			</trkpt>
			<trkpt lat="50.915009606663" lon="6.69887886436497">
				<ele>117.0</ele>
				<time>2011-02-16T16:46:39Z</time>
			</trkpt>
			<trkpt lat="50.915048528099724" lon="6.699102064237013">
				<ele>117.0</ele>
				<time>2011-02-16T16:46:40Z</time>
			</trkpt>
			<trkpt lat="50.91508472780391" lon="6.699323668293131">
				<ele>117.0</ele>
				<time>2011-02-16T16:46:41Z</time>
			</trkpt>
			<trkpt lat="50.915120750775074" lon="6.699542448438384">
				<ele>117.0</ele>
				<time>2011-02-16T16:46:42Z</time>
			</trkpt>
			<trkpt lat="50.91515679934831" lon="6.6997554006511555">
				<ele>117.0</ele>
				<time>2011-02-16T16:46:43Z</time>
			</trkpt>
			<trkpt lat="50.915191410355966" lon="6.699959843316615">
				<ele>117.0</ele>
				<time>2011-02-16T16:46:44Z</time>
			</trkpt>
			<trkpt lat="50.91522521912725" lon="6.700157975281134">
				<ele>117.0</ele>
				<time>2011-02-16T16:46:45Z</time>
			</trkpt>
			<trkpt lat="50.91525927620506" lon="6.700350912022771">
				<ele>117.0</ele>
				<time>2011-02-16T16:46:46Z</time>
			</trkpt>
			<trkpt lat="50.91529314524338" lon="6.700540217518158">
				<ele>117.0</ele>
				<time>2011-02-16T16:46:47Z</time>
			</trkpt>
			<trkpt lat="50.91532180015185" lon="6.700726929750453">
				<ele>117.0</ele>
				<time>2011-02-16T16:46:48Z</time>
			</trkpt>
			<trkpt lat="50.915345674501495" lon="6.700911928042055">
				<ele>117.0</ele>
				<time>2011-02-16T16:46:49Z</time>
			</trkpt>
			<trkpt lat="50.915368787553554" lon="6.701096163649682">
				<ele>118.0</ele>
				<time>2011-02-16T16:46:50Z</time>
			</trkpt>
			<trkpt lat="50.91538695146522" lon="6.701279167479403">
				<ele>118.0</ele>
				<time>2011-02-16T16:46:51Z</time>
			</trkpt>
			<trkpt lat="50.91540093226862" lon="6.701461081104389">
				<ele>118.0</ele>
				<time>2011-02-16T16:46:52Z</time>
			</trkpt>
			<trkpt lat="50.915411240081724" lon="6.701641727682758">
				<ele>118.0</ele>
				<time>2011-02-16T16:46:53Z</time>
			</trkpt>
			<trkpt lat="50.915416523137125" lon="6.701824830317287">
				<ele>118.0</ele>
				<time>2011-02-16T16:46:54Z</time>
			</trkpt>
			<trkpt lat="50.91541564760649" lon="6.702011016072641">
				<ele>118.0</ele>
				<time>2011-02-16T16:46:55Z</time>
			</trkpt>
			<trkpt lat="50.915409291079946" lon="6.702192693492871">
				<ele>118.0</ele>
				<time>2011-02-16T16:46:56Z</time>
			</trkpt>
			<trkpt lat="50.91539669654653" lon="6.702374564866724">
				<ele>118.0</ele>
				<time>2011-02-16T16:46:57Z</time>
			</trkpt>
			<trkpt lat="50.91537956454209" lon="6.70255436217469">
				<ele>118.0</ele>
				<time>2011-02-16T16:46:58Z</time>
			</trkpt>
			<trkpt lat="50.91535901937385" lon="6.702729196183306">
				<ele>118.0</ele>
				<time>2011-02-16T16:46:59Z</time>
			</trkpt>
			<trkpt lat="50.91533630953375" lon="6.702900322272657">
				<ele>118.0</ele>
				<time>2011-02-16T16:47:00Z</time>
			</trkpt>
			<trkpt lat="50.91531175559773" lon="6.7030679977857055">
				<ele>118.0</ele>
				<time>2011-02-16T16:47:01Z</time>
			</trkpt>
			<trkpt lat="50.91528758239972" lon="6.703230121663873">
				<ele>118.0</ele>
				<time>2011-02-16T16:47:02Z</time>
			</trkpt>
			<trkpt lat="50.915264760132374" lon="6.703385988472566">
				<ele>118.0</ele>
				<time>2011-02-16T16:47:03Z</time>
			</trkpt>
			<trkpt lat="50.915243858995076" lon="6.703541422098688">
				<ele>118.0</ele>
				<time>2011-02-16T16:47:04Z</time>
			</trkpt>
			<trkpt lat="50.91522414840658" lon="6.7036948514997885">
				<ele>118.0</ele>
				<time>2011-02-16T16:47:05Z</time>
			</trkpt>
			<trkpt lat="50.91520752726011" lon="6.703848186652611">
				<ele>118.0</ele>
				<time>2011-02-16T16:47:06Z</time>
			</trkpt>
			<trkpt lat="50.915194865397844" lon="6.703997409310309">
				<ele>118.0</ele>
				<time>2011-02-16T16:47:07Z</time>
			</trkpt>
			<trkpt lat="50.91518450461685" lon="6.704144557366198">
				<ele>118.0</ele>
				<time>2011-02-16T16:47:08Z</time>
			</trkpt>
			<trkpt lat="50.915177543715906" lon="6.704289374483009">
				<ele>118.0</ele>
				<time>2011-02-16T16:47:09Z</time>
			</trkpt>
			<trkpt lat="50.91517594590095" lon="6.704428019181163">
				<ele>118.0</ele>
				<time>2011-02-16T16:47:10Z</time>
			</trkpt>
			<trkpt lat="50.915178214795766" lon="6.704564190600038">
				<ele>118.0</ele>
				<time>2011-02-16T16:47:11Z</time>
			</trkpt>
			<trkpt lat="50.915182474602304" lon="6.704698369601937">
				<ele>118.0</ele>
				<time>2011-02-16T16:47:12Z</time>
			</trkpt>
			<trkpt lat="50.915188520311695" lon="6.704837592198296">
				<ele>118.0</ele>
				<time>2011-02-16T16:47:13Z</time>
			</trkpt>
			<trkpt lat="50.91519749701174" lon="6.704986922856565">
				<ele>119.0</ele>
				<time>2011-02-16T16:47:14Z</time>
			</trkpt>
			<trkpt lat="50.91520710294214" lon="6.705138767543648">
				<ele>119.0</ele>
				<time>2011-02-16T16:47:15Z</time>
			</trkpt>
			<trkpt lat="50.91521890735127" lon="6.705296924743927">
				<ele>119.0</ele>
				<time>2011-02-16T16:47:16Z</time>
			</trkpt>
			<trkpt lat="50.91523028454943" lon="6.705453750946824">
				<ele>119.0</ele>
				<time>2011-02-16T16:47:17Z</time>
			</trkpt>
			<trkpt lat="50.91524338534511" lon="6.705608477324258">
				<ele>119.0</ele>
				<time>2011-02-16T16:47:18Z</time>
			</trkpt>
			<trkpt lat="50.915255044429" lon="6.705761184458331">
				<ele>119.0</ele>
				<time>2011-02-16T16:47:19Z</time>
			</trkpt>
			<trkpt lat="50.91526760379374" lon="6.705912600341448">
				<ele>119.0</ele>
				<time>2011-02-16T16:47:20Z</time>
			</trkpt>
			<trkpt lat="50.91527984267178" lon="6.706058989064353">
				<ele>119.0</ele>
				<time>2011-02-16T16:47:21Z</time>
			</trkpt>
			<trkpt lat="50.91529307045215" lon="6.706201521429366">
				<ele>119.0</ele>
				<time>2011-02-16T16:47:22Z</time>
			</trkpt>
			<trkpt lat="50.91530552251177" lon="6.706340921311481">
				<ele>119.0</ele>
				<time>2011-02-16T16:47:23Z</time>
			</trkpt>
			<trkpt lat="50.91531944982856" lon="6.706478299777606">
				<ele>119.0</ele>
				<time>2011-02-16T16:47:24Z</time>
			</trkpt>
			<trkpt lat="50.915332530486424" lon="6.706613308611971">
				<ele>119.0</ele>
				<time>2011-02-16T16:47:25Z</time>
			</trkpt>
			<trkpt lat="50.915344063030176" lon="6.706743403849733">
				<ele>119.0</ele>
				<time>2011-02-16T16:47:26Z</time>
			</trkpt>
			<trkpt lat="50.915352312988176" lon="6.7068732223996985">
				<ele>119.0</ele>
				<time>2011-02-16T16:47:27Z</time>
			</trkpt>
			<trkpt lat="50.91536129738347" lon="6.707001071493586">
				<ele>120.0</ele>
				<time>2011-02-16T16:47:28Z</time>
			</trkpt>
			<trkpt lat="50.91537044536241" lon="6.707127748687996">
				<ele>120.0</ele>
				<time>2011-02-16T16:47:29Z</time>
			</trkpt>
			<trkpt lat="50.915379161638384" lon="6.707256460921048">
				<ele>120.0</ele>
				<time>2011-02-16T16:47:30Z</time>
			</trkpt>
			<trkpt lat="50.91538455884597" lon="6.707386930687674">
				<ele>120.0</ele>
				<time>2011-02-16T16:47:31Z</time>
			</trkpt>
			<trkpt lat="50.91539045105746" lon="6.707516959307104">
				<ele>120.0</ele>
				<time>2011-02-16T16:47:32Z</time>
			</trkpt>
			<trkpt lat="50.9153950787209" lon="6.707642642524032">
				<ele>120.0</ele>
				<time>2011-02-16T16:47:33Z</time>
			</trkpt>
			<trkpt lat="50.91539830318798" lon="6.707764550149292">
				<ele>120.0</ele>
				<time>2011-02-16T16:47:34Z</time>
			</trkpt>
			<trkpt lat="50.91539972405247" lon="6.707882697359172">
				<ele>119.0</ele>
				<time>2011-02-16T16:47:35Z</time>
			</trkpt>
			<trkpt lat="50.915399997954886" lon="6.7079961823672996">
				<ele>119.0</ele>
				<time>2011-02-16T16:47:36Z</time>
			</trkpt>
			<trkpt lat="50.91539862994" lon="6.708104625480441">
				<ele>119.0</ele>
				<time>2011-02-16T16:47:37Z</time>
			</trkpt>
			<trkpt lat="50.915396332608374" lon="6.708206412245767">
				<ele>119.0</ele>
				<time>2011-02-16T16:47:38Z</time>
			</trkpt>
			<trkpt lat="50.91539154328455" lon="6.708308181170918">
				<ele>119.0</ele>
				<time>2011-02-16T16:47:39Z</time>
			</trkpt>
			<trkpt lat="50.91538353771588" lon="6.70840865576566">
				<ele>119.0</ele>
				<time>2011-02-16T16:47:40Z</time>
			</trkpt>
			<trkpt lat="50.9153738141481" lon="6.708508301631517">
				<ele>119.0</ele>
				<time>2011-02-16T16:47:41Z</time>
			</trkpt>
			<trkpt lat="50.91536187872468" lon="6.708607919866841">
				<ele>119.0</ele>
				<time>2011-02-16T16:47:42Z</time>
			</trkpt>
			<trkpt lat="50.91535123644548" lon="6.7087064004240755">
				<ele>119.0</ele>
				<time>2011-02-16T16:47:43Z</time>
			</trkpt>
			<trkpt lat="50.9153407796327" lon="6.708802052584662">
				<ele>119.0</ele>
				<time>2011-02-16T16:47:44Z</time>
			</trkpt>
			<trkpt lat="50.915331087191824" lon="6.708889753224503">
				<ele>119.0</ele>
				<time>2011-02-16T16:47:45Z</time>
			</trkpt>
			<trkpt lat="50.915320741601235" lon="6.708970140917592">
				<ele>119.0</ele>
				<time>2011-02-16T16:47:46Z</time>
			</trkpt>
			<trkpt lat="50.91531235711184" lon="6.709032693106539">
				<ele>119.0</ele>
				<time>2011-02-16T16:47:47Z</time>
			</trkpt>
			<trkpt lat="50.915307874543636" lon="6.7090717496318115">
				<ele>119.0</ele>
				<time>2011-02-16T16:47:48Z</time>
			</trkpt>
			<trkpt lat="50.915304190568406" lon="6.70910353661245">
				<ele>119.0</ele>
				<time>2011-02-16T16:47:49Z</time>
			</trkpt>
			<trkpt lat="50.91530144548447" lon="6.709126163605791">
				<ele>119.0</ele>
				<time>2011-02-16T16:47:50Z</time>
			</trkpt>
			<trkpt lat="50.91530144548447" lon="6.709126163605791">
				<ele>119.0</ele>
				<time>2011-02-16T16:47:51Z</time>
			</trkpt>
			<trkpt lat="50.91530144548447" lon="6.709126163605791">
				<ele>119.0</ele>
				<time>2011-02-16T16:47:52Z</time>
			</trkpt>
			<trkpt lat="50.91530144548447" lon="6.709126163605791">
				<ele>119.0</ele>
				<time>2011-02-16T16:47:53Z</time>
			</trkpt>
			<trkpt lat="50.91530144548447" lon="6.709126163605791">
				<ele>119.0</ele>
				<time>2011-02-16T16:47:54Z</time>
			</trkpt>
			<trkpt lat="50.91530144548447" lon="6.709126163605791">
				<ele>119.0</ele>
				<time>2011-02-16T16:47:55Z</time>
			</trkpt>
			<trkpt lat="50.91530144548447" lon="6.709126163605791">
				<ele>119.0</ele>
				<time>2011-02-16T16:47:56Z</time>
			</trkpt>
			<trkpt lat="50.91530144548447" lon="6.709126163605791">
				<ele>119.0</ele>
				<time>2011-02-16T16:47:57Z</time>
			</trkpt>
			<trkpt lat="50.91530144548447" lon="6.709126163605791">
				<ele>119.0</ele>
				<time>2011-02-16T16:47:58Z</time>
			</trkpt>
			<trkpt lat="50.91530144548447" lon="6.709126163605791">
				<ele>119.0</ele>
				<time>2011-02-16T16:47:59Z</time>
			</trkpt>
			<trkpt lat="50.91530144548447" lon="6.709126163605791">
				<ele>119.0</ele>
				<time>2011-02-16T16:48:00Z</time>
			</trkpt>
			<trkpt lat="50.91530144548447" lon="6.709126163605791">
				<ele>119.0</ele>
				<time>2011-02-16T16:48:01Z</time>
			</trkpt>
			<trkpt lat="50.91530144548447" lon="6.709126163605791">
				<ele>119.0</ele>
				<time>2011-02-16T16:48:02Z</time>
			</trkpt>
			<trkpt lat="50.91530144548447" lon="6.709126163605791">
				<ele>119.0</ele>
				<time>2011-02-16T16:48:03Z</time>
			</trkpt>
			<trkpt lat="50.91530144548447" lon="6.709126163605791">
				<ele>119.0</ele>
				<time>2011-02-16T16:48:04Z</time>
			</trkpt>
			<trkpt lat="50.91530144548447" lon="6.709126163605791">
				<ele>119.0</ele>
				<time>2011-02-16T16:48:05Z</time>
			</trkpt>
			<trkpt lat="50.91530144548447" lon="6.709126163605791">
				<ele>119.0</ele>
				<time>2011-02-16T16:48:06Z</time>
			</trkpt>
			<trkpt lat="50.91530144548447" lon="6.709126163605791">
				<ele>119.0</ele>
				<time>2011-02-16T16:48:07Z</time>
			</trkpt>
			<trkpt lat="50.91530144548447" lon="6.709126163605791">
				<ele>119.0</ele>
				<time>2011-02-16T16:48:08Z</time>
			</trkpt>
			<trkpt lat="50.91530144548447" lon="6.709126163605791">
				<ele>119.0</ele>
				<time>2011-02-16T16:48:09Z</time>
			</trkpt>
			<trkpt lat="50.91530144548447" lon="6.709126163605791">
				<ele>119.0</ele>
				<time>2011-02-16T16:48:10Z</time>
			</trkpt>
			<trkpt lat="50.91530144548447" lon="6.709126163605791">
				<ele>119.0</ele>
				<time>2011-02-16T16:48:11Z</time>
			</trkpt>
			<trkpt lat="50.91530144548447" lon="6.709126163605791">
				<ele>119.0</ele>
				<time>2011-02-16T16:48:12Z</time>
			</trkpt>
			<trkpt lat="50.91530144548447" lon="6.709126163605791">
				<ele>119.0</ele>
				<time>2011-02-16T16:48:13Z</time>
			</trkpt>
			<trkpt lat="50.91530144548447" lon="6.709126163605791">
				<ele>119.0</ele>
				<time>2011-02-16T16:48:14Z</time>
			</trkpt>
			<trkpt lat="50.91530144548447" lon="6.709126163605791">
				<ele>119.0</ele>
				<time>2011-02-16T16:48:15Z</time>
			</trkpt>
			<trkpt lat="50.91530144548447" lon="6.709126163605791">
				<ele>119.0</ele>
				<time>2011-02-16T16:48:16Z</time>
			</trkpt>
			<trkpt lat="50.91530144548447" lon="6.709126163605791">
				<ele>119.0</ele>
				<time>2011-02-16T16:48:17Z</time>
			</trkpt>
			<trkpt lat="50.91530144548447" lon="6.709126163605791">
				<ele>119.0</ele>
				<time>2011-02-16T16:48:18Z</time>
			</trkpt>
			<trkpt lat="50.91530144548447" lon="6.709126163605791">
				<ele>119.0</ele>
				<time>2011-02-16T16:48:19Z</time>
			</trkpt>
			<trkpt lat="50.91530144548447" lon="6.709126163605791">
				<ele>119.0</ele>
				<time>2011-02-16T16:48:20Z</time>
			</trkpt>
			<trkpt lat="50.91530144548447" lon="6.709126163605791">
				<ele>119.0</ele>
				<time>2011-02-16T16:48:21Z</time>
			</trkpt>
			<trkpt lat="50.91530144548447" lon="6.709126163605791">
				<ele>119.0</ele>
				<time>2011-02-16T16:48:22Z</time>
			</trkpt>
			<trkpt lat="50.91530144548447" lon="6.709126163605791">
				<ele>119.0</ele>
				<time>2011-02-16T16:48:23Z</time>
			</trkpt>
			<trkpt lat="50.91530144548447" lon="6.709126163605791">
				<ele>119.0</ele>
				<time>2011-02-16T16:48:24Z</time>
			</trkpt>
			<trkpt lat="50.91530144548447" lon="6.709126163605791">
				<ele>119.0</ele>
				<time>2011-02-16T16:48:25Z</time>
			</trkpt>
			<trkpt lat="50.91530144548447" lon="6.709126163605791">
				<ele>119.0</ele>
				<time>2011-02-16T16:48:26Z</time>
			</trkpt>
			<trkpt lat="50.915293420849125" lon="6.709161194276653">
				<ele>119.0</ele>
				<time>2011-02-16T16:48:27Z</time>
			</trkpt>
			<trkpt lat="50.91528671324352" lon="6.70920852419814">
				<ele>119.0</ele>
				<time>2011-02-16T16:48:28Z</time>
			</trkpt>
			<trkpt lat="50.915281843350854" lon="6.709256461276984">
				<ele>119.0</ele>
				<time>2011-02-16T16:48:29Z</time>
			</trkpt>
			<trkpt lat="50.91529956387961" lon="6.7093076569640955">
				<ele>119.0</ele>
				<time>2011-02-16T16:48:30Z</time>
			</trkpt>
			<trkpt lat="50.91533153047794" lon="6.709338235424639">
				<ele>119.0</ele>
				<time>2011-02-16T16:48:31Z</time>
			</trkpt>
			<trkpt lat="50.91537547752957" lon="6.70934188155428">
				<ele>119.0</ele>
				<time>2011-02-16T16:48:32Z</time>
			</trkpt>
			<trkpt lat="50.91543416694804" lon="6.709339514876417">
				<ele>118.0</ele>
				<time>2011-02-16T16:48:33Z</time>
			</trkpt>
			<trkpt lat="50.91550199547364" lon="6.709331838444694">
				<ele>118.0</ele>
				<time>2011-02-16T16:48:34Z</time>
			</trkpt>
			<trkpt lat="50.91556923749969" lon="6.7093224447729245">
				<ele>118.0</ele>
				<time>2011-02-16T16:48:35Z</time>
			</trkpt>
			<trkpt lat="50.91564975905892" lon="6.709314934678433">
				<ele>118.0</ele>
				<time>2011-02-16T16:48:36Z</time>
			</trkpt>
			<trkpt lat="50.91573713865951" lon="6.7093097514799975">
				<ele>119.0</ele>
				<time>2011-02-16T16:48:37Z</time>
			</trkpt>
			<trkpt lat="50.915826056777085" lon="6.709307331557975">
				<ele>119.0</ele>
				<time>2011-02-16T16:48:38Z</time>
			</trkpt>
			<trkpt lat="50.91591724407098" lon="6.709304442049072">
				<ele>119.0</ele>
				<time>2011-02-16T16:48:39Z</time>
			</trkpt>
			<trkpt lat="50.91600854546931" lon="6.709303432652786">
				<ele>119.0</ele>
				<time>2011-02-16T16:48:40Z</time>
			</trkpt>
			<trkpt lat="50.91610227007243" lon="6.70930656920048">
				<ele>119.0</ele>
				<time>2011-02-16T16:48:41Z</time>
			</trkpt>
			<trkpt lat="50.91619518482757" lon="6.709312353764545">
				<ele>119.0</ele>
				<time>2011-02-16T16:48:42Z</time>
			</trkpt>
			<trkpt lat="50.91628732117021" lon="6.709317639252021">
				<ele>119.0</ele>
				<time>2011-02-16T16:48:43Z</time>
			</trkpt>
			<trkpt lat="50.91637958064478" lon="6.709326823486817">
				<ele>120.0</ele>
				<time>2011-02-16T16:48:44Z</time>
			</trkpt>
			<trkpt lat="50.916473172669136" lon="6.7093360266778586">
				<ele>120.0</ele>
				<time>2011-02-16T16:48:45Z</time>
			</trkpt>
			<trkpt lat="50.916565092139265" lon="6.7093436314318895">
				<ele>121.0</ele>
				<time>2011-02-16T16:48:46Z</time>
			</trkpt>
			<trkpt lat="50.91665726605842" lon="6.7093455654622955">
				<ele>121.0</ele>
				<time>2011-02-16T16:48:47Z</time>
			</trkpt>
			<trkpt lat="50.9167491821889" lon="6.709342489147241">
				<ele>121.0</ele>
				<time>2011-02-16T16:48:48Z</time>
			</trkpt>
			<trkpt lat="50.916840464593996" lon="6.70932751184872">
				<ele>121.0</ele>
				<time>2011-02-16T16:48:49Z</time>
			</trkpt>
			<trkpt lat="50.91692851103015" lon="6.709278748312323">
				<ele>122.0</ele>
				<time>2011-02-16T16:48:50Z</time>
			</trkpt>
			<trkpt lat="50.917015228408495" lon="6.709221491271229">
				<ele>122.0</ele>
				<time>2011-02-16T16:48:51Z</time>
			</trkpt>
			<trkpt lat="50.917087921711605" lon="6.709128498577609">
				<ele>122.0</ele>
				<time>2011-02-16T16:48:52Z</time>
			</trkpt>
			<trkpt lat="50.917157822775856" lon="6.709027490150396">
				<ele>122.0</ele>
				<time>2011-02-16T16:48:53Z</time>
			</trkpt>
			<trkpt lat="50.91720525055652" lon="6.708895799261901">
				<ele>122.0</ele>
				<time>2011-02-16T16:48:54Z</time>
			</trkpt>
			<trkpt lat="50.917248194548904" lon="6.708760487627691">
				<ele>122.0</ele>
				<time>2011-02-16T16:48:55Z</time>
			</trkpt>
			<trkpt lat="50.91729026645426" lon="6.708625668199935">
				<ele>122.0</ele>
				<time>2011-02-16T16:48:56Z</time>
			</trkpt>
			<trkpt lat="50.917336683257076" lon="6.708494679478564">
				<ele>122.0</ele>
				<time>2011-02-16T16:48:57Z</time>
			</trkpt>
			<trkpt lat="50.917385325615506" lon="6.708369655228383">
				<ele>122.0</ele>
				<time>2011-02-16T16:48:58Z</time>
			</trkpt>
			<trkpt lat="50.91745673267521" lon="6.708262791585688">
				<ele>122.0</ele>
				<time>2011-02-16T16:48:59Z</time>
			</trkpt>
			<trkpt lat="50.917533009184154" lon="6.7081583633130535">
				<ele>122.0</ele>
				<time>2011-02-16T16:49:00Z</time>
			</trkpt>
			<trkpt lat="50.917622200882654" lon="6.708085021004172">
				<ele>122.0</ele>
				<time>2011-02-16T16:49:01Z</time>
			</trkpt>
			<trkpt lat="50.91771618866864" lon="6.708042361965685">
				<ele>122.0</ele>
				<time>2011-02-16T16:49:02Z</time>
			</trkpt>
			<trkpt lat="50.91780989963117" lon="6.708003330420807">
				<ele>121.0</ele>
				<time>2011-02-16T16:49:03Z</time>
			</trkpt>
			<trkpt lat="50.91790902231125" lon="6.707973482785403">
				<ele>121.0</ele>
				<time>2011-02-16T16:49:04Z</time>
			</trkpt>
			<trkpt lat="50.91801104138006" lon="6.7079507723551846">
				<ele>121.0</ele>
				<time>2011-02-16T16:49:05Z</time>
			</trkpt>
			<trkpt lat="50.91811424539824" lon="6.707933111292722">
				<ele>121.0</ele>
				<time>2011-02-16T16:49:06Z</time>
			</trkpt>
			<trkpt lat="50.91821891126328" lon="6.70791656430993">
				<ele>121.0</ele>
				<time>2011-02-16T16:49:07Z</time>
			</trkpt>
			<trkpt lat="50.91832447972143" lon="6.707905693163092">
				<ele>120.0</ele>
				<time>2011-02-16T16:49:08Z</time>
			</trkpt>
			<trkpt lat="50.918429865714586" lon="6.707902377485664">
				<ele>120.0</ele>
				<time>2011-02-16T16:49:09Z</time>
			</trkpt>
			<trkpt lat="50.91853127717782" lon="6.707907029598679">
				<ele>120.0</ele>
				<time>2011-02-16T16:49:10Z</time>
			</trkpt>
			<trkpt lat="50.91863353515431" lon="6.707910242494351">
				<ele>120.0</ele>
				<time>2011-02-16T16:49:11Z</time>
			</trkpt>
			<trkpt lat="50.918735870220765" lon="6.707911163821718">
				<ele>120.0</ele>
				<time>2011-02-16T16:49:12Z</time>
			</trkpt>
			<trkpt lat="50.91884061496434" lon="6.70790453600245">
				<ele>120.0</ele>
				<time>2011-02-16T16:49:13Z</time>
			</trkpt>
			<trkpt lat="50.91894308121845" lon="6.707895989869396">
				<ele>121.0</ele>
				<time>2011-02-16T16:49:14Z</time>
			</trkpt>
			<trkpt lat="50.91904211216301" lon="6.707883283231013">
				<ele>121.0</ele>
				<time>2011-02-16T16:49:15Z</time>
			</trkpt>
			<trkpt lat="50.919141765470144" lon="6.707870134533755">
				<ele>121.0</ele>
				<time>2011-02-16T16:49:16Z</time>
			</trkpt>
			<trkpt lat="50.91924311672109" lon="6.7078560902076765">
				<ele>121.0</ele>
				<time>2011-02-16T16:49:17Z</time>
			</trkpt>
			<trkpt lat="50.91934479753404" lon="6.7078411756958145">
				<ele>121.0</ele>
				<time>2011-02-16T16:49:18Z</time>
			</trkpt>
			<trkpt lat="50.91944743399891" lon="6.707821371258533">
				<ele>121.0</ele>
				<time>2011-02-16T16:49:19Z</time>
			</trkpt>
			<trkpt lat="50.91955276915066" lon="6.70779787001064">
				<ele>122.0</ele>
				<time>2011-02-16T16:49:20Z</time>
			</trkpt>
			<trkpt lat="50.91966138470042" lon="6.707775084700911">
				<ele>122.0</ele>
				<time>2011-02-16T16:49:21Z</time>
			</trkpt>
			<trkpt lat="50.91977097230745" lon="6.707749049913906">
				<ele>123.0</ele>
				<time>2011-02-16T16:49:22Z</time>
			</trkpt>
			<trkpt lat="50.91988374975444" lon="6.707722529840207">
				<ele>123.0</ele>
				<time>2011-02-16T16:49:23Z</time>
			</trkpt>
			<trkpt lat="50.91999910464776" lon="6.707696210558986">
				<ele>124.0</ele>
				<time>2011-02-16T16:49:24Z</time>
			</trkpt>
			<trkpt lat="50.92011654037131" lon="6.707669811283063">
				<ele>124.0</ele>
				<time>2011-02-16T16:49:25Z</time>
			</trkpt>
			<trkpt lat="50.92023299536625" lon="6.707644176616083">
				<ele>125.0</ele>
				<time>2011-02-16T16:49:26Z</time>
			</trkpt>
			<trkpt lat="50.92034941466049" lon="6.707617418028291">
				<ele>125.0</ele>
				<time>2011-02-16T16:49:27Z</time>
			</trkpt>
			<trkpt lat="50.92046263076052" lon="6.707585640806264">
				<ele>125.0</ele>
				<time>2011-02-16T16:49:28Z</time>
			</trkpt>
			<trkpt lat="50.92057453771655" lon="6.707554940513374">
				<ele>126.0</ele>
				<time>2011-02-16T16:49:29Z</time>
			</trkpt>
			<trkpt lat="50.920686078238326" lon="6.707516914134">
				<ele>126.0</ele>
				<time>2011-02-16T16:49:30Z</time>
			</trkpt>
			<trkpt lat="50.920796065152196" lon="6.707483075448444">
				<ele>126.0</ele>
				<time>2011-02-16T16:49:31Z</time>
			</trkpt>
			<trkpt lat="50.920904363953355" lon="6.707449820587196">
				<ele>127.0</ele>
				<time>2011-02-16T16:49:32Z</time>
			</trkpt>
			<trkpt lat="50.92100797065401" lon="6.707418662167364">
				<ele>127.0</ele>
				<time>2011-02-16T16:49:33Z</time>
			</trkpt>
			<trkpt lat="50.92110956856723" lon="6.707388549539554">
				<ele>127.0</ele>
				<time>2011-02-16T16:49:34Z</time>
			</trkpt>
			<trkpt lat="50.921209815179914" lon="6.707358191763375">
				<ele>127.0</ele>
				<time>2011-02-16T16:49:35Z</time>
			</trkpt>
			<trkpt lat="50.92130840219406" lon="6.70732289163976">
				<ele>127.0</ele>
				<time>2011-02-16T16:49:36Z</time>
			</trkpt>
			<trkpt lat="50.921407304745706" lon="6.7072877665862425">
				<ele>127.0</ele>
				<time>2011-02-16T16:49:37Z</time>
			</trkpt>
			<trkpt lat="50.92150462876922" lon="6.707248949274323">
				<ele>127.0</ele>
				<time>2011-02-16T16:49:38Z</time>
			</trkpt>
			<trkpt lat="50.92159774509308" lon="6.707211355580346">
				<ele>127.0</ele>
				<time>2011-02-16T16:49:39Z</time>
			</trkpt>
			<trkpt lat="50.921688418705344" lon="6.707174326272204">
				<ele>127.0</ele>
				<time>2011-02-16T16:49:40Z</time>
			</trkpt>
			<trkpt lat="50.92177781560103" lon="6.707134071666612">
				<ele>127.0</ele>
				<time>2011-02-16T16:49:41Z</time>
			</trkpt>
			<trkpt lat="50.92186715422113" lon="6.707093357746995">
				<ele>127.0</ele>
				<time>2011-02-16T16:49:42Z</time>
			</trkpt>
			<trkpt lat="50.92195604733889" lon="6.707052550850338">
				<ele>127.0</ele>
				<time>2011-02-16T16:49:43Z</time>
			</trkpt>
			<trkpt lat="50.92204168629551" lon="6.7070102291503275">
				<ele>127.0</ele>
				<time>2011-02-16T16:49:44Z</time>
			</trkpt>
			<trkpt lat="50.92212800701735" lon="6.706968495947749">
				<ele>127.0</ele>
				<time>2011-02-16T16:49:45Z</time>
			</trkpt>
			<trkpt lat="50.922212495163315" lon="6.706927963903648">
				<ele>127.0</ele>
				<time>2011-02-16T16:49:46Z</time>
			</trkpt>
			<trkpt lat="50.92229672597406" lon="6.70688667029037">
				<ele>127.0</ele>
				<time>2011-02-16T16:49:47Z</time>
			</trkpt>
			<trkpt lat="50.92237719605029" lon="6.706848242212954">
				<ele>127.0</ele>
				<time>2011-02-16T16:49:48Z</time>
			</trkpt>
			<trkpt lat="50.92244712689721" lon="6.7068140993688585">
				<ele>128.0</ele>
				<time>2011-02-16T16:49:49Z</time>
			</trkpt>
			<trkpt lat="50.922503646207154" lon="6.706790037843822">
				<ele>128.0</ele>
				<time>2011-02-16T16:49:50Z</time>
			</trkpt>
			<trkpt lat="50.92255303732692" lon="6.70679767610279">
				<ele>128.0</ele>
				<time>2011-02-16T16:49:51Z</time>
			</trkpt>
			<trkpt lat="50.922591719070766" lon="6.706830407098508">
				<ele>128.0</ele>
				<time>2011-02-16T16:49:52Z</time>
			</trkpt>
			<trkpt lat="50.92261800400986" lon="6.706884546793187">
				<ele>128.0</ele>
				<time>2011-02-16T16:49:53Z</time>
			</trkpt>
			<trkpt lat="50.92264293659766" lon="6.706944090136758">
				<ele>128.0</ele>
				<time>2011-02-16T16:49:54Z</time>
			</trkpt>
			<trkpt lat="50.922669997021025" lon="6.707003957327121">
				<ele>128.0</ele>
				<time>2011-02-16T16:49:55Z</time>
			</trkpt>
			<trkpt lat="50.92269674013966" lon="6.707053971241538">
				<ele>128.0</ele>
				<time>2011-02-16T16:49:56Z</time>
			</trkpt>
			<trkpt lat="50.92272041826329" lon="6.707099133055081">
				<ele>128.0</ele>
				<time>2011-02-16T16:49:57Z</time>
			</trkpt>
			<trkpt lat="50.92273886097731" lon="6.707137761333934">
				<ele>128.0</ele>
				<time>2011-02-16T16:49:58Z</time>
			</trkpt>
			<trkpt lat="50.92275892628162" lon="6.707163088093609">
				<ele>128.0</ele>
				<time>2011-02-16T16:49:59Z</time>
			</trkpt>
			<trkpt lat="50.92277564677955" lon="6.707171525922994">
				<ele>128.0</ele>
				<time>2011-02-16T16:50:00Z</time>
			</trkpt>
			<trkpt lat="50.92277564677955" lon="6.707171525922994">
				<ele>128.0</ele>
				<time>2011-02-16T16:50:01Z</time>
			</trkpt>
			<trkpt lat="50.92277564677955" lon="6.707171525922994">
				<ele>128.0</ele>
				<time>2011-02-16T16:50:02Z</time>
			</trkpt>
			<trkpt lat="50.92277564677955" lon="6.707171525922994">
				<ele>128.0</ele>
				<time>2011-02-16T16:50:03Z</time>
			</trkpt>
			<trkpt lat="50.92277564677955" lon="6.707171525922994">
				<ele>128.0</ele>
				<time>2011-02-16T16:50:04Z</time>
			</trkpt>
			<trkpt lat="50.92277564677955" lon="6.707171525922994">
				<ele>128.0</ele>
				<time>2011-02-16T16:50:05Z</time>
			</trkpt>
			<trkpt lat="50.92277564677955" lon="6.707171525922994">
				<ele>128.0</ele>
				<time>2011-02-16T16:50:06Z</time>
			</trkpt>
			<trkpt lat="50.92277564677955" lon="6.707171525922994">
				<ele>128.0</ele>
				<time>2011-02-16T16:50:07Z</time>
			</trkpt>
			<trkpt lat="50.92277564677955" lon="6.707171525922994">
				<ele>128.0</ele>
				<time>2011-02-16T16:50:08Z</time>
			</trkpt>
			<trkpt lat="50.92277564677955" lon="6.707171525922994">
				<ele>128.0</ele>
				<time>2011-02-16T16:50:09Z</time>
			</trkpt>
			<trkpt lat="50.92277564677955" lon="6.707171525922994">
				<ele>128.0</ele>
				<time>2011-02-16T16:50:10Z</time>
			</trkpt>
			<trkpt lat="50.92277564677955" lon="6.707171525922994">
				<ele>128.0</ele>
				<time>2011-02-16T16:50:11Z</time>
			</trkpt>
			<trkpt lat="50.92277564677955" lon="6.707171525922994">
				<ele>128.0</ele>
				<time>2011-02-16T16:50:12Z</time>
			</trkpt>
			<trkpt lat="50.92277564677955" lon="6.707171525922994">
				<ele>128.0</ele>
				<time>2011-02-16T16:50:13Z</time>
			</trkpt>
			<trkpt lat="50.92277564677955" lon="6.707171525922994">
				<ele>128.0</ele>
				<time>2011-02-16T16:50:14Z</time>
			</trkpt>
			<trkpt lat="50.92277564677955" lon="6.707171525922994">
				<ele>128.0</ele>
				<time>2011-02-16T16:50:15Z</time>
			</trkpt>
			<trkpt lat="50.92277564677955" lon="6.707171525922994">
				<ele>128.0</ele>
				<time>2011-02-16T16:50:16Z</time>
			</trkpt>
			<trkpt lat="50.92277564677955" lon="6.707171525922994">
				<ele>128.0</ele>
				<time>2011-02-16T16:50:17Z</time>
			</trkpt>
			<trkpt lat="50.92277564677955" lon="6.707171525922994">
				<ele>128.0</ele>
				<time>2011-02-16T16:50:18Z</time>
			</trkpt>
			<trkpt lat="50.92277564677955" lon="6.707171525922994">
				<ele>128.0</ele>
				<time>2011-02-16T16:50:19Z</time>
			</trkpt>
			<trkpt lat="50.92277564677955" lon="6.707171525922994">
				<ele>128.0</ele>
				<time>2011-02-16T16:50:20Z</time>
			</trkpt>
			<trkpt lat="50.92277564677955" lon="6.707171525922994">
				<ele>128.0</ele>
				<time>2011-02-16T16:50:21Z</time>
			</trkpt>
			<trkpt lat="50.92277564677955" lon="6.707171525922994">
				<ele>128.0</ele>
				<time>2011-02-16T16:50:22Z</time>
			</trkpt>
			<trkpt lat="50.92277564677955" lon="6.707171525922994">
				<ele>128.0</ele>
				<time>2011-02-16T16:50:23Z</time>
			</trkpt>
			<trkpt lat="50.92277564677955" lon="6.707171525922994">
				<ele>128.0</ele>
				<time>2011-02-16T16:50:24Z</time>
			</trkpt>
			<trkpt lat="50.92277564677955" lon="6.707171525922994">
				<ele>128.0</ele>
				<time>2011-02-16T16:50:25Z</time>
			</trkpt>
			<trkpt lat="50.92277564677955" lon="6.707171525922994">
				<ele>128.0</ele>
				<time>2011-02-16T16:50:26Z</time>
			</trkpt>
			<trkpt lat="50.92277564677955" lon="6.707171525922994">
				<ele>128.0</ele>
				<time>2011-02-16T16:50:27Z</time>
			</trkpt>
			<trkpt lat="50.92277564677955" lon="6.707171525922994">
				<ele>128.0</ele>
				<time>2011-02-16T16:50:28Z</time>
			</trkpt>
			<trkpt lat="50.92277564677955" lon="6.707171525922994">
				<ele>128.0</ele>
				<time>2011-02-16T16:50:29Z</time>
			</trkpt>
			<trkpt lat="50.92277564677955" lon="6.707171525922994">
				<ele>128.0</ele>
				<time>2011-02-16T16:50:30Z</time>
			</trkpt>
			<trkpt lat="50.92277564677955" lon="6.707171525922994">
				<ele>128.0</ele>
				<time>2011-02-16T16:50:31Z</time>
			</trkpt>
			<trkpt lat="50.92277564677955" lon="6.707171525922994">
				<ele>128.0</ele>
				<time>2011-02-16T16:50:32Z</time>
			</trkpt>
			<trkpt lat="50.92277564677955" lon="6.707171525922994">
				<ele>128.0</ele>
				<time>2011-02-16T16:50:33Z</time>
			</trkpt>
			<trkpt lat="50.92277564677955" lon="6.707171525922994">
				<ele>128.0</ele>
				<time>2011-02-16T16:50:34Z</time>
			</trkpt>
			<trkpt lat="50.92277564677955" lon="6.707171525922994">
				<ele>128.0</ele>
				<time>2011-02-16T16:50:35Z</time>
			</trkpt>
			<trkpt lat="50.92277564677955" lon="6.707171525922994">
				<ele>128.0</ele>
				<time>2011-02-16T16:50:36Z</time>
			</trkpt>
			<trkpt lat="50.92277564677955" lon="6.707171525922994">
				<ele>128.0</ele>
				<time>2011-02-16T16:50:37Z</time>
			</trkpt>
			<trkpt lat="50.92277564677955" lon="6.707171525922994">
				<ele>128.0</ele>
				<time>2011-02-16T16:50:38Z</time>
			</trkpt>
			<trkpt lat="50.92277564677955" lon="6.707171525922994">
				<ele>128.0</ele>
				<time>2011-02-16T16:50:39Z</time>
			</trkpt>
			<trkpt lat="50.92277564677955" lon="6.707171525922994">
				<ele>128.0</ele>
				<time>2011-02-16T16:50:40Z</time>
			</trkpt>
		</trkseg>
	</trk>
	<wpt lat="50.87230449986082" lon="6.699307441484459">
		<ele>132.0</ele>
		<time>2011-02-16T15:56:01Z</time>
		<name><![CDATA[Bushaltestelle]]></name>
		<sat>10</sat>
	</wpt>
	<wpt lat="50.87048006252363" lon="6.696274624163257">
		<ele>137.0</ele>
		<time>2011-02-16T15:57:10Z</time>
		<name><![CDATA[Bushaltestelle]]></name>
		<sat>9</sat>
	</wpt>
	<wpt lat="50.8693939896154" lon="6.692599978875127">
		<ele>137.0</ele>
		<time>2011-02-16T15:58:07Z</time>
		<name><![CDATA[Briefkasten]]></name>
		<sat>9</sat>
	</wpt>
	<wpt lat="50.8693939896154" lon="6.692599978875127">
		<ele>137.0</ele>
		<time>2011-02-16T15:58:11Z</time>
		<name><![CDATA[Bankautomat]]></name>
		<sat>9</sat>
	</wpt>
	<wpt lat="50.86892335203501" lon="6.693370713921201">
		<ele>138.0</ele>
		<time>2011-02-16T15:58:46Z</time>
		<name><![CDATA[Bushaltestelle]]></name>
		<sat>9</sat>
	</wpt>
	<wpt lat="50.86792097813072" lon="6.6863003148224065">
		<ele>135.0</ele>
		<time>2011-02-16T15:59:50Z</time>
		<name><![CDATA[Bushaltestelle]]></name>
		<sat>10</sat>
	</wpt>
	<wpt lat="50.867843129674" lon="6.687329646853008">
		<ele>133.0</ele>
		<time>2011-02-16T16:00:21Z</time>
		<name><![CDATA[Bushaltestelle]]></name>
		<sat>9</sat>
	</wpt>
	<wpt lat="50.86905028485848" lon="6.687109650619597">
		<ele>132.0</ele>
		<time>2011-02-16T16:01:06Z</time>
		<name><![CDATA[Bushaltestelle]]></name>
		<sat>9</sat>
	</wpt>
	<wpt lat="50.873336529340435" lon="6.684892051653337">
		<ele>135.0</ele>
		<time>2011-02-16T16:02:40Z</time>
		<name><![CDATA[Bushaltestelle]]></name>
		<sat>9</sat>
	</wpt>
	<wpt lat="50.87364145917503" lon="6.685511556554145">
		<ele>136.0</ele>
		<time>2011-02-16T16:02:54Z</time>
		<name><![CDATA[Bushaltestelle]]></name>
		<sat>11</sat>
	</wpt>
	<wpt lat="50.87392366385389" lon="6.6858982153507736">
		<ele>136.0</ele>
		<time>2011-02-16T16:03:10Z</time>
		<name><![CDATA[Briefkasten]]></name>
		<sat>10</sat>
	</wpt>
	<wpt lat="50.87559618944942" lon="6.691119358972763">
		<ele>135.0</ele>
		<time>2011-02-16T16:04:05Z</time>
		<name><![CDATA[Bushaltestelle]]></name>
		<sat>10</sat>
	</wpt>
	<wpt lat="50.87565701401604" lon="6.692047074575663">
		<ele>133.0</ele>
		<time>2011-02-16T16:04:15Z</time>
		<name><![CDATA[Bushaltestelle]]></name>
		<sat>10</sat>
	</wpt>
	<wpt lat="50.87860380699466" lon="6.694008440358174">
		<ele>130.0</ele>
		<time>2011-02-16T16:05:01Z</time>
		<name><![CDATA[Bushaltestelle]]></name>
		<sat>10</sat>
	</wpt>
	<wpt lat="50.87933332877849" lon="6.69427059551405">
		<ele>130.0</ele>
		<time>2011-02-16T16:05:09Z</time>
		<name><![CDATA[Bushaltestelle]]></name>
		<sat>10</sat>
	</wpt>
	<wpt lat="50.880271687582315" lon="6.693197795540703">
		<ele>129.0</ele>
		<time>2011-02-16T16:06:06Z</time>
		<name><![CDATA[Briefkasten]]></name>
		<sat>11</sat>
	</wpt>
	<wpt lat="50.881250554210865" lon="6.69276427978614">
		<ele>127.0</ele>
		<time>2011-02-16T16:06:45Z</time>
		<name><![CDATA[Bushaltestelle]]></name>
		<sat>11</sat>
	</wpt>
	<wpt lat="50.881418061930184" lon="6.692004423465819">
		<ele>126.0</ele>
		<time>2011-02-16T16:06:54Z</time>
		<name><![CDATA[Bushaltestelle]]></name>
		<sat>11</sat>
	</wpt>
	<wpt lat="50.89723764400692" lon="6.683431583098758">
		<ele>126.0</ele>
		<time>2011-02-16T16:11:56Z</time>
		<name><![CDATA[Bushaltestelle]]></name>
		<sat>9</sat>
	</wpt>
	<wpt lat="50.89958486470251" lon="6.680906566880584">
		<ele>122.0</ele>
		<time>2011-02-16T16:12:52Z</time>
		<name><![CDATA[Bushaltestelle]]></name>
		<sat>10</sat>
	</wpt>
	<wpt lat="50.900017881762494" lon="6.680471370110541">
		<ele>122.0</ele>
		<time>2011-02-16T16:12:58Z</time>
		<name><![CDATA[Bushaltestelle]]></name>
		<sat>10</sat>
	</wpt>
	<wpt lat="50.900164548522724" lon="6.680322892364487">
		<ele>122.0</ele>
		<time>2011-02-16T16:13:00Z</time>
		<name><![CDATA[Telefon]]></name>
		<sat>10</sat>
	</wpt>
	<wpt lat="50.90416724050937" lon="6.676277994774749">
		<ele>118.0</ele>
		<time>2011-02-16T16:14:18Z</time>
		<name><![CDATA[Briefkasten]]></name>
		<sat>8</sat>
	</wpt>
	<wpt lat="50.90428439996523" lon="6.676166545747723">
		<ele>118.0</ele>
		<time>2011-02-16T16:14:20Z</time>
		<name><![CDATA[Bankautomat]]></name>
		<sat>9</sat>
	</wpt>
	<wpt lat="50.90558842803066" lon="6.67481569306402">
		<ele>118.0</ele>
		<time>2011-02-16T16:14:38Z</time>
		<name><![CDATA[Bushaltestelle]]></name>
		<sat>9</sat>
	</wpt>
	<wpt lat="50.90846096361852" lon="6.672923324118431">
		<ele>121.0</ele>
		<time>2011-02-16T16:15:13Z</time>
		<name><![CDATA[Bushaltestelle]]></name>
		<sat>8</sat>
	</wpt>
	<wpt lat="50.90881469334556" lon="6.673615425435993">
		<ele>122.0</ele>
		<time>2011-02-16T16:15:21Z</time>
		<name><![CDATA[Telefon]]></name>
		<sat>9</sat>
	</wpt>
	<wpt lat="50.910758870486326" lon="6.680933366141455">
		<ele>122.0</ele>
		<time>2011-02-16T16:16:20Z</time>
		<name><![CDATA[Bushaltestelle]]></name>
		<sat>9</sat>
	</wpt>
	<wpt lat="50.91213289916959" lon="6.689567838633046">
		<ele>121.0</ele>
		<time>2011-02-16T16:17:28Z</time>
		<name><![CDATA[Bushaltestelle]]></name>
		<sat>11</sat>
	</wpt>
	<wpt lat="50.91193737318103" lon="6.688426504542678">
		<ele>122.0</ele>
		<time>2011-02-16T16:17:48Z</time>
		<name><![CDATA[Bushaltestelle]]></name>
		<sat>11</sat>
	</wpt>
	<wpt lat="50.90022843257808" lon="6.682650353583218">
		<ele>124.0</ele>
		<time>2011-02-16T16:19:59Z</time>
		<name><![CDATA[Briefkasten]]></name>
		<sat>10</sat>
	</wpt>
	<wpt lat="50.89734697835433" lon="6.683123774955062">
		<ele>127.0</ele>
		<time>2011-02-16T16:21:03Z</time>
		<name><![CDATA[Bushaltestelle]]></name>
		<sat>10</sat>
	</wpt>
	<wpt lat="50.89574493657532" lon="6.6763375451409">
		<ele>127.0</ele>
		<time>2011-02-16T16:22:21Z</time>
		<name><![CDATA[Bushaltestelle]]></name>
		<sat>9</sat>
	</wpt>
	<wpt lat="50.89568329145976" lon="6.675961918841623">
		<ele>128.0</ele>
		<time>2011-02-16T16:22:25Z</time>
		<name><![CDATA[Briefkasten]]></name>
		<sat>9</sat>
	</wpt>
	<wpt lat="50.89462889947605" lon="6.676468541235481">
		<ele>128.0</ele>
		<time>2011-02-16T16:22:53Z</time>
		<name><![CDATA[Bushaltestelle]]></name>
		<sat>10</sat>
	</wpt>
	<wpt lat="50.894096424652915" lon="6.677133055610365">
		<ele>128.0</ele>
		<time>2011-02-16T16:23:04Z</time>
		<name><![CDATA[Briefkasten]]></name>
		<sat>10</sat>
	</wpt>
	<wpt lat="50.89307421804439" lon="6.666776892502792">
		<ele>130.0</ele>
		<time>2011-02-16T16:29:59Z</time>
		<name><![CDATA[Bushaltestelle]]></name>
		<sat>11</sat>
	</wpt>
	<wpt lat="50.89772377773617" lon="6.660049561310545">
		<ele>127.0</ele>
		<time>2011-02-16T16:32:40Z</time>
		<name><![CDATA[Bushaltestelle]]></name>
		<sat>11</sat>
	</wpt>
	<wpt lat="50.89912939956738" lon="6.664913401639404">
		<ele>126.0</ele>
		<time>2011-02-16T16:33:12Z</time>
		<name><![CDATA[Bushaltestelle]]></name>
		<sat>10</sat>
	</wpt>
	<wpt lat="50.90345836879905" lon="6.679708291632087">
		<ele>123.0</ele>
		<time>2011-02-16T16:36:08Z</time>
		<name><![CDATA[Bushaltestelle]]></name>
		<sat>7</sat>
	</wpt>
	<wpt lat="50.90636907579686" lon="6.680477168554893">
		<ele>125.0</ele>
		<time>2011-02-16T16:37:31Z</time>
		<name><![CDATA[Bushaltestelle]]></name>
		<sat>9</sat>
	</wpt>
	<wpt lat="50.90647739536717" lon="6.680870473737418">
		<ele>124.0</ele>
		<time>2011-02-16T16:37:36Z</time>
		<name><![CDATA[Bushaltestelle]]></name>
		<sat>9</sat>
	</wpt>
	<wpt lat="50.90685882643463" lon="6.682093052096851">
		<ele>123.0</ele>
		<time>2011-02-16T16:37:49Z</time>
		<name><![CDATA[Telefon]]></name>
		<sat>9</sat>
	</wpt>
	<wpt lat="50.910112227999576" lon="6.682836268412567">
		<ele>121.0</ele>
		<time>2011-02-16T16:38:47Z</time>
		<name><![CDATA[Telefon]]></name>
		<sat>8</sat>
	</wpt>
	<wpt lat="50.91061906225791" lon="6.6825206063789535">
		<ele>122.0</ele>
		<time>2011-02-16T16:39:02Z</time>
		<name><![CDATA[Bushaltestelle]]></name>
		<sat>8</sat>
	</wpt>
	<wpt lat="50.91338036533268" lon="6.6795811418729265">
		<ele>120.0</ele>
		<time>2011-02-16T16:39:56Z</time>
		<name><![CDATA[Bushaltestelle]]></name>
		<sat>9</sat>
	</wpt>
	<wpt lat="50.914537322466614" lon="6.676473211303718">
		<ele>123.0</ele>
		<time>2011-02-16T16:40:33Z</time>
		<name><![CDATA[Bushaltestelle]]></name>
		<sat>9</sat>
	</wpt>
	<wpt lat="50.913992574791045" lon="6.673723865961491">
		<ele>119.0</ele>
		<time>2011-02-16T16:41:03Z</time>
		<name><![CDATA[Briefkasten]]></name>
		<sat>9</sat>
	</wpt>
	<wpt lat="50.91196557149807" lon="6.670023802940905">
		<ele>121.0</ele>
		<time>2011-02-16T16:41:55Z</time>
		<name><![CDATA[Bushaltestelle]]></name>
		<sat>8</sat>
	</wpt>
	<wpt lat="50.91174567188963" lon="6.669349011580438">
		<ele>121.0</ele>
		<time>2011-02-16T16:42:08Z</time>
		<name><![CDATA[Bushaltestelle]]></name>
		<sat>9</sat>
	</wpt>
	<wpt lat="50.9116647504568" lon="6.669536906491444">
		<ele>122.0</ele>
		<time>2011-02-16T16:42:12Z</time>
		<name><![CDATA[Bushaltestelle]]></name>
		<sat>9</sat>
	</wpt>
	<wpt lat="50.915177543715906" lon="6.704289374483009">
		<ele>118.0</ele>
		<time>2011-02-16T16:47:09Z</time>
		<name><![CDATA[Briefkasten]]></name>
		<sat>8</sat>
	</wpt>
	<wpt lat="50.91539830318798" lon="6.707764550149292">
		<ele>120.0</ele>
		<time>2011-02-16T16:47:34Z</time>
		<name><![CDATA[Bushaltestelle]]></name>
		<sat>8</sat>
	</wpt>
	<wpt lat="50.91539154328455" lon="6.708308181170918">
		<ele>119.0</ele>
		<time>2011-02-16T16:47:39Z</time>
		<name><![CDATA[Sprachaufnahme]]></name>
		<link href="2011-02-16_17-47-16.3gpp">
			<text>2011-02-16_17-47-16.3gpp</text>
		</link>
		<sat>7</sat>
	</wpt>
	<wpt lat="50.92159774509308" lon="6.707211355580346">
		<ele>127.0</ele>
		<time>2011-02-16T16:49:39Z</time>
		<name><![CDATA[Bushaltestelle]]></name>
		<sat>8</sat>
	</wpt>
</gpx>